# Wetter Temperatur Luftdruck Luftfeuchtigkeit Sichtweite Windgeschwindigkeit Windrichtung Zeit
1 Clouds 28 1005 85 0 1.6 324 20:19 12.07.2020
2 Clouds 28 1005 85 0 1.6 324 19:40 12.07.2020
3 Rain 28 1005 85 0 1.91 324 19:21 12.07.2020
4 Rain 28 1006 84 0 1.91 324 18:57 12.07.2020
5 Rain 28 1006 84 0 1.91 324 18:38 12.07.2020
6 Rain 28 1006 85 0 1.94 322 18:18 12.07.2020
7 Clouds 29 1009 74 10000 1 0 17:39 12.07.2020
8 Clouds 29 1009 74 10000 1 0 17:21 12.07.2020
9 Clouds 29 1009 74 10000 1 0 16:48 12.07.2020
10 Clouds 29 1009 74 10000 1 0 16:25 12.07.2020
11 Clouds 30 1009 74 10000 1 0 15:58 12.07.2020
12 Clouds 30 1009 74 10000 1 0 15:40 12.07.2020
13 Clouds 30 1009 74 10000 1 0 15:20 12.07.2020
14 Clouds 30 1008 74 10000 2.1 230 14:41 12.07.2020
15 Clouds 30 1008 74 10000 2.1 230 14:22 12.07.2020
16 Clouds 30 1007 74 10000 3.6 260 13:40 12.07.2020
17 Clouds 30 1007 74 10000 3.6 260 13:21 12.07.2020
18 Clouds 31 1100 70 10000 4.1 250 12:57 12.07.2020
19 Clouds 31 1100 70 10000 4.1 250 12:39 12.07.2020
20 Clouds 31 1100 70 10000 4.1 250 12:19 12.07.2020
21 Clouds 31 1006 74 10000 5.1 260 11:55 12.07.2020
22 Clouds 31 1006 74 10000 5.1 260 11:36 12.07.2020
23 Clouds 31 1006 74 10000 5.1 260 11:18 12.07.2020
24 Clouds 32 1006 70 10000 5.1 270 10:41 12.07.2020
25 Clouds 31 1006 74 10000 5.1 260 10:19 12.07.2020
26 Clouds 32 1006 74 10000 5.1 260 09:43 12.07.2020
27 Clouds 31 1006 74 10000 5.1 260 09:21 12.07.2020
28 Rain 31 1007 70 10000 4.6 280 08:57 12.07.2020
29 Rain 31 1007 70 10000 4.6 280 08:38 12.07.2020
30 Clouds 31 1007 70 10000 4.6 280 08:18 12.07.2020
31 Clouds 31 1007 70 10000 5.1 190 07:46 12.07.2020
32 Clouds 32 1007 70 10000 5.1 190 07:27 12.07.2020
33 Clouds 33 1008 70 9000 5.1 370 06:53 12.07.2020
34 Clear 33 1008 70 9000 5.1 370 06:22 12.07.2020
35 Clouds 32 1009 70 10000 4.6 280 05:57 12.07.2020
36 Clouds 32 1009 74 9000 3.1 250 04:57 12.07.2020
37 Clouds 32 1009 74 9000 3.1 250 04:28 12.07.2020
38 Clear 32 1009 66 10000 1.5 0 03:44 12.07.2020
39 Clouds 31 1009 66 10000 1.5 0 03:23 12.07.2020
40 Clouds 29 1009 74 10000 1 0 01:50 12.07.2020
41 Clouds 27 1009 74 10000 2.45 5 00:55 12.07.2020
42 Clouds 27 1009 74 10000 2.56 2 00:24 12.07.2020
43 Clouds 27 1008 90 0 2.56 2 23:59 11.07.2020
44 Clouds 27 1007 90 0 2.56 2 23:40 11.07.2020
45 Rain 27 1007 90 0 2.74 360 23:20 11.07.2020
46 Rain 27 1007 90 0 2.74 360 22:56 11.07.2020
47 Rain 27 1007 90 0 2.74 360 22:37 11.07.2020
48 Clouds 27 1007 89 0 2.26 349 22:18 11.07.2020
49 Clouds 27 1006 88 0 2.26 349 21:42 11.07.2020
50 Rain 27 1007 87 0 0.6 307 21:23 11.07.2020
51 Rain 27 1007 86 0 0.6 307 20:59 11.07.2020
52 Rain 27 1007 86 0 0.6 307 20:59 11.07.2020
53 Rain 27 1007 86 0 0.6 307 20:40 11.07.2020
54 Rain 27 1007 86 0 0.6 307 20:40 11.07.2020
55 Clouds 27 1007 87 0 0.77 259 20:21 11.07.2020
56 Clouds 27 1007 86 0 0.77 259 19:58 11.07.2020
57 Clouds 27 1008 86 0 0.77 259 19:40 11.07.2020
58 Clouds 27 1008 85 0 0.96 222 19:22 11.07.2020
59 Clouds 27 1008 85 0 0.96 222 18:56 11.07.2020
60 Clouds 27 1008 85 0 0.96 222 18:37 11.07.2020
61 Clouds 27 1008 84 0 1.16 209 18:19 11.07.2020
62 Clouds 27 1009 84 0 1.16 209 17:43 11.07.2020
63 Clouds 27 1011 74 10000 0.5 0 17:22 11.07.2020
64 Clouds 27 1011 74 10000 0.5 0 16:59 11.07.2020
65 Clouds 27 1011 74 10000 0.5 0 16:39 11.07.2020
66 Clouds 27 1011 74 10000 0.5 0 16:20 11.07.2020
67 Clouds 27 1011 74 10000 5.7 340 15:57 11.07.2020
68 Clouds 27 1011 74 10000 5.7 340 15:37 11.07.2020
69 Clouds 28 1011 74 10000 5.7 340 15:18 11.07.2020
70 Clouds 29 1009 74 10000 1 0 14:47 11.07.2020
71 Clouds 29 1009 74 10000 1 0 14:23 11.07.2020
72 Clouds 30 1009 74 10000 1 0 13:57 11.07.2020
73 Clouds 30 1009 74 10000 1 0 13:38 11.07.2020
74 Clouds 30 1009 74 10000 1 0 13:20 11.07.2020
75 Clouds 30 1008 74 10000 2.1 220 12:44 11.07.2020
76 Clouds 30 1008 74 10000 2.1 220 12:23 11.07.2020
77 Clouds 30 1008 79 10000 3.1 240 11:59 11.07.2020
78 Clouds 30 1008 79 10000 3.1 240 11:41 11.07.2020
79 Clouds 30 1008 79 10000 3.1 240 11:19 11.07.2020
80 Clouds 30 1007 74 10000 2.1 290 10:46 11.07.2020
81 Clouds 30 1007 74 10000 2.1 290 10:28 11.07.2020
82 Clouds 31 1007 66 9000 6.7 240 09:57 11.07.2020
83 Clouds 32 1007 66 9000 6.7 240 09:37 11.07.2020
84 Clouds 33 1007 66 9000 6.7 240 09:19 11.07.2020
85 Clouds 34 1007 67 10000 4.6 310 08:41 11.07.2020
86 Clouds 34 1007 67 10000 4.6 310 08:20 11.07.2020
87 Clouds 33 1008 66 10000 5.1 270 07:54 11.07.2020
88 Clouds 33 1008 66 10000 5.1 270 07:36 11.07.2020
89 Clouds 33 1008 66 10000 5.1 270 07:18 11.07.2020
90 Clouds 33 1008 70 10000 4.1 280 06:24 11.07.2020
91 Clouds 32 1009 74 9000 3.1 280 05:54 11.07.2020
92 Clouds 32 1009 74 9000 3.1 280 05:18 11.07.2020
93 Clouds 33 1008 75 0 1.79 160 04:39 11.07.2020
94 Clouds 33 1008 76 0 0.45 320 04:19 11.07.2020
95 Clouds 30 1008 77 0 0.45 156 02:52 11.07.2020
96 Clouds 29 1010 79 9000 0.5 0 01:56 11.07.2020
97 Clouds 28 1009 78 10000 0.5 0 01:21 11.07.2020
98 Clouds 27 1008 91 0 2.26 122 00:41 11.07.2020
99 Clouds 27 1008 91 0 2.26 118 00:23 11.07.2020
100 Clouds 27 1008 91 0 1.34 21 23:58 10.07.2020
101 Clouds 27 1008 91 0 1.34 14 23:40 10.07.2020
102 Clouds 27 1008 90 0 0.89 19 23:21 10.07.2020
103 Clouds 27 1007 88 0 0.45 357 22:49 10.07.2020
104 Clouds 27 1008 88 0 0.45 332 22:24 10.07.2020
105 Clouds 27 1007 88 0 0.89 292 21:59 10.07.2020
106 Clouds 27 1008 89 0 0.45 292 21:38 10.07.2020
107 Rain 27 1008 88 0 1.42 125 21:20 10.07.2020
108 Rain 27 1007 87 0 1.34 6 20:43 10.07.2020
109 Rain 27 1008 86 0 1.34 8 20:24 10.07.2020
110 Rain 27 1008 89 0 1.79 359 19:59 10.07.2020
111 Rain 27 1008 90 0 0.89 5 19:41 10.07.2020
112 Rain 27 1009 90 0 0.45 22 19:21 10.07.2020
113 Rain 27 1009 91 0 2.24 13 18:54 10.07.2020
114 Rain 28 1009 89 0 3.13 303 18:36 10.07.2020
115 Rain 28 1009 87 0 0.89 314 18:18 10.07.2020
116 Rain 27 1009 88 0 1.64 144 17:41 10.07.2020
117 Clouds 28 1010 88 10000 1 0 17:22 10.07.2020
118 Clouds 28 1010 88 10000 1 0 16:57 10.07.2020
119 Clouds 28 1010 88 10000 1 0 16:38 10.07.2020
120 Clouds 28 1010 88 10000 1 0 16:18 10.07.2020
121 Clouds 28 1010 83 7000 2.1 130 15:43 10.07.2020
122 Clouds 28 1010 83 7000 2.1 130 15:20 10.07.2020
123 Clouds 29 1010 70 10000 1 0 14:43 10.07.2020
124 Clouds 29 1010 70 10000 1 0 14:23 10.07.2020
125 Clouds 29 1008 74 10000 1 0 13:58 10.07.2020
126 Clouds 29 1008 74 10000 1 0 13:58 10.07.2020
127 Clouds 29 1008 74 10000 1 0 13:40 10.07.2020
128 Clouds 29 1008 74 10000 1 0 13:22 10.07.2020
129 Clouds 30 1008 70 10000 3.1 230 12:59 10.07.2020
130 Clouds 30 1008 70 10000 3.1 230 12:40 10.07.2020
131 Clouds 30 1008 70 10000 3.1 230 12:22 10.07.2020
132 Clouds 32 1008 63 10000 2.6 220 11:43 10.07.2020
133 Clouds 32 1008 63 10000 2.6 220 11:22 10.07.2020
134 Clouds 32 1007 66 9000 3.6 280 10:58 10.07.2020
135 Clouds 32 1007 66 9000 3.6 280 10:40 10.07.2020
136 Clouds 33 1007 66 10000 4.6 230 10:21 10.07.2020
137 Clouds 33 1007 66 10000 4.6 230 09:42 10.07.2020
138 Rain 34 1005 74 0 1.79 165 09:23 10.07.2020
139 Clouds 35 1007 44 10000 2.6 0 08:59 10.07.2020
140 Clouds 36 1007 44 10000 2.6 0 08:41 10.07.2020
141 Clouds 36 1007 44 10000 2.6 0 08:23 10.07.2020
142 Rain 36 1008 50 10000 3.1 120 07:48 10.07.2020
143 Rain 35 1008 50 10000 3.1 120 07:24 10.07.2020
144 Clouds 35 1008 47 10000 3.1 120 06:58 10.07.2020
145 Clouds 35 1008 47 10000 3.1 120 06:40 10.07.2020
146 Clouds 34 1008 50 10000 3.1 110 05:50 10.07.2020
147 Clouds 33 1009 66 9000 2.6 0 04:29 10.07.2020
148 Clouds 32 1009 74 9000 2.1 90 02:55 10.07.2020
149 Clouds 32 1009 74 9000 2.1 90 02:35 10.07.2020
150 Clouds 28 1008 83 10000 0.5 0 00:56 10.07.2020
151 Clouds 28 1008 83 10000 0.5 0 00:38 10.07.2020
152 Clouds 28 1008 83 10000 0.5 0 00:18 10.07.2020
153 Clouds 27 1007 90 0 2.57 121 23:38 09.07.2020
154 Clouds 27 1007 89 0 2.62 120 23:19 09.07.2020
155 Clouds 28 1007 90 0 2.62 120 22:56 09.07.2020
156 Clouds 28 1007 90 0 0.45 337 22:38 09.07.2020
157 Clouds 28 1007 88 0 2.47 118 22:20 09.07.2020
158 Clouds 28 1006 88 0 2.47 118 21:55 09.07.2020
159 Clouds 28 1006 88 0 2.47 118 21:36 09.07.2020
160 Clouds 28 1006 88 0 2.47 118 21:36 09.07.2020
161 Clouds 28 1006 88 0 2.41 129 21:18 09.07.2020
162 Clouds 29 1007 87 0 2.41 129 20:41 09.07.2020
163 Clouds 29 1006 87 0 2.66 137 20:23 09.07.2020
164 Clouds 29 1007 87 0 2.66 137 19:43 09.07.2020
165 Rain 29 1007 88 0 2.82 137 19:22 09.07.2020
166 Rain 29 1007 87 0 2.82 137 18:59 09.07.2020
167 Rain 29 1007 87 0 2.82 137 18:41 09.07.2020
168 Rain 29 1007 87 0 2.7 146 18:19 09.07.2020
169 Rain 29 1007 87 0 2.7 146 17:43 09.07.2020
170 Rain 29 1008 74 10000 1 0 17:23 09.07.2020
171 Rain 30 1008 74 10000 1 0 16:58 09.07.2020
172 Rain 29 1008 74 10000 1 0 16:39 09.07.2020
173 Rain 29 1008 74 10000 1 0 16:19 09.07.2020
174 Rain 29 1008 74 10000 1 0 16:19 09.07.2020
175 Rain 29 1008 70 10000 1.5 120 15:59 09.07.2020
176 Rain 29 1008 70 10000 1.5 120 15:38 09.07.2020
177 Rain 29 1008 70 10000 1.5 120 15:20 09.07.2020
178 Clouds 29 1007 66 10000 1.5 90 14:58 09.07.2020
179 Clouds 29 1007 66 10000 1.5 90 14:40 09.07.2020
180 Clouds 29 1007 66 10000 1.5 90 14:20 09.07.2020
181 Clouds 28 1006 66 10000 2.1 50 13:56 09.07.2020
182 Clouds 28 1006 66 10000 2.1 50 13:38 09.07.2020
183 Clouds 29 1006 66 10000 2.1 50 13:19 09.07.2020
184 Rain 31 1006 66 9000 3.1 290 12:42 09.07.2020
185 Rain 31 1006 66 9000 3.1 290 12:23 09.07.2020
186 Rain 31 1005 66 10000 2.6 260 11:57 09.07.2020
187 Rain 31 1005 66 10000 2.6 260 11:39 09.07.2020
188 Rain 31 1005 66 10000 2.6 260 11:19 09.07.2020
189 Clouds 33 1005 63 10000 3.3 221 10:56 09.07.2020
190 Clouds 33 1005 63 10000 3.3 221 10:56 09.07.2020
191 Clouds 33 1005 63 10000 3.3 221 10:38 09.07.2020
192 Clouds 33 1005 63 10000 2.25 230 10:19 09.07.2020
193 Rain 35 1005 63 10000 3.1 280 09:43 09.07.2020
194 Clouds 35 1005 63 10000 3.1 280 09:23 09.07.2020
195 Clouds 34 1005 41 10000 2.6 0 08:49 09.07.2020
196 Clouds 35 1006 50 10000 3.1 0 08:26 09.07.2020
197 Clouds 36 1006 50 10000 3.1 0 07:56 09.07.2020
198 Clouds 35 1006 50 10000 3.1 0 07:37 09.07.2020
199 Clouds 35 1006 50 10000 3.1 0 07:19 09.07.2020
200 Clouds 34 1007 50 10000 3.1 0 06:20 09.07.2020
201 Clouds 34 1008 56 10000 3.1 0 05:50 09.07.2020
202 Clouds 33 1008 66 10000 3.1 120 04:29 09.07.2020
203 Clouds 32 1008 66 10000 3.1 120 03:19 09.07.2020
204 Clouds 30 1007 83 10000 1 0 01:55 09.07.2020
205 Clouds 28 1007 83 10000 1 0 00:59 09.07.2020
206 Clouds 28 1006 85 0 1.34 136 00:38 09.07.2020
207 Clouds 27 1006 87 0 2.84 123 00:19 09.07.2020
208 Clouds 27 1006 89 0 2.84 123 23:43 08.07.2020
209 Clouds 27 1006 90 0 2.73 123 23:24 08.07.2020
210 Clouds 27 1006 90 0 2.73 123 22:55 08.07.2020
211 Clouds 27 1005 90 0 2.73 123 22:36 08.07.2020
212 Clouds 27 1006 89 0 2.34 119 22:18 08.07.2020
213 Clouds 27 1006 90 0 2.34 119 21:39 08.07.2020
214 Clouds 27 1006 90 0 2.32 116 21:21 08.07.2020
215 Clouds 27 1006 89 0 2.32 116 20:59 08.07.2020
216 Clouds 27 1006 89 0 2.32 116 20:41 08.07.2020
217 Clouds 27 1006 89 0 2.13 117 20:23 08.07.2020
218 Clouds 27 1006 87 0 0.45 355 19:43 08.07.2020
219 Clouds 27 1006 87 0 2.23 113 19:25 08.07.2020
220 Clouds 28 1006 86 0 0.89 354 18:59 08.07.2020
221 Clouds 28 1007 85 0 2.24 3 18:40 08.07.2020
222 Clouds 28 1007 84 0 2.68 10 18:21 08.07.2020
223 Clouds 28 1007 84 0 0.89 329 17:56 08.07.2020
224 Clouds 29 1008 70 10000 3.1 10 17:38 08.07.2020
225 Clouds 29 1008 70 10000 3.1 10 17:20 08.07.2020
226 Clouds 29 1008 70 10000 3.1 10 16:55 08.07.2020
227 Clouds 29 1008 70 10000 3.1 10 16:36 08.07.2020
228 Clouds 29 1008 70 10000 3.1 10 16:18 08.07.2020
229 Rain 29 1008 66 10000 2.1 20 15:56 08.07.2020
230 Rain 29 1008 66 10000 2.1 20 15:37 08.07.2020
231 Clouds 29 1008 66 10000 2.1 20 15:18 08.07.2020
232 Clouds 29 1008 70 10000 1.5 90 14:42 08.07.2020
233 Rain 30 1008 70 10000 1.5 90 14:20 08.07.2020
234 Clouds 30 1007 66 10000 1 80 13:45 08.07.2020
235 Clouds 30 1007 66 10000 1 80 13:27 08.07.2020
236 Clouds 30 1007 70 10000 2.6 70 12:58 08.07.2020
237 Clouds 30 1007 70 10000 2.6 70 12:38 08.07.2020
238 Rain 31 1007 70 10000 2.6 70 12:19 08.07.2020
239 Rain 32 1006 66 10000 3.6 100 11:39 08.07.2020
240 Rain 32 1006 66 10000 3.6 100 11:20 08.07.2020
241 Rain 31 1007 74 9000 3.1 50 10:56 08.07.2020
242 Rain 31 1007 74 9000 3.1 50 10:56 08.07.2020
243 Rain 31 1007 74 9000 3.1 50 10:38 08.07.2020
244 Rain 31 1007 74 9000 3.1 50 10:19 08.07.2020
245 Clouds 33 1007 53 10000 4.1 130 09:41 08.07.2020
246 Clouds 34 1008 59 0 3.13 131 09:23 08.07.2020
247 Clouds 35 1004 53 9000 3.6 120 08:43 08.07.2020
248 Clouds 35 1004 53 9000 3.6 120 08:24 08.07.2020
249 Rain 33 1008 66 10000 2.6 310 07:47 08.07.2020
250 Clouds 33 1008 66 10000 2.6 310 07:24 08.07.2020
251 Clouds 33 1009 63 10000 4.1 320 06:55 08.07.2020
252 Clouds 32 1009 63 10000 4.1 320 06:36 08.07.2020
253 Clouds 32 1009 66 10000 4.1 320 05:55 08.07.2020
254 Clouds 32 1009 66 10000 4.1 320 05:24 08.07.2020
255 Clouds 33 1010 63 10000 2.1 0 04:36 08.07.2020
256 Clouds 31 1010 66 10000 2.1 70 02:42 08.07.2020
257 Clouds 31 1009 66 10000 0.5 0 01:46 08.07.2020
258 Clouds 30 1009 66 10000 0.5 0 01:23 08.07.2020
259 Clouds 29 1011 63 10000 3.1 110 00:26 08.07.2020
260 Clouds 29 1011 63 10000 3.1 110 23:56 07.07.2020
261 Clouds 29 1011 63 10000 3.1 110 23:37 07.07.2020
262 Clouds 29 1011 63 10000 3.1 110 23:19 07.07.2020
263 Clouds 30 1011 63 10000 3.1 110 22:43 07.07.2020
264 Clouds 29 1011 63 10000 3.1 110 22:23 07.07.2020
265 Clouds 28 1007 82 0 1.81 66 21:59 07.07.2020
266 Clouds 28 1007 81 0 1.81 66 21:40 07.07.2020
267 Clouds 28 1008 81 0 1.97 59 21:21 07.07.2020
268 Clouds 28 1008 81 0 1.97 59 20:57 07.07.2020
269 Clouds 28 1008 80 0 1.97 59 20:39 07.07.2020
270 Clouds 28 1008 80 0 2.3 50 20:20 07.07.2020
271 Clouds 28 1008 80 0 2.3 50 19:41 07.07.2020
272 Clouds 28 1008 80 0 2.67 69 19:21 07.07.2020
273 Clouds 28 1009 81 0 2.67 69 18:57 07.07.2020
274 Clouds 29 1009 81 0 0.45 335 18:38 07.07.2020
275 Clouds 29 1009 81 0 0.45 335 18:38 07.07.2020
276 Clouds 29 1009 80 0 0.89 356 18:20 07.07.2020
277 Clouds 29 1009 79 0 1.34 342 17:58 07.07.2020
278 Clouds 29 1009 78 0 0.45 354 17:38 07.07.2020
279 Clouds 29 1009 77 0 3.14 95 17:20 07.07.2020
280 Clouds 29 1009 77 0 3.14 95 17:20 07.07.2020
281 Clouds 30 1009 71 0 0.45 350 16:43 07.07.2020
282 Clouds 30 1009 70 0 3.74 101 16:24 07.07.2020
283 Clouds 30 1009 70 0 3.74 101 15:58 07.07.2020
284 Clouds 30 1009 70 0 3.74 101 15:39 07.07.2020
285 Clear 30 1009 70 0 0.45 118 15:20 07.07.2020
286 Clear 30 1009 70 0 0.45 118 15:20 07.07.2020
287 Clear 31 1009 70 0 3.9 98 14:46 07.07.2020
288 Rain 31 1008 71 0 4.34 99 14:25 07.07.2020
289 Clouds 31 1008 71 0 4.07 91 14:25 07.07.2020
290 Rain 31 1008 72 0 4.34 99 13:46 07.07.2020
291 Clouds 31 1008 73 0 4.2 95 13:22 07.07.2020
292 Clouds 31 1008 75 0 4.2 95 12:59 07.07.2020
293 Clouds 32 1008 75 0 0.45 23 12:40 07.07.2020
294 Clouds 32 1008 72 0 1.79 11 12:22 07.07.2020
295 Clouds 32 1007 70 0 1.34 15 11:49 07.07.2020
296 Clouds 32 1007 71 0 0.89 333 11:25 07.07.2020
297 Clouds 31 1007 74 0 1.79 325 10:59 07.07.2020
298 Clouds 31 1007 80 0 0.89 16 10:41 07.07.2020
299 Clouds 32 1007 82 0 3.13 352 10:21 07.07.2020
300 Clouds 34 1007 67 0 0.89 205 09:55 07.07.2020
301 Clouds 34 1007 68 0 0.89 278 09:37 07.07.2020
302 Clouds 34 1007 68 0 0.89 278 09:37 07.07.2020
303 Clouds 35 1007 67 0 0.45 173 09:18 07.07.2020
304 Clouds 35 1007 63 0 1.34 252 08:40 07.07.2020
305 Clouds 34 1008 64 0 1.79 211 08:21 07.07.2020
306 Clouds 34 1008 65 0 0.45 262 07:41 07.07.2020
307 Clouds 34 1008 72 0 1.79 179 07:21 07.07.2020
308 Clouds 33 1009 76 0 1.34 182 06:49 07.07.2020
309 Clouds 34 1012 58 0 3.13 159 06:28 07.07.2020
310 Clouds 34 1012 60 0 3.58 181 05:51 07.07.2020
311 Clouds 34 1012 63 0 2.24 109 05:20 07.07.2020
312 Clouds 34 1013 62 0 3.58 115 04:36 07.07.2020
313 Clouds 32 1011 62 9000 1.5 0 03:35 07.07.2020
314 Clouds 32 1011 62 9000 1.5 0 02:21 07.07.2020
315 Clouds 30 1011 70 10000 1.5 50 01:22 07.07.2020
316 Rain 27 1010 83 10000 1.5 60 00:42 07.07.2020
317 Rain 27 1010 83 10000 1.5 60 00:23 07.07.2020
318 Rain 27 1010 83 10000 2.1 80 23:45 06.07.2020
319 Rain 27 1010 83 10000 2.1 80 23:26 06.07.2020
320 Rain 27 1009 93 0 2.6 104 22:59 06.07.2020
321 Rain 27 1009 94 0 2.6 104 22:40 06.07.2020
322 Rain 27 1009 94 0 2.6 104 22:40 06.07.2020
323 Rain 27 1009 89 0 2.32 88 22:19 06.07.2020
324 Clear 27 1009 88 0 2.32 88 21:57 06.07.2020
325 Clouds 27 1009 88 0 2.56 89 21:37 06.07.2020
326 Clouds 27 1009 89 0 2.21 72 21:19 06.07.2020
327 Clouds 27 1009 89 0 2.21 72 20:55 06.07.2020
328 Clouds 27 1009 90 0 0.45 19 20:36 06.07.2020
329 Clear 27 1009 91 0 2.17 56 20:18 06.07.2020
330 Clear 27 1010 91 0 2.17 56 19:54 06.07.2020
331 Clear 27 1009 92 0 2.17 56 19:36 06.07.2020
332 Clear 27 1010 92 0 0.89 11 19:18 06.07.2020
333 Clear 27 1010 91 0 1.34 286 18:41 06.07.2020
334 Rain 27 1010 92 0 0.89 356 18:23 06.07.2020
335 Rain 28 1010 92 0 2.24 334 17:58 06.07.2020
336 Rain 28 1012 79 10000 1 0 17:39 06.07.2020
337 Clear 28 1012 79 10000 1 0 17:20 06.07.2020
338 Clear 29 1012 79 10000 1 0 16:43 06.07.2020
339 Clear 29 1012 79 10000 1 0 16:24 06.07.2020
340 Clear 29 1012 79 10000 1 0 16:24 06.07.2020
341 Clouds 29 1011 79 10000 1.5 80 15:57 06.07.2020
342 Clouds 29 1011 79 10000 1.5 80 15:38 06.07.2020
343 Clouds 29 1011 79 10000 1.5 80 15:20 06.07.2020
344 Rain 29 1011 79 10000 2.6 10 14:55 06.07.2020
345 Rain 29 1011 79 10000 2.6 10 14:36 06.07.2020
346 Rain 29 1011 79 10000 2.6 10 14:18 06.07.2020
347 Clouds 29 1010 70 10000 1 0 13:40 06.07.2020
348 Clouds 29 1010 70 10000 1 0 13:40 06.07.2020
349 Clouds 30 1010 70 10000 1 0 13:21 06.07.2020
350 Clouds 30 1009 70 10000 2.1 230 12:45 06.07.2020
351 Clouds 30 1009 70 10000 2.1 230 12:20 06.07.2020
352 Clouds 30 1009 63 10000 3.6 260 11:59 06.07.2020
353 Clouds 30 1009 63 10000 3.6 260 11:41 06.07.2020
354 Rain 31 1008 81 0 1.79 169 11:23 06.07.2020
355 Rain 31 1008 81 0 1.79 191 10:59 06.07.2020
356 Rain 32 1007 80 0 1.79 203 10:40 06.07.2020
357 Rain 32 1007 78 0 2.68 187 10:20 06.07.2020
358 Rain 33 1006 77 0 1.79 176 09:54 06.07.2020
359 Rain 34 1008 53 10000 4.1 110 09:36 06.07.2020
360 Rain 35 1008 53 10000 4.1 110 09:18 06.07.2020
361 Rain 35 1008 53 10000 4.1 110 08:40 06.07.2020
362 Clouds 35 1008 53 10000 4.1 110 08:22 06.07.2020
363 Clouds 35 1009 53 10000 3.6 120 07:48 06.07.2020
364 Clouds 35 1009 53 10000 3.6 120 07:29 06.07.2020
365 Clouds 34 1009 56 10000 4.1 120 06:55 06.07.2020
366 Clouds 34 1009 56 10000 4.1 120 06:36 06.07.2020
367 Clouds 34 1009 56 10000 3.6 110 05:47 06.07.2020
368 Clouds 34 1009 56 10000 3.6 110 05:26 06.07.2020
369 Clouds 31 1010 70 10000 2.1 120 03:53 06.07.2020
370 Clouds 30 1009 74 9000 1 0 02:29 06.07.2020
371 Clouds 28 1009 79 10000 1 0 01:45 06.07.2020
372 Clouds 27 1009 88 10000 1 0 00:44 06.07.2020
373 Clouds 27 1009 88 10000 1 0 00:22 06.07.2020
374 Clouds 26 1008 95 0 2.08 120 23:54 05.07.2020
375 Clouds 26 1008 95 0 2.08 120 23:36 05.07.2020
376 Clouds 26 1008 95 0 2.07 104 23:18 05.07.2020
377 Clouds 26 1008 95 0 2.07 104 22:41 05.07.2020
378 Clouds 26 1008 95 0 2.07 104 22:41 05.07.2020
379 Clouds 26 1008 96 0 0.45 15 22:21 05.07.2020
380 Clouds 26 1008 95 0 2 88 21:58 05.07.2020
381 Clouds 26 1008 94 0 0.45 309 21:40 05.07.2020
382 Clouds 26 1008 94 0 0.45 318 21:19 05.07.2020
383 Clouds 27 1008 95 0 1.19 72 20:58 05.07.2020
384 Clouds 27 1008 95 0 1.19 72 20:58 05.07.2020
385 Clouds 26 1008 95 0 0.45 356 20:39 05.07.2020
386 Clouds 26 1008 95 0 0.69 118 20:21 05.07.2020
387 Clouds 26 1008 93 0 1.34 11 19:55 05.07.2020
388 Clouds 27 1008 92 0 0.45 12 19:36 05.07.2020
389 Clouds 27 1008 92 0 1.34 17 19:18 05.07.2020
390 Clouds 27 1009 94 0 0.45 13 18:41 05.07.2020
391 Clouds 28 1012 87 0 0.89 28 18:21 05.07.2020
392 Clouds 28 1012 86 0 0.45 28 17:56 05.07.2020
393 Clouds 29 1009 74 9000 1.5 200 17:37 05.07.2020
394 Clouds 29 1009 74 9000 1.5 200 17:18 05.07.2020
395 Rain 29 1009 74 9000 1.5 200 16:43 05.07.2020
396 Rain 29 1008 70 10000 2.1 220 16:24 05.07.2020
397 Clouds 30 1008 70 10000 2.1 220 15:55 05.07.2020
398 Clouds 30 1008 70 10000 2.1 220 15:37 05.07.2020
399 Clouds 30 1008 70 10000 2.1 220 15:18 05.07.2020
400 Clouds 30 1008 74 10000 2.6 260 14:41 05.07.2020
401 Clouds 30 1008 74 10000 2.6 260 14:22 05.07.2020
402 Clouds 30 1008 70 10000 2.1 240 13:42 05.07.2020
403 Rain 30 1007 79 0 1.34 179 13:24 05.07.2020
404 Clouds 31 1008 70 10000 4.1 260 12:56 05.07.2020
405 Clouds 31 1008 70 10000 4.1 260 12:38 05.07.2020
406 Clouds 31 1008 70 10000 4.1 260 12:19 05.07.2020
407 Rain 31 1006 71 0 1.34 172 11:40 05.07.2020
408 Rain 31 1007 70 10000 3.1 220 11:21 05.07.2020
409 Rain 31 1007 70 10000 3.1 220 10:59 05.07.2020
410 Rain 31 1007 70 10000 3.1 220 10:40 05.07.2020
411 Clouds 32 1007 62 10000 5.1 280 10:19 05.07.2020
412 Clouds 33 1007 62 10000 5.1 280 09:56 05.07.2020
413 Clouds 33 1007 62 10000 5.1 280 09:37 05.07.2020
414 Clouds 33 1007 62 10000 5.1 280 09:19 05.07.2020
415 Clouds 33 1008 62 10000 4.6 290 08:45 05.07.2020
416 Clouds 33 1008 62 10000 4.6 290 08:45 05.07.2020
417 Clouds 33 1008 62 10000 4.6 290 08:27 05.07.2020
418 Clouds 33 1008 66 10000 4.6 280 07:47 05.07.2020
419 Clouds 33 1008 66 10000 4.6 280 07:29 05.07.2020
420 Clouds 33 1009 59 10000 4.1 290 06:50 05.07.2020
421 Clouds 31 1010 70 10000 2.6 310 05:29 05.07.2020
422 Clouds 30 1010 74 10000 1.41 108 03:24 05.07.2020
423 Clouds 29 1010 74 10000 1.41 108 02:41 05.07.2020
424 Clouds 28 1010 67 10000 1 0 01:59 05.07.2020
425 Clouds 27 1010 67 10000 1 0 01:32 05.07.2020
426 Clouds 27 1010 88 10000 0.88 124 00:57 05.07.2020
427 Clouds 26 1010 88 10000 0.88 124 00:38 05.07.2020
428 Clouds 26 1010 88 10000 1.13 85 00:19 05.07.2020
429 Clouds 26 1009 88 10000 1 0 23:41 04.07.2020
430 Clouds 26 1011 91 0 1.31 68 23:23 04.07.2020
431 Clouds 26 1010 91 0 1.31 68 22:54 04.07.2020
432 Clouds 26 1010 91 0 1.31 68 22:36 04.07.2020
433 Clouds 26 1010 91 0 1.26 53 22:18 04.07.2020
434 Clouds 26 1010 91 0 1.26 53 21:40 04.07.2020
435 Clouds 28 1008 72 0 2.07 106 21:22 04.07.2020
436 Clouds 28 1008 72 0 2.07 106 20:55 04.07.2020
437 Clouds 28 1008 72 0 2.07 106 20:36 04.07.2020
438 Rain 28 1009 71 0 2.11 113 20:18 04.07.2020
439 Rain 28 1009 71 0 2.11 113 19:42 04.07.2020
440 Rain 29 1010 70 0 2.51 113 19:21 04.07.2020
441 Rain 26 1012 91 0 0.45 68 18:55 04.07.2020
442 Rain 26 1012 91 0 0.45 71 18:37 04.07.2020
443 Clouds 29 1011 69 0 2.64 123 18:18 04.07.2020
444 Clouds 27 1013 91 0 1.34 85 17:42 04.07.2020
445 Clouds 27 1013 91 0 1.34 85 17:42 04.07.2020
446 Clouds 27 1011 88 10000 0.5 0 17:22 04.07.2020
447 Clouds 27 1011 88 10000 0.5 0 16:56 04.07.2020
448 Clouds 27 1011 88 10000 0.5 0 16:37 04.07.2020
449 Clouds 27 1011 88 10000 0.5 0 16:37 04.07.2020
450 Clouds 27 1011 88 10000 0.5 0 16:37 04.07.2020
451 Clouds 27 1011 88 10000 0.5 0 16:18 04.07.2020
452 Clouds 27 1011 88 10000 1.5 70 15:45 04.07.2020
453 Clouds 27 1010 88 10000 1 0 15:26 04.07.2020
454 Clouds 27 1010 88 10000 1 0 14:58 04.07.2020
455 Clouds 27 1009 88 10000 0.5 0 14:37 04.07.2020
456 Clouds 27 1009 88 10000 0.5 0 14:19 04.07.2020
457 Clouds 27 1009 88 10000 0.5 0 13:56 04.07.2020
458 Clouds 24 1009 100 8000 1 0 13:36 04.07.2020
459 Clouds 24 1009 100 8000 1 0 13:18 04.07.2020
460 Rain 31 1010 64 0 3.73 145 12:40 04.07.2020
461 Clouds 27 1010 83 10000 4.1 10 12:20 04.07.2020
462 Clouds 27 1010 83 10000 4.1 10 11:45 04.07.2020
463 Rain 29 1008 74 10000 5.1 200 11:25 04.07.2020
464 Rain 29 1008 74 10000 5.1 200 10:57 04.07.2020
465 Rain 33 1008 52 10000 4.1 140 10:38 04.07.2020
466 Rain 31 1008 52 10000 4.1 140 10:20 04.07.2020
467 Rain 32 1008 52 10000 4.1 140 09:54 04.07.2020
468 Rain 32 1008 55 10000 2.1 90 09:36 04.07.2020
469 Clouds 33 1008 55 10000 2.1 90 09:18 04.07.2020
470 Clouds 33 1008 55 10000 2.1 90 08:43 04.07.2020
471 Clouds 34 1009 52 0 2.5 162 08:24 04.07.2020
472 Clouds 33 1010 55 0 1.79 138 07:42 04.07.2020
473 Rain 33 1010 55 0 2.68 150 07:20 04.07.2020
474 Rain 34 1011 58 0 1.34 128 06:40 04.07.2020
475 Clouds 32 1010 66 10000 2.1 70 06:20 04.07.2020
476 Clouds 31 1011 74 10000 2.1 100 05:31 04.07.2020
477 Clouds 31 1009 76 0 0.66 327 04:22 04.07.2020
478 Clouds 28 1011 78 10000 1.5 120 02:45 04.07.2020
479 Clouds 27 1011 88 9000 1.5 170 01:51 04.07.2020
480 Rain 27 1009 85 0 1.33 43 00:59 04.07.2020
481 Rain 27 1009 85 0 1.33 43 00:40 04.07.2020
482 Clouds 27 1009 87 0 1.72 23 00:21 04.07.2020
483 Clouds 27 1009 84 0 1.72 23 23:39 03.07.2020
484 Clouds 27 1009 82 0 2.02 11 23:18 03.07.2020
485 Clouds 27 1009 82 0 2.02 11 23:18 03.07.2020
486 Clouds 27 1009 82 0 2.02 11 23:18 03.07.2020
487 Clouds 28 1009 82 0 2.02 11 22:42 03.07.2020
488 Rain 28 1009 83 0 2.25 7 22:24 03.07.2020
489 Rain 28 1009 83 0 2.25 7 21:59 03.07.2020
490 Rain 28 1009 82 0 2.25 7 21:38 03.07.2020
491 Rain 28 1009 81 0 2.11 19 21:19 03.07.2020
492 Rain 28 1009 84 0 2.39 24 20:43 03.07.2020
493 Rain 28 1009 84 0 2.25 42 20:25 03.07.2020
494 Rain 28 1009 85 0 2.25 42 19:57 03.07.2020
495 Rain 29 1009 83 0 2.25 42 19:39 03.07.2020
496 Rain 29 1009 76 0 2.38 71 19:18 03.07.2020
497 Rain 28 1009 76 0 2.38 71 18:45 03.07.2020
498 Rain 29 1009 78 0 2.85 86 18:23 03.07.2020
499 Rain 29 1009 79 0 2.85 86 17:56 03.07.2020
500 Clouds 29 1011 70 10000 2.6 120 17:38 03.07.2020
501 Clouds 30 1011 70 10000 2.6 120 17:19 03.07.2020
502 Clouds 30 1011 70 10000 2.6 120 16:40 03.07.2020
503 Clouds 30 1010 66 10000 3.1 120 16:20 03.07.2020
504 Clouds 30 1010 66 10000 3.1 120 15:44 03.07.2020
505 Clouds 30 1010 66 10000 1.5 130 15:24 03.07.2020
506 Clouds 30 1010 66 10000 1.5 130 14:57 03.07.2020
507 Clouds 31 1010 66 10000 1.5 130 14:38 03.07.2020
508 Clouds 31 1010 66 10000 1.5 130 14:19 03.07.2020
509 Rain 31 1008 71 0 4.43 111 13:43 03.07.2020
510 Rain 31 1008 71 0 4.59 121 13:25 03.07.2020
511 Rain 31 1008 73 0 4.59 121 12:45 03.07.2020
512 Clouds 31 1008 66 10000 3.6 140 12:24 03.07.2020
513 Rain 31 1010 70 0 3.13 132 11:58 03.07.2020
514 Rain 31 1010 69 0 2.24 150 11:40 03.07.2020
515 Clouds 32 1007 63 10000 4.6 0 11:21 03.07.2020
516 Clouds 33 1007 63 10000 4.6 0 10:55 03.07.2020
517 Rain 32 1009 65 0 3.58 115 10:37 03.07.2020
518 Rain 31 1006 88 0 2.85 129 10:18 03.07.2020
519 Rain 34 1006 67 0 2.85 129 09:42 03.07.2020
520 Clouds 35 1008 53 10000 1.77 145 09:22 03.07.2020
521 Clouds 34 1008 53 10000 1.77 145 08:59 03.07.2020
522 Clouds 34 1007 71 0 1.77 145 08:39 03.07.2020
523 Clouds 34 1006 69 0 1.26 159 08:18 03.07.2020
524 Clouds 35 1007 71 0 1.26 159 07:47 03.07.2020
525 Clouds 35 1007 71 0 1.26 159 07:47 03.07.2020
526 Clouds 34 1010 59 10000 3.6 120 07:23 03.07.2020
527 Clouds 34 1010 59 10000 3.6 120 06:47 03.07.2020
528 Clouds 34 1008 60 0 2.24 150 05:56 03.07.2020
529 Clouds 33 1009 63 0 1.89 123 04:35 03.07.2020
530 Clouds 31 1011 66 9000 2.6 130 02:57 03.07.2020
531 Clouds 31 1010 71 0 1.59 90 02:36 03.07.2020
532 Clouds 30 1009 71 0 1.29 72 01:54 03.07.2020
533 Clouds 29 1009 74 0 1.63 56 01:23 03.07.2020
534 Clouds 28 1009 81 0 1.63 56 00:44 03.07.2020
535 Clouds 27 1009 84 0 1.64 63 00:20 03.07.2020
536 Clouds 27 1008 85 0 1.64 63 23:43 02.07.2020
537 Rain 28 1008 85 0 2.18 64 23:20 02.07.2020
538 Rain 28 1008 81 0 2.18 64 22:57 02.07.2020
539 Rain 28 1007 80 0 2.18 64 22:38 02.07.2020
540 Rain 28 1008 76 0 2.04 66 22:20 02.07.2020
541 Rain 28 1008 76 0 2.04 66 21:54 02.07.2020
542 Rain 28 1008 76 0 2.04 66 21:36 02.07.2020
543 Rain 28 1008 76 0 2.04 66 21:36 02.07.2020
544 Clouds 28 1008 75 0 2 71 21:18 02.07.2020
545 Clouds 29 1008 76 0 2 71 20:41 02.07.2020
546 Rain 29 1008 77 0 2.48 74 20:20 02.07.2020
547 Rain 29 1008 78 0 2.48 74 19:56 02.07.2020
548 Rain 29 1008 77 0 2.48 74 19:38 02.07.2020
549 Rain 29 1008 76 0 2.82 78 19:19 02.07.2020
550 Rain 29 1008 77 0 2.82 78 18:55 02.07.2020
551 Clouds 30 1010 66 9000 2.6 100 18:37 02.07.2020
552 Clouds 30 1010 66 9000 2.6 100 18:18 02.07.2020
553 Clouds 30 1010 70 10000 3.1 110 17:39 02.07.2020
554 Clouds 30 1010 70 10000 3.1 110 17:20 02.07.2020
555 Clouds 30 1010 70 10000 3.1 110 16:55 02.07.2020
556 Clouds 30 1010 70 10000 3.1 110 16:55 02.07.2020
557 Rain 30 1009 78 0 3.29 99 16:37 02.07.2020
558 Rain 30 1009 78 0 3.13 106 16:18 02.07.2020
559 Rain 30 1008 80 0 3.13 106 15:39 02.07.2020
560 Rain 30 1008 81 0 3.08 120 15:21 02.07.2020
561 Rain 30 1008 81 0 3.08 120 14:46 02.07.2020
562 Rain 31 1007 62 10000 3.1 120 14:25 02.07.2020
563 Rain 31 1007 80 0 3.71 119 13:57 02.07.2020
564 Clouds 31 1007 59 8000 2.1 230 13:39 02.07.2020
565 Clouds 31 1007 59 8000 2.1 230 13:20 02.07.2020
566 Clouds 31 1007 59 8000 2.1 230 12:57 02.07.2020
567 Clouds 31 1007 59 8000 2.1 230 12:38 02.07.2020
568 Clouds 32 1007 59 8000 2.1 230 12:19 02.07.2020
569 Clouds 33 1006 56 10000 2.6 160 11:42 02.07.2020
570 Rain 33 1006 56 10000 2.6 160 11:24 02.07.2020
571 Clouds 34 1006 59 10000 2.6 210 10:47 02.07.2020
572 Clouds 34 1006 59 10000 2.6 210 10:27 02.07.2020
573 Clouds 34 1006 66 10000 3.1 0 09:57 02.07.2020
574 Rain 34 1005 71 0 3.79 117 09:37 02.07.2020
575 Clouds 35 1005 71 0 2.58 124 09:19 02.07.2020
576 Clouds 34 1007 52 8000 4.1 120 08:43 02.07.2020
577 Clouds 34 1007 52 8000 4.1 120 08:24 02.07.2020
578 Clouds 34 1007 52 8000 4.1 120 07:55 02.07.2020
579 Clouds 33 1008 62 9000 4.1 90 07:37 02.07.2020
580 Clouds 33 1008 62 9000 4.1 90 07:18 02.07.2020
581 Clouds 33 1008 62 9000 4.1 90 06:40 02.07.2020
582 Clouds 32 1008 62 9000 4.1 90 06:19 02.07.2020
583 Clouds 33 1009 59 9000 3.1 107 05:43 02.07.2020
584 Clouds 32 1009 66 10000 2.1 0 03:36 02.07.2020
585 Clouds 31 1009 74 10000 1.5 0 02:59 02.07.2020
586 Clouds 28 1009 83 8000 1.5 150 00:47 02.07.2020
587 Clouds 28 1007 82 0 1.17 98 00:23 02.07.2020
588 Clouds 28 1007 82 0 1.17 98 23:46 01.07.2020
589 Clouds 28 1007 82 0 0.98 102 23:27 01.07.2020
590 Clouds 28 1007 82 0 0.98 102 22:57 01.07.2020
591 Clouds 28 1007 81 0 0.98 102 22:38 01.07.2020
592 Clouds 28 1007 81 0 1.13 127 22:19 01.07.2020
593 Clouds 28 1007 81 0 1.13 127 21:58 01.07.2020
594 Clouds 28 1006 81 0 1.13 127 21:40 01.07.2020
595 Clouds 28 1006 81 0 0.59 145 21:21 01.07.2020
596 Clouds 28 1006 80 0 0.59 145 20:55 01.07.2020
597 Clouds 28 1007 79 0 0.59 145 20:36 01.07.2020
598 Clouds 28 1007 79 0 0.68 216 20:18 01.07.2020
599 Clouds 28 1007 77 0 0.68 216 19:42 01.07.2020
600 Clouds 28 1007 77 0 1.48 242 19:24 01.07.2020
601 Clouds 29 1007 84 0 1.48 242 18:59 01.07.2020
602 Clouds 29 1007 82 0 1.48 242 18:40 01.07.2020
603 Clouds 29 1007 82 0 1.29 232 18:21 01.07.2020
604 Clouds 29 1008 82 0 1.29 232 17:55 01.07.2020
605 Clouds 29 1008 81 0 1.29 232 17:37 01.07.2020
606 Clouds 29 1008 81 0 1.05 238 17:18 01.07.2020
607 Clouds 29 1008 80 0 1.05 238 16:42 01.07.2020
608 Clouds 29 1008 80 0 1.05 238 16:42 01.07.2020
609 Clouds 29 1008 81 0 1.82 224 16:23 01.07.2020
610 Clouds 29 1008 78 0 1.82 224 15:43 01.07.2020
611 Clouds 30 1008 70 8000 2.17 234 15:23 01.07.2020
612 Clouds 30 1008 70 8000 2.17 234 14:58 01.07.2020
613 Clouds 30 1007 66 10000 2.17 234 14:38 01.07.2020
614 Clouds 30 1007 66 10000 3.32 237 14:20 01.07.2020
615 Clouds 31 1007 66 10000 3.32 237 13:54 01.07.2020
616 Clouds 31 1007 66 10000 3.32 237 13:36 01.07.2020
617 Clouds 31 1007 66 10000 4.04 242 13:18 01.07.2020
618 Clouds 31 1007 62 9000 4.04 242 12:41 01.07.2020
619 Clouds 31 1007 62 9000 4.59 247 12:22 01.07.2020
620 Clouds 32 1005 70 0 1.79 179 11:58 01.07.2020
621 Clouds 32 1005 71 0 0.89 186 11:40 01.07.2020
622 Clouds 32 1006 59 10000 4.82 254 11:21 01.07.2020
623 Clouds 33 1006 59 10000 4.82 254 10:43 01.07.2020
624 Clouds 33 1008 59 10000 4.1 210 10:24 01.07.2020
625 Clouds 33 1008 59 10000 4.1 210 09:59 01.07.2020
626 Clouds 33 1008 59 10000 4.1 210 09:59 01.07.2020
627 Clouds 33 1007 59 8000 6.2 280 09:38 01.07.2020
628 Clouds 33 1007 59 8000 6.2 280 09:20 01.07.2020
629 Clouds 34 1007 59 8000 6.2 280 08:57 01.07.2020
630 Clouds 34 1005 60 0 1.79 178 08:38 01.07.2020
631 Clouds 34 1005 61 0 0.89 173 08:19 01.07.2020
632 Clouds 34 1005 61 0 0.89 173 08:19 01.07.2020
633 Clouds 34 1006 58 0 2.68 147 07:40 01.07.2020
634 Clouds 34 1006 60 0 2.24 195 07:21 01.07.2020
635 Clouds 33 1006 62 0 1.34 149 06:51 01.07.2020
636 Clouds 33 1009 59 10000 2.14 259 06:30 01.07.2020
637 Clouds 33 1009 59 10000 1.4 238 05:30 01.07.2020
638 Clouds 32 1009 62 10000 1.5 0 03:55 01.07.2020
639 Clouds 32 1009 62 10000 1.5 0 03:36 01.07.2020
640 Clouds 32 1009 62 10000 1.5 0 03:18 01.07.2020
641 Clouds 29 1009 78 10000 0.5 0 01:53 01.07.2020
642 Clouds 27 1008 82 0 0.8 119 00:48 01.07.2020
643 Clouds 26 1008 86 0 0.4 162 00:26 01.07.2020
644 Clouds 26 1007 88 0 0.4 162 23:43 30.06.2020
645 Clouds 26 1007 87 0 0.58 253 23:23 30.06.2020
646 Clouds 26 1007 85 0 0.58 253 22:59 30.06.2020
647 Clouds 26 1007 85 0 0.58 253 22:41 30.06.2020
648 Clouds 27 1008 74 10000 0.5 0 22:18 30.06.2020
649 Clouds 27 1008 74 10000 0.5 0 21:41 30.06.2020
650 Clouds 27 1008 74 10000 0.5 0 21:19 30.06.2020
651 Clouds 27 1008 78 10000 1.42 250 20:57 30.06.2020
652 Clouds 27 1009 78 10000 1.42 250 20:39 30.06.2020
653 Clouds 27 1009 78 10000 1.11 266 20:20 30.06.2020
654 Clouds 27 1009 78 10000 1.11 266 19:42 30.06.2020
655 Clouds 27 1009 78 10000 1.68 291 19:19 30.06.2020
656 Clouds 27 1010 83 10000 1.68 291 18:46 30.06.2020
657 Clouds 27 1010 83 10000 1.71 283 18:21 30.06.2020
658 Clouds 28 1010 68 10000 1.71 283 17:59 30.06.2020
659 Clouds 28 1010 78 10000 1.5 220 17:38 30.06.2020
660 Clouds 28 1010 78 10000 1.5 220 17:19 30.06.2020
661 Clouds 28 1010 78 10000 1.5 220 16:54 30.06.2020
662 Clouds 28 1009 78 10000 1.5 220 16:36 30.06.2020
663 Clouds 28 1009 78 10000 1.5 220 16:18 30.06.2020
664 Clouds 28 1009 78 10000 1.5 220 15:41 30.06.2020
665 Clouds 28 1009 78 0 2.28 261 15:22 30.06.2020
666 Clouds 28 1009 78 0 2.28 261 14:56 30.06.2020
667 Clouds 28 1009 78 0 2.28 261 14:38 30.06.2020
668 Clouds 28 1009 78 0 3.51 257 14:18 30.06.2020
669 Clouds 28 1009 74 10000 5.1 250 13:40 30.06.2020
670 Clouds 28 1009 74 10000 5.1 250 13:20 30.06.2020
671 Clouds 29 1008 74 10000 5.1 250 12:58 30.06.2020
672 Clouds 29 1008 74 10000 5.1 250 12:58 30.06.2020
673 Clouds 29 1009 74 10000 6.7 260 12:39 30.06.2020
674 Clouds 29 1009 74 10000 6.7 260 12:20 30.06.2020
675 Clouds 30 1009 74 10000 6.7 260 11:58 30.06.2020
676 Clouds 30 1009 74 10000 6.7 260 11:39 30.06.2020
677 Clouds 30 1009 74 10000 6.7 260 11:19 30.06.2020
678 Clouds 31 1008 62 10000 7.7 270 10:56 30.06.2020
679 Rain 26 1011 94 8000 2.1 80 16:38 28.06.2020
680 Rain 26 1011 94 8000 2.1 80 16:20 28.06.2020
681 Rain 26 1011 94 8000 2.1 110 15:56 28.06.2020
682 Rain 26 1011 94 8000 2.1 110 15:56 28.06.2020
683 Rain 26 1011 94 8000 2.1 110 15:37 28.06.2020
684 Rain 26 1011 94 8000 2.1 110 15:18 28.06.2020
685 Rain 26 1010 88 10000 1.5 110 14:44 28.06.2020
686 Rain 26 1010 88 10000 1.5 110 14:25 28.06.2020
687 Rain 26 1009 94 8000 1 0 13:55 28.06.2020
688 Rain 26 1009 94 8000 1 0 13:37 28.06.2020
689 Rain 26 1009 94 8000 1 0 13:18 28.06.2020
690 Rain 27 1008 88 8000 2.6 180 12:55 28.06.2020
691 Rain 27 1008 88 8000 2.6 180 12:36 28.06.2020
692 Rain 27 1008 88 8000 2.6 180 12:18 28.06.2020
693 Rain 27 1008 88 8000 2.6 180 12:18 28.06.2020
694 Clouds 28 1008 83 10000 3.1 220 11:43 28.06.2020
695 Clouds 28 1008 83 10000 3.1 220 11:21 28.06.2020
696 Clouds 28 1008 83 10000 3.1 220 11:21 28.06.2020
697 Clouds 28 1008 83 10000 4.1 230 10:59 28.06.2020
698 Clouds 29 1008 83 10000 4.1 230 10:41 28.06.2020
699 Clouds 29 1008 83 10000 4.1 230 10:22 28.06.2020
700 Clouds 29 1008 83 10000 4.1 230 09:42 28.06.2020
701 Clouds 30 1008 83 10000 4.1 230 09:23 28.06.2020
702 Clouds 31 1008 70 10000 3.6 290 08:57 28.06.2020
703 Clouds 32 1008 70 10000 3.6 290 08:38 28.06.2020
704 Clouds 32 1008 70 10000 3.6 290 08:20 28.06.2020
705 Clouds 31 1008 74 10000 1.5 40 07:33 28.06.2020
706 Clouds 32 1009 74 10000 1 0 06:56 28.06.2020
707 Clouds 31 1009 74 10000 1 0 06:32 28.06.2020
708 Rain 30 1010 74 10000 1 0 05:45 28.06.2020
709 Clouds 29 1011 74 10000 1.5 0 04:27 28.06.2020
710 Clouds 28 1010 88 10000 1.5 90 02:57 28.06.2020
711 Clouds 27 1010 88 10000 1.5 90 02:21 28.06.2020
712 Clouds 27 1010 88 10000 1 0 01:30 28.06.2020
713 Clouds 26 1010 94 10000 2.1 60 00:56 28.06.2020
714 Clouds 26 1010 94 10000 2.1 60 00:30 28.06.2020
715 Clouds 26 1010 94 10000 0.5 0 23:58 27.06.2020
716 Clouds 26 1010 94 10000 0.5 0 23:38 27.06.2020
717 Clouds 26 1010 94 10000 0.5 0 23:19 27.06.2020
718 Clouds 26 1009 94 10000 0.5 0 22:42 27.06.2020
719 Clouds 26 1009 94 10000 0.5 0 22:23 27.06.2020
720 Clouds 26 1009 94 10000 0.5 0 22:23 27.06.2020
721 Rain 26 1009 94 10000 1 0 21:58 27.06.2020
722 Rain 26 1009 94 10000 1 0 21:40 27.06.2020
723 Rain 26 1009 94 10000 1 0 21:20 27.06.2020
724 Rain 26 1009 94 8000 1.5 90 20:45 27.06.2020
725 Rain 26 1009 94 8000 1.5 90 20:19 27.06.2020
726 Rain 26 1010 94 10000 1.5 0 19:57 27.06.2020
727 Rain 26 1010 94 10000 1.5 0 19:37 27.06.2020
728 Rain 27 1010 94 10000 1.5 0 19:18 27.06.2020
729 Rain 27 1010 88 10000 3.1 0 18:47 27.06.2020
730 Rain 28 1010 88 10000 3.1 0 18:28 27.06.2020
731 Clouds 28 1011 79 10000 2.6 0 17:59 27.06.2020
732 Clouds 28 1011 79 10000 2.6 0 17:59 27.06.2020
733 Clouds 29 1011 79 10000 2.6 0 17:39 27.06.2020
734 Clouds 29 1011 79 10000 2.6 0 17:19 27.06.2020
735 Clouds 29 1010 74 10000 2.6 130 16:48 27.06.2020
736 Clouds 29 1010 74 10000 2.6 130 16:30 27.06.2020
737 Clouds 29 1010 74 10000 2.6 130 16:30 27.06.2020
738 Clouds 29 1009 74 10000 2.6 120 15:59 27.06.2020
739 Clouds 29 1009 74 10000 2.6 120 15:41 27.06.2020
740 Clouds 29 1009 74 10000 2.6 120 15:21 27.06.2020
741 Clouds 30 1009 70 10000 2.1 180 14:43 27.06.2020
742 Clouds 30 1009 70 10000 2.1 180 14:25 27.06.2020
743 Clouds 30 1009 70 10000 3.1 90 13:59 27.06.2020
744 Rain 30 1009 70 10000 3.1 90 13:38 27.06.2020
745 Rain 30 1009 70 10000 3.1 90 13:38 27.06.2020
746 Rain 30 1009 70 10000 3.1 90 13:19 27.06.2020
747 Rain 30 1008 70 10000 3.6 120 12:57 27.06.2020
748 Clouds 31 1008 70 10000 3.6 120 12:39 27.06.2020
749 Clouds 31 1008 70 10000 3.6 120 12:21 27.06.2020
750 Clouds 31 1007 66 10000 3.6 0 11:54 27.06.2020
751 Clouds 32 1007 66 10000 3.6 0 11:36 27.06.2020
752 Clouds 32 1007 66 10000 3.6 0 11:18 27.06.2020
753 Clouds 33 1007 66 10000 3.6 0 10:38 27.06.2020
754 Clouds 33 1007 66 10000 3.6 0 10:19 27.06.2020
755 Clouds 33 1006 60 0 0.89 67 09:41 27.06.2020
756 Clouds 33 1006 62 0 2.87 123 09:22 27.06.2020
757 Clouds 33 1006 64 0 1.25 124 08:57 27.06.2020
758 Clouds 33 1008 63 10000 4.1 120 08:39 27.06.2020
759 Clouds 33 1008 63 10000 4.1 120 08:20 27.06.2020
760 Clouds 33 1008 63 10000 4.1 120 07:41 27.06.2020
761 Clouds 33 1008 63 10000 4.1 120 07:23 27.06.2020
762 Clouds 33 1009 63 10000 3.6 120 06:38 27.06.2020
763 Clouds 32 1009 63 10000 3.6 120 06:19 27.06.2020
764 Clouds 31 1010 66 10000 2.1 120 04:22 27.06.2020
765 Clouds 31 1010 70 10000 1.5 30 03:51 27.06.2020
766 Clouds 30 1010 79 10000 2.6 70 02:49 27.06.2020
767 Clouds 30 1010 79 10000 2.6 70 02:29 27.06.2020
768 Clouds 28 1010 83 10000 2.1 80 01:41 27.06.2020
769 Clouds 27 1010 88 10000 1 0 00:56 27.06.2020
770 Clouds 27 1010 88 10000 1 0 00:27 27.06.2020
771 Clouds 26 1009 94 10000 1 60 23:41 26.06.2020
772 Clouds 26 1009 94 10000 1 60 23:22 26.06.2020
773 Rain 26 1009 88 10000 1.5 80 22:56 26.06.2020
774 Rain 26 1009 88 10000 1.5 80 22:37 26.06.2020
775 Rain 26 1009 88 10000 1.5 80 22:18 26.06.2020
776 Rain 26 1009 88 10000 2.6 70 21:56 26.06.2020
777 Clouds 26 1009 88 10000 2.6 70 21:37 26.06.2020
778 Clouds 26 1009 88 10000 2.6 70 21:18 26.06.2020
779 Clouds 27 1009 83 10000 1.5 80 20:42 26.06.2020
780 Clouds 27 1009 83 10000 1.5 80 20:19 26.06.2020
781 Rain 27 1010 83 10000 2.1 90 19:42 26.06.2020
782 Rain 27 1010 83 10000 2.1 90 19:23 26.06.2020
783 Rain 27 1010 88 9000 2.6 70 18:54 26.06.2020
784 Rain 27 1010 88 9000 2.6 70 18:36 26.06.2020
785 Rain 27 1010 88 9000 2.6 70 18:18 26.06.2020
786 Rain 28 1010 79 10000 5.1 100 17:43 26.06.2020
787 Rain 29 1010 79 10000 5.1 100 17:23 26.06.2020
788 Clouds 30 1010 74 10000 2.1 100 16:47 26.06.2020
789 Clouds 30 1010 74 10000 2.1 100 16:25 26.06.2020
790 Clouds 30 1009 70 10000 2.1 110 15:54 26.06.2020
791 Clouds 30 1009 70 10000 2.1 110 15:36 26.06.2020
792 Clouds 30 1009 70 10000 2.1 110 15:18 26.06.2020
793 Clouds 31 1009 66 10000 3.1 120 14:40 26.06.2020
794 Clouds 31 1009 62 10000 3.1 110 14:22 26.06.2020
795 Clouds 31 1009 62 10000 3.1 110 13:57 26.06.2020
796 Clouds 31 1009 62 10000 3.1 110 13:38 26.06.2020
797 Clouds 31 1009 62 10000 3.1 110 13:18 26.06.2020
798 Rain 31 1007 70 0 0.45 100 12:41 26.06.2020
799 Clouds 32 1008 66 10000 3.1 130 12:23 26.06.2020
800 Clouds 32 1008 66 10000 3.1 130 11:58 26.06.2020
801 Clouds 32 1008 66 10000 3.1 130 11:39 26.06.2020
802 Clouds 32 1008 66 10000 3.1 130 11:21 26.06.2020
803 Clouds 32 1007 62 10000 4.6 120 10:57 26.06.2020
804 Clouds 33 1007 62 10000 4.6 120 10:38 26.06.2020
805 Clouds 33 1007 62 10000 4.6 120 10:18 26.06.2020
806 Clouds 34 1010 56 10000 5.1 100 09:44 26.06.2020
807 Clouds 34 1010 56 10000 5.1 100 09:24 26.06.2020
808 Clouds 34 1009 59 10000 4.6 110 08:56 26.06.2020
809 Clouds 33 1009 59 10000 4.6 110 08:28 26.06.2020
810 Clouds 33 1009 59 10000 5.1 120 07:53 26.06.2020
811 Clouds 33 1009 59 10000 5.1 120 07:24 26.06.2020
812 Clouds 33 1010 59 10000 4.1 120 06:58 26.06.2020
813 Clouds 33 1010 59 10000 4.1 120 06:36 26.06.2020
814 Clouds 33 1010 59 10000 4.1 120 06:18 26.06.2020
815 Clouds 34 1010 59 10000 4.1 120 05:40 26.06.2020
816 Clouds 32 1010 66 10000 4.1 110 03:30 26.06.2020
817 Clouds 31 1009 70 10000 2.6 90 02:22 26.06.2020
818 Clouds 28 1009 79 10000 1 0 01:19 26.06.2020
819 Clouds 27 1009 83 10000 1.5 220 00:39 26.06.2020
820 Clouds 27 1009 83 10000 1.5 220 00:18 26.06.2020
821 Clouds 26 1008 83 10000 2.32 63 23:39 25.06.2020
822 Clouds 26 1008 83 10000 2.62 41 23:18 25.06.2020
823 Clouds 26 1008 83 10000 1 250 22:54 25.06.2020
824 Clouds 26 1008 83 10000 1 250 22:54 25.06.2020
825 Clouds 26 1008 83 10000 1 250 22:36 25.06.2020
826 Clouds 26 1008 83 10000 1 250 22:18 25.06.2020
827 Clouds 26 1009 78 10000 1 240 21:54 25.06.2020
828 Clouds 27 1009 78 10000 1 240 21:36 25.06.2020
829 Clouds 27 1009 78 10000 1 240 21:18 25.06.2020
830 Clouds 27 1010 78 10000 2.25 24 20:43 25.06.2020
831 Clouds 27 1010 78 10000 2.1 35 20:23 25.06.2020
832 Clouds 27 1010 78 10000 2.1 30 19:56 25.06.2020
833 Clouds 27 1010 78 10000 2.1 30 19:37 25.06.2020
834 Clouds 27 1010 74 10000 3.1 10 19:18 25.06.2020
835 Clouds 27 1010 74 10000 3.1 10 18:40 25.06.2020
836 Clouds 27 1010 74 10000 3.1 10 18:22 25.06.2020
837 Clouds 27 1011 74 9000 4.6 350 17:55 25.06.2020
838 Clouds 28 1011 74 9000 4.6 350 17:37 25.06.2020
839 Clouds 28 1011 74 9000 4.6 350 17:19 25.06.2020
840 Clouds 28 1011 74 9000 4.6 350 17:19 25.06.2020
841 Clouds 30 1010 66 10000 2.6 80 16:41 25.06.2020
842 Clouds 30 1010 66 10000 2.6 80 16:20 25.06.2020
843 Clouds 29 1009 66 10000 3.6 110 15:45 25.06.2020
844 Clouds 29 1009 66 10000 3.6 110 15:27 25.06.2020
845 Clouds 30 1009 70 10000 3.6 130 14:58 25.06.2020
846 Clouds 31 1009 70 10000 3.6 130 14:40 25.06.2020
847 Clouds 31 1009 70 10000 3.6 130 14:22 25.06.2020
848 Thunderstorm 31 1008 66 10000 3.1 30 13:55 25.06.2020
849 Thunderstorm 31 1008 66 10000 3.1 30 13:37 25.06.2020
850 Thunderstorm 31 1008 66 10000 3.1 30 13:19 25.06.2020
851 Thunderstorm 32 1007 59 8000 3.1 120 12:43 25.06.2020
852 Thunderstorm 32 1007 59 8000 3.1 120 12:20 25.06.2020
853 Clouds 32 1008 74 10000 4.6 40 11:44 25.06.2020
854 Clouds 32 1008 74 10000 4.6 40 11:25 25.06.2020
855 Clouds 33 1006 66 10000 3.6 280 10:58 25.06.2020
856 Clouds 33 1006 66 10000 3.6 280 10:40 25.06.2020
857 Clouds 33 1006 66 10000 3.6 280 10:21 25.06.2020
858 Clouds 34 1006 67 10000 5.1 260 09:41 25.06.2020
859 Clouds 34 1006 67 10000 5.1 260 09:23 25.06.2020
860 Clouds 34 1007 63 10000 2.6 310 08:47 25.06.2020
861 Clouds 35 1007 63 10000 2.6 310 08:20 25.06.2020
862 Clouds 34 1007 56 10000 2.6 110 07:46 25.06.2020
863 Clouds 34 1007 56 10000 2.6 110 07:27 25.06.2020
864 Clouds 34 1008 59 10000 3.6 110 06:51 25.06.2020
865 Clouds 34 1008 59 10000 3.6 110 06:27 25.06.2020
866 Clouds 33 1009 66 10000 2.6 80 05:51 25.06.2020
867 Clouds 32 1010 62 9000 1 0 03:58 25.06.2020
868 Clouds 32 1010 62 9000 1 0 03:32 25.06.2020
869 Clouds 31 1009 74 10000 1.5 50 02:42 25.06.2020
870 Clouds 30 1009 74 10000 1 0 01:55 25.06.2020
871 Clouds 28 1009 88 10000 1 250 01:20 25.06.2020
872 Clouds 27 1009 88 10000 1 250 00:43 25.06.2020
873 Clouds 27 1009 88 10000 1 250 00:20 25.06.2020
874 Clouds 27 1009 83 10000 0.5 0 23:44 24.06.2020
875 Clouds 27 1009 83 10000 0.5 0 23:25 24.06.2020
876 Thunderstorm 27 1008 83 10000 2.57 98 22:58 24.06.2020
877 Thunderstorm 27 1008 83 10000 2.57 98 22:40 24.06.2020
878 Thunderstorm 27 1008 83 10000 2.42 110 22:20 24.06.2020
879 Clouds 27 1009 83 10000 0.5 230 21:55 24.06.2020
880 Clouds 27 1009 83 10000 0.5 230 21:36 24.06.2020
881 Clouds 27 1009 83 10000 0.5 230 21:18 24.06.2020
882 Clouds 27 1008 83 10000 0.5 0 20:57 24.06.2020
883 Clouds 27 1008 83 10000 0.5 0 20:57 24.06.2020
884 Clouds 27 1008 83 10000 0.5 0 20:38 24.06.2020
885 Clouds 27 1008 83 10000 0.5 0 20:19 24.06.2020
886 Clouds 27 1008 78 10000 1.5 110 19:55 24.06.2020
887 Clouds 27 1008 78 10000 1.5 110 19:36 24.06.2020
888 Clouds 27 1008 78 10000 1.5 110 19:18 24.06.2020
889 Clouds 27 1009 78 10000 1.5 350 18:56 24.06.2020
890 Clouds 27 1009 78 10000 1.5 350 18:37 24.06.2020
891 Clouds 27 1009 78 10000 1.5 350 18:19 24.06.2020
892 Clouds 27 1010 78 10000 1.5 0 17:41 24.06.2020
893 Clouds 27 1010 78 10000 1.5 0 17:19 24.06.2020
894 Clouds 28 1010 74 10000 3.1 10 16:56 24.06.2020
895 Clouds 28 1010 74 10000 3.1 10 16:38 24.06.2020
896 Clouds 28 1010 74 10000 3.1 10 16:20 24.06.2020
897 Clouds 28 1010 83 10000 1.5 310 15:56 24.06.2020
898 Clouds 28 1010 83 10000 1.5 310 15:38 24.06.2020
899 Clouds 28 1010 83 10000 1.5 310 15:19 24.06.2020
900 Clouds 28 1009 88 10000 2.1 180 14:43 24.06.2020
901 Clouds 28 1009 88 10000 2.1 180 14:24 24.06.2020
902 Rain 29 1009 62 10000 2.1 130 13:43 24.06.2020
903 Rain 30 1009 62 10000 2.1 130 13:23 24.06.2020
904 Clouds 31 1008 62 10000 1 0 12:59 24.06.2020
905 Clouds 31 1008 62 10000 1 0 12:41 24.06.2020
906 Clouds 31 1008 62 10000 1 0 12:20 24.06.2020
907 Thunderstorm 30 1007 66 10000 2.6 230 11:56 24.06.2020
908 Thunderstorm 30 1007 66 10000 2.6 230 11:38 24.06.2020
909 Thunderstorm 30 1007 66 10000 2.6 230 11:18 24.06.2020
910 Clouds 32 1006 70 10000 4.6 270 10:43 24.06.2020
911 Rain 33 1006 70 10000 4.6 270 10:19 24.06.2020
912 Clouds 34 1007 67 10000 4.1 290 09:43 24.06.2020
913 Clouds 34 1007 67 10000 4.1 290 09:22 24.06.2020
914 Clouds 34 1007 63 10000 3.1 300 08:43 24.06.2020
915 Clouds 34 1007 63 10000 3.1 300 08:21 24.06.2020
916 Clouds 34 1008 67 9000 4.6 310 07:51 24.06.2020
917 Clouds 34 1008 67 9000 4.6 310 07:31 24.06.2020
918 Clouds 34 1008 59 10000 1.5 0 06:51 24.06.2020
919 Clouds 34 1008 59 10000 1.5 0 06:26 24.06.2020
920 Clouds 34 1009 56 10000 2.6 120 05:57 24.06.2020
921 Clouds 33 1009 63 10000 2.6 120 04:46 24.06.2020
922 Clouds 33 1009 63 10000 2.6 120 04:28 24.06.2020
923 Clouds 32 1009 66 10000 2.6 100 03:34 24.06.2020
924 Clouds 31 1009 70 10000 2.1 90 02:50 24.06.2020
925 Clouds 29 1009 79 10000 2.1 70 01:41 24.06.2020
926 Clouds 28 1009 83 10000 1.5 70 00:47 24.06.2020
927 Clouds 27 1009 83 10000 1.5 70 00:27 24.06.2020
928 Clouds 28 1008 79 10000 1.5 120 23:46 23.06.2020
929 Clouds 28 1008 79 10000 1.5 120 23:20 23.06.2020
930 Clouds 28 1008 88 10000 1 0 22:54 23.06.2020
931 Clouds 27 1008 88 10000 1 0 22:36 23.06.2020
932 Clouds 27 1008 88 10000 1 0 22:18 23.06.2020
933 Clouds 27 1008 88 10000 1 0 22:18 23.06.2020
934 Clouds 27 1009 88 10000 0.5 0 21:40 23.06.2020
935 Clouds 28 1009 88 10000 0.5 0 21:19 23.06.2020
936 Clouds 28 1009 83 10000 1.5 0 20:55 23.06.2020
937 Clouds 28 1009 83 10000 1.5 0 20:37 23.06.2020
938 Clouds 28 1009 83 10000 1.5 0 20:18 23.06.2020
939 Clouds 28 1009 83 10000 1.5 0 19:45 23.06.2020
940 Clouds 28 1009 83 10000 1.5 0 19:27 23.06.2020
941 Clouds 28 1010 78 10000 0.5 0 18:42 23.06.2020
942 Clouds 28 1010 78 10000 1 0 18:19 23.06.2020
943 Clouds 28 1010 78 10000 1 0 17:58 23.06.2020
944 Clouds 28 1010 78 10000 1 0 17:39 23.06.2020
945 Clouds 28 1010 78 10000 1 0 17:20 23.06.2020
946 Clouds 27 1010 74 10000 2.6 30 16:55 23.06.2020
947 Clouds 27 1010 74 10000 2.6 30 16:37 23.06.2020
948 Clouds 28 1010 74 10000 2.6 30 16:18 23.06.2020
949 Rain 28 1009 79 10000 6.7 360 15:43 23.06.2020
950 Rain 29 1009 79 10000 6.7 360 15:24 23.06.2020
951 Thunderstorm 29 1009 74 10000 1 0 14:56 23.06.2020
952 Thunderstorm 30 1009 74 10000 1 0 14:38 23.06.2020
953 Clouds 30 1008 79 10000 3.1 240 14:18 23.06.2020
954 Clouds 30 1008 79 10000 3.1 240 13:46 23.06.2020
955 Clouds 30 1008 79 10000 3.1 240 13:26 23.06.2020
956 Clouds 31 1007 74 10000 5.1 250 12:59 23.06.2020
957 Clouds 31 1007 74 10000 5.1 250 12:59 23.06.2020
958 Rain 31 1007 74 10000 5.1 250 12:39 23.06.2020
959 Rain 31 1007 74 10000 5.1 250 12:19 23.06.2020
960 Rain 32 1007 66 9000 5.7 250 11:43 23.06.2020
961 Clouds 32 1007 66 9000 5.7 250 11:23 23.06.2020
962 Clouds 33 1007 66 10000 6.7 250 10:58 23.06.2020
963 Clouds 33 1007 66 10000 6.7 250 10:40 23.06.2020
964 Clouds 34 1007 66 10000 6.7 250 10:22 23.06.2020
965 Clouds 33 1008 62 10000 3.1 50 09:57 23.06.2020
966 Clouds 34 1008 62 10000 3.1 50 09:38 23.06.2020
967 Clouds 34 1008 62 10000 3.1 50 09:19 23.06.2020
968 Clouds 36 1007 50 10000 2.6 120 08:44 23.06.2020
969 Clouds 36 1007 50 10000 2.6 120 08:25 23.06.2020
970 Clouds 36 1008 50 10000 2.6 100 07:46 23.06.2020
971 Clouds 36 1008 50 10000 2.6 100 07:24 23.06.2020
972 Clouds 35 1008 53 10000 2.6 0 06:52 23.06.2020
973 Clouds 35 1008 53 10000 2.6 0 06:32 23.06.2020
974 Clouds 34 1009 56 10000 2.6 150 05:54 23.06.2020
975 Clouds 33 1009 63 10000 2.6 100 04:42 23.06.2020
976 Clouds 32 1010 70 10000 1.5 120 03:21 23.06.2020
977 Clouds 32 1009 70 10000 1 0 02:47 23.06.2020
978 Clouds 32 1009 70 10000 1 0 02:28 23.06.2020
979 Clouds 31 1009 79 10000 1 60 01:45 23.06.2020
980 Clouds 31 1009 79 10000 1 60 01:21 23.06.2020
981 Clouds 29 1009 83 10000 1 100 00:40 23.06.2020
982 Clouds 28 1008 79 10000 1 0 00:19 23.06.2020
983 Clouds 28 1008 79 10000 1 0 23:39 22.06.2020
984 Rain 28 1008 79 10000 1 0 23:19 22.06.2020
985 Rain 28 1009 79 10000 0.5 0 22:58 22.06.2020
986 Rain 28 1009 79 10000 0.5 0 22:40 22.06.2020
987 Clouds 29 1009 79 10000 0.5 0 22:20 22.06.2020
988 Clouds 29 1008 79 10000 1 0 21:58 22.06.2020
989 Clouds 28 1008 79 10000 1 0 21:40 22.06.2020
990 Clouds 28 1008 79 10000 1 0 21:21 22.06.2020
991 Clouds 28 1008 79 10000 1.77 88 20:54 22.06.2020
992 Clouds 28 1008 79 10000 1.77 88 20:36 22.06.2020
993 Clouds 28 1008 79 10000 1.45 102 20:18 22.06.2020
994 Clouds 28 1007 84 0 1.45 102 19:42 22.06.2020
995 Clouds 29 1009 83 10000 2.1 70 19:19 22.06.2020
996 Clouds 29 1009 83 10000 2.1 70 18:56 22.06.2020
997 Clouds 28 1009 83 10000 2.1 70 18:36 22.06.2020
998 Clouds 28 1009 83 10000 1.83 135 18:18 22.06.2020
999 Clouds 29 1009 83 10000 1.83 135 17:39 22.06.2020
1000 Clouds 29 1009 83 10000 1.95 134 17:21 22.06.2020
1001 Clouds 29 1009 83 10000 0.5 0 16:59 22.06.2020
1002 Clouds 29 1009 83 10000 0.5 0 16:41 22.06.2020
1003 Clouds 28 1008 88 10000 1.5 60 16:18 22.06.2020
1004 Clouds 28 1008 88 10000 1.5 60 15:54 22.06.2020
1005 Clouds 28 1008 88 10000 1.5 60 15:36 22.06.2020
1006 Clouds 28 1008 88 10000 0.5 0 15:18 22.06.2020
1007 Clouds 27 1008 88 10000 0.5 0 14:39 22.06.2020
1008 Clouds 27 1008 88 10000 0.5 0 14:20 22.06.2020
1009 Thunderstorm 29 1008 79 6000 3.6 0 13:54 22.06.2020
1010 Thunderstorm 29 1008 79 6000 3.6 0 13:36 22.06.2020
1011 Thunderstorm 29 1008 79 6000 3.6 0 13:18 22.06.2020
1012 Thunderstorm 32 1007 75 10000 2.1 260 12:41 22.06.2020
1013 Thunderstorm 32 1007 75 10000 2.1 260 12:22 22.06.2020
1014 Thunderstorm 32 1007 75 10000 2.1 260 12:22 22.06.2020
1015 Rain 32 1006 75 10000 5.1 260 11:38 22.06.2020
1016 Rain 32 1006 75 10000 5.1 260 11:20 22.06.2020
1017 Rain 35 1006 53 10000 2.6 0 10:57 22.06.2020
1018 Clouds 35 1006 53 10000 2.6 0 10:39 22.06.2020
1019 Clouds 36 1006 53 10000 2.6 0 10:19 22.06.2020
1020 Clouds 35 1006 56 10000 3.1 140 09:58 22.06.2020
1021 Clouds 35 1006 56 10000 3.1 140 09:40 22.06.2020
1022 Clouds 35 1006 56 10000 3.1 140 09:19 22.06.2020
1023 Clouds 35 1006 53 10000 3.1 0 08:57 22.06.2020
1024 Clouds 35 1006 53 10000 3.1 0 08:38 22.06.2020
1025 Clouds 36 1006 53 10000 3.1 0 08:19 22.06.2020
1026 Clouds 35 1007 56 10000 3.1 0 07:48 22.06.2020
1027 Clouds 35 1007 56 10000 3.1 0 07:26 22.06.2020
1028 Clouds 34 1008 59 10000 3.1 150 06:39 22.06.2020
1029 Clouds 34 1008 59 10000 3.1 150 06:21 22.06.2020
1030 Clouds 34 1008 59 10000 2.6 0 05:42 22.06.2020
1031 Clouds 32 1009 70 10000 1.5 0 03:48 22.06.2020
1032 Clouds 31 1009 74 10000 1.5 70 02:23 22.06.2020
1033 Clouds 29 1008 88 10000 0.5 0 01:18 22.06.2020
1034 Clouds 27 1008 88 10000 0.5 0 00:39 22.06.2020
1035 Clouds 27 1008 88 10000 0.5 0 23:57 21.06.2020
1036 Clouds 27 1008 88 10000 0.5 0 23:38 21.06.2020
1037 Clouds 27 1008 88 10000 0.5 0 23:20 21.06.2020
1038 Clouds 27 1008 78 10000 1.5 110 22:56 21.06.2020
1039 Clouds 27 1008 78 10000 1.5 110 22:36 21.06.2020
1040 Clouds 27 1008 78 10000 1.5 110 22:18 21.06.2020
1041 Clouds 27 1008 83 10000 1.5 70 21:56 21.06.2020
1042 Clouds 27 1008 83 10000 1.5 70 21:37 21.06.2020
1043 Clouds 27 1008 83 10000 1.5 70 21:19 21.06.2020
1044 Clouds 27 1008 78 10000 0.5 0 20:56 21.06.2020
1045 Clouds 27 1008 78 10000 0.5 0 20:36 21.06.2020
1046 Clouds 27 1008 83 10000 1 110 20:18 21.06.2020
1047 Clouds 27 1008 83 10000 1 110 20:18 21.06.2020
1048 Clouds 27 1008 83 10000 1 110 19:41 21.06.2020
1049 Clouds 27 1008 83 10000 1 110 19:21 21.06.2020
1050 Clouds 28 1009 83 10000 1 0 18:56 21.06.2020
1051 Clouds 28 1009 83 10000 1 0 18:38 21.06.2020
1052 Clouds 28 1009 83 10000 1 0 18:20 21.06.2020
1053 Clouds 28 1009 83 10000 1 0 17:55 21.06.2020
1054 Clouds 28 1009 83 10000 1 0 17:36 21.06.2020
1055 Clouds 28 1009 83 10000 1 0 17:18 21.06.2020
1056 Clouds 28 1009 83 10000 1.5 80 16:40 21.06.2020
1057 Clouds 28 1009 83 10000 1.5 80 16:22 21.06.2020
1058 Clouds 28 1008 83 10000 0.5 0 15:42 21.06.2020
1059 Clouds 28 1008 83 10000 0.5 0 15:24 21.06.2020
1060 Clouds 28 1008 83 10000 2.96 236 14:59 21.06.2020
1061 Clouds 28 1008 83 10000 2.96 236 14:38 21.06.2020
1062 Clouds 28 1008 83 10000 3.26 226 14:19 21.06.2020
1063 Clouds 28 1007 83 10000 1 0 13:56 21.06.2020
1064 Clouds 28 1007 83 10000 1 0 13:37 21.06.2020
1065 Clouds 28 1007 83 10000 1 0 13:18 21.06.2020
1066 Clouds 28 1007 88 9000 1 0 12:43 21.06.2020
1067 Clouds 27 1007 88 9000 1 0 12:24 21.06.2020
1068 Rain 28 1006 94 10000 3.1 200 11:54 21.06.2020
1069 Rain 28 1006 94 10000 3.1 200 11:36 21.06.2020
1070 Rain 32 1007 56 8000 7.7 210 11:18 21.06.2020
1071 Clouds 32 1006 70 10000 4.6 250 10:41 21.06.2020
1072 Clouds 33 1006 70 10000 4.6 250 10:23 21.06.2020
1073 Clouds 33 1006 59 10000 3.1 260 09:58 21.06.2020
1074 Clouds 34 1006 59 10000 3.1 260 09:37 21.06.2020
1075 Clouds 35 1006 59 10000 3.1 260 09:18 21.06.2020
1076 Thunderstorm 36 1007 53 10000 2.6 150 08:55 21.06.2020
1077 Thunderstorm 35 1007 53 10000 2.6 150 08:36 21.06.2020
1078 Thunderstorm 35 1007 53 10000 2.6 150 08:18 21.06.2020
1079 Clouds 34 1008 56 10000 3.6 70 07:41 21.06.2020
1080 Clouds 34 1008 56 10000 3.6 70 07:21 21.06.2020
1081 Clouds 34 1008 56 10000 3.6 110 06:48 21.06.2020
1082 Clouds 33 1009 59 10000 2.6 120 05:59 21.06.2020
1083 Clouds 33 1009 59 10000 2.6 120 05:25 21.06.2020
1084 Clouds 31 1009 74 9000 2.6 0 03:21 21.06.2020
1085 Clouds 30 1009 83 7000 1.5 0 02:54 21.06.2020
1086 Haze 28 1009 88 4500 1 0 01:49 21.06.2020
1087 Haze 27 1009 88 4500 1 0 01:21 21.06.2020
1088 Clouds 27 1009 88 7000 1 0 00:55 21.06.2020
1089 Clouds 27 1009 88 7000 1 0 00:37 21.06.2020
1090 Clouds 26 1008 88 9000 1 210 00:18 21.06.2020
1091 Clouds 27 1008 88 9000 1 210 23:43 20.06.2020
1092 Clouds 27 1008 88 9000 1 210 23:21 20.06.2020
1093 Clouds 27 1008 88 9000 0.5 60 22:55 20.06.2020
1094 Clouds 27 1008 88 9000 0.5 60 22:37 20.06.2020
1095 Clouds 27 1008 88 9000 0.32 330 22:18 20.06.2020
1096 Clouds 27 1008 88 9000 0.32 330 22:18 20.06.2020
1097 Clouds 27 1008 88 9000 0.32 330 21:55 20.06.2020
1098 Clouds 27 1008 88 9000 0.32 330 21:37 20.06.2020
1099 Clouds 27 1008 88 9000 0.05 33 21:19 20.06.2020
1100 Clouds 27 1008 88 10000 0.33 154 20:55 20.06.2020
1101 Clouds 27 1008 88 10000 0.33 154 20:36 20.06.2020
1102 Clouds 27 1009 83 10000 0.5 0 20:18 20.06.2020
1103 Clouds 27 1009 83 10000 0.5 0 19:42 20.06.2020
1104 Clouds 27 1009 83 10000 0.5 0 19:22 20.06.2020
1105 Clouds 27 1010 83 10000 0.5 0 18:43 20.06.2020
1106 Clouds 28 1010 83 10000 0.5 0 18:21 20.06.2020
1107 Clouds 28 1010 83 10000 0.5 0 17:59 20.06.2020
1108 Clouds 28 1010 83 10000 0.5 0 17:40 20.06.2020
1109 Clouds 28 1010 83 10000 0.5 0 17:21 20.06.2020
1110 Clouds 28 1010 83 10000 0.5 0 16:56 20.06.2020
1111 Clouds 28 1010 83 10000 0.5 0 16:38 20.06.2020
1112 Clouds 28 1010 83 10000 1 0 16:18 20.06.2020
1113 Clouds 28 1010 83 10000 1 0 15:42 20.06.2020
1114 Clouds 28 1009 79 10000 1 0 15:18 20.06.2020
1115 Clouds 28 1009 79 10000 1 0 14:43 20.06.2020
1116 Clouds 28 1009 79 10000 1 0 14:22 20.06.2020
1117 Clouds 28 1009 79 10000 2.1 250 13:55 20.06.2020
1118 Clouds 29 1009 79 10000 2.1 250 13:37 20.06.2020
1119 Clouds 29 1009 79 10000 2.1 250 13:19 20.06.2020
1120 Clouds 29 1008 79 10000 3.1 270 12:42 20.06.2020
1121 Clouds 29 1008 79 10000 3.1 270 12:21 20.06.2020
1122 Clouds 30 1008 74 10000 1.5 210 11:58 20.06.2020
1123 Clouds 30 1008 74 10000 1.5 210 11:38 20.06.2020
1124 Clouds 30 1008 74 10000 1.5 210 11:20 20.06.2020
1125 Clouds 30 1008 74 10000 2.6 210 10:50 20.06.2020
1126 Clouds 30 1008 74 10000 2.6 210 10:23 20.06.2020
1127 Clouds 30 1008 74 10000 2.6 210 09:57 20.06.2020
1128 Clouds 30 1008 74 10000 2.6 210 09:39 20.06.2020
1129 Clouds 30 1008 74 10000 2.6 210 09:21 20.06.2020
1130 Clouds 31 1009 62 10000 2.1 160 08:48 20.06.2020
1131 Clouds 32 1009 62 10000 2.1 160 08:30 20.06.2020
1132 Clouds 33 1010 66 10000 2.6 110 07:53 20.06.2020
1133 Clouds 33 1010 66 10000 2.6 110 07:28 20.06.2020
1134 Clouds 33 1010 66 10000 2.1 90 06:58 20.06.2020
1135 Clouds 32 1010 66 10000 2.1 90 06:24 20.06.2020
1136 Clouds 31 1011 74 10000 3.1 270 05:54 20.06.2020
1137 Clouds 31 1011 74 10000 3.1 270 05:25 20.06.2020
1138 Clouds 28 1010 83 9000 1 0 02:53 20.06.2020
1139 Clouds 27 1010 88 10000 0.5 0 01:49 20.06.2020
1140 Clouds 26 1010 88 10000 0.5 0 01:22 20.06.2020
1141 Clouds 26 1010 88 10000 0.5 0 00:22 20.06.2020
1142 Clouds 26 1010 94 10000 1 0 23:58 19.06.2020
1143 Clouds 26 1010 94 10000 1 0 23:39 19.06.2020
1144 Clouds 26 1010 94 10000 1 0 23:18 19.06.2020
1145 Clouds 26 1010 94 10000 1 0 22:41 19.06.2020
1146 Clouds 26 1010 94 10000 1 0 22:23 19.06.2020
1147 Clouds 26 1010 94 10000 1 0 21:59 19.06.2020
1148 Clouds 26 1010 94 10000 1 0 21:39 19.06.2020
1149 Clouds 26 1010 94 10000 1 0 21:18 19.06.2020
1150 Clouds 26 1010 94 10000 1 0 20:59 19.06.2020
1151 Clouds 26 1010 94 10000 1 0 20:40 19.06.2020
1152 Clouds 26 1010 94 10000 1 0 20:21 19.06.2020
1153 Clouds 26 1010 94 10000 1 0 20:21 19.06.2020
1154 Clouds 26 1010 94 10000 0.5 0 19:57 19.06.2020
1155 Clouds 26 1010 94 10000 0.5 0 19:39 19.06.2020
1156 Clouds 26 1010 94 10000 0.5 0 19:21 19.06.2020
1157 Rain 26 1012 94 9000 2.6 70 18:55 19.06.2020
1158 Clouds 26 1011 94 10000 1.5 220 18:37 19.06.2020
1159 Clouds 26 1011 94 10000 1.5 220 18:19 19.06.2020
1160 Clouds 26 1012 94 10000 1 0 17:40 19.06.2020
1161 Clouds 26 1012 94 10000 1 0 17:22 19.06.2020
1162 Clouds 26 1011 94 10000 2.6 280 16:56 19.06.2020
1163 Clouds 26 1011 94 10000 2.6 280 16:37 19.06.2020
1164 Clouds 26 1011 94 10000 2.6 280 16:19 19.06.2020
1165 Thunderstorm 26 1011 94 10000 4.1 270 15:43 19.06.2020
1166 Thunderstorm 26 1011 94 10000 4.1 270 15:24 19.06.2020
1167 Rain 27 1010 88 10000 4.6 240 14:56 19.06.2020
1168 Rain 27 1010 88 10000 4.6 240 14:38 19.06.2020
1169 Rain 27 1010 88 10000 4.6 240 14:19 19.06.2020
1170 Clouds 27 1010 78 10000 2.52 224 13:44 19.06.2020
1171 Clouds 27 1010 78 10000 2.6 236 13:26 19.06.2020
1172 Clouds 27 1009 83 10000 2.1 240 12:48 19.06.2020
1173 Clouds 28 1009 83 10000 2.1 240 12:23 19.06.2020
1174 Clouds 28 1009 83 10000 2.1 270 11:59 19.06.2020
1175 Clouds 28 1009 83 10000 2.1 270 11:40 19.06.2020
1176 Clouds 28 1009 83 10000 2.1 270 11:19 19.06.2020
1177 Clouds 28 1009 83 10000 3.1 240 10:46 19.06.2020
1178 Clouds 28 1009 83 10000 3.1 240 10:27 19.06.2020
1179 Clouds 28 1008 83 10000 3.1 30 09:59 19.06.2020
1180 Clouds 28 1008 83 10000 3.1 30 09:59 19.06.2020
1181 Clouds 28 1008 83 10000 3.1 30 09:41 19.06.2020
1182 Clouds 28 1008 83 10000 3.1 30 09:20 19.06.2020
1183 Thunderstorm 27 1009 94 6000 2.1 40 08:45 19.06.2020
1184 Thunderstorm 27 1009 94 6000 2.1 40 08:26 19.06.2020
1185 Thunderstorm 29 1009 79 7000 3.1 320 07:56 19.06.2020
1186 Clouds 30 1009 74 10000 3.1 300 07:38 19.06.2020
1187 Clouds 29 1009 74 10000 3.1 300 07:20 19.06.2020
1188 Clouds 30 1010 79 10000 4.6 290 06:25 19.06.2020
1189 Clouds 30 1010 74 10000 4.1 270 05:46 19.06.2020
1190 Clouds 30 1010 70 10000 3.1 290 04:27 19.06.2020
1191 Clouds 30 1010 74 10000 1 0 02:51 19.06.2020
1192 Clouds 27 1009 83 10000 2.1 360 00:56 19.06.2020
1193 Clouds 27 1009 83 10000 2.1 360 00:37 19.06.2020
1194 Clouds 27 1009 83 10000 2.1 360 00:19 19.06.2020
1195 Rain 27 1009 83 10000 2.1 340 23:41 18.06.2020
1196 Rain 27 1009 83 10000 2.1 340 23:23 18.06.2020
1197 Rain 27 1009 83 10000 2.1 10 22:59 18.06.2020
1198 Clouds 27 1009 83 10000 2.1 10 22:37 18.06.2020
1199 Clouds 27 1009 83 10000 2.1 10 22:18 18.06.2020
1200 Clouds 28 1009 78 10000 1.5 40 21:39 18.06.2020
1201 Clouds 28 1009 78 10000 1.5 40 21:20 18.06.2020
1202 Clouds 28 1009 74 10000 2.6 20 20:57 18.06.2020
1203 Clouds 28 1009 74 10000 2.6 20 20:38 18.06.2020
1204 Clouds 28 1009 74 10000 2.6 20 20:19 18.06.2020
1205 Clouds 28 1010 79 10000 1 0 19:42 18.06.2020
1206 Clouds 28 1010 79 10000 1 0 19:22 18.06.2020
1207 Clouds 28 1010 79 10000 1 250 18:57 18.06.2020
1208 Clouds 28 1010 79 10000 1 250 18:37 18.06.2020
1209 Clouds 28 1010 79 10000 1 250 18:19 18.06.2020
1210 Clouds 28 1010 83 10000 3.6 320 17:45 18.06.2020
1211 Clouds 28 1010 83 10000 3.6 320 17:25 18.06.2020
1212 Clouds 29 1010 74 10000 2.1 360 16:56 18.06.2020
1213 Clouds 29 1010 74 10000 2.1 360 16:37 18.06.2020
1214 Clouds 29 1010 74 10000 2.1 360 16:18 18.06.2020
1215 Clouds 30 1009 70 10000 3.1 100 15:55 18.06.2020
1216 Clouds 31 1009 70 10000 3.1 100 15:37 18.06.2020
1217 Clouds 31 1009 74 10000 2.1 90 15:18 18.06.2020
1218 Clouds 31 1009 74 10000 2.1 90 14:41 18.06.2020
1219 Clouds 31 1009 74 10000 2.1 90 14:23 18.06.2020
1220 Clouds 32 1008 70 10000 1.5 140 13:58 18.06.2020
1221 Clouds 31 1008 70 10000 1.5 140 13:40 18.06.2020
1222 Clouds 31 1008 70 10000 1.5 140 13:40 18.06.2020
1223 Clouds 32 1008 70 10000 1.5 140 13:19 18.06.2020
1224 Clouds 31 1008 70 9000 1.5 110 12:55 18.06.2020
1225 Clouds 31 1008 70 9000 1.5 110 12:36 18.06.2020
1226 Clouds 31 1008 70 9000 1.5 110 12:18 18.06.2020
1227 Clouds 33 1007 59 10000 3.1 130 11:44 18.06.2020
1228 Clouds 33 1007 59 10000 3.1 130 11:21 18.06.2020
1229 Clouds 34 1007 56 10000 3.1 0 10:41 18.06.2020
1230 Clouds 34 1007 56 10000 3.1 0 10:20 18.06.2020
1231 Clouds 34 1007 59 10000 2.6 140 09:57 18.06.2020
1232 Clouds 34 1007 59 10000 2.6 140 09:38 18.06.2020
1233 Clouds 34 1007 59 10000 2.6 140 09:20 18.06.2020
1234 Clouds 34 1008 63 10000 1.5 0 08:40 18.06.2020
1235 Clouds 34 1008 63 10000 1.5 0 08:21 18.06.2020
1236 Clouds 34 1008 63 10000 1.5 0 08:21 18.06.2020
1237 Clouds 34 1008 59 10000 3.6 260 07:46 18.06.2020
1238 Clouds 35 1008 59 10000 3.6 260 07:27 18.06.2020
1239 Clouds 35 1009 59 10000 2.1 290 06:55 18.06.2020
1240 Clouds 34 1009 52 10000 2.6 110 05:58 18.06.2020
1241 Clouds 34 1010 52 10000 1.5 0 04:24 18.06.2020
1242 Clouds 32 1010 59 10000 1.5 0 02:51 18.06.2020
1243 Clouds 30 1010 66 10000 1 0 01:29 18.06.2020
1244 Clouds 29 1010 70 10000 1 0 00:56 18.06.2020
1245 Clouds 28 1010 70 10000 1 0 00:37 18.06.2020
1246 Clouds 28 1010 70 10000 1 0 00:19 18.06.2020
1247 Clouds 28 1009 74 10000 0.5 0 23:42 17.06.2020
1248 Clouds 28 1009 74 10000 0.5 0 23:20 17.06.2020
1249 Clouds 27 1009 83 10000 1 80 22:57 17.06.2020
1250 Clouds 28 1009 83 10000 1 80 22:38 17.06.2020
1251 Clouds 28 1009 83 10000 1 80 22:20 17.06.2020
1252 Clouds 28 1009 83 10000 1 80 22:20 17.06.2020
1253 Clouds 28 1009 74 10000 1.5 100 21:42 17.06.2020
1254 Clouds 28 1009 74 10000 1.5 100 21:24 17.06.2020
1255 Clouds 29 1009 74 10000 1 0 21:00 17.06.2020
1256 Clouds 29 1009 74 10000 1 0 20:59 17.06.2020
1257 Clouds 29 1009 74 10000 1 0 20:38 17.06.2020
1258 Clouds 29 1009 74 10000 1 0 20:19 17.06.2020
1259 Clouds 29 1010 74 10000 2.1 140 19:46 17.06.2020
1260 Clouds 29 1010 74 10000 2.1 140 19:23 17.06.2020
1261 Clouds 29 1010 70 10000 2.1 140 18:58 17.06.2020
1262 Clouds 29 1010 70 10000 2.1 140 18:40 17.06.2020
1263 Clouds 29 1010 70 10000 2.1 140 18:40 17.06.2020
1264 Clouds 29 1010 70 10000 2.1 140 18:21 17.06.2020
1265 Clouds 30 1010 79 10000 2.1 150 17:43 17.06.2020
1266 Clouds 30 1010 79 10000 2.1 150 17:22 17.06.2020
1267 Clouds 30 1010 74 10000 2.6 160 16:57 17.06.2020
1268 Clouds 30 1010 74 10000 2.6 160 16:57 17.06.2020
1269 Clouds 30 1010 74 10000 2.6 160 16:38 17.06.2020
1270 Clouds 30 1010 74 10000 2.6 160 16:20 17.06.2020
1271 Clouds 31 1010 66 10000 2.1 130 15:56 17.06.2020
1272 Clouds 31 1010 66 10000 2.1 130 15:38 17.06.2020
1273 Clouds 31 1009 70 10000 2.1 200 15:18 17.06.2020
1274 Clouds 31 1009 70 10000 2.1 200 14:40 17.06.2020
1275 Clouds 31 1009 70 10000 2.1 200 14:21 17.06.2020
1276 Clouds 31 1008 70 10000 2.6 240 14:00 17.06.2020
1277 Clouds 31 1008 70 10000 2.6 240 13:41 17.06.2020
1278 Clouds 31 1008 70 10000 2.6 240 13:41 17.06.2020
1279 Clouds 31 1008 70 10000 2.6 240 13:21 17.06.2020
1280 Clouds 31 1008 74 10000 4.1 260 12:55 17.06.2020
1281 Clouds 31 1008 74 10000 4.1 260 12:37 17.06.2020
1282 Clouds 32 1008 74 10000 4.1 260 12:19 17.06.2020
1283 Clouds 33 1008 66 10000 4.6 270 11:44 17.06.2020
1284 Clouds 33 1008 66 10000 4.6 270 11:24 17.06.2020
1285 Clouds 34 1007 44 10000 3.1 140 10:55 17.06.2020
1286 Clouds 35 1007 44 10000 3.1 140 10:36 17.06.2020
1287 Clouds 35 1007 53 10000 3.1 130 10:18 17.06.2020
1288 Clouds 35 1007 53 10000 3.1 130 09:41 17.06.2020
1289 Clouds 34 1007 53 10000 3.1 130 09:21 17.06.2020
1290 Clouds 35 1008 47 10000 3.6 130 08:57 17.06.2020
1291 Clouds 35 1008 47 10000 3.6 130 08:39 17.06.2020
1292 Clouds 35 1008 47 10000 3.6 130 08:19 17.06.2020
1293 Clouds 34 1008 56 10000 3.6 150 07:43 17.06.2020
1294 Clouds 34 1008 56 10000 3.6 150 07:21 17.06.2020
1295 Clouds 34 1009 56 50 1.5 0 06:56 17.06.2020
1296 Clouds 34 1009 56 50 1.5 0 06:37 17.06.2020
1297 Clouds 34 1009 56 50 1.5 0 06:19 17.06.2020
1298 Clouds 33 1010 62 10000 3.1 130 05:18 17.06.2020
1299 Clouds 31 1010 66 10000 3.6 110 03:28 17.06.2020
1300 Clouds 30 1010 74 10000 3.6 100 01:51 17.06.2020
1301 Clouds 29 1009 74 10000 3.1 100 00:46 17.06.2020
1302 Clouds 28 1009 74 10000 3.1 100 00:23 17.06.2020
1303 Clouds 28 1009 78 10000 2.1 110 23:56 16.06.2020
1304 Clouds 28 1009 78 10000 2.1 110 23:56 16.06.2020
1305 Clouds 28 1009 78 10000 2.1 110 23:37 16.06.2020
1306 Clouds 28 1009 78 10000 2.1 110 23:19 16.06.2020
1307 Clouds 28 1008 78 10000 2.6 90 22:55 16.06.2020
1308 Clouds 28 1008 78 10000 2.6 90 22:36 16.06.2020
1309 Clouds 28 1008 78 10000 2.6 90 22:36 16.06.2020
1310 Clouds 28 1009 70 10000 2.6 110 22:18 16.06.2020
1311 Clouds 28 1009 70 10000 2.6 110 21:47 16.06.2020
1312 Clouds 29 1009 70 10000 2.6 110 21:23 16.06.2020
1313 Clouds 29 1009 66 10000 1.5 110 20:57 16.06.2020
1314 Clouds 29 1009 66 10000 1.5 110 20:39 16.06.2020
1315 Clouds 29 1009 66 10000 1.5 110 20:19 16.06.2020
1316 Clouds 29 1009 70 10000 2.1 90 19:57 16.06.2020
1317 Clouds 29 1009 70 10000 2.1 90 19:38 16.06.2020
1318 Clouds 29 1009 70 10000 2.1 90 19:20 16.06.2020
1319 Clouds 29 1009 70 10000 3.1 120 18:45 16.06.2020
1320 Clouds 29 1009 70 10000 3.1 120 18:22 16.06.2020
1321 Clouds 29 1010 70 10000 2.6 110 17:59 16.06.2020
1322 Clouds 30 1010 70 10000 2.6 110 17:39 16.06.2020
1323 Clouds 30 1010 70 10000 2.6 110 17:21 16.06.2020
1324 Clouds 30 1011 70 10000 2.6 130 16:59 16.06.2020
1325 Clouds 30 1011 70 10000 2.6 130 16:40 16.06.2020
1326 Clouds 30 1011 70 10000 2.6 130 16:20 16.06.2020
1327 Clouds 30 1009 70 10000 2.6 140 15:57 16.06.2020
1328 Clouds 30 1009 70 10000 2.6 140 15:39 16.06.2020
1329 Clouds 30 1009 70 10000 2.6 140 15:21 16.06.2020
1330 Clouds 31 1009 70 10000 2.6 140 14:56 16.06.2020
1331 Clouds 31 1009 70 10000 2.6 140 14:38 16.06.2020
1332 Clouds 31 1009 70 10000 2.6 140 14:19 16.06.2020
1333 Clouds 31 1008 70 10000 2.1 140 13:45 16.06.2020
1334 Clouds 31 1008 70 10000 2.1 140 13:25 16.06.2020
1335 Clouds 32 1007 62 10000 2.6 150 12:43 16.06.2020
1336 Clouds 32 1007 62 10000 2.6 150 12:23 16.06.2020
1337 Clouds 33 1007 59 10000 2.6 140 11:59 16.06.2020
1338 Clouds 33 1007 59 10000 2.6 140 11:40 16.06.2020
1339 Clouds 33 1007 59 10000 2.6 140 11:22 16.06.2020
1340 Clouds 33 1007 59 10000 3.1 130 10:58 16.06.2020
1341 Clouds 33 1007 59 10000 3.1 130 10:39 16.06.2020
1342 Clouds 33 1007 59 10000 3.1 130 10:20 16.06.2020
1343 Clouds 34 1007 59 10000 4.1 130 09:45 16.06.2020
1344 Clouds 34 1007 59 10000 4.1 130 09:23 16.06.2020
1345 Clouds 34 1008 56 10000 4.6 120 08:53 16.06.2020
1346 Clouds 35 1008 56 10000 4.6 120 08:33 16.06.2020
1347 Clouds 34 1008 59 10000 4.6 130 07:52 16.06.2020
1348 Clouds 34 1008 59 10000 4.6 130 07:30 16.06.2020
1349 Clouds 34 1010 63 10000 2.1 0 06:57 16.06.2020
1350 Clouds 33 1010 63 10000 2.1 0 06:34 16.06.2020
1351 Clouds 34 1010 59 10000 3.1 120 05:52 16.06.2020
1352 Clouds 33 1011 63 10000 3.1 100 04:55 16.06.2020
1353 Clouds 32 1011 59 10000 3.6 100 03:56 16.06.2020
1354 Clouds 31 1011 62 10000 2.1 0 02:35 16.06.2020
1355 Clouds 29 1011 79 10000 1.5 60 01:33 16.06.2020
1356 Clouds 28 1011 83 10000 0.5 0 00:55 16.06.2020
1357 Clouds 27 1011 83 10000 0.5 0 00:22 16.06.2020
1358 Clouds 27 1010 83 10000 2.59 98 23:55 15.06.2020
1359 Clouds 27 1010 83 10000 2.59 98 23:37 15.06.2020
1360 Clouds 27 1010 83 10000 2.02 91 23:19 15.06.2020
1361 Clouds 27 1010 83 10000 0.5 0 22:42 15.06.2020
1362 Clouds 27 1010 83 10000 0.5 0 22:22 15.06.2020
1363 Clouds 27 1010 88 10000 2.1 80 21:58 15.06.2020
1364 Clouds 27 1010 88 10000 2.1 80 21:58 15.06.2020
1365 Clouds 27 1010 88 10000 2.1 80 21:58 15.06.2020
1366 Clouds 27 1010 88 10000 2.1 80 21:38 15.06.2020
1367 Clouds 27 1010 88 10000 2.1 80 21:20 15.06.2020
1368 Clouds 28 1010 83 9000 1.5 70 20:57 15.06.2020
1369 Clouds 28 1010 83 9000 1.5 70 20:38 15.06.2020
1370 Clouds 28 1010 83 9000 1.5 70 20:19 15.06.2020
1371 Clouds 28 1011 83 10000 1 0 19:57 15.06.2020
1372 Clouds 28 1011 83 10000 1 0 19:38 15.06.2020
1373 Clouds 28 1011 88 8000 1.5 90 19:20 15.06.2020
1374 Clouds 28 1011 88 8000 1.5 90 18:56 15.06.2020
1375 Clouds 28 1011 88 8000 1.5 90 18:37 15.06.2020
1376 Clouds 28 1011 88 8000 1.5 90 18:19 15.06.2020
1377 Clouds 29 1012 83 9000 1.5 100 17:56 15.06.2020
1378 Clouds 29 1012 83 9000 1.5 100 17:37 15.06.2020
1379 Clouds 29 1012 83 10000 1 0 17:18 15.06.2020
1380 Clouds 29 1012 83 10000 1 0 16:41 15.06.2020
1381 Clouds 29 1012 83 10000 1 0 16:19 15.06.2020
1382 Clouds 29 1012 79 10000 1.5 110 15:56 15.06.2020
1383 Clouds 29 1012 79 10000 1.5 110 15:38 15.06.2020
1384 Clouds 29 1012 74 10000 1.5 140 15:19 15.06.2020
1385 Clouds 29 1012 74 10000 1.5 140 14:42 15.06.2020
1386 Clouds 29 1012 74 10000 1.5 140 14:21 15.06.2020
1387 Clouds 29 1011 74 10000 1.5 160 13:59 15.06.2020
1388 Clouds 29 1011 74 10000 1.5 160 13:41 15.06.2020
1389 Clouds 29 1011 74 10000 1.5 160 13:41 15.06.2020
1390 Clouds 29 1011 74 10000 1.5 160 13:22 15.06.2020
1391 Clouds 29 1011 74 9000 1 0 12:57 15.06.2020
1392 Clouds 30 1011 74 9000 1 0 12:39 15.06.2020
1393 Clouds 30 1011 74 9000 1 0 12:21 15.06.2020
1394 Clouds 30 1010 74 10000 1 0 11:43 15.06.2020
1395 Clouds 30 1010 74 10000 1 0 11:25 15.06.2020
1396 Clouds 30 1010 66 10000 1.5 110 10:45 15.06.2020
1397 Clouds 30 1010 66 10000 1.5 110 10:23 15.06.2020
1398 Clouds 30 1010 66 10000 2.79 141 09:56 15.06.2020
1399 Clouds 30 1010 66 10000 2.79 141 09:38 15.06.2020
1400 Clouds 30 1010 66 10000 2.69 136 09:19 15.06.2020
1401 Clouds 28 1011 74 10000 1.5 310 08:39 15.06.2020
1402 Clouds 28 1011 74 10000 1.5 310 08:21 15.06.2020
1403 Rain 31 1012 70 10000 4.6 100 07:46 15.06.2020
1404 Rain 31 1012 70 10000 4.6 100 07:28 15.06.2020
1405 Rain 31 1013 66 10000 2.1 310 06:48 15.06.2020
1406 Rain 31 1013 66 10000 2.1 310 06:25 15.06.2020
1407 Clouds 31 1013 66 10000 3.1 290 05:46 15.06.2020
1408 Clouds 31 1013 66 10000 3.1 290 05:25 15.06.2020
1409 Clouds 32 1013 74 10000 2.6 280 04:20 15.06.2020
1410 Clouds 32 1013 62 10000 1 0 03:41 15.06.2020
1411 Clouds 30 1012 70 10000 1.5 80 02:53 15.06.2020
1412 Clouds 29 1012 74 10000 1 0 01:53 15.06.2020
1413 Clouds 29 1012 74 10000 1 0 01:32 15.06.2020
1414 Clouds 27 1012 78 10000 1 0 00:58 15.06.2020
1415 Clouds 27 1012 78 10000 1 0 00:39 15.06.2020
1416 Clouds 27 1012 78 10000 1 0 00:19 15.06.2020
1417 Clouds 27 1012 83 10000 0.5 0 23:46 14.06.2020
1418 Clouds 27 1012 83 10000 0.5 0 23:24 14.06.2020
1419 Clouds 27 1011 83 10000 1 120 22:58 14.06.2020
1420 Clouds 27 1011 83 10000 1 120 22:39 14.06.2020
1421 Clouds 27 1011 83 10000 1 120 22:19 14.06.2020
1422 Clouds 27 1011 83 10000 1.5 80 21:57 14.06.2020
1423 Clouds 27 1011 83 10000 1.5 80 21:38 14.06.2020
1424 Clouds 27 1011 83 10000 1.5 80 21:19 14.06.2020
1425 Clouds 27 1012 83 10000 2.65 47 20:58 14.06.2020
1426 Clouds 27 1012 83 10000 2.65 47 20:38 14.06.2020
1427 Clouds 27 1012 83 10000 2.61 63 20:19 14.06.2020
1428 Clouds 28 1012 78 10000 0.5 0 19:58 14.06.2020
1429 Clouds 28 1012 78 10000 0.5 0 19:38 14.06.2020
1430 Clouds 27 1012 78 10000 0.5 0 19:19 14.06.2020
1431 Clouds 27 1012 78 10000 1.5 120 18:56 14.06.2020
1432 Clouds 27 1012 78 10000 1.5 120 18:38 14.06.2020
1433 Clouds 28 1012 78 10000 1.5 120 18:19 14.06.2020
1434 Clouds 28 1013 78 10000 2.1 80 17:57 14.06.2020
1435 Clouds 28 1013 78 10000 2.1 80 17:38 14.06.2020
1436 Clouds 28 1013 78 10000 2.1 80 17:19 14.06.2020
1437 Rain 28 1014 78 10000 3.6 100 16:41 14.06.2020
1438 Rain 28 1014 78 10000 3.6 100 16:20 14.06.2020
1439 Clouds 28 1013 79 10000 4.77 98 15:58 14.06.2020
1440 Clouds 28 1013 79 10000 4.77 98 15:40 14.06.2020
1441 Clouds 29 1013 79 10000 3.6 120 15:18 14.06.2020
1442 Clouds 29 1013 79 10000 3.6 120 14:58 14.06.2020
1443 Clouds 29 1013 79 10000 3.6 120 14:58 14.06.2020
1444 Clouds 29 1013 79 10000 3.6 120 14:40 14.06.2020
1445 Clouds 29 1013 79 10000 3.6 120 14:19 14.06.2020
1446 Clouds 29 1012 74 10000 3.1 120 13:42 14.06.2020
1447 Clouds 29 1012 74 10000 3.1 120 13:22 14.06.2020
1448 Clouds 30 1011 70 10000 4.1 120 12:59 14.06.2020
1449 Clouds 30 1011 70 10000 4.1 120 12:41 14.06.2020
1450 Clouds 31 1011 70 10000 4.1 120 12:23 14.06.2020
1451 Clouds 31 1010 70 10000 3.6 100 11:59 14.06.2020
1452 Clouds 31 1010 70 10000 3.6 100 11:41 14.06.2020
1453 Clouds 31 1010 70 10000 3.6 100 11:22 14.06.2020
1454 Clouds 32 1010 63 10000 5.7 90 11:00 14.06.2020
1455 Clouds 32 1010 63 10000 5.7 90 10:40 14.06.2020
1456 Clouds 32 1010 63 10000 3.6 120 10:18 14.06.2020
1457 Clouds 32 1010 63 10000 3.6 120 10:18 14.06.2020
1458 Clouds 32 1010 63 10000 3.6 120 09:44 14.06.2020
1459 Clouds 32 1010 63 10000 3.6 120 09:24 14.06.2020
1460 Clouds 33 1010 59 10000 3.1 0 08:43 14.06.2020
1461 Rain 33 1010 59 10000 3.1 0 08:22 14.06.2020
1462 Clouds 34 1010 59 10000 4.6 130 07:56 14.06.2020
1463 Clouds 34 1010 59 10000 4.6 130 07:35 14.06.2020
1464 Clouds 33 1011 63 10000 3.1 130 06:59 14.06.2020
1465 Clouds 33 1011 59 10000 3.6 110 05:56 14.06.2020
1466 Clouds 33 1011 59 10000 3.6 110 05:34 14.06.2020
1467 Clouds 32 1012 66 10000 3.6 110 04:41 14.06.2020
1468 Clouds 31 1012 70 10000 4.1 100 03:55 14.06.2020
1469 Clouds 31 1012 70 10000 3.1 120 02:43 14.06.2020
1470 Clouds 31 1012 70 10000 3.1 120 02:23 14.06.2020
1471 Clouds 29 1012 79 10000 1.5 100 01:30 14.06.2020
1472 Clouds 28 1011 88 10000 1 0 00:49 14.06.2020
1473 Clouds 28 1011 79 10000 1.5 100 00:21 14.06.2020
1474 Clouds 28 1011 79 10000 1.5 100 23:46 13.06.2020
1475 Clouds 28 1011 79 10000 1.5 100 23:26 13.06.2020
1476 Clouds 28 1011 79 10000 0.5 0 22:59 13.06.2020
1477 Clouds 28 1011 79 10000 0.5 0 22:38 13.06.2020
1478 Clouds 28 1011 79 10000 0.5 0 22:19 13.06.2020
1479 Thunderstorm 28 1011 79 10000 1 0 21:57 13.06.2020
1480 Thunderstorm 28 1011 79 10000 1 0 21:39 13.06.2020
1481 Thunderstorm 28 1011 79 10000 1 0 21:21 13.06.2020
1482 Clouds 28 1011 88 10000 2.1 70 20:44 13.06.2020
1483 Clouds 28 1011 88 10000 2.1 70 20:20 13.06.2020
1484 Clouds 28 1011 88 10000 1 80 19:59 13.06.2020
1485 Clouds 28 1011 88 10000 1 80 19:38 13.06.2020
1486 Rain 29 1011 83 10000 1.5 70 19:19 13.06.2020
1487 Rain 29 1011 83 10000 1.5 70 18:57 13.06.2020
1488 Rain 29 1011 83 10000 1.5 70 18:57 13.06.2020
1489 Rain 29 1011 83 10000 1.5 70 18:38 13.06.2020
1490 Rain 28 1011 100 10000 1.5 110 18:18 13.06.2020
1491 Rain 28 1011 100 10000 1.5 110 17:55 13.06.2020
1492 Rain 28 1011 100 10000 1.5 110 17:55 13.06.2020
1493 Clouds 30 1012 74 10000 1.5 100 17:36 13.06.2020
1494 Clouds 30 1012 74 10000 1.5 160 17:18 13.06.2020
1495 Clouds 30 1012 74 10000 1.5 160 16:41 13.06.2020
1496 Clouds 30 1012 74 10000 1.5 160 16:19 13.06.2020
1497 Clouds 30 1011 74 10000 1.5 0 15:59 13.06.2020
1498 Clouds 30 1011 74 10000 1.5 0 15:39 13.06.2020
1499 Clouds 30 1011 74 10000 1.5 0 15:20 13.06.2020
1500 Clouds 30 1010 74 10000 2.6 110 14:43 13.06.2020
1501 Clouds 30 1010 74 10000 2.6 110 14:22 13.06.2020
1502 Clouds 30 1010 70 10000 2.1 100 13:56 13.06.2020
1503 Clouds 30 1010 70 10000 2.1 100 13:37 13.06.2020
1504 Clouds 30 1009 70 10000 3.1 120 13:18 13.06.2020
1505 Clouds 31 1009 70 10000 3.1 120 12:42 13.06.2020
1506 Clouds 31 1009 70 10000 3.1 120 12:24 13.06.2020
1507 Clouds 31 1008 70 10000 1 90 11:55 13.06.2020
1508 Clouds 31 1008 70 10000 1 90 11:37 13.06.2020
1509 Clouds 32 1007 59 10000 3.6 140 11:18 13.06.2020
1510 Clouds 33 1007 59 10000 3.6 140 10:42 13.06.2020
1511 Clouds 33 1007 59 10000 3.6 140 10:23 13.06.2020
1512 Clouds 33 1007 59 10000 3.6 130 09:55 13.06.2020
1513 Clouds 33 1007 59 10000 3.6 130 09:36 13.06.2020
1514 Clouds 33 1007 59 10000 4.1 120 09:18 13.06.2020
1515 Clouds 33 1007 59 10000 4.1 120 08:44 13.06.2020
1516 Clouds 33 1007 59 10000 4.1 120 08:26 13.06.2020
1517 Clouds 33 1008 63 10000 4.1 120 07:44 13.06.2020
1518 Clouds 33 1008 63 10000 4.1 120 07:25 13.06.2020
1519 Clouds 33 1008 63 10000 3.6 120 06:44 13.06.2020
1520 Clouds 33 1008 63 10000 3.6 120 06:25 13.06.2020
1521 Clouds 33 1009 62 10000 3.6 120 05:29 13.06.2020
1522 Clouds 32 1009 66 10000 3.1 120 04:38 13.06.2020
1523 Clouds 31 1009 62 10000 4.6 110 03:43 13.06.2020
1524 Clouds 30 1009 74 10000 2.1 90 02:45 13.06.2020
1525 Clouds 29 1008 83 10000 2.1 140 01:49 13.06.2020
1526 Clouds 29 1008 83 10000 2.1 140 01:23 13.06.2020
1527 Clouds 27 1008 83 10000 1 0 00:54 13.06.2020
1528 Clouds 27 1008 83 10000 1 0 00:27 13.06.2020
1529 Clouds 26 1007 88 10000 1 70 23:58 12.06.2020
1530 Clouds 26 1007 88 10000 1 70 23:38 12.06.2020
1531 Clouds 26 1007 88 10000 1 90 23:18 12.06.2020
1532 Clouds 26 1007 88 10000 1 90 22:43 12.06.2020
1533 Clouds 26 1007 88 10000 1 90 22:19 12.06.2020
1534 Clouds 26 1007 88 10000 2.67 123 21:59 12.06.2020
1535 Clouds 26 1007 88 10000 2.67 123 21:40 12.06.2020
1536 Clouds 26 1007 88 10000 2.5 115 21:21 12.06.2020
1537 Clouds 27 1007 78 10000 1 240 20:56 12.06.2020
1538 Clouds 27 1007 78 10000 1 240 20:37 12.06.2020
1539 Clouds 27 1007 78 10000 0.5 0 20:19 12.06.2020
1540 Clouds 27 1007 78 10000 0.5 0 19:39 12.06.2020
1541 Clouds 27 1007 78 10000 0.5 0 19:21 12.06.2020
1542 Clouds 27 1007 78 10000 0.5 0 18:56 12.06.2020
1543 Clouds 27 1007 78 10000 0.5 0 18:36 12.06.2020
1544 Clouds 27 1007 78 10000 0.5 0 18:18 12.06.2020
1545 Clouds 27 1007 78 10000 0.5 0 17:40 12.06.2020
1546 Clouds 27 1007 78 10000 0.5 0 17:40 12.06.2020
1547 Clouds 27 1007 78 10000 0.5 0 17:21 12.06.2020
1548 Clouds 27 1008 83 10000 1.5 0 16:45 12.06.2020
1549 Clouds 27 1008 83 10000 1.5 0 16:21 12.06.2020
1550 Clouds 27 1008 78 10000 1 0 15:49 12.06.2020
1551 Clouds 27 1008 78 10000 1 0 15:28 12.06.2020
1552 Clouds 27 1007 74 10000 2.1 200 14:58 12.06.2020
1553 Clouds 27 1007 74 10000 2.1 200 14:39 12.06.2020
1554 Clouds 27 1007 74 10000 2.1 200 14:21 12.06.2020
1555 Clouds 27 1006 78 10000 2.6 210 13:43 12.06.2020
1556 Clouds 27 1006 78 10000 2.6 210 13:22 12.06.2020
1557 Clouds 27 1006 83 10000 3.1 230 12:55 12.06.2020
1558 Clouds 27 1006 83 10000 3.1 230 12:37 12.06.2020
1559 Clouds 27 1005 88 10000 6.7 260 12:18 12.06.2020
1560 Clouds 27 1005 88 10000 6.7 260 11:42 12.06.2020
1561 Clouds 27 1005 88 10000 6.7 260 11:23 12.06.2020
1562 Clouds 29 1005 70 10000 4.1 220 10:49 12.06.2020
1563 Clouds 29 1005 70 10000 4.1 220 10:26 12.06.2020
1564 Rain 29 1005 74 10000 6.7 250 09:58 12.06.2020
1565 Rain 29 1005 74 10000 6.7 250 09:38 12.06.2020
1566 Clouds 31 1005 62 10000 3.1 230 09:18 12.06.2020
1567 Clouds 31 1005 62 10000 3.1 230 08:41 12.06.2020
1568 Clouds 31 1005 62 10000 3.1 230 08:22 12.06.2020
1569 Clouds 30 1006 70 10000 3.6 230 07:40 12.06.2020
1570 Clouds 29 1006 70 10000 3.6 230 07:22 12.06.2020
1571 Clouds 29 1006 74 10000 5.1 260 06:40 12.06.2020
1572 Clouds 29 1006 74 10000 5.1 260 06:19 12.06.2020
1573 Rain 28 1007 78 10000 2.6 210 05:49 12.06.2020
1574 Rain 28 1007 78 10000 2.6 210 05:23 12.06.2020
1575 Clouds 29 1007 74 10000 3.6 220 03:47 12.06.2020
1576 Clouds 28 1006 78 10000 2.1 0 02:24 12.06.2020
1577 Rain 26 1006 88 10000 1.5 160 01:33 12.06.2020
1578 Rain 25 1005 94 10000 1.5 160 00:57 12.06.2020
1579 Rain 25 1005 94 10000 1.5 160 00:38 12.06.2020
1580 Rain 25 1005 94 10000 1.5 160 00:19 12.06.2020
1581 Rain 25 1005 94 10000 3.1 210 23:56 11.06.2020
1582 Rain 25 1004 94 10000 3.1 200 23:36 11.06.2020
1583 Rain 25 1004 94 9000 2.1 210 23:18 11.06.2020
1584 Rain 25 1004 94 9000 2.1 210 22:40 11.06.2020
1585 Rain 25 1004 94 9000 2.1 210 22:20 11.06.2020
1586 Rain 25 1004 88 10000 3.1 210 21:57 11.06.2020
1587 Rain 26 1004 88 10000 3.1 210 21:38 11.06.2020
1588 Rain 26 1004 88 10000 3.1 210 21:20 11.06.2020
1589 Clouds 26 1004 88 10000 3.1 210 20:45 11.06.2020
1590 Clouds 26 1004 88 10000 3.1 210 20:22 11.06.2020
1591 Clouds 26 1005 94 10000 2.6 210 19:58 11.06.2020
1592 Rain 26 1003 95 0 2.68 129 19:40 11.06.2020
1593 Rain 26 1005 94 10000 2.1 200 19:22 11.06.2020
1594 Rain 26 1005 94 10000 2.1 200 18:42 11.06.2020
1595 Rain 26 1005 94 10000 2.1 200 18:24 11.06.2020
1596 Rain 26 1006 94 10000 1.5 220 17:57 11.06.2020
1597 Rain 26 1006 94 10000 1.5 220 17:38 11.06.2020
1598 Rain 26 1006 94 10000 1.5 220 17:20 11.06.2020
1599 Rain 26 1006 94 10000 1.5 220 17:20 11.06.2020
1600 Rain 26 1005 94 10000 2.1 200 16:58 11.06.2020
1601 Rain 26 1005 94 10000 2.1 200 16:40 11.06.2020
1602 Rain 26 1005 94 10000 2.1 200 16:21 11.06.2020
1603 Rain 26 1005 94 10000 2.1 230 15:55 11.06.2020
1604 Rain 26 1005 94 10000 2.1 230 15:37 11.06.2020
1605 Rain 26 1005 94 10000 2.1 230 15:18 11.06.2020
1606 Rain 26 1005 94 7000 1.5 180 14:42 11.06.2020
1607 Rain 26 1005 94 7000 1.5 180 14:20 11.06.2020
1608 Rain 25 1005 94 8000 2.6 210 13:56 11.06.2020
1609 Rain 25 1005 94 8000 2.6 210 13:37 11.06.2020
1610 Rain 26 1005 94 5000 1.5 0 13:18 11.06.2020
1611 Rain 26 1005 94 5000 1.5 0 13:18 11.06.2020
1612 Rain 26 1005 94 5000 1.5 0 12:55 11.06.2020
1613 Rain 26 1005 94 5000 1.5 0 12:37 11.06.2020
1614 Rain 26 1005 94 5000 1.5 0 12:18 11.06.2020
1615 Rain 27 1003 83 9000 3.1 330 11:56 11.06.2020
1616 Rain 27 1003 83 9000 3.1 330 11:37 11.06.2020
1617 Thunderstorm 27 1003 83 9000 3.1 330 11:18 11.06.2020
1618 Rain 28 1003 83 10000 1.5 170 10:43 11.06.2020
1619 Rain 29 1003 83 10000 1.5 170 10:20 11.06.2020
1620 Rain 31 1003 70 10000 3.6 260 09:56 11.06.2020
1621 Clouds 31 1003 70 10000 4.6 270 09:38 11.06.2020
1622 Clouds 31 1003 70 10000 4.6 270 09:20 11.06.2020
1623 Clouds 31 1003 74 10000 4.6 290 08:39 11.06.2020
1624 Clouds 31 1003 74 10000 4.6 290 08:19 11.06.2020
1625 Clouds 31 1004 70 10000 5.1 290 07:42 11.06.2020
1626 Clouds 31 1004 70 10000 5.1 290 07:23 11.06.2020
1627 Clouds 30 1005 74 10000 4.1 300 06:35 11.06.2020
1628 Clouds 29 1006 74 10000 3.6 320 05:57 11.06.2020
1629 Clouds 29 1006 79 10000 3.1 310 04:48 11.06.2020
1630 Clouds 27 1007 88 10000 2.1 310 03:25 11.06.2020
1631 Rain 26 1007 94 10000 1.5 290 02:49 11.06.2020
1632 Rain 25 1007 88 9000 2.1 10 01:57 11.06.2020
1633 Rain 25 1007 88 9000 2.1 10 01:35 11.06.2020
1634 Rain 25 1007 94 9000 2.1 320 00:57 11.06.2020
1635 Rain 25 1007 94 9000 2.1 320 00:39 11.06.2020
1636 Rain 25 1007 94 9000 2.1 320 00:19 11.06.2020
1637 Rain 25 1007 100 6000 2.1 60 23:41 10.06.2020
1638 Rain 25 1007 100 6000 2.1 60 23:22 10.06.2020
1639 Rain 25 1007 94 10000 3.1 60 22:54 10.06.2020
1640 Rain 25 1007 94 10000 3.1 60 22:36 10.06.2020
1641 Rain 25 1007 94 10000 3.1 60 22:18 10.06.2020
1642 Rain 26 1007 94 9000 1 0 21:55 10.06.2020
1643 Rain 26 1007 94 9000 1 0 21:37 10.06.2020
1644 Rain 26 1007 94 9000 1 0 21:18 10.06.2020
1645 Rain 26 1007 94 9000 1 0 20:54 10.06.2020
1646 Rain 27 1007 94 9000 1 0 20:36 10.06.2020
1647 Rain 27 1007 94 9000 1 0 20:18 10.06.2020
1648 Rain 27 1008 88 10000 1 0 19:38 10.06.2020
1649 Rain 27 1008 88 10000 1 0 19:18 10.06.2020
1650 Rain 27 1008 88 10000 1 0 18:54 10.06.2020
1651 Rain 27 1008 88 10000 1 0 18:36 10.06.2020
1652 Rain 27 1008 88 10000 1 0 18:36 10.06.2020
1653 Rain 28 1009 88 10000 1 0 18:18 10.06.2020
1654 Clouds 28 1009 88 10000 1 0 17:42 10.06.2020
1655 Clouds 28 1009 88 10000 1 0 17:21 10.06.2020
1656 Clouds 28 1008 88 10000 1.5 190 16:59 10.06.2020
1657 Clouds 28 1008 88 10000 1.5 190 16:41 10.06.2020
1658 Clouds 28 1008 88 10000 1.5 190 16:22 10.06.2020
1659 Clouds 28 1008 88 10000 1.5 220 15:59 10.06.2020
1660 Clouds 28 1008 88 10000 1.5 220 15:38 10.06.2020
1661 Clouds 28 1008 88 10000 1.5 220 15:20 10.06.2020
1662 Clouds 29 1008 88 10000 1 0 14:41 10.06.2020
1663 Clouds 29 1008 88 10000 1 0 14:22 10.06.2020
1664 Clouds 29 1007 88 10000 0.5 0 13:58 10.06.2020
1665 Clouds 28 1007 88 10000 0.5 0 13:39 10.06.2020
1666 Clouds 29 1007 83 9000 1 0 13:21 10.06.2020
1667 Clouds 29 1007 83 9000 1 0 12:42 10.06.2020
1668 Clouds 30 1007 83 10000 1.5 0 12:20 10.06.2020
1669 Clouds 30 1007 83 10000 1.5 0 11:56 10.06.2020
1670 Clouds 30 1007 83 10000 1.5 0 11:38 10.06.2020
1671 Clouds 29 1007 88 10000 2.1 0 11:19 10.06.2020
1672 Clouds 29 1007 88 10000 2.1 0 10:44 10.06.2020
1673 Rain 29 1007 88 10000 1.5 110 10:25 10.06.2020
1674 Rain 29 1007 88 10000 1.5 110 09:58 10.06.2020
1675 Rain 29 1007 88 10000 1.5 110 09:39 10.06.2020
1676 Rain 27 1007 88 10000 1.5 110 09:20 10.06.2020
1677 Rain 27 1008 94 7000 1 0 08:42 10.06.2020
1678 Rain 27 1008 94 7000 1 0 08:23 10.06.2020
1679 Rain 27 1009 94 9000 2.6 160 07:43 10.06.2020
1680 Rain 27 1009 94 9000 2.6 160 07:23 10.06.2020
1681 Thunderstorm 30 1009 94 1900 3.1 120 06:59 10.06.2020
1682 Rain 30 1009 94 8000 3.1 130 06:38 10.06.2020
1683 Clouds 32 1009 66 9000 1.62 273 06:18 10.06.2020
1684 Rain 30 1009 66 9000 1.62 273 05:49 10.06.2020
1685 Rain 31 1009 66 9000 1.44 284 05:18 10.06.2020
1686 Clouds 31 1010 70 10000 3.6 310 04:28 10.06.2020
1687 Clouds 30 1010 74 10000 2.6 20 02:33 10.06.2020
1688 Clouds 29 1009 74 10000 1.5 360 01:47 10.06.2020
1689 Clouds 29 1009 74 10000 1.5 360 01:21 10.06.2020
1690 Clouds 28 1009 78 10000 2.1 360 00:38 10.06.2020
1691 Clouds 27 1009 78 10000 2.1 360 00:20 10.06.2020
1692 Clouds 27 1009 78 10000 2.1 360 23:41 09.06.2020
1693 Clouds 27 1009 78 10000 2.1 360 23:23 09.06.2020
1694 Clouds 28 1009 74 10000 2.1 360 22:57 09.06.2020
1695 Clouds 28 1009 74 10000 2.1 360 22:39 09.06.2020
1696 Clouds 28 1009 74 10000 2.1 360 22:20 09.06.2020
1697 Clouds 28 1009 78 10000 1.5 30 21:57 09.06.2020
1698 Clouds 28 1009 78 10000 1.5 30 21:39 09.06.2020
1699 Clouds 28 1009 78 10000 1.5 30 21:21 09.06.2020
1700 Clouds 28 1009 74 10000 2.1 20 20:58 09.06.2020
1701 Clouds 28 1009 74 10000 2.1 20 20:39 09.06.2020
1702 Clouds 28 1009 74 10000 2.1 20 20:20 09.06.2020
1703 Clouds 28 1010 74 10000 2.1 80 19:59 09.06.2020
1704 Clouds 29 1010 74 10000 2.1 80 19:39 09.06.2020
1705 Clouds 29 1010 74 10000 2.1 80 19:20 09.06.2020
1706 Clouds 29 1010 79 10000 1.5 80 18:58 09.06.2020
1707 Clouds 29 1010 79 10000 1.5 80 18:39 09.06.2020
1708 Clouds 29 1010 79 10000 1.5 80 18:21 09.06.2020
1709 Clouds 29 1010 74 10000 2.6 110 17:56 09.06.2020
1710 Clouds 29 1010 74 10000 2.6 110 17:37 09.06.2020
1711 Clouds 29 1010 74 10000 2.6 110 17:19 09.06.2020
1712 Clouds 30 1010 66 10000 3.1 110 16:43 09.06.2020
1713 Clouds 30 1010 66 10000 3.1 110 16:23 09.06.2020
1714 Clouds 30 1010 66 10000 1.5 90 15:57 09.06.2020
1715 Clouds 30 1010 66 10000 1.5 90 15:38 09.06.2020
1716 Clouds 30 1010 66 10000 1.5 90 15:19 09.06.2020
1717 Clouds 29 1009 70 10000 2.1 80 14:42 09.06.2020
1718 Clouds 29 1009 70 10000 2.1 80 14:21 09.06.2020
1719 Clouds 29 1009 70 10000 2.6 60 13:59 09.06.2020
1720 Clouds 29 1009 70 10000 2.6 60 13:41 09.06.2020
1721 Clouds 30 1008 66 10000 1 0 13:21 09.06.2020
1722 Clouds 30 1008 66 10000 1 0 12:56 09.06.2020
1723 Clouds 30 1008 66 10000 1 0 12:37 09.06.2020
1724 Clouds 31 1008 66 10000 1 0 12:18 09.06.2020
1725 Clouds 30 1008 70 10000 3.1 30 11:55 09.06.2020
1726 Clouds 30 1008 70 10000 3.1 30 11:36 09.06.2020
1727 Clouds 30 1008 70 10000 3.1 30 11:18 09.06.2020
1728 Clouds 33 1007 59 10000 4.1 0 10:42 09.06.2020
1729 Clouds 34 1007 59 10000 4.1 0 10:24 09.06.2020
1730 Rain 33 1008 50 10000 4.1 0 09:44 09.06.2020
1731 Clouds 35 1008 50 10000 4.1 0 09:24 09.06.2020
1732 Clouds 36 1008 53 10000 3.1 120 08:56 09.06.2020
1733 Rain 35 1008 53 10000 3.1 120 08:38 09.06.2020
1734 Clouds 35 1008 53 10000 3.1 120 08:19 09.06.2020
1735 Rain 34 1009 56 10000 4.1 140 07:38 09.06.2020
1736 Rain 34 1010 56 10000 3.1 0 07:19 09.06.2020
1737 Clouds 34 1010 56 10000 3.1 0 06:54 09.06.2020
1738 Clouds 34 1010 56 10000 3.1 0 06:35 09.06.2020
1739 Clouds 33 1010 59 10000 3.1 0 05:35 09.06.2020
1740 Clouds 33 1010 59 10000 2.1 0 03:34 09.06.2020
1741 Clouds 29 1009 74 10000 1.5 40 01:43 09.06.2020
1742 Clouds 28 1009 78 10000 2.1 10 01:19 09.06.2020
1743 Clouds 28 1009 78 10000 2.1 10 01:19 09.06.2020
1744 Clouds 28 1009 78 10000 2.1 10 00:50 09.06.2020
1745 Clouds 27 1009 78 10000 2.1 10 00:26 09.06.2020
1746 Clouds 27 1009 78 10000 2.6 20 23:59 08.06.2020
1747 Clouds 27 1009 78 10000 2.6 20 23:39 08.06.2020
1748 Clouds 27 1009 78 10000 2.6 20 23:19 08.06.2020
1749 Clouds 28 1009 74 10000 1 0 22:42 08.06.2020
1750 Clouds 28 1009 74 10000 1 0 22:23 08.06.2020
1751 Clouds 28 1009 78 10000 1.5 70 21:59 08.06.2020
1752 Clouds 28 1009 78 10000 1.5 70 21:41 08.06.2020
1753 Clouds 28 1009 78 10000 1.5 70 21:22 08.06.2020
1754 Clouds 29 1009 66 10000 3.6 110 20:58 08.06.2020
1755 Clouds 29 1009 66 10000 3.6 110 20:39 08.06.2020
1756 Clouds 29 1009 66 10000 3.6 110 20:20 08.06.2020
1757 Clouds 29 1009 66 10000 3.1 110 19:59 08.06.2020
1758 Clouds 29 1009 66 10000 3.1 110 19:41 08.06.2020
1759 Clouds 29 1010 70 10000 2.6 110 19:20 08.06.2020
1760 Clouds 29 1010 70 10000 2.6 110 18:41 08.06.2020
1761 Clouds 30 1010 70 10000 2.6 110 18:19 08.06.2020
1762 Clouds 30 1011 74 10000 2.6 100 17:57 08.06.2020
1763 Clouds 30 1011 74 10000 2.6 100 17:39 08.06.2020
1764 Clouds 30 1011 74 10000 2.6 100 17:19 08.06.2020
1765 Clouds 30 1011 70 10000 2.1 120 16:46 08.06.2020
1766 Clouds 30 1011 70 10000 2.1 120 16:25 08.06.2020
1767 Clouds 31 1010 70 10000 2.6 140 15:59 08.06.2020
1768 Clouds 31 1010 70 10000 2.6 140 15:41 08.06.2020
1769 Clouds 31 1010 70 10000 2.6 140 15:20 08.06.2020
1770 Clouds 31 1010 70 10000 3.1 120 14:56 08.06.2020
1771 Clouds 31 1010 70 10000 3.1 120 14:36 08.06.2020
1772 Clouds 31 1010 70 10000 3.1 120 14:18 08.06.2020
1773 Clouds 31 1010 70 10000 3.1 120 14:18 08.06.2020
1774 Clouds 32 1008 66 10000 3.1 130 13:42 08.06.2020
1775 Clouds 32 1008 66 10000 3.1 130 13:20 08.06.2020
1776 Clouds 32 1008 62 10000 4.1 110 12:40 08.06.2020
1777 Clouds 32 1008 62 10000 4.1 110 12:19 08.06.2020
1778 Clouds 33 1007 56 10000 4.6 110 11:57 08.06.2020
1779 Clouds 33 1007 56 10000 4.6 110 11:38 08.06.2020
1780 Clouds 33 1007 56 10000 4.6 110 11:38 08.06.2020
1781 Clouds 33 1007 56 10000 4.6 110 11:20 08.06.2020
1782 Clouds 34 1007 59 10000 4.1 110 10:56 08.06.2020
1783 Clouds 34 1007 59 10000 4.1 110 10:37 08.06.2020
1784 Clouds 34 1007 59 10000 4.1 110 10:19 08.06.2020
1785 Clouds 34 1007 56 10000 3.6 130 09:43 08.06.2020
1786 Clouds 33 1007 56 10000 3.6 130 09:23 08.06.2020
1787 Clouds 34 1008 56 10000 4.1 160 08:50 08.06.2020
1788 Clouds 34 1008 56 10000 4.1 160 08:24 08.06.2020
1789 Clouds 34 1008 59 10000 3.6 120 07:56 08.06.2020
1790 Clouds 34 1008 59 10000 3.6 120 07:37 08.06.2020
1791 Clouds 34 1008 59 10000 3.6 120 07:37 08.06.2020
1792 Clouds 34 1009 59 10000 3.6 110 07:18 08.06.2020
1793 Clouds 34 1009 59 10000 3.6 110 06:38 08.06.2020
1794 Clouds 33 1009 63 10000 2.6 120 05:54 08.06.2020
1795 Clouds 33 1010 66 10000 3.6 90 04:36 08.06.2020
1796 Clouds 32 1010 74 10000 2.6 120 03:22 08.06.2020
1797 Clouds 31 1009 79 10000 2.6 110 02:26 08.06.2020
1798 Clouds 29 1009 79 10000 1 0 01:42 08.06.2020
1799 Clouds 29 1008 79 10000 1 0 00:45 08.06.2020
1800 Clouds 29 1008 79 10000 1 0 00:23 08.06.2020
1801 Clouds 29 1008 79 10000 1.5 230 23:38 07.06.2020
1802 Clouds 29 1008 79 10000 1.5 230 23:18 07.06.2020
1803 Clouds 29 1008 79 10000 1.5 220 22:56 07.06.2020
1804 Clouds 28 1008 79 10000 1.5 220 22:36 07.06.2020
1805 Clouds 29 1008 79 10000 1.5 220 22:18 07.06.2020
1806 Clouds 29 1008 74 10000 1.5 210 21:57 07.06.2020
1807 Clouds 29 1008 74 10000 1.5 210 21:36 07.06.2020
1808 Clouds 29 1008 74 10000 1.5 210 21:18 07.06.2020
1809 Clouds 29 1008 70 10000 1 0 20:39 07.06.2020
1810 Clouds 29 1008 70 10000 1 0 20:20 07.06.2020
1811 Clouds 29 1008 66 10000 1 0 19:57 07.06.2020
1812 Clouds 29 1008 66 10000 1 0 19:38 07.06.2020
1813 Clouds 29 1009 70 10000 2.1 80 19:19 07.06.2020
1814 Clouds 29 1009 70 10000 2.1 80 18:56 07.06.2020
1815 Clouds 29 1009 70 10000 2.1 80 18:38 07.06.2020
1816 Clouds 29 1010 74 10000 2.1 310 18:19 07.06.2020
1817 Clouds 29 1010 74 10000 2.1 310 17:56 07.06.2020
1818 Clouds 29 1010 74 10000 2.1 310 17:37 07.06.2020
1819 Clouds 29 1010 74 10000 2.1 310 17:19 07.06.2020
1820 Clouds 28 1009 67 10000 1.5 260 16:42 07.06.2020
1821 Clouds 28 1009 67 10000 1.5 260 16:21 07.06.2020
1822 Clouds 29 1009 70 10000 2.1 260 15:40 07.06.2020
1823 Clouds 29 1009 70 10000 2.1 260 15:21 07.06.2020
1824 Clouds 29 1008 74 10000 2.1 260 14:40 07.06.2020
1825 Clouds 29 1008 74 10000 2.1 260 14:40 07.06.2020
1826 Clouds 29 1008 74 10000 2.1 260 14:40 07.06.2020
1827 Clouds 29 1008 74 10000 2.1 260 14:40 07.06.2020
1828 Clouds 29 1008 74 10000 2.1 260 14:40 07.06.2020
1829 Clouds 29 1008 74 10000 2.1 260 14:22 07.06.2020
1830 Clouds 29 1008 74 10000 6.7 270 13:48 07.06.2020
1831 Clouds 30 1008 74 10000 6.7 270 13:21 07.06.2020
1832 Rain 33 1007 70 10000 3.1 260 12:56 07.06.2020
1833 Rain 33 1007 70 10000 3.1 260 12:37 07.06.2020
1834 Clouds 35 1005 50 10000 2.6 130 12:18 07.06.2020
1835 Clouds 35 1005 50 10000 2.6 130 11:55 07.06.2020
1836 Clouds 35 1005 50 10000 2.6 130 11:36 07.06.2020
1837 Clouds 35 1005 50 10000 2.6 130 11:18 07.06.2020
1838 Clouds 36 1005 50 10000 2.6 150 10:43 07.06.2020
1839 Clouds 36 1005 50 10000 2.6 150 10:20 07.06.2020
1840 Rain 36 1005 52 10000 3.1 140 09:57 07.06.2020
1841 Rain 36 1005 52 10000 3.1 140 09:38 07.06.2020
1842 Clouds 36 1005 49 10000 3.1 140 09:20 07.06.2020
1843 Clouds 36 1006 50 10000 3.1 140 08:48 07.06.2020
1844 Clouds 36 1006 50 10000 3.1 140 08:24 07.06.2020
1845 Clouds 36 1006 50 10000 3.1 140 08:24 07.06.2020
1846 Clouds 36 1007 50 10000 2.6 0 07:57 07.06.2020
1847 Clouds 36 1007 50 10000 2.6 0 07:30 07.06.2020
1848 Clouds 35 1010 53 10000 2.6 0 06:51 07.06.2020
1849 Clouds 35 1009 56 10000 1.5 0 05:50 07.06.2020
1850 Clouds 34 1009 66 10000 3.1 270 04:21 07.06.2020
1851 Clouds 32 1009 66 10000 1.5 0 02:36 07.06.2020
1852 Clouds 32 1009 70 10000 1 0 01:58 07.06.2020
1853 Clouds 31 1009 70 10000 1 0 01:25 07.06.2020
1854 Clouds 29 1009 79 10000 1 0 00:47 07.06.2020
1855 Clouds 29 1009 79 10000 1 0 00:19 07.06.2020
1856 Clouds 28 1009 79 10000 0.5 0 23:57 06.06.2020
1857 Clouds 28 1009 79 10000 0.5 0 23:37 06.06.2020
1858 Clouds 28 1009 79 10000 0.5 0 23:19 06.06.2020
1859 Clouds 28 1009 74 10000 2.1 70 22:56 06.06.2020
1860 Clouds 28 1009 74 10000 2.1 70 22:37 06.06.2020
1861 Clouds 29 1009 74 10000 2.1 70 22:18 06.06.2020
1862 Clouds 29 1009 74 10000 1 90 21:44 06.06.2020
1863 Clouds 29 1009 74 10000 1 90 21:22 06.06.2020
1864 Clouds 29 1009 66 10000 1 0 20:57 06.06.2020
1865 Clouds 29 1009 66 10000 1 0 20:38 06.06.2020
1866 Clouds 29 1009 66 10000 1 0 20:18 06.06.2020
1867 Clouds 29 1009 74 10000 1.5 80 19:56 06.06.2020
1868 Clouds 29 1009 74 10000 1.5 80 19:37 06.06.2020
1869 Clouds 29 1009 74 10000 1.5 80 19:37 06.06.2020
1870 Clouds 30 1010 70 10000 1.5 80 19:19 06.06.2020
1871 Clouds 30 1010 70 10000 1.5 80 18:43 06.06.2020
1872 Clouds 29 1010 70 10000 1.5 80 18:24 06.06.2020
1873 Clouds 30 1009 70 10000 2.6 70 17:58 06.06.2020
1874 Clouds 30 1009 70 10000 2.6 70 17:39 06.06.2020
1875 Clouds 30 1009 70 10000 2.6 70 17:18 06.06.2020
1876 Clouds 30 1010 74 10000 3.1 320 16:41 06.06.2020
1877 Clouds 30 1010 74 10000 3.1 320 16:22 06.06.2020
1878 Clouds 31 1009 66 10000 1.5 160 15:56 06.06.2020
1879 Clouds 31 1009 66 10000 1.5 160 15:37 06.06.2020
1880 Clouds 31 1009 66 10000 1.5 160 15:18 06.06.2020
1881 Clouds 31 1009 59 10000 2.1 120 14:40 06.06.2020
1882 Clouds 32 1009 59 10000 2.1 120 14:22 06.06.2020
1883 Clouds 32 1008 66 10000 3.6 260 13:55 06.06.2020
1884 Clouds 32 1008 66 10000 3.6 260 13:37 06.06.2020
1885 Clouds 33 1007 59 10000 2.6 0 13:18 06.06.2020
1886 Clouds 33 1007 59 10000 2.6 0 12:42 06.06.2020
1887 Clouds 34 1007 59 10000 2.6 0 12:23 06.06.2020
1888 Clouds 35 1006 44 10000 3.1 0 11:58 06.06.2020
1889 Clouds 35 1006 44 10000 3.1 0 11:38 06.06.2020
1890 Clouds 36 1006 44 10000 3.1 0 11:20 06.06.2020
1891 Clouds 36 1006 47 10000 3.6 130 10:57 06.06.2020
1892 Clouds 36 1006 47 10000 3.6 130 10:39 06.06.2020
1893 Clouds 36 1006 47 10000 3.6 130 10:20 06.06.2020
1894 Clouds 36 1007 47 10000 0.92 136 09:45 06.06.2020
1895 Clouds 36 1007 47 10000 1.42 133 09:27 06.06.2020
1896 Clouds 36 1007 44 10000 4.1 130 08:56 06.06.2020
1897 Clouds 36 1007 44 10000 4.1 130 08:38 06.06.2020
1898 Clouds 35 1007 44 10000 4.1 130 08:19 06.06.2020
1899 Clouds 35 1007 44 10000 4.1 130 08:19 06.06.2020
1900 Clouds 36 1008 50 10000 4.1 140 07:45 06.06.2020
1901 Clouds 35 1009 56 10000 3.6 130 07:21 06.06.2020
1902 Clouds 35 1009 56 10000 3.6 130 06:46 06.06.2020
1903 Clouds 35 1009 56 10000 3.6 130 06:27 06.06.2020
1904 Clouds 34 1009 52 10000 4.1 110 05:52 06.06.2020
1905 Clouds 34 1009 52 10000 4.1 110 05:26 06.06.2020
1906 Clouds 34 1010 52 10000 4.1 0 04:38 06.06.2020
1907 Clouds 33 1010 59 10000 3.1 120 02:36 06.06.2020
1908 Clouds 32 1009 66 10000 3.6 120 01:42 06.06.2020
1909 Clouds 31 1009 66 10000 3.6 120 01:18 06.06.2020
1910 Clouds 29 1009 74 10000 1.5 110 00:41 06.06.2020
1911 Clouds 29 1009 74 10000 1.5 110 00:23 06.06.2020
1912 Clouds 29 1009 70 10000 1 0 23:40 05.06.2020
1913 Clouds 29 1009 70 10000 1 0 23:21 05.06.2020
1914 Clouds 29 1009 74 10000 1.5 110 22:58 05.06.2020
1915 Clouds 29 1009 74 10000 1.5 110 22:40 05.06.2020
1916 Clouds 29 1009 74 10000 1.5 110 22:22 05.06.2020
1917 Clouds 29 1009 70 10000 1.5 100 21:55 05.06.2020
1918 Clouds 29 1009 70 10000 1.5 100 21:37 05.06.2020
1919 Clouds 29 1009 70 10000 1.5 100 21:18 05.06.2020
1920 Clouds 29 1009 74 10000 2.1 130 20:45 05.06.2020
1921 Clouds 29 1009 74 10000 2.1 130 20:23 05.06.2020
1922 Clouds 29 1010 74 10000 2.1 130 19:59 05.06.2020
1923 Clouds 29 1010 74 10000 2.1 130 19:39 05.06.2020
1924 Clouds 29 1010 74 10000 2.1 130 19:21 05.06.2020
1925 Clouds 30 1010 74 10000 2.1 150 18:40 05.06.2020
1926 Clouds 30 1010 74 10000 2.1 150 18:21 05.06.2020
1927 Clouds 30 1010 74 10000 2.1 150 18:21 05.06.2020
1928 Clouds 30 1010 70 10000 1.5 0 17:59 05.06.2020
1929 Clouds 30 1010 70 10000 1.5 0 17:41 05.06.2020
1930 Clouds 31 1010 70 10000 1.5 0 17:21 05.06.2020
1931 Clouds 31 1010 70 10000 2.1 130 16:57 05.06.2020
1932 Clouds 31 1010 70 10000 2.1 130 16:37 05.06.2020
1933 Clouds 31 1010 70 10000 2.1 130 16:19 05.06.2020
1934 Clouds 31 1010 70 10000 2.1 130 16:19 05.06.2020
1935 Clouds 31 1009 66 10000 2.6 160 15:38 05.06.2020
1936 Clouds 31 1009 66 10000 2.6 160 15:20 05.06.2020
1937 Clouds 32 1009 66 10000 2.6 140 14:57 05.06.2020
1938 Clouds 32 1009 66 10000 2.6 140 14:39 05.06.2020
1939 Clouds 32 1009 66 10000 2.6 140 14:21 05.06.2020
1940 Clouds 32 1008 63 10000 2.6 0 13:44 05.06.2020
1941 Clouds 32 1008 63 10000 2.6 0 13:26 05.06.2020
1942 Clouds 33 1007 59 10000 3.1 140 12:55 05.06.2020
1943 Clouds 33 1007 59 10000 3.1 140 12:37 05.06.2020
1944 Clouds 33 1007 59 10000 3.1 140 12:18 05.06.2020
1945 Clouds 34 1007 53 10000 3.1 130 11:42 05.06.2020
1946 Clouds 34 1007 53 10000 3.1 130 11:23 05.06.2020
1947 Clouds 35 1007 47 10000 3.6 130 10:57 05.06.2020
1948 Clouds 35 1007 47 10000 3.6 130 10:39 05.06.2020
1949 Clouds 35 1007 47 10000 3.6 130 10:19 05.06.2020
1950 Clouds 36 1007 47 10000 3.6 130 09:56 05.06.2020
1951 Clouds 36 1007 47 10000 3.6 130 09:37 05.06.2020
1952 Clouds 36 1007 47 10000 3.6 130 09:18 05.06.2020
1953 Clouds 36 1008 50 10000 3.6 0 08:56 05.06.2020
1954 Clouds 36 1008 50 10000 3.6 0 08:38 05.06.2020
1955 Clouds 36 1008 50 10000 3.6 0 08:18 05.06.2020
1956 Clouds 35 1009 53 10000 2.1 0 07:44 05.06.2020
1957 Clouds 35 1009 66 0 1.5 260 07:25 05.06.2020
1958 Clouds 35 1009 66 0 1.5 260 06:36 05.06.2020
1959 Clouds 34 1010 63 10000 2.6 0 05:22 05.06.2020
1960 Clouds 34 1011 59 10000 2.6 0 04:27 05.06.2020
1961 Clouds 33 1011 63 10000 2.6 110 03:19 05.06.2020
1962 Clouds 33 1011 66 10000 2.6 110 02:25 05.06.2020
1963 Clouds 32 1011 74 10000 1.5 0 01:56 05.06.2020
1964 Clouds 31 1011 74 10000 1.5 0 01:27 05.06.2020
1965 Clouds 29 1010 83 8000 1.5 90 00:42 05.06.2020
1966 Clouds 29 1010 83 8000 1.5 90 00:21 05.06.2020
1967 Clouds 29 1010 83 10000 1.5 110 23:46 04.06.2020
1968 Clouds 29 1010 83 10000 1.5 110 23:28 04.06.2020
1969 Clouds 29 1009 83 10000 1 0 22:56 04.06.2020
1970 Clouds 29 1009 83 10000 1 0 22:36 04.06.2020
1971 Clouds 29 1009 83 10000 1 0 22:18 04.06.2020
1972 Clouds 29 1009 83 10000 1 90 21:56 04.06.2020
1973 Clouds 29 1009 83 10000 1 90 21:36 04.06.2020
1974 Clouds 29 1009 83 10000 1 90 21:18 04.06.2020
1975 Clouds 29 1010 88 8000 1.5 60 20:40 04.06.2020
1976 Clouds 29 1010 88 8000 1.5 60 20:22 04.06.2020
1977 Clouds 29 1010 88 10000 1 0 19:59 04.06.2020
1978 Clouds 29 1010 88 10000 1 0 19:39 04.06.2020
1979 Clouds 29 1010 79 10000 0.5 0 19:21 04.06.2020
1980 Clouds 29 1010 79 10000 0.5 0 18:56 04.06.2020
1981 Clouds 30 1010 79 10000 0.5 0 18:37 04.06.2020
1982 Clouds 30 1010 79 10000 0.5 0 18:19 04.06.2020
1983 Clouds 30 1011 79 10000 1 0 17:42 04.06.2020
1984 Clouds 30 1011 79 10000 1 0 17:21 04.06.2020
1985 Clouds 30 1011 79 10000 1 0 17:21 04.06.2020
1986 Clouds 30 1010 84 10000 1 0 16:55 04.06.2020
1987 Clouds 30 1010 84 10000 1 0 16:37 04.06.2020
1988 Clouds 30 1010 84 10000 1 0 16:18 04.06.2020
1989 Rain 29 1010 83 10000 2.1 90 15:41 04.06.2020
1990 Rain 30 1010 83 10000 2.1 90 15:22 04.06.2020
1991 Thunderstorm 31 1010 74 10000 3.1 240 14:39 04.06.2020
1992 Thunderstorm 31 1010 74 10000 3.1 240 14:20 04.06.2020
1993 Clouds 31 1009 74 10000 5.1 250 13:56 04.06.2020
1994 Clouds 31 1009 74 10000 5.1 250 13:38 04.06.2020
1995 Clouds 31 1009 74 10000 5.1 250 13:19 04.06.2020
1996 Clouds 32 1008 66 10000 4.6 240 12:55 04.06.2020
1997 Clouds 32 1008 66 10000 4.6 240 12:36 04.06.2020
1998 Clouds 32 1008 66 10000 4.6 240 12:18 04.06.2020
1999 Clouds 33 1007 66 10000 5.7 260 11:40 04.06.2020
2000 Clouds 33 1007 66 10000 5.7 260 11:20 04.06.2020
2001 Clouds 34 1008 63 10000 5.1 280 10:59 04.06.2020
2002 Clouds 34 1008 63 10000 5.1 280 10:38 04.06.2020
2003 Clouds 34 1008 63 10000 5.1 280 10:20 04.06.2020
2004 Clouds 35 1008 63 10000 5.1 280 09:45 04.06.2020
2005 Clouds 35 1008 63 10000 5.1 280 09:27 04.06.2020
2006 Clouds 35 1008 63 10000 5.1 280 08:49 04.06.2020
2007 Clouds 35 1008 63 10000 5.1 280 08:28 04.06.2020
2008 Clouds 35 1009 67 10000 5.1 290 07:58 04.06.2020
2009 Clouds 35 1009 67 10000 5.1 290 07:29 04.06.2020
2010 Clouds 34 1010 70 10000 4.6 280 06:45 04.06.2020
2011 Clouds 33 1011 70 0 3.1 280 06:26 04.06.2020
2012 Clouds 33 1011 70 0 3.1 280 05:39 04.06.2020
2013 Clouds 33 1011 70 0 3.1 280 05:20 04.06.2020
2014 Clouds 32 1011 66 10000 2.1 0 03:28 04.06.2020
2015 Clouds 31 1011 79 9000 1.5 170 01:58 04.06.2020
2016 Clouds 30 1010 83 10000 1.5 170 01:20 04.06.2020
2017 Clouds 29 1010 83 10000 1.5 170 00:50 04.06.2020
2018 Clouds 29 1010 79 10000 2.23 122 23:55 03.06.2020
2019 Clouds 29 1010 79 10000 2.23 122 23:36 03.06.2020
2020 Clouds 29 1010 79 10000 2.23 122 23:36 03.06.2020
2021 Clouds 29 1010 79 10000 1.93 118 23:18 03.06.2020
2022 Clouds 29 1009 79 10000 0.5 0 22:40 03.06.2020
2023 Clouds 29 1009 79 10000 0.5 0 22:19 03.06.2020
2024 Clouds 29 1009 79 10000 0.5 0 22:19 03.06.2020
2025 Clouds 29 1009 79 10000 0.5 0 22:19 03.06.2020
2026 Clouds 29 1009 79 10000 1.5 170 21:58 03.06.2020
2027 Clouds 29 1009 79 10000 1.5 170 21:39 03.06.2020
2028 Clouds 29 1009 79 10000 1.5 170 21:21 03.06.2020
2029 Clouds 29 1009 74 10000 1 0 20:56 03.06.2020
2030 Clouds 29 1009 74 10000 1 0 20:38 03.06.2020
2031 Clouds 29 1009 74 10000 1 0 20:38 03.06.2020
2032 Clouds 29 1009 74 10000 1 0 20:19 03.06.2020
2033 Clouds 29 1010 74 10000 1 0 19:56 03.06.2020
2034 Clouds 29 1010 74 10000 1 0 19:37 03.06.2020
2035 Clouds 29 1011 74 10000 0.5 0 19:19 03.06.2020
2036 Clouds 29 1011 74 10000 0.5 0 18:54 03.06.2020
2037 Clouds 29 1011 74 10000 0.5 0 18:36 03.06.2020
2038 Clouds 29 1011 74 10000 0.5 0 18:18 03.06.2020
2039 Clouds 30 1011 74 10000 0.5 0 17:41 03.06.2020
2040 Clouds 30 1011 74 10000 0.5 0 17:21 03.06.2020
2041 Clouds 30 1011 74 10000 1.5 200 16:55 03.06.2020
2042 Clouds 30 1011 74 10000 1.5 200 16:37 03.06.2020
2043 Clouds 30 1011 74 10000 1.5 200 16:18 03.06.2020
2044 Clouds 31 1011 70 10000 2.6 230 15:41 03.06.2020
2045 Clouds 31 1011 70 10000 2.6 230 15:21 03.06.2020
2046 Clouds 31 1010 70 10000 4.6 240 14:48 03.06.2020
2047 Clouds 31 1010 70 10000 4.6 240 14:26 03.06.2020
2048 Clouds 31 1009 70 10000 4.1 240 13:59 03.06.2020
2049 Clouds 31 1009 70 10000 4.1 240 13:38 03.06.2020
2050 Clouds 31 1009 70 10000 4.1 240 13:18 03.06.2020
2051 Clouds 32 1008 66 10000 5.7 250 12:43 03.06.2020
2052 Clouds 32 1008 66 10000 5.7 250 12:21 03.06.2020
2053 Clouds 32 1008 66 10000 6.2 260 11:45 03.06.2020
2054 Clouds 33 1008 66 10000 6.2 260 11:27 03.06.2020
2055 Clouds 34 1007 59 10000 6.2 260 10:57 03.06.2020
2056 Clouds 34 1007 59 10000 6.2 260 10:38 03.06.2020
2057 Clouds 34 1007 59 10000 6.2 260 10:20 03.06.2020
2058 Clouds 35 1008 59 10000 6.2 280 09:43 03.06.2020
2059 Clouds 35 1008 59 10000 6.2 280 09:20 03.06.2020
2060 Clouds 35 1008 59 10000 6.2 280 09:20 03.06.2020
2061 Clouds 35 1008 59 10000 3.6 290 08:48 03.06.2020
2062 Clouds 35 1008 59 10000 3.6 290 08:25 03.06.2020
2063 Clouds 34 1009 66 10000 5.1 280 07:59 03.06.2020
2064 Clouds 35 1009 66 10000 5.1 280 07:40 03.06.2020
2065 Clouds 34 1010 66 9000 3.1 290 07:19 03.06.2020
2066 Clouds 34 1010 66 9000 3.1 290 06:48 03.06.2020
2067 Clouds 34 1010 66 9000 3.1 290 06:29 03.06.2020
2068 Clouds 33 1011 63 10000 1.5 0 05:46 03.06.2020
2069 Clouds 33 1011 66 10000 1 0 04:33 03.06.2020
2070 Clouds 32 1012 70 10000 1 0 03:42 03.06.2020
2071 Clouds 31 1012 79 9000 1.5 0 02:46 03.06.2020
2072 Clouds 30 1011 83 10000 1.5 0 01:47 03.06.2020
2073 Clouds 29 1010 83 10000 1.5 140 00:41 03.06.2020
2074 Clouds 29 1010 83 10000 1.5 140 00:22 03.06.2020
2075 Clouds 28 1010 83 10000 1 0 23:49 02.06.2020
2076 Clouds 28 1010 83 10000 1 0 23:27 02.06.2020
2077 Clouds 28 1010 79 10000 1 0 22:56 02.06.2020
2078 Clouds 28 1010 79 10000 1 0 22:37 02.06.2020
2079 Clouds 28 1010 79 10000 1 0 22:18 02.06.2020
2080 Clouds 28 1010 79 10000 1 70 21:55 02.06.2020
2081 Clouds 28 1010 79 10000 1 70 21:36 02.06.2020
2082 Clouds 29 1010 79 10000 1 70 21:18 02.06.2020
2083 Clouds 29 1010 79 10000 1 70 21:18 02.06.2020
2084 Clouds 29 1011 74 10000 0.5 0 20:42 02.06.2020
2085 Clouds 29 1011 74 10000 0.5 0 20:24 02.06.2020
2086 Clouds 29 1011 74 10000 0.5 0 19:59 02.06.2020
2087 Clouds 29 1011 74 10000 0.5 0 19:40 02.06.2020
2088 Clouds 29 1011 74 10000 0.5 0 19:22 02.06.2020
2089 Clouds 29 1011 74 10000 1 0 18:56 02.06.2020
2090 Clouds 29 1011 74 10000 1 0 18:37 02.06.2020
2091 Clouds 29 1011 74 10000 1 0 18:19 02.06.2020
2092 Clouds 29 1012 74 10000 1 0 17:42 02.06.2020
2093 Clouds 29 1012 74 10000 1 0 17:23 02.06.2020
2094 Clouds 29 1012 70 10000 1.5 210 16:57 02.06.2020
2095 Clouds 29 1012 70 10000 1.5 210 16:38 02.06.2020
2096 Clouds 30 1012 70 10000 1.5 210 16:20 02.06.2020
2097 Clouds 30 1011 74 10000 1.5 230 15:46 02.06.2020
2098 Clouds 30 1011 74 10000 1.5 230 15:24 02.06.2020
2099 Rain 30 1010 70 10000 1.5 170 14:56 02.06.2020
2100 Rain 30 1010 70 10000 1.5 170 14:37 02.06.2020
2101 Rain 30 1010 70 10000 1.5 170 14:19 02.06.2020
2102 Clouds 30 1010 70 10000 1.5 230 13:39 02.06.2020
2103 Clouds 30 1010 70 10000 1.5 230 13:19 02.06.2020
2104 Clouds 30 1009 70 10000 2.1 250 12:58 02.06.2020
2105 Clouds 30 1009 70 10000 2.1 250 12:40 02.06.2020
2106 Clouds 31 1009 70 10000 2.1 250 12:20 02.06.2020
2107 Rain 32 1009 62 10000 3.6 220 11:56 02.06.2020
2108 Rain 32 1009 62 10000 3.6 220 11:38 02.06.2020
2109 Rain 32 1009 62 10000 3.6 220 11:20 02.06.2020
2110 Rain 32 1009 62 10000 3.6 220 11:20 02.06.2020
2111 Clouds 32 1008 59 10000 4.6 230 10:47 02.06.2020
2112 Clouds 33 1008 59 10000 4.6 230 10:28 02.06.2020
2113 Rain 35 1008 53 10000 3.1 150 09:56 02.06.2020
2114 Rain 35 1008 53 10000 3.1 150 09:37 02.06.2020
2115 Rain 35 1008 53 10000 3.1 150 09:37 02.06.2020
2116 Rain 35 1008 53 10000 3.1 150 09:19 02.06.2020
2117 Clouds 36 1009 50 10000 3.1 0 08:47 02.06.2020
2118 Clouds 36 1009 50 10000 3.1 0 08:20 02.06.2020
2119 Clouds 35 1010 56 10000 3.1 0 07:46 02.06.2020
2120 Clouds 35 1010 56 10000 3.1 0 07:46 02.06.2020
2121 Clouds 35 1010 56 10000 3.1 0 07:25 02.06.2020
2122 Clouds 35 1011 53 10000 3.1 0 06:43 02.06.2020
2123 Clouds 34 1011 56 10000 3.6 120 05:57 02.06.2020
2124 Clouds 33 1012 55 10000 2.6 0 04:58 02.06.2020
2125 Clouds 32 1012 62 10000 1.5 0 03:21 02.06.2020
2126 Clouds 32 1012 66 10000 1.5 250 02:24 02.06.2020
2127 Clouds 28 1011 78 10000 1 0 00:58 02.06.2020
2128 Clouds 27 1011 78 10000 1 0 00:25 02.06.2020
2129 Clouds 27 1010 78 10000 1.5 80 23:54 01.06.2020
2130 Clouds 27 1010 78 10000 1.5 80 23:36 01.06.2020
2131 Clouds 27 1010 78 10000 1.5 80 23:36 01.06.2020
2132 Clouds 27 1010 78 10000 1.5 80 23:18 01.06.2020
2133 Clouds 28 1010 78 10000 2.1 90 22:41 01.06.2020
2134 Clouds 28 1010 78 10000 2.1 90 22:20 01.06.2020
2135 Clouds 28 1010 83 10000 1.5 70 21:57 01.06.2020
2136 Clouds 28 1010 83 10000 1.5 70 21:37 01.06.2020
2137 Clouds 28 1010 83 10000 1.5 70 21:18 01.06.2020
2138 Clouds 29 1010 74 10000 2.1 130 20:55 01.06.2020
2139 Clouds 29 1011 70 10000 2.6 120 20:36 01.06.2020
2140 Clouds 29 1011 70 10000 2.6 120 20:18 01.06.2020
2141 Clouds 29 1011 70 10000 2.6 120 19:43 01.06.2020
2142 Clouds 29 1011 74 10000 3.1 120 19:21 01.06.2020
2143 Clouds 29 1011 74 10000 3.1 120 18:59 01.06.2020
2144 Clouds 29 1011 74 10000 3.1 120 18:59 01.06.2020
2145 Clouds 29 1011 74 10000 3.1 120 18:39 01.06.2020
2146 Clouds 29 1012 74 10000 2.6 130 18:19 01.06.2020
2147 Clouds 29 1012 74 10000 2.6 130 17:55 01.06.2020
2148 Clouds 30 1012 74 10000 2.6 130 17:36 01.06.2020
2149 Clouds 30 1012 74 10000 2.6 130 17:18 01.06.2020
2150 Clouds 30 1012 74 10000 2.6 130 16:39 01.06.2020
2151 Clouds 30 1012 74 10000 2.6 130 16:20 01.06.2020
2152 Clouds 30 1011 74 10000 3.1 120 15:55 01.06.2020
2153 Clouds 30 1011 74 10000 3.1 120 15:37 01.06.2020
2154 Clouds 30 1011 74 10000 3.1 120 15:18 01.06.2020
2155 Clouds 30 1011 74 10000 3.1 120 15:18 01.06.2020
2156 Clouds 30 1011 66 10000 3.1 130 14:56 01.06.2020
2157 Clouds 30 1011 66 10000 3.1 130 14:37 01.06.2020
2158 Clouds 30 1011 66 10000 3.1 130 14:18 01.06.2020
2159 Clouds 31 1010 66 10000 3.1 120 13:42 01.06.2020
2160 Clouds 31 1010 66 10000 3.1 120 13:21 01.06.2020
2161 Clouds 31 1009 62 10000 3.1 130 12:58 01.06.2020
2162 Clouds 31 1009 62 10000 3.1 130 12:40 01.06.2020
2163 Clouds 32 1009 62 10000 3.1 130 12:21 01.06.2020
2164 Clouds 32 1009 55 10000 4.1 0 11:56 01.06.2020
2165 Rain 32 1009 55 10000 4.1 0 11:36 01.06.2020
2166 Clouds 32 1009 55 10000 4.1 0 11:18 01.06.2020
2167 Clouds 33 1009 52 10000 4.1 120 10:40 01.06.2020
2168 Clouds 33 1009 52 10000 4.1 120 10:20 01.06.2020
2169 Clouds 34 1009 59 10000 5.7 120 09:58 01.06.2020
2170 Clouds 34 1009 59 10000 5.7 120 09:40 01.06.2020
2171 Clouds 34 1009 59 10000 5.7 120 09:20 01.06.2020
2172 Clouds 34 1010 59 10000 4.1 0 08:52 01.06.2020
2173 Clouds 34 1010 59 10000 4.1 0 08:30 01.06.2020
2174 Clouds 33 1010 56 10000 5.1 130 07:54 01.06.2020
2175 Clouds 33 1010 56 10000 5.1 130 07:36 01.06.2020
2176 Clouds 33 1010 56 10000 5.1 130 07:18 01.06.2020
2177 Clouds 34 1011 56 10000 5.1 0 06:43 01.06.2020
2178 Clouds 33 1012 63 10000 4.6 0 05:54 01.06.2020
2179 Clouds 33 1012 59 10000 3.6 120 04:46 01.06.2020
2180 Clouds 32 1013 62 10000 1.5 0 03:49 01.06.2020
2181 Clouds 32 1013 62 10000 1.5 0 03:27 01.06.2020
2182 Clouds 31 1012 58 10000 1.5 0 02:29 01.06.2020
2183 Clouds 29 1012 70 10000 1 0 01:34 01.06.2020
2184 Clouds 28 1012 74 10000 1 0 00:58 01.06.2020
2185 Clouds 28 1012 74 10000 1 0 00:40 01.06.2020
2186 Clouds 27 1012 74 10000 1 0 00:21 01.06.2020
2187 Clouds 27 1012 74 10000 1 0 00:21 01.06.2020
2188 Clouds 27 1011 78 10000 2.1 70 23:57 31.05.2020
2189 Clouds 27 1011 78 10000 2.1 70 23:38 31.05.2020
2190 Clouds 27 1011 78 10000 2.1 70 23:20 31.05.2020
2191 Clouds 27 1011 78 10000 2.1 70 23:20 31.05.2020
2192 Clouds 28 1011 74 10000 1 90 22:44 31.05.2020
2193 Clouds 28 1011 74 10000 1 90 22:44 31.05.2020
2194 Clouds 28 1011 74 10000 1 90 22:26 31.05.2020
2195 Clouds 28 1011 70 10000 1 0 21:58 31.05.2020
2196 Clouds 28 1011 70 10000 1 0 21:40 31.05.2020
2197 Clouds 28 1011 70 10000 1 0 21:22 31.05.2020
2198 Clouds 29 1011 70 10000 1 0 20:57 31.05.2020
2199 Clouds 29 1011 70 10000 1 0 20:57 31.05.2020
2200 Clouds 29 1011 70 10000 1 0 20:38 31.05.2020
2201 Clouds 29 1011 70 10000 1 0 20:19 31.05.2020
2202 Clouds 29 1011 70 10000 1.5 110 19:54 31.05.2020
2203 Clouds 29 1011 70 10000 1.5 110 19:36 31.05.2020
2204 Clouds 29 1011 70 10000 1.5 110 19:18 31.05.2020
2205 Clouds 29 1011 66 10000 2.6 130 18:43 31.05.2020
2206 Clouds 29 1011 66 10000 2.6 130 18:24 31.05.2020
2207 Clouds 30 1011 70 10000 3.6 120 17:44 31.05.2020
2208 Clouds 30 1011 70 10000 3.6 120 17:24 31.05.2020
2209 Clouds 30 1011 70 10000 3.6 120 17:24 31.05.2020
2210 Clouds 30 1011 66 10000 2.6 120 16:56 31.05.2020
2211 Clouds 30 1011 66 10000 2.6 120 16:38 31.05.2020
2212 Clouds 30 1011 66 10000 2.6 120 16:18 31.05.2020
2213 Clouds 30 1011 66 10000 3.6 120 15:39 31.05.2020
2214 Clouds 30 1011 66 10000 3.6 120 15:21 31.05.2020
2215 Clouds 31 1011 58 10000 3.6 110 14:47 31.05.2020
2216 Clouds 31 1011 58 10000 3.6 110 14:21 31.05.2020
2217 Clouds 32 1010 59 10000 2.6 0 13:56 31.05.2020
2218 Clouds 32 1010 59 10000 2.6 0 13:38 31.05.2020
2219 Clouds 32 1010 59 10000 2.6 0 13:20 31.05.2020
2220 Clouds 32 1010 59 10000 2.6 0 13:20 31.05.2020
2221 Clouds 33 1010 52 10000 4.1 110 12:56 31.05.2020
2222 Clouds 33 1010 52 10000 4.1 110 12:37 31.05.2020
2223 Clouds 33 1010 52 10000 4.1 110 12:18 31.05.2020
2224 Clouds 34 1009 49 10000 4.6 120 11:47 31.05.2020
2225 Clouds 34 1009 49 10000 4.6 120 11:23 31.05.2020
2226 Clouds 35 1009 44 10000 5.1 120 10:55 31.05.2020
2227 Clouds 35 1009 44 10000 5.1 120 10:37 31.05.2020
2228 Clouds 35 1009 44 10000 5.1 120 10:18 31.05.2020
2229 Clouds 35 1010 41 10000 4.6 130 09:42 31.05.2020
2230 Clouds 35 1010 41 10000 4.6 130 09:22 31.05.2020
2231 Clouds 35 1010 44 10000 4.6 120 08:57 31.05.2020
2232 Clouds 35 1010 44 10000 4.6 120 08:37 31.05.2020
2233 Clouds 35 1010 44 10000 4.6 120 08:19 31.05.2020
2234 Clouds 34 1011 59 10000 2.6 0 07:40 31.05.2020
2235 Clouds 34 1011 59 10000 2.6 0 07:20 31.05.2020
2236 Clouds 35 1012 59 10000 4.6 320 06:49 31.05.2020
2237 Clouds 34 1012 59 10000 4.6 320 06:31 31.05.2020
2238 Clouds 34 1013 52 10000 3.1 0 05:40 31.05.2020
2239 Clouds 33 1013 59 10000 3.6 110 04:22 31.05.2020
2240 Clouds 32 1014 66 10000 4.6 110 03:47 31.05.2020
2241 Clouds 32 1014 70 10000 3.6 110 02:58 31.05.2020
2242 Clouds 31 1014 74 10000 3.1 110 01:47 31.05.2020
2243 Clouds 29 1013 79 10000 3.1 110 00:52 31.05.2020
2244 Clouds 28 1013 79 10000 3.1 110 00:28 31.05.2020
2245 Clouds 28 1013 79 10000 2.6 110 23:43 30.05.2020
2246 Clouds 28 1013 79 10000 2.6 110 23:25 30.05.2020
2247 Clouds 28 1013 79 10000 2.1 100 22:58 30.05.2020
2248 Clouds 28 1013 79 10000 2.1 100 22:40 30.05.2020
2249 Clouds 28 1013 79 10000 2.1 100 22:21 30.05.2020
2250 Clouds 28 1013 83 10000 1 0 21:55 30.05.2020
2251 Clouds 28 1013 83 10000 1 0 21:36 30.05.2020
2252 Clouds 28 1013 83 10000 1 0 21:18 30.05.2020
2253 Clouds 29 1013 79 10000 1.5 90 20:54 30.05.2020
2254 Clouds 29 1013 79 10000 1.5 90 20:36 30.05.2020
2255 Clouds 29 1013 79 10000 1.5 90 20:36 30.05.2020
2256 Clouds 29 1013 79 10000 1.5 90 20:18 30.05.2020
2257 Clouds 28 1013 83 10000 1.89 100 19:41 30.05.2020
2258 Clouds 28 1013 83 10000 1.56 115 19:21 30.05.2020
2259 Clouds 29 1014 79 10000 0.5 0 18:44 30.05.2020
2260 Clouds 29 1014 79 10000 0.5 0 18:21 30.05.2020
2261 Clouds 28 1014 83 10000 1.68 120 17:43 30.05.2020
2262 Clouds 28 1014 83 10000 1.96 125 17:25 30.05.2020
2263 Clouds 29 1014 79 10000 1.96 125 16:59 30.05.2020
2264 Clouds 28 1014 79 10000 1.96 125 16:40 30.05.2020
2265 Clouds 28 1014 79 10000 2.27 132 16:21 30.05.2020
2266 Clouds 28 1013 78 10000 2.1 20 15:44 30.05.2020
2267 Clouds 28 1013 78 10000 2.1 20 15:26 30.05.2020
2268 Clouds 30 1012 74 10000 1 0 14:45 30.05.2020
2269 Clouds 30 1012 74 10000 1 0 14:27 30.05.2020
2270 Thunderstorm 31 1012 74 7000 3.1 140 13:44 30.05.2020
2271 Thunderstorm 31 1012 74 7000 3.1 140 13:44 30.05.2020
2272 Thunderstorm 31 1012 74 7000 3.1 140 13:25 30.05.2020
2273 Clouds 32 1011 70 10000 4.1 250 12:42 30.05.2020
2274 Clouds 32 1011 70 10000 4.1 250 12:23 30.05.2020
2275 Clouds 32 1010 70 10000 5.1 250 11:58 30.05.2020
2276 Clouds 33 1010 70 10000 5.1 250 11:40 30.05.2020
2277 Clouds 33 1010 70 10000 5.1 250 11:22 30.05.2020
2278 Clouds 34 1010 63 10000 4.6 290 10:54 30.05.2020
2279 Clouds 34 1010 63 10000 4.6 290 10:36 30.05.2020
2280 Clouds 34 1010 63 10000 4.6 290 10:36 30.05.2020
2281 Clouds 34 1010 63 10000 4.6 290 10:18 30.05.2020
2282 Clouds 35 1010 63 9000 4.6 290 09:41 30.05.2020
2283 Clouds 35 1010 63 9000 4.6 290 09:23 30.05.2020
2284 Clouds 35 1011 63 10000 3.6 290 08:40 30.05.2020
2285 Clouds 35 1011 63 10000 3.6 290 08:21 30.05.2020
2286 Clouds 35 1011 63 10000 3.6 290 08:21 30.05.2020
2287 Clouds 35 1011 63 10000 3.6 280 07:38 30.05.2020
2288 Clouds 34 1011 63 10000 3.6 280 07:18 30.05.2020
2289 Clouds 34 1012 70 9000 3.1 290 06:25 30.05.2020
2290 Clouds 33 1013 74 10000 2.6 310 05:49 30.05.2020
2291 Clouds 34 1013 63 10000 1.5 0 04:33 30.05.2020
2292 Clouds 31 1014 70 10000 1.5 110 02:34 30.05.2020
2293 Clouds 30 1013 83 10000 1.5 70 01:56 30.05.2020
2294 Clouds 28 1013 88 10000 2.6 60 00:44 30.05.2020
2295 Clouds 27 1013 88 10000 2.6 60 00:23 30.05.2020
2296 Clouds 27 1012 88 10000 2.87 109 23:59 29.05.2020
2297 Clouds 27 1012 88 10000 2.87 109 23:38 29.05.2020
2298 Clouds 27 1012 88 10000 3.06 114 23:19 29.05.2020
2299 Clouds 27 1013 88 10000 1 40 22:42 29.05.2020
2300 Clouds 27 1013 88 10000 1 40 22:21 29.05.2020
2301 Clouds 27 1013 88 10000 1 240 21:59 29.05.2020
2302 Clouds 27 1013 88 10000 1 240 21:39 29.05.2020
2303 Clouds 27 1013 88 10000 1 240 21:20 29.05.2020
2304 Clouds 27 1013 88 10000 0.5 0 20:55 29.05.2020
2305 Clouds 27 1013 88 10000 0.5 0 20:37 29.05.2020
2306 Clouds 27 1013 88 10000 0.5 0 20:18 29.05.2020
2307 Clouds 27 1013 88 10000 1.5 220 19:42 29.05.2020
2308 Clouds 27 1013 88 10000 1.5 220 19:23 29.05.2020
2309 Rain 27 1014 94 9000 1 0 18:47 29.05.2020
2310 Rain 27 1014 94 9000 1 0 18:21 29.05.2020
2311 Rain 28 1014 94 8000 1 250 17:57 29.05.2020
2312 Clouds 28 1014 83 10000 1.5 220 17:38 29.05.2020
2313 Clouds 28 1014 83 10000 1.5 220 17:38 29.05.2020
2314 Clouds 28 1014 83 10000 1.5 220 17:19 29.05.2020
2315 Clouds 28 1013 78 10000 2.1 200 16:45 29.05.2020
2316 Clouds 28 1013 78 10000 2.1 200 16:27 29.05.2020
2317 Clouds 28 1013 79 10000 1 0 15:57 29.05.2020
2318 Clouds 28 1013 79 10000 1 0 15:38 29.05.2020
2319 Clouds 29 1013 79 10000 1 0 15:20 29.05.2020
2320 Clouds 28 1012 78 10000 0.5 0 14:51 29.05.2020
2321 Clouds 28 1012 78 10000 0.5 0 14:24 29.05.2020
2322 Rain 28 1011 78 10000 0.5 0 13:58 29.05.2020
2323 Rain 28 1011 78 10000 0.5 0 13:39 29.05.2020
2324 Rain 28 1011 78 10000 0.5 0 13:18 29.05.2020
2325 Rain 27 1011 83 8000 4.1 90 12:44 29.05.2020
2326 Rain 27 1011 83 8000 4.1 90 12:25 29.05.2020
2327 Thunderstorm 27 1010 88 8000 4.1 300 11:46 29.05.2020
2328 Thunderstorm 27 1010 88 8000 4.1 300 11:27 29.05.2020
2329 Thunderstorm 27 1011 94 800 6.2 310 10:58 29.05.2020
2330 Rain 32 1011 66 8000 3.1 330 10:38 29.05.2020
2331 Rain 32 1011 66 8000 3.1 330 10:20 29.05.2020
2332 Clouds 33 1009 66 10000 5.7 270 09:44 29.05.2020
2333 Clouds 33 1009 66 10000 5.7 270 09:20 29.05.2020
2334 Clouds 36 1010 50 10000 2.6 0 08:56 29.05.2020
2335 Clouds 36 1010 50 10000 2.6 0 08:37 29.05.2020
2336 Clouds 36 1010 50 10000 2.6 0 08:19 29.05.2020
2337 Clouds 35 1011 53 10000 2.6 0 07:40 29.05.2020
2338 Clouds 35 1011 53 10000 2.6 0 07:22 29.05.2020
2339 Clouds 34 1011 59 10000 3.1 90 06:48 29.05.2020
2340 Clouds 34 1011 59 10000 3.1 90 06:28 29.05.2020
2341 Clouds 34 1012 63 10000 2.6 130 05:52 29.05.2020
2342 Clouds 31 1012 74 10000 2.6 100 02:56 29.05.2020
2343 Clouds 29 1012 79 10000 1 0 01:42 29.05.2020
2344 Clouds 29 1012 79 10000 1 0 01:23 29.05.2020
2345 Clouds 27 1011 83 9000 0.5 0 00:46 29.05.2020
2346 Clouds 27 1011 83 9000 0.5 0 00:21 29.05.2020
2347 Clouds 27 1011 88 10000 2.8 100 23:40 28.05.2020
2348 Clouds 27 1011 88 10000 2.4 101 23:19 28.05.2020
2349 Clouds 27 1010 88 10000 1.5 80 22:44 28.05.2020
2350 Clouds 27 1010 88 10000 1.5 80 22:26 28.05.2020
2351 Clouds 27 1011 88 10000 0.5 0 21:58 28.05.2020
2352 Clouds 27 1011 88 10000 0.5 0 21:40 28.05.2020
2353 Clouds 27 1011 88 10000 0.5 0 21:20 28.05.2020
2354 Clouds 27 1012 88 10000 1.5 260 20:57 28.05.2020
2355 Clouds 27 1012 88 10000 1.5 260 20:39 28.05.2020
2356 Clouds 27 1012 88 10000 1.5 260 20:18 28.05.2020
2357 Clouds 27 1012 88 10000 1 0 19:56 28.05.2020
2358 Clouds 27 1012 88 10000 1 0 19:38 28.05.2020
2359 Clouds 27 1012 88 10000 1 0 19:20 28.05.2020
2360 Clouds 27 1013 83 10000 1.4 117 18:43 28.05.2020
2361 Clouds 28 1013 83 10000 1.66 131 18:25 28.05.2020
2362 Clouds 28 1013 78 10000 0.5 0 17:56 28.05.2020
2363 Clouds 28 1013 78 10000 0.5 0 17:38 28.05.2020
2364 Clouds 28 1013 78 10000 0.5 0 17:18 28.05.2020
2365 Clouds 28 1013 78 10000 1 0 16:44 28.05.2020
2366 Clouds 28 1013 78 10000 1 0 16:20 28.05.2020
2367 Clouds 28 1013 83 10000 1 0 15:46 28.05.2020
2368 Clouds 28 1013 83 10000 1 0 15:25 28.05.2020
2369 Clouds 28 1013 83 10000 1 0 15:25 28.05.2020
2370 Clouds 28 1013 83 10000 1 0 14:59 28.05.2020
2371 Clouds 28 1013 83 10000 1 0 14:40 28.05.2020
2372 Clouds 28 1013 83 10000 1 0 14:21 28.05.2020
2373 Thunderstorm 28 1013 74 9000 2.1 0 13:44 28.05.2020
2374 Thunderstorm 29 1013 74 9000 2.1 0 13:25 28.05.2020
2375 Clouds 30 1010 79 10000 0.5 0 12:43 28.05.2020
2376 Clouds 30 1010 79 10000 0.5 0 12:19 28.05.2020
2377 Clouds 30 1010 79 10000 2.1 260 11:54 28.05.2020
2378 Clouds 30 1010 79 10000 2.1 260 11:36 28.05.2020
2379 Clouds 30 1010 79 10000 2.1 260 11:18 28.05.2020
2380 Clouds 31 1010 66 10000 2.1 260 10:42 28.05.2020
2381 Clouds 31 1010 66 10000 2.1 260 10:23 28.05.2020
2382 Clouds 29 1010 78 10000 2.6 240 09:40 28.05.2020
2383 Clouds 28 1010 78 10000 2.6 240 09:22 28.05.2020
2384 Clouds 28 1010 78 10000 2.6 240 09:22 28.05.2020
2385 Thunderstorm 28 1011 78 8000 6.7 230 08:52 28.05.2020
2386 Thunderstorm 28 1011 78 8000 6.7 230 08:32 28.05.2020
2387 Clouds 33 1010 63 10000 3.1 260 07:58 28.05.2020
2388 Clouds 34 1010 63 10000 3.1 260 07:38 28.05.2020
2389 Clouds 34 1010 63 10000 3.1 260 07:20 28.05.2020
2390 Clouds 35 1011 56 10000 3.1 100 06:39 28.05.2020
2391 Clouds 35 1011 56 10000 3.1 100 06:20 28.05.2020
2392 Clouds 34 1012 59 10000 1.5 0 05:37 28.05.2020
2393 Clouds 33 1012 63 10000 2.6 0 04:34 28.05.2020
2394 Clouds 33 1012 63 10000 2.6 100 03:51 28.05.2020
2395 Clouds 32 1012 74 9000 1 0 02:49 28.05.2020
2396 Clouds 30 1011 83 9000 1 0 01:56 28.05.2020
2397 Clouds 29 1011 83 9000 1 0 01:27 28.05.2020
2398 Clouds 27 1011 88 9000 1.5 70 00:46 28.05.2020
2399 Clouds 27 1011 88 9000 1.5 70 00:19 28.05.2020
2400 Clouds 27 1011 88 10000 0.5 0 23:40 27.05.2020
2401 Clouds 27 1011 88 10000 0.5 0 23:22 27.05.2020
2402 Clouds 27 1011 88 10000 0.5 0 23:22 27.05.2020
2403 Clouds 27 1010 88 10000 1.28 104 22:59 27.05.2020
2404 Clouds 27 1010 88 10000 1.28 104 22:40 27.05.2020
2405 Clouds 27 1010 88 10000 1.34 121 22:22 27.05.2020
2406 Clouds 27 1010 88 10000 1.34 121 22:22 27.05.2020
2407 Clouds 27 1010 88 10000 0.5 0 21:43 27.05.2020
2408 Clouds 27 1010 88 10000 0.5 0 21:24 27.05.2020
2409 Clouds 27 1012 88 10000 0.5 260 20:59 27.05.2020
2410 Clouds 27 1012 88 10000 0.5 260 20:41 27.05.2020
2411 Clouds 27 1012 88 10000 0.5 260 20:22 27.05.2020
2412 Clouds 27 1011 88 10000 1 0 19:59 27.05.2020
2413 Clouds 27 1011 88 10000 1 0 19:41 27.05.2020
2414 Clouds 27 1011 88 10000 1 0 19:19 27.05.2020
2415 Clouds 27 1012 83 10000 1 0 18:41 27.05.2020
2416 Clouds 27 1012 83 10000 1 0 18:20 27.05.2020
2417 Clouds 27 1012 83 10000 1 0 17:56 27.05.2020
2418 Clouds 27 1012 83 10000 1 0 17:37 27.05.2020
2419 Clouds 27 1012 83 10000 1 0 17:19 27.05.2020
2420 Clouds 27 1012 83 10000 0.5 0 16:55 27.05.2020
2421 Clouds 27 1012 83 10000 0.5 0 16:36 27.05.2020
2422 Clouds 27 1012 83 10000 0.5 0 16:18 27.05.2020
2423 Thunderstorm 25 1012 88 8000 1.5 40 15:40 27.05.2020
2424 Thunderstorm 25 1012 88 8000 1.5 40 15:21 27.05.2020
2425 Thunderstorm 26 1012 83 9000 4.6 90 14:45 27.05.2020
2426 Thunderstorm 26 1012 83 9000 4.6 90 14:22 27.05.2020
2427 Rain 30 1009 70 10000 5.1 270 13:55 27.05.2020
2428 Clouds 30 1009 70 10000 5.1 270 13:37 27.05.2020
2429 Clouds 30 1009 70 10000 5.1 270 13:37 27.05.2020
2430 Clouds 31 1009 70 10000 5.1 270 13:19 27.05.2020
2431 Clouds 31 1009 70 10000 5.1 270 12:40 27.05.2020
2432 Clouds 31 1009 70 10000 5.1 270 12:40 27.05.2020
2433 Clouds 32 1009 70 10000 5.1 270 12:22 27.05.2020
2434 Clouds 32 1009 66 10000 4.6 260 11:40 27.05.2020
2435 Clouds 33 1009 66 10000 4.6 260 11:22 27.05.2020
2436 Clouds 33 1009 66 10000 4.6 260 10:58 27.05.2020
2437 Clouds 32 1009 66 10000 4.6 260 10:39 27.05.2020
2438 Clouds 32 1009 66 10000 4.6 260 10:39 27.05.2020
2439 Clouds 32 1009 66 10000 4.6 260 10:39 27.05.2020
2440 Clouds 32 1009 66 10000 4.6 260 10:20 27.05.2020
2441 Rain 32 1009 66 10000 5.7 240 09:42 27.05.2020
2442 Rain 33 1009 66 10000 5.7 240 09:22 27.05.2020
2443 Clouds 35 1009 53 10000 3.6 120 08:58 27.05.2020
2444 Clouds 36 1009 53 10000 3.6 120 08:38 27.05.2020
2445 Clouds 36 1009 53 10000 3.6 120 08:19 27.05.2020
2446 Clouds 36 1010 53 10000 2.6 130 07:51 27.05.2020
2447 Clouds 36 1010 53 10000 2.6 130 07:51 27.05.2020
2448 Clouds 35 1010 53 10000 2.6 130 07:33 27.05.2020
2449 Clouds 35 1010 56 10000 1 0 06:52 27.05.2020
2450 Clouds 35 1010 56 10000 1 0 06:24 27.05.2020
2451 Clouds 34 1011 59 10000 2.6 90 05:49 27.05.2020
2452 Clouds 34 1011 59 10000 2.6 90 05:22 27.05.2020
2453 Clouds 32 1012 74 10000 1.5 120 02:36 27.05.2020
2454 Clouds 30 1012 83 10000 1 0 01:55 27.05.2020
2455 Clouds 29 1012 83 10000 1 0 01:30 27.05.2020
2456 Clouds 28 1011 83 6000 0.63 97 00:47 27.05.2020
2457 Clouds 27 1011 83 6000 0.76 71 00:20 27.05.2020
2458 Clouds 27 1010 88 10000 0.76 71 23:57 26.05.2020
2459 Clouds 27 1010 88 10000 0.76 71 23:38 26.05.2020
2460 Clouds 27 1010 88 10000 0.44 76 23:19 26.05.2020
2461 Clouds 27 1010 88 10000 0.44 76 22:41 26.05.2020
2462 Clouds 27 1010 88 10000 0.45 126 22:22 26.05.2020
2463 Clouds 27 1010 88 10000 0.5 0 21:59 26.05.2020
2464 Clouds 27 1010 88 10000 0.5 0 21:40 26.05.2020
2465 Clouds 27 1010 88 10000 0.5 0 21:40 26.05.2020
2466 Clouds 27 1010 88 10000 0.5 0 21:21 26.05.2020
2467 Clouds 27 1010 88 10000 1.5 130 20:56 26.05.2020
2468 Clouds 27 1010 88 10000 1.5 130 20:37 26.05.2020
2469 Clouds 27 1010 88 10000 1.5 130 20:19 26.05.2020
2470 Clouds 28 1010 83 10000 0.5 0 19:40 26.05.2020
2471 Clouds 28 1010 83 10000 0.5 0 19:20 26.05.2020
2472 Clouds 28 1011 83 10000 0.5 0 18:44 26.05.2020
2473 Clouds 28 1011 83 10000 0.5 0 18:25 26.05.2020
2474 Clouds 28 1012 83 10000 1 0 17:59 26.05.2020
2475 Clouds 28 1012 83 10000 1 0 17:39 26.05.2020
2476 Clouds 28 1012 83 10000 1 0 17:20 26.05.2020
2477 Clouds 28 1012 83 10000 1.5 140 16:47 26.05.2020
2478 Clouds 28 1012 83 10000 1.5 140 16:22 26.05.2020
2479 Clouds 28 1012 83 10000 1.5 0 15:56 26.05.2020
2480 Clouds 28 1012 83 10000 1.5 0 15:38 26.05.2020
2481 Clouds 28 1012 83 10000 1.5 0 15:19 26.05.2020
2482 Clouds 28 1012 83 10000 1.5 0 15:19 26.05.2020
2483 Clouds 29 1011 79 10000 1 0 14:43 26.05.2020
2484 Clouds 29 1011 79 10000 1 0 14:24 26.05.2020
2485 Clouds 29 1011 78 10000 2.1 80 13:57 26.05.2020
2486 Clouds 28 1011 78 10000 2.1 80 13:38 26.05.2020
2487 Clouds 28 1011 78 10000 2.1 80 13:20 26.05.2020
2488 Clouds 29 1010 79 10000 2.6 0 12:43 26.05.2020
2489 Clouds 30 1010 79 10000 2.6 0 12:22 26.05.2020
2490 Clouds 30 1010 74 10000 3.1 120 11:59 26.05.2020
2491 Clouds 30 1010 74 10000 3.1 120 11:40 26.05.2020
2492 Clouds 31 1010 74 10000 3.1 120 11:19 26.05.2020
2493 Rain 30 1010 79 10000 1 0 10:44 26.05.2020
2494 Rain 30 1010 79 10000 1 0 10:19 26.05.2020
2495 Thunderstorm 32 1010 63 8000 4.1 240 09:41 26.05.2020
2496 Thunderstorm 33 1010 63 8000 4.1 240 09:20 26.05.2020
2497 Thunderstorm 33 1010 66 10000 4.1 280 08:44 26.05.2020
2498 Thunderstorm 32 1010 66 10000 4.1 280 08:23 26.05.2020
2499 Thunderstorm 33 1010 70 10000 3.1 310 07:58 26.05.2020
2500 Thunderstorm 33 1010 70 10000 3.1 310 07:39 26.05.2020
2501 Thunderstorm 33 1010 70 10000 3.1 310 07:21 26.05.2020
2502 Clouds 33 1011 70 10000 3.1 290 06:46 26.05.2020
2503 Clouds 33 1011 70 10000 3.1 290 06:19 26.05.2020
2504 Clouds 33 1011 70 10000 3.1 290 05:35 26.05.2020
2505 Clouds 32 1012 70 10000 2.6 300 04:56 26.05.2020
2506 Clouds 32 1012 70 10000 2.6 300 04:34 26.05.2020
2507 Clouds 32 1012 74 10000 2.1 260 03:59 26.05.2020
2508 Clouds 31 1012 74 10000 0.5 0 02:49 26.05.2020
2509 Clouds 30 1012 79 9000 0.5 0 01:49 26.05.2020
2510 Clouds 29 1012 79 9000 0.5 0 01:28 26.05.2020
2511 Clouds 28 1011 74 10000 1 90 00:39 26.05.2020
2512 Clouds 28 1011 74 10000 1 90 00:19 26.05.2020
2513 Rain 28 1011 79 10000 2.1 340 23:56 25.05.2020
2514 Rain 28 1011 79 10000 2.1 340 23:38 25.05.2020
2515 Rain 28 1011 79 10000 2.1 340 23:18 25.05.2020
2516 Clouds 28 1011 83 10000 1 0 22:55 25.05.2020
2517 Rain 27 1011 83 10000 1 0 22:36 25.05.2020
2518 Rain 27 1011 83 10000 1 0 22:18 25.05.2020
2519 Rain 27 1011 83 10000 1 0 22:18 25.05.2020
2520 Rain 27 1011 83 10000 1 0 22:18 25.05.2020
2521 Rain 28 1011 83 10000 1 230 21:55 25.05.2020
2522 Rain 28 1011 83 10000 1 230 21:36 25.05.2020
2523 Rain 29 1011 83 10000 1 230 21:18 25.05.2020
2524 Clouds 29 1011 83 10000 1 0 20:42 25.05.2020
2525 Clouds 29 1011 83 10000 1 0 20:42 25.05.2020
2526 Clouds 29 1011 83 10000 1 0 20:22 25.05.2020
2527 Clouds 29 1011 83 10000 1 0 20:22 25.05.2020
2528 Clouds 29 1011 83 10000 0.5 250 19:59 25.05.2020
2529 Clouds 29 1011 83 10000 0.5 250 19:40 25.05.2020
2530 Clouds 29 1011 83 10000 0.5 250 19:18 25.05.2020
2531 Clouds 29 1012 83 10000 1.5 230 18:55 25.05.2020
2532 Clouds 29 1012 83 10000 1.5 230 18:36 25.05.2020
2533 Clouds 29 1012 83 10000 1.5 230 18:18 25.05.2020
2534 Clouds 30 1012 79 10000 1.5 210 17:42 25.05.2020
2535 Clouds 30 1012 79 10000 1.5 210 17:23 25.05.2020
2536 Clouds 30 1012 83 10000 1.5 240 16:57 25.05.2020
2537 Clouds 30 1012 83 10000 1.5 240 16:39 25.05.2020
2538 Clouds 30 1012 83 10000 1.5 240 16:19 25.05.2020
2539 Clouds 30 1012 79 10000 1.5 240 15:44 25.05.2020
2540 Clouds 30 1012 79 10000 1.5 240 15:19 25.05.2020
2541 Clouds 30 1012 79 10000 4.1 230 14:58 25.05.2020
2542 Clouds 30 1012 79 10000 4.1 230 14:38 25.05.2020
2543 Clouds 30 1012 79 10000 4.1 230 14:19 25.05.2020
2544 Clouds 31 1011 74 10000 4.1 250 13:40 25.05.2020
2545 Clouds 31 1011 74 10000 4.1 250 13:21 25.05.2020
2546 Clouds 31 1011 62 10000 4.6 250 12:58 25.05.2020
2547 Clouds 32 1011 62 10000 4.6 250 12:38 25.05.2020
2548 Clouds 32 1011 62 10000 4.6 250 12:20 25.05.2020
2549 Clouds 33 1010 66 10000 4.1 260 11:39 25.05.2020
2550 Clouds 33 1010 66 10000 4.1 260 11:20 25.05.2020
2551 Clouds 33 1009 66 10000 4.1 280 10:56 25.05.2020
2552 Clouds 33 1009 66 10000 4.1 280 10:37 25.05.2020
2553 Clouds 33 1009 66 10000 4.1 280 10:19 25.05.2020
2554 Clouds 33 1010 56 10000 3.6 300 09:54 25.05.2020
2555 Clouds 34 1010 56 10000 3.6 300 09:36 25.05.2020
2556 Clouds 34 1010 56 10000 3.6 300 09:18 25.05.2020
2557 Clouds 34 1010 56 10000 3.6 300 09:18 25.05.2020
2558 Clouds 34 1009 56 10000 4.1 280 08:39 25.05.2020
2559 Clouds 34 1009 56 10000 4.1 280 08:20 25.05.2020
2560 Clouds 34 1011 63 10000 3.6 280 07:48 25.05.2020
2561 Clouds 34 1011 63 10000 3.6 280 07:26 25.05.2020
2562 Clouds 34 1012 70 10000 3.1 310 06:56 25.05.2020
2563 Clouds 33 1012 70 10000 3.1 310 06:35 25.05.2020
2564 Clouds 31 1012 70 10000 4.1 320 05:20 25.05.2020
2565 Clouds 31 1012 74 10000 1.5 80 03:25 25.05.2020
2566 Clouds 32 1012 79 10000 2.1 140 02:46 25.05.2020
2567 Clouds 30 1011 79 10000 1.5 130 01:59 25.05.2020
2568 Clouds 30 1011 79 10000 1.5 130 01:40 25.05.2020
2569 Clouds 28 1011 83 10000 2.1 120 00:45 25.05.2020
2570 Clouds 28 1011 83 10000 2.1 120 00:23 25.05.2020
2571 Clouds 28 1011 78 10000 1.5 100 23:57 24.05.2020
2572 Clouds 28 1011 78 10000 1.5 100 23:38 24.05.2020
2573 Clouds 28 1011 78 10000 1.5 100 23:19 24.05.2020
2574 Clouds 27 1011 78 10000 2.6 30 22:41 24.05.2020
2575 Clouds 28 1011 78 10000 2.6 30 22:20 24.05.2020
2576 Clouds 28 1012 83 10000 1.5 320 21:58 24.05.2020
2577 Clouds 28 1012 83 10000 1.5 320 21:40 24.05.2020
2578 Clouds 28 1012 83 10000 1.5 320 21:21 24.05.2020
2579 Clouds 28 1012 74 10000 2.1 330 20:57 24.05.2020
2580 Clouds 28 1012 74 10000 2.1 330 20:57 24.05.2020
2581 Clouds 28 1012 74 10000 2.1 330 20:38 24.05.2020
2582 Clouds 28 1012 74 10000 2.1 330 20:18 24.05.2020
2583 Clouds 28 1013 74 10000 2.6 350 19:55 24.05.2020
2584 Clouds 28 1013 74 10000 2.6 350 19:36 24.05.2020
2585 Clouds 29 1013 74 10000 2.6 350 19:18 24.05.2020
2586 Clouds 29 1014 79 10000 2.1 330 18:41 24.05.2020
2587 Clouds 29 1014 79 10000 2.1 330 18:23 24.05.2020
2588 Clouds 29 1014 74 10000 3.1 330 17:56 24.05.2020
2589 Clouds 29 1014 74 10000 3.1 330 17:37 24.05.2020
2590 Clouds 29 1014 74 10000 3.1 330 17:19 24.05.2020
2591 Clouds 29 1014 70 10000 0.5 0 16:39 24.05.2020
2592 Clouds 29 1014 70 10000 0.5 0 16:21 24.05.2020
2593 Clouds 29 1013 74 10000 3.1 20 15:58 24.05.2020
2594 Clouds 29 1013 74 10000 3.1 20 15:39 24.05.2020
2595 Clouds 29 1013 74 10000 3.1 20 15:19 24.05.2020
2596 Clouds 29 1013 74 10000 3.6 360 14:55 24.05.2020
2597 Clouds 29 1013 74 10000 3.6 360 14:37 24.05.2020
2598 Clouds 29 1013 74 10000 3.6 360 14:18 24.05.2020
2599 Clouds 29 1012 74 10000 3.6 10 13:44 24.05.2020
2600 Clouds 29 1012 74 10000 3.6 10 13:23 24.05.2020
2601 Clouds 29 1012 74 10000 3.6 10 13:23 24.05.2020
2602 Clouds 29 1011 74 10000 4.1 330 13:00 24.05.2020
2603 Clouds 29 1011 74 10000 4.1 330 12:41 24.05.2020
2604 Clouds 30 1011 74 10000 4.1 330 12:23 24.05.2020
2605 Clouds 30 1010 66 10000 6.7 260 11:59 24.05.2020
2606 Clouds 31 1010 66 10000 6.7 260 11:41 24.05.2020
2607 Clouds 32 1010 66 10000 6.7 260 11:23 24.05.2020
2608 Clouds 32 1010 66 10000 6.7 260 11:23 24.05.2020
2609 Clouds 33 1010 66 10000 6.7 260 10:59 24.05.2020
2610 Clouds 33 1010 66 10000 6.7 260 10:39 24.05.2020
2611 Clouds 33 1010 66 10000 6.7 260 10:21 24.05.2020
2612 Clouds 33 1010 66 10000 1.5 150 09:42 24.05.2020
2613 Clouds 33 1010 66 10000 1.5 150 09:19 24.05.2020
2614 Clouds 33 1010 63 10000 4.6 290 08:58 24.05.2020
2615 Clouds 33 1010 63 10000 4.6 290 08:40 24.05.2020
2616 Clouds 33 1010 63 10000 4.6 290 08:22 24.05.2020
2617 Clouds 34 1011 63 10000 4.6 280 07:51 24.05.2020
2618 Clouds 33 1011 63 10000 4.6 280 07:26 24.05.2020
2619 Clouds 33 1011 70 10000 4.1 290 06:58 24.05.2020
2620 Clouds 33 1011 70 10000 4.1 290 06:37 24.05.2020
2621 Clouds 33 1011 70 10000 4.1 290 06:37 24.05.2020
2622 Clouds 33 1012 70 10000 3.6 290 05:21 24.05.2020
2623 Clouds 31 1012 74 10000 1 0 03:42 24.05.2020
2624 Clouds 30 1012 74 10000 0.5 0 02:47 24.05.2020
2625 Clouds 28 1010 88 10000 0.4 98 01:54 24.05.2020
2626 Clouds 26 1010 88 10000 0.4 127 00:42 24.05.2020
2627 Clouds 26 1010 88 10000 0.69 159 00:23 24.05.2020
2628 Clouds 26 1009 94 10000 0.5 0 23:46 23.05.2020
2629 Clouds 26 1009 94 10000 0.5 0 23:26 23.05.2020
2630 Clouds 26 1009 94 10000 0.66 123 22:59 23.05.2020
2631 Clouds 26 1009 94 10000 0.66 123 22:39 23.05.2020
2632 Clouds 26 1009 94 10000 0.33 94 22:21 23.05.2020
2633 Clouds 26 1009 94 10000 0.5 0 21:59 23.05.2020
2634 Clouds 26 1009 94 10000 0.5 0 21:41 23.05.2020
2635 Clouds 26 1009 94 10000 0.5 0 21:20 23.05.2020
2636 Clouds 26 1009 94 10000 1.5 160 20:59 23.05.2020
2637 Clouds 26 1009 94 10000 1.5 160 20:39 23.05.2020
2638 Clouds 26 1009 94 10000 1.5 160 20:19 23.05.2020
2639 Clouds 26 1010 94 10000 1 0 19:55 23.05.2020
2640 Clouds 26 1010 94 10000 1 0 19:37 23.05.2020
2641 Clouds 26 1010 94 10000 1 0 19:18 23.05.2020
2642 Clouds 26 1011 94 10000 1 0 18:40 23.05.2020
2643 Clouds 26 1011 94 10000 1 0 18:22 23.05.2020
2644 Clouds 26 1012 94 10000 1 0 17:57 23.05.2020
2645 Clouds 26 1012 94 10000 1 0 17:39 23.05.2020
2646 Clouds 26 1012 94 10000 1 0 17:19 23.05.2020
2647 Rain 26 1012 94 10000 2.28 261 16:57 23.05.2020
2648 Rain 26 1012 94 10000 2.28 261 16:39 23.05.2020
2649 Rain 26 1012 94 10000 2.68 254 16:20 23.05.2020
2650 Rain 26 1013 94 10000 2.1 280 15:43 23.05.2020
2651 Rain 26 1013 94 10000 2.1 280 15:24 23.05.2020
2652 Rain 26 1013 94 8000 3.6 230 14:58 23.05.2020
2653 Rain 26 1013 94 8000 3.6 230 14:40 23.05.2020
2654 Rain 26 1013 94 8000 3.6 230 14:22 23.05.2020
2655 Rain 26 1012 94 9000 2.1 250 13:41 23.05.2020
2656 Rain 26 1012 94 9000 2.1 250 13:19 23.05.2020
2657 Rain 26 1012 94 9000 2.1 250 13:19 23.05.2020
2658 Rain 26 1011 94 6000 3.1 280 12:56 23.05.2020
2659 Rain 26 1011 94 6000 3.1 280 12:38 23.05.2020
2660 Rain 26 1011 94 6000 3.1 280 12:19 23.05.2020
2661 Rain 28 1009 83 5000 6.7 270 11:43 23.05.2020
2662 Rain 28 1009 83 5000 6.7 270 11:22 23.05.2020
2663 Rain 28 1009 83 10000 5.7 250 10:57 23.05.2020
2664 Rain 28 1009 83 10000 5.7 250 10:39 23.05.2020
2665 Rain 28 1009 83 10000 5.7 250 10:20 23.05.2020
2666 Thunderstorm 29 1008 79 9000 2.6 250 09:58 23.05.2020
2667 Thunderstorm 30 1008 79 9000 2.6 250 09:40 23.05.2020
2668 Thunderstorm 31 1008 79 9000 2.6 250 09:21 23.05.2020
2669 Clouds 32 1009 70 10000 8.2 270 08:44 23.05.2020
2670 Clouds 33 1009 70 10000 8.2 270 08:20 23.05.2020
2671 Clouds 33 1009 70 10000 6.7 280 07:54 23.05.2020
2672 Clouds 33 1009 70 10000 6.7 280 07:31 23.05.2020
2673 Clouds 34 1009 70 10000 6.2 290 06:56 23.05.2020
2674 Clouds 34 1009 70 10000 6.2 290 06:56 23.05.2020
2675 Clouds 34 1009 70 10000 6.2 290 06:37 23.05.2020
2676 Clouds 33 1010 75 10000 4.6 280 05:26 23.05.2020
2677 Clouds 33 1010 63 10000 1.5 0 03:30 23.05.2020
2678 Clouds 32 1010 74 10000 1 0 02:58 23.05.2020
2679 Clouds 31 1009 79 10000 1 0 01:58 23.05.2020
2680 Clouds 30 1009 79 10000 1 0 01:23 23.05.2020
2681 Clouds 29 1009 83 10000 0.5 0 00:47 23.05.2020
2682 Clouds 29 1009 83 10000 0.5 0 00:25 23.05.2020
2683 Clouds 29 1008 83 10000 0.51 172 23:57 22.05.2020
2684 Clouds 29 1008 83 10000 0.51 172 23:38 22.05.2020
2685 Clouds 29 1008 83 10000 1.17 178 23:19 22.05.2020
2686 Clouds 29 1008 83 10000 1 0 22:43 22.05.2020
2687 Clouds 29 1008 83 10000 1 0 22:21 22.05.2020
2688 Clouds 29 1008 83 10000 1.5 180 21:57 22.05.2020
2689 Clouds 29 1008 83 10000 1.5 180 21:38 22.05.2020
2690 Clouds 29 1008 83 10000 1.5 180 21:20 22.05.2020
2691 Clouds 29 1009 79 10000 1 0 20:45 22.05.2020
2692 Clouds 30 1009 79 10000 1 0 20:21 22.05.2020
2693 Clouds 30 1009 84 10000 1 0 19:59 22.05.2020
2694 Clouds 30 1009 84 10000 1 0 19:37 22.05.2020
2695 Clouds 30 1009 84 10000 1 0 19:18 22.05.2020
2696 Clouds 30 1009 84 10000 1.5 180 18:39 22.05.2020
2697 Clouds 30 1009 84 10000 1.5 180 18:19 22.05.2020
2698 Clouds 30 1009 84 10000 1 0 17:56 22.05.2020
2699 Clouds 30 1009 84 10000 1 0 17:36 22.05.2020
2700 Clouds 30 1009 84 10000 1 0 17:18 22.05.2020
2701 Clouds 30 1009 84 10000 1 0 16:41 22.05.2020
2702 Clouds 30 1009 84 10000 1 0 16:20 22.05.2020
2703 Clouds 30 1009 84 10000 1.5 230 15:57 22.05.2020
2704 Clouds 30 1009 84 10000 1.5 230 15:39 22.05.2020
2705 Clouds 30 1009 84 10000 1.5 230 15:19 22.05.2020
2706 Clouds 30 1009 84 10000 3.6 260 14:42 22.05.2020
2707 Clouds 30 1009 84 10000 3.6 260 14:24 22.05.2020
2708 Clouds 31 1008 79 10000 4.1 250 13:45 22.05.2020
2709 Clouds 31 1008 79 10000 4.1 250 13:20 22.05.2020
2710 Clouds 31 1008 79 10000 4.6 270 12:44 22.05.2020
2711 Clouds 31 1008 79 10000 4.6 270 12:25 22.05.2020
2712 Clouds 31 1007 74 10000 5.1 270 11:58 22.05.2020
2713 Rain 31 1007 74 10000 5.1 270 11:40 22.05.2020
2714 Rain 31 1007 74 10000 5.1 270 11:19 22.05.2020
2715 Rain 31 1007 79 10000 4.6 260 10:41 22.05.2020
2716 Clouds 32 1007 79 10000 4.6 260 10:22 22.05.2020
2717 Clouds 32 1007 70 10000 2.6 280 09:59 22.05.2020
2718 Clouds 32 1007 70 10000 2.6 280 09:40 22.05.2020
2719 Clouds 33 1007 70 10000 2.6 280 09:18 22.05.2020
2720 Clouds 33 1008 75 10000 4.1 260 08:43 22.05.2020
2721 Clouds 33 1008 75 10000 4.1 260 08:20 22.05.2020
2722 Rain 32 1008 83 9000 1.5 0 07:56 22.05.2020
2723 Rain 31 1008 83 9000 1.5 0 07:24 22.05.2020
2724 Thunderstorm 32 1009 79 9000 5.1 260 06:56 22.05.2020
2725 Thunderstorm 31 1009 79 9000 5.1 260 06:35 22.05.2020
2726 Clouds 34 1009 63 10000 2.6 0 05:38 22.05.2020
2727 Clouds 34 1010 63 10000 3.1 0 04:51 22.05.2020
2728 Clouds 33 1010 63 10000 3.1 0 04:19 22.05.2020
2729 Clouds 33 1010 63 10000 2.1 0 03:45 22.05.2020
2730 Clouds 32 1009 74 10000 0.5 0 02:59 22.05.2020
2731 Clouds 31 1009 84 8000 1 0 01:52 22.05.2020
2732 Clouds 30 1009 84 8000 1 0 01:24 22.05.2020
2733 Clouds 29 1008 83 9000 1 0 00:35 22.05.2020
2734 Clouds 29 1007 83 10000 1 0 23:59 21.05.2020
2735 Clouds 29 1007 83 10000 1 0 23:41 21.05.2020
2736 Clouds 29 1007 83 10000 1 0 23:23 21.05.2020
2737 Clouds 29 1007 83 10000 1 0 22:57 21.05.2020
2738 Clouds 29 1007 83 10000 1 0 22:57 21.05.2020
2739 Clouds 29 1007 83 10000 1 0 22:37 21.05.2020
2740 Clouds 29 1007 83 10000 1 0 22:19 21.05.2020
2741 Clouds 29 1007 83 10000 1.5 200 21:49 21.05.2020
2742 Clouds 29 1007 83 10000 1.5 200 21:27 21.05.2020
2743 Clouds 29 1007 83 10000 1.5 200 21:27 21.05.2020
2744 Clouds 29 1007 83 10000 1 0 20:59 21.05.2020
2745 Clouds 29 1007 83 10000 1 0 20:40 21.05.2020
2746 Clouds 29 1007 83 10000 1 0 20:22 21.05.2020
2747 Clouds 30 1008 79 10000 1 0 19:40 21.05.2020
2748 Clouds 30 1008 79 10000 1 0 19:40 21.05.2020
2749 Clouds 30 1008 79 10000 1 0 19:20 21.05.2020
2750 Clouds 30 1009 79 10000 1 0 18:58 21.05.2020
2751 Clouds 30 1009 79 10000 1 0 18:37 21.05.2020
2752 Clouds 30 1009 79 10000 1 0 18:37 21.05.2020
2753 Clouds 30 1009 79 10000 1 0 18:18 21.05.2020
2754 Clouds 30 1010 79 10000 1 0 17:55 21.05.2020
2755 Clouds 30 1010 79 10000 1 0 17:36 21.05.2020
2756 Clouds 30 1010 79 10000 1 0 17:18 21.05.2020
2757 Clouds 30 1010 79 10000 1.5 200 16:41 21.05.2020
2758 Clouds 30 1010 79 10000 1.5 200 16:22 21.05.2020
2759 Clouds 31 1009 79 10000 2.1 230 15:41 21.05.2020
2760 Clouds 31 1009 79 10000 2.1 230 15:22 21.05.2020
2761 Clouds 31 1009 79 10000 3.1 240 14:42 21.05.2020
2762 Clouds 31 1009 79 10000 3.1 240 14:23 21.05.2020
2763 Clouds 31 1008 79 10000 4.1 250 13:58 21.05.2020
2764 Clouds 31 1008 79 10000 4.1 250 13:38 21.05.2020
2765 Clouds 31 1008 79 10000 4.1 250 13:18 21.05.2020
2766 Clouds 31 1008 74 10000 5.1 250 12:40 21.05.2020
2767 Clouds 31 1008 74 10000 5.1 250 12:40 21.05.2020
2768 Clouds 31 1008 74 10000 5.1 250 12:21 21.05.2020
2769 Clouds 32 1007 75 10000 4.1 250 11:57 21.05.2020
2770 Clouds 32 1007 75 10000 4.1 250 11:39 21.05.2020
2771 Clouds 32 1007 75 10000 4.1 250 11:20 21.05.2020
2772 Clouds 32 1006 70 10000 4.1 260 10:43 21.05.2020
2773 Clouds 32 1006 70 10000 4.1 260 10:23 21.05.2020
2774 Clouds 33 1007 59 10000 4.1 220 09:59 21.05.2020
2775 Clouds 33 1007 59 10000 4.1 220 09:40 21.05.2020
2776 Clouds 33 1007 59 10000 4.1 220 09:40 21.05.2020
2777 Clouds 33 1007 59 10000 4.1 220 09:40 21.05.2020
2778 Clouds 33 1007 59 10000 4.1 220 09:40 21.05.2020
2779 Clouds 34 1007 59 10000 4.1 220 09:22 21.05.2020
2780 Clouds 34 1008 62 10000 4.1 230 08:50 21.05.2020
2781 Clouds 34 1008 62 10000 4.1 230 08:31 21.05.2020
2782 Clouds 34 1008 50 10000 2.6 110 07:59 21.05.2020
2783 Clouds 35 1008 50 10000 2.6 110 07:37 21.05.2020
2784 Clouds 35 1008 50 10000 2.6 110 07:18 21.05.2020
2785 Clouds 35 1008 50 10000 2.6 0 06:30 21.05.2020
2786 Clouds 35 1009 53 10000 3.1 0 05:50 21.05.2020
2787 Clouds 33 1010 66 10000 2.1 160 03:47 21.05.2020
2788 Clouds 33 1010 66 10000 2.1 160 03:20 21.05.2020
2789 Clouds 32 1010 74 10000 2.1 0 02:31 21.05.2020
2790 Clouds 31 1009 84 10000 1 0 01:50 21.05.2020
2791 Clouds 30 1009 84 10000 1 0 01:24 21.05.2020
2792 Clouds 29 1008 83 9000 1 0 00:54 21.05.2020
2793 Clouds 29 1008 83 9000 1 0 00:26 21.05.2020
2794 Clouds 29 1008 89 10000 0.5 110 23:56 20.05.2020
2795 Clouds 29 1008 89 10000 0.5 110 23:37 20.05.2020
2796 Clouds 29 1008 89 10000 0.5 110 23:18 20.05.2020
2797 Clouds 29 1008 89 10000 1 0 22:42 20.05.2020
2798 Clouds 29 1008 89 10000 1 0 22:23 20.05.2020
2799 Clouds 29 1008 89 10000 1 0 21:42 20.05.2020
2800 Clouds 29 1008 89 10000 1 0 21:23 20.05.2020
2801 Clouds 29 1008 89 10000 1 0 20:57 20.05.2020
2802 Clouds 29 1008 89 10000 1 0 20:38 20.05.2020
2803 Clouds 29 1008 89 10000 1 0 20:20 20.05.2020
2804 Clouds 29 1009 89 10000 1 0 19:41 20.05.2020
2805 Clouds 29 1009 89 10000 1 0 19:23 20.05.2020
2806 Clouds 29 1009 83 10000 1 0 18:57 20.05.2020
2807 Clouds 29 1009 83 10000 1 0 18:38 20.05.2020
2808 Clouds 30 1009 83 10000 1 0 18:20 20.05.2020
2809 Clouds 30 1009 79 10000 0.5 0 17:38 20.05.2020
2810 Clouds 30 1009 79 10000 0.5 0 17:19 20.05.2020
2811 Clouds 30 1009 79 10000 0.5 0 16:42 20.05.2020
2812 Clouds 30 1009 79 10000 0.5 0 16:23 20.05.2020
2813 Clouds 31 1009 70 10000 1 0 15:57 20.05.2020
2814 Clouds 31 1009 70 10000 1 0 15:39 20.05.2020
2815 Clouds 31 1009 70 10000 1 0 15:21 20.05.2020
2816 Clouds 31 1009 70 10000 1.5 240 14:42 20.05.2020
2817 Clouds 31 1009 70 10000 1.5 240 14:20 20.05.2020
2818 Clouds 31 1008 70 10000 2.6 240 13:41 20.05.2020
2819 Clouds 31 1008 70 10000 2.6 240 13:20 20.05.2020
2820 Clouds 32 1007 66 10000 4.6 260 12:57 20.05.2020
2821 Clouds 32 1007 66 10000 4.6 260 12:37 20.05.2020
2822 Clouds 32 1007 66 10000 4.6 260 12:19 20.05.2020
2823 Clouds 33 1007 70 10000 5.1 260 11:36 20.05.2020
2824 Clouds 33 1007 70 10000 5.1 260 11:18 20.05.2020
2825 Clouds 33 1007 70 10000 5.1 260 11:18 20.05.2020
2826 Clouds 33 1007 63 10000 5.7 260 10:42 20.05.2020
2827 Clouds 33 1007 63 10000 5.7 260 10:20 20.05.2020
2828 Clouds 34 1007 66 10000 5.1 260 09:44 20.05.2020
2829 Clouds 34 1007 66 10000 5.1 260 09:21 20.05.2020
2830 Thunderstorm 34 1007 75 10000 6.2 290 08:57 20.05.2020
2831 Thunderstorm 34 1007 75 10000 6.2 290 08:39 20.05.2020
2832 Thunderstorm 34 1007 75 10000 6.2 290 08:18 20.05.2020
2833 Clouds 35 1008 67 10000 3.1 290 07:46 20.05.2020
2834 Clouds 35 1008 67 10000 3.1 290 07:20 20.05.2020
2835 Clouds 34 1009 70 10000 2.6 260 06:36 20.05.2020
2836 Clouds 34 1009 63 10000 1.5 0 05:23 20.05.2020
2837 Clouds 34 1010 66 10000 1.5 0 04:26 20.05.2020
2838 Clouds 33 1010 70 10000 1.5 0 03:38 20.05.2020
2839 Clouds 32 1010 74 9000 2.1 90 02:23 20.05.2020
2840 Clouds 29 1010 83 9000 1.5 80 01:28 20.05.2020
2841 Clouds 27 1009 94 10000 1 0 00:44 20.05.2020
2842 Clouds 27 1009 94 10000 1 0 00:23 20.05.2020
2843 Clouds 27 1008 94 10000 2.31 108 23:41 19.05.2020
2844 Clouds 27 1008 94 10000 2.45 110 23:19 19.05.2020
2845 Clouds 27 1008 94 10000 0.5 0 22:56 19.05.2020
2846 Clouds 27 1008 94 10000 0.5 0 22:38 19.05.2020
2847 Clouds 27 1008 94 10000 0.5 0 22:18 19.05.2020
2848 Clouds 27 1008 94 10000 1.91 111 21:56 19.05.2020
2849 Clouds 28 1008 94 10000 1.72 115 21:37 19.05.2020
2850 Clouds 28 1008 94 10000 1.72 115 21:37 19.05.2020
2851 Clouds 28 1008 94 10000 1.22 115 21:19 19.05.2020
2852 Clouds 28 1008 94 10000 1.22 115 21:19 19.05.2020
2853 Clouds 28 1008 94 10000 1 0 20:56 19.05.2020
2854 Clouds 28 1008 94 10000 1 0 20:56 19.05.2020
2855 Clouds 28 1008 94 10000 1 0 20:38 19.05.2020
2856 Clouds 28 1008 94 10000 1 0 20:19 19.05.2020
2857 Clouds 28 1008 88 10000 1 0 19:39 19.05.2020
2858 Clouds 28 1008 88 10000 1 0 19:21 19.05.2020
2859 Clouds 28 1009 88 10000 1.5 190 18:57 19.05.2020
2860 Clouds 28 1009 88 10000 1.5 190 18:38 19.05.2020
2861 Clouds 28 1009 88 10000 1.5 190 18:20 19.05.2020
2862 Clouds 29 1009 88 10000 1 0 17:41 19.05.2020
2863 Clouds 29 1009 88 10000 1 0 17:21 19.05.2020
2864 Clouds 29 1009 88 10000 1.5 40 16:58 19.05.2020
2865 Clouds 29 1009 88 10000 1.5 40 16:38 19.05.2020
2866 Clouds 29 1009 88 10000 1.5 40 16:19 19.05.2020
2867 Clouds 29 1009 88 10000 2.9 195 15:44 19.05.2020
2868 Clouds 29 1009 88 10000 3 212 15:21 19.05.2020
2869 Rain 28 1008 88 9000 1 0 14:56 19.05.2020
2870 Rain 28 1008 88 9000 1 0 14:38 19.05.2020
2871 Rain 29 1008 88 9000 1 0 14:20 19.05.2020
2872 Rain 29 1008 88 8000 3.6 220 13:57 19.05.2020
2873 Clouds 30 1008 70 10000 1 0 13:38 19.05.2020
2874 Clouds 30 1008 70 10000 1 0 13:20 19.05.2020
2875 Clouds 30 1008 70 10000 2.6 190 12:56 19.05.2020
2876 Clouds 30 1008 70 10000 2.6 190 12:36 19.05.2020
2877 Clouds 31 1008 70 10000 2.6 190 12:18 19.05.2020
2878 Clouds 31 1008 70 10000 2.6 190 12:18 19.05.2020
2879 Clouds 31 1007 66 10000 1 0 11:42 19.05.2020
2880 Clouds 32 1007 66 10000 1 0 11:22 19.05.2020
2881 Clouds 32 1007 66 10000 1 0 10:57 19.05.2020
2882 Clouds 33 1007 66 10000 1 0 10:39 19.05.2020
2883 Clouds 33 1007 66 10000 1 0 10:39 19.05.2020
2884 Clouds 32 1007 66 10000 1 0 10:20 19.05.2020
2885 Clouds 32 1007 70 10000 1 0 09:44 19.05.2020
2886 Clouds 32 1007 70 10000 1 0 09:25 19.05.2020
2887 Clouds 30 1007 78 10000 2.6 210 08:47 19.05.2020
2888 Clouds 30 1007 78 10000 2.6 210 08:25 19.05.2020
2889 Thunderstorm 31 1007 74 9000 2.6 230 07:49 19.05.2020
2890 Thunderstorm 32 1007 74 9000 2.6 230 07:28 19.05.2020
2891 Thunderstorm 32 1008 83 9000 2.6 200 06:55 19.05.2020
2892 Thunderstorm 32 1008 83 9000 2.6 200 06:55 19.05.2020
2893 Thunderstorm 32 1008 83 9000 2.6 200 06:31 19.05.2020
2894 Rain 32 1008 79 8000 2.1 110 05:53 19.05.2020
2895 Rain 32 1008 79 8000 2.1 110 05:35 19.05.2020
2896 Thunderstorm 31 1009 78 8000 5.1 70 04:50 19.05.2020
2897 Clouds 32 1008 75 10000 1.5 80 02:50 19.05.2020
2898 Clouds 29 1007 88 10000 1.5 150 00:49 19.05.2020
2899 Clouds 29 1007 88 10000 1.5 150 00:49 19.05.2020
2900 Clouds 28 1007 88 10000 1.5 150 00:31 19.05.2020
2901 Clouds 29 1007 83 10000 1.5 140 23:59 18.05.2020
2902 Clouds 29 1007 83 10000 1.5 140 23:40 18.05.2020
2903 Clouds 29 1007 83 10000 1.5 140 23:20 18.05.2020
2904 Clouds 29 1007 83 10000 1 110 22:55 18.05.2020
2905 Clouds 29 1007 83 10000 1 110 22:37 18.05.2020
2906 Clouds 29 1007 83 10000 1 110 22:19 18.05.2020
2907 Clouds 29 1007 83 8000 0.5 0 21:42 18.05.2020
2908 Clouds 29 1007 83 8000 0.5 0 21:21 18.05.2020
2909 Clouds 29 1007 83 8000 0.5 0 20:57 18.05.2020
2910 Clouds 29 1007 83 8000 0.5 0 20:37 18.05.2020
2911 Clouds 29 1007 83 8000 0.5 0 20:19 18.05.2020
2912 Clouds 29 1007 83 8000 0.5 0 19:42 18.05.2020
2913 Clouds 29 1008 83 8000 1 0 19:20 18.05.2020
2914 Clouds 29 1008 83 8000 1 0 18:59 18.05.2020
2915 Clouds 29 1008 83 8000 1 0 18:41 18.05.2020
2916 Clouds 29 1008 83 8000 1 0 18:20 18.05.2020
2917 Clouds 30 1008 74 8000 1 0 17:38 18.05.2020
2918 Clouds 30 1008 74 8000 1 0 17:18 18.05.2020
2919 Clouds 30 1008 74 8000 1 0 17:18 18.05.2020
2920 Clouds 30 1008 74 10000 1.5 180 16:56 18.05.2020
2921 Clouds 30 1008 74 10000 1.5 180 16:37 18.05.2020
2922 Clouds 30 1008 74 10000 1.5 180 16:18 18.05.2020
2923 Clouds 30 1008 74 10000 1.5 180 16:18 18.05.2020
2924 Clouds 30 1007 74 10000 1 0 15:46 18.05.2020
2925 Clouds 30 1007 74 10000 1 0 15:25 18.05.2020
2926 Clouds 30 1007 74 10000 1 0 14:59 18.05.2020
2927 Clouds 30 1007 74 10000 1 0 14:40 18.05.2020
2928 Clouds 30 1007 74 10000 1 0 14:22 18.05.2020
2929 Clouds 30 1007 74 10000 1 0 13:54 18.05.2020
2930 Clouds 30 1007 74 10000 1 0 13:36 18.05.2020
2931 Clouds 30 1007 74 10000 1 0 13:18 18.05.2020
2932 Clouds 31 1007 74 10000 3.1 130 12:54 18.05.2020
2933 Clouds 31 1007 74 10000 3.1 130 12:36 18.05.2020
2934 Clouds 31 1007 74 10000 3.1 130 12:18 18.05.2020
2935 Clouds 33 1006 63 10000 2.1 220 11:44 18.05.2020
2936 Clouds 33 1006 63 10000 2.1 220 11:25 18.05.2020
2937 Clouds 33 1006 55 10000 2.1 190 10:47 18.05.2020
2938 Clouds 33 1006 55 10000 2.1 190 10:27 18.05.2020
2939 Clouds 32 1005 62 10000 2.1 200 09:54 18.05.2020
2940 Clouds 32 1005 62 10000 2.1 200 09:36 18.05.2020
2941 Clouds 32 1005 62 10000 2.1 200 09:18 18.05.2020
2942 Clouds 31 1006 78 8000 3.1 180 08:42 18.05.2020
2943 Clouds 31 1006 78 8000 3.1 180 08:42 18.05.2020
2944 Clouds 31 1006 78 8000 3.1 180 08:23 18.05.2020
2945 Thunderstorm 34 1007 70 8000 4.1 250 07:48 18.05.2020
2946 Thunderstorm 32 1007 70 8000 4.1 250 07:25 18.05.2020
2947 Clouds 33 1007 67 10000 3.1 290 06:48 18.05.2020
2948 Clouds 34 1007 67 10000 3.1 290 06:24 18.05.2020
2949 Clouds 33 1008 70 10000 1.5 0 05:45 18.05.2020
2950 Clouds 32 1008 70 9000 2.1 310 03:58 18.05.2020
2951 Clouds 32 1008 70 9000 2.1 310 03:28 18.05.2020
2952 Clouds 31 1007 84 10000 1 0 01:56 18.05.2020
2953 Clouds 29 1006 88 10000 1 0 00:49 18.05.2020
2954 Clouds 28 1006 88 10000 1 0 00:19 18.05.2020
2955 Clouds 28 1006 88 10000 0.5 0 23:55 17.05.2020
2956 Clouds 28 1006 88 10000 0.5 0 23:37 17.05.2020
2957 Clouds 28 1006 88 10000 0.5 0 23:18 17.05.2020
2958 Clouds 29 1006 83 10000 1.5 200 22:40 17.05.2020
2959 Clouds 29 1006 83 10000 1.5 200 22:22 17.05.2020
2960 Clouds 29 1006 83 10000 1 0 21:59 17.05.2020
2961 Clouds 29 1006 83 10000 1 0 21:41 17.05.2020
2962 Clouds 29 1006 83 10000 1 0 21:19 17.05.2020
2963 Clouds 29 1006 83 10000 1 0 20:56 17.05.2020
2964 Clouds 29 1006 83 10000 1 0 20:37 17.05.2020
2965 Clouds 29 1006 83 10000 1 0 20:18 17.05.2020
2966 Clouds 29 1007 79 10000 1 0 19:42 17.05.2020
2967 Clouds 29 1007 79 10000 1 0 19:42 17.05.2020
2968 Clouds 30 1007 79 10000 1 0 19:24 17.05.2020
2969 Clouds 30 1007 79 10000 1 0 18:57 17.05.2020
2970 Clouds 30 1007 79 10000 1 0 18:38 17.05.2020
2971 Clouds 30 1007 79 10000 1 0 18:20 17.05.2020
2972 Clouds 30 1008 79 10000 1 0 17:41 17.05.2020
2973 Clouds 30 1008 79 10000 1 0 17:23 17.05.2020
2974 Rain 30 1008 79 10000 0.5 0 16:57 17.05.2020
2975 Clouds 30 1008 55 10000 1 0 16:39 17.05.2020
2976 Clouds 30 1008 55 10000 1 0 16:39 17.05.2020
2977 Clouds 30 1008 55 10000 1 0 16:20 17.05.2020
2978 Clouds 30 1007 79 10000 2.1 230 15:46 17.05.2020
2979 Clouds 30 1007 79 10000 2.1 230 15:24 17.05.2020
2980 Clouds 30 1006 70 10000 2.1 220 14:58 17.05.2020
2981 Clouds 31 1006 70 10000 2.1 220 14:40 17.05.2020
2982 Clouds 31 1006 70 10000 2.1 220 14:21 17.05.2020
2983 Clouds 31 1006 74 10000 4.6 250 13:43 17.05.2020
2984 Clouds 31 1006 74 10000 4.6 250 13:21 17.05.2020
2985 Clouds 31 1006 74 10000 4.6 250 13:21 17.05.2020
2986 Clouds 34 1004 59 10000 3.1 240 10:35 17.05.2020
2987 Clouds 32 1008 70 10000 3.6 120 03:53 17.05.2020
2988 Clouds 31 1008 74 10000 3.1 120 02:27 17.05.2020
2989 Clouds 30 1007 79 10000 2.1 80 01:55 17.05.2020
2990 Clouds 28 1007 88 10000 1 0 00:53 17.05.2020
2991 Clouds 27 1007 88 10000 1 0 00:31 17.05.2020
2992 Clouds 26 1006 94 10000 1.5 80 23:56 16.05.2020
2993 Clouds 26 1006 94 10000 1.5 80 23:38 16.05.2020
2994 Clouds 26 1006 94 10000 1.5 80 23:19 16.05.2020
2995 Clouds 27 1006 88 10000 1 100 22:42 16.05.2020
2996 Clouds 27 1006 88 10000 1 100 22:23 16.05.2020
2997 Clouds 27 1006 94 9000 0.5 0 21:58 16.05.2020
2998 Clouds 27 1006 94 9000 0.5 0 21:39 16.05.2020
2999 Clouds 27 1006 94 9000 0.5 0 21:21 16.05.2020
3000 Clouds 27 1006 94 9000 1 0 20:56 16.05.2020
3001 Clouds 27 1006 94 9000 1 0 20:38 16.05.2020
3002 Clouds 27 1006 94 9000 1 0 20:19 16.05.2020
3003 Clouds 27 1006 94 9000 1 0 19:43 16.05.2020
3004 Clouds 27 1006 94 9000 1 0 19:23 16.05.2020
3005 Clouds 28 1006 88 10000 1 0 18:59 16.05.2020
3006 Clouds 28 1006 88 10000 1 0 18:59 16.05.2020
3007 Clouds 28 1006 88 10000 1 0 18:41 16.05.2020
3008 Clouds 28 1006 88 10000 1 0 18:22 16.05.2020
3009 Clouds 28 1007 88 10000 1 0 17:42 16.05.2020
3010 Clouds 28 1007 88 10000 1 0 17:21 16.05.2020
3011 Clouds 28 1007 88 10000 2.1 120 16:57 16.05.2020
3012 Clouds 28 1007 88 10000 2.1 120 16:39 16.05.2020
3013 Clouds 28 1007 88 10000 2.1 120 16:18 16.05.2020
3014 Clouds 28 1007 83 10000 2.1 110 15:42 16.05.2020
3015 Clouds 28 1007 83 10000 2.1 110 15:21 16.05.2020
3016 Clouds 28 1007 83 10000 2.1 110 14:59 16.05.2020
3017 Clouds 28 1007 83 10000 2.1 110 14:41 16.05.2020
3018 Clouds 28 1007 83 10000 2.1 110 14:20 16.05.2020
3019 Clouds 28 1007 83 10000 1 0 13:55 16.05.2020
3020 Clouds 28 1007 83 10000 1 0 13:36 16.05.2020
3021 Clouds 28 1007 83 10000 1 0 13:18 16.05.2020
3022 Clouds 29 1006 79 10000 2.1 0 12:42 16.05.2020
3023 Clouds 29 1006 79 10000 2.1 0 12:20 16.05.2020
3024 Clouds 31 1007 74 10000 2.1 0 11:43 16.05.2020
3025 Clouds 31 1007 74 10000 2.1 0 11:23 16.05.2020
3026 Clouds 31 1006 66 10000 2.6 300 10:59 16.05.2020
3027 Clouds 31 1006 66 10000 2.6 300 10:40 16.05.2020
3028 Clouds 32 1006 66 10000 2.6 300 10:21 16.05.2020
3029 Clouds 32 1006 66 10000 4.6 320 09:56 16.05.2020
3030 Clouds 33 1006 66 10000 4.6 320 09:38 16.05.2020
3031 Clouds 33 1006 66 10000 4.6 320 09:18 16.05.2020
3032 Thunderstorm 32 1006 70 10000 4.6 320 08:42 16.05.2020
3033 Thunderstorm 32 1006 70 10000 4.6 320 08:19 16.05.2020
3034 Clouds 32 1007 66 10000 4.1 300 07:43 16.05.2020
3035 Clouds 33 1007 66 10000 4.1 300 07:24 16.05.2020
3036 Clouds 33 1007 63 10000 4.1 300 06:49 16.05.2020
3037 Clouds 33 1007 63 10000 4.1 300 06:24 16.05.2020
3038 Clouds 33 1008 63 10000 3.1 300 05:56 16.05.2020
3039 Clouds 34 1008 63 10000 3.1 300 05:29 16.05.2020
3040 Clouds 32 1009 70 10000 1 0 03:34 16.05.2020
3041 Clouds 30 1009 79 10000 2.1 110 02:59 16.05.2020
3042 Clouds 29 1009 79 10000 2.1 110 02:20 16.05.2020
3043 Clouds 28 1008 83 9000 2.1 120 01:44 16.05.2020
3044 Clouds 28 1008 83 9000 2.1 120 01:18 16.05.2020
3045 Clouds 26 1007 94 10000 1 0 00:42 16.05.2020
3046 Clouds 26 1007 94 10000 1 0 00:21 16.05.2020
3047 Clouds 26 1007 88 10000 1 0 23:40 15.05.2020
3048 Clouds 26 1007 88 10000 1 0 23:20 15.05.2020
3049 Clouds 26 1006 88 10000 2.1 80 22:56 15.05.2020
3050 Clouds 26 1006 88 10000 2.1 80 22:38 15.05.2020
3051 Clouds 26 1006 88 10000 2.1 80 22:18 15.05.2020
3052 Clouds 26 1006 88 10000 2.1 80 21:39 15.05.2020
3053 Clouds 26 1006 88 10000 2.1 80 21:21 15.05.2020
3054 Clouds 26 1005 88 10000 2.1 0 20:58 15.05.2020
3055 Clouds 26 1005 88 10000 2.1 0 20:40 15.05.2020
3056 Clouds 26 1005 88 10000 2.1 0 20:22 15.05.2020
3057 Clouds 26 1005 88 10000 2.1 0 20:22 15.05.2020
3058 Clouds 26 1006 88 10000 2.1 150 19:55 15.05.2020
3059 Clouds 26 1006 88 10000 2.1 150 19:36 15.05.2020
3060 Clouds 26 1006 88 10000 2.1 150 19:18 15.05.2020
3061 Clouds 25 1007 88 9000 2.1 160 18:41 15.05.2020
3062 Clouds 25 1007 88 9000 2.1 160 18:23 15.05.2020
3063 Clouds 25 1006 88 8000 1 0 17:39 15.05.2020
3064 Clouds 25 1006 88 8000 1 0 17:19 15.05.2020
3065 Clouds 24 1006 77 7000 3.1 200 16:57 15.05.2020
3066 Rain 24 1006 77 7000 3.1 200 16:38 15.05.2020
3067 Rain 24 1006 79 7000 3.1 200 16:19 15.05.2020
3068 Rain 25 1006 94 2000 7.2 250 15:42 15.05.2020
3069 Rain 24 1006 94 2000 7.2 250 15:23 15.05.2020
3070 Rain 24 1004 94 2000 11.8 270 14:59 15.05.2020
3071 Rain 24 1004 94 2000 11.8 270 14:41 15.05.2020
3072 Rain 25 1004 94 2000 11.8 270 14:23 15.05.2020
3073 Rain 25 1002 88 3000 9.3 300 13:43 15.05.2020
3074 Rain 25 1002 88 3000 9.3 300 13:23 15.05.2020
3075 Rain 25 1002 94 3000 10.8 330 12:59 15.05.2020
3076 Rain 25 1002 94 3000 10.8 330 12:39 15.05.2020
3077 Rain 25 1002 94 3000 8.7 330 12:18 15.05.2020
3078 Rain 25 1002 94 3000 8.7 330 11:56 15.05.2020
3079 Rain 25 1002 94 3000 8.7 330 11:38 15.05.2020
3080 Rain 25 1002 94 3000 8.7 330 11:19 15.05.2020
3081 Rain 25 1003 88 5000 9.3 340 10:56 15.05.2020
3082 Rain 26 1003 88 5000 9.3 340 10:38 15.05.2020
3083 Rain 26 1003 88 5000 9.3 340 10:20 15.05.2020
3084 Rain 26 1003 88 8000 6.7 350 09:41 15.05.2020
3085 Rain 26 1003 88 8000 6.7 350 09:20 15.05.2020
3086 Rain 26 1004 88 8000 5.7 350 08:59 15.05.2020
3087 Rain 26 1004 88 8000 5.7 350 08:38 15.05.2020
3088 Rain 26 1004 88 8000 5.7 350 08:19 15.05.2020
3089 Rain 26 1005 88 7000 5.7 10 07:46 15.05.2020
3090 Rain 27 1005 88 7000 5.7 10 07:28 15.05.2020
3091 Rain 27 1006 88 9000 4.1 360 06:58 15.05.2020
3092 Rain 29 1007 83 10000 43.2 40 05:56 15.05.2020
3093 Rain 28 1008 88 10000 3.1 360 04:38 15.05.2020
3094 Rain 27 1008 88 9000 1.5 80 03:49 15.05.2020
3095 Rain 28 1007 79 10000 3.1 10 02:44 15.05.2020
3096 Clouds 28 1007 83 10000 2.6 10 01:32 15.05.2020
3097 Clouds 28 1006 83 10000 2.6 350 00:57 15.05.2020
3098 Clouds 27 1006 83 10000 2.6 350 00:38 15.05.2020
3099 Clouds 27 1006 83 10000 2.6 350 00:20 15.05.2020
3100 Clouds 27 1006 83 10000 2.1 30 23:40 14.05.2020
3101 Clouds 27 1006 83 10000 2.1 30 23:40 14.05.2020
3102 Clouds 27 1006 88 10000 0.5 0 23:18 14.05.2020
3103 Clouds 27 1006 88 10000 0.5 0 22:41 14.05.2020
3104 Clouds 27 1006 88 10000 0.5 0 22:21 14.05.2020
3105 Clouds 27 1006 88 10000 1.5 60 21:58 14.05.2020
3106 Clouds 27 1006 88 10000 1.5 60 21:40 14.05.2020
3107 Clouds 27 1006 88 10000 1.5 60 21:19 14.05.2020
3108 Clouds 28 1007 83 10000 1 10 20:56 14.05.2020
3109 Clouds 28 1007 83 10000 1 10 20:38 14.05.2020
3110 Clouds 28 1007 83 10000 1 10 20:18 14.05.2020
3111 Clouds 28 1007 83 10000 1.5 40 19:55 14.05.2020
3112 Clouds 28 1007 83 10000 1.5 40 19:36 14.05.2020
3113 Clouds 28 1008 83 10000 0.5 0 19:18 14.05.2020
3114 Clouds 28 1008 83 10000 0.5 0 18:54 14.05.2020
3115 Clouds 28 1008 83 10000 0.5 0 18:36 14.05.2020
3116 Rain 28 1009 83 9000 2.1 80 18:18 14.05.2020
3117 Rain 28 1009 83 9000 2.1 80 18:18 14.05.2020
3118 Rain 28 1009 83 9000 2.1 80 17:55 14.05.2020
3119 Rain 28 1009 83 9000 2.1 80 17:36 14.05.2020
3120 Rain 28 1009 83 9000 2.1 80 17:18 14.05.2020
3121 Clouds 28 1008 83 10000 2.6 70 16:39 14.05.2020
3122 Clouds 28 1008 83 10000 2.6 70 16:20 14.05.2020
3123 Clouds 28 1008 83 10000 1 70 15:57 14.05.2020
3124 Clouds 27 1008 83 10000 1 70 15:39 14.05.2020
3125 Clouds 28 1008 83 10000 1 70 15:19 14.05.2020
3126 Rain 27 1009 88 9000 4.1 60 14:55 14.05.2020
3127 Rain 27 1009 88 9000 4.1 60 14:37 14.05.2020
3128 Rain 28 1009 88 9000 4.1 60 14:19 14.05.2020
3129 Clouds 30 1008 74 10000 3.1 130 13:44 14.05.2020
3130 Clouds 30 1008 74 10000 3.1 130 13:20 14.05.2020
3131 Clouds 31 1007 70 10000 3.6 120 12:59 14.05.2020
3132 Clouds 31 1007 70 10000 3.6 120 12:40 14.05.2020
3133 Clouds 31 1007 70 10000 3.6 120 12:21 14.05.2020
3134 Clouds 31 1007 70 10000 3.1 130 11:59 14.05.2020
3135 Clouds 32 1007 70 10000 3.1 130 11:40 14.05.2020
3136 Clouds 32 1007 70 10000 3.1 130 11:22 14.05.2020
3137 Rain 32 1007 70 10000 3.1 120 10:57 14.05.2020
3138 Rain 32 1007 70 10000 3.1 120 10:38 14.05.2020
3139 Rain 32 1007 70 10000 3.1 120 10:20 14.05.2020
3140 Clouds 31 1008 74 9000 1.5 210 09:42 14.05.2020
3141 Clouds 32 1008 74 9000 1.5 210 09:23 14.05.2020
3142 Thunderstorm 31 1007 79 9000 4.6 350 08:43 14.05.2020
3143 Thunderstorm 30 1007 79 9000 4.6 350 08:21 14.05.2020
3144 Rain 32 1008 62 10000 3.6 270 07:47 14.05.2020
3145 Rain 33 1008 62 10000 3.6 270 07:25 14.05.2020
3146 Clouds 34 1009 66 10000 3.6 280 06:56 14.05.2020
3147 Clouds 34 1009 66 10000 3.6 280 06:34 14.05.2020
3148 Clouds 33 1009 66 0 3.6 290 05:58 14.05.2020
3149 Clouds 32 1009 66 0 3.6 290 05:36 14.05.2020
3150 Clouds 32 1010 66 10000 2.1 280 04:34 14.05.2020
3151 Clouds 33 1010 59 9000 2.6 100 03:30 14.05.2020
3152 Clouds 32 1010 62 10000 2.1 100 02:43 14.05.2020
3153 Clouds 32 1010 62 10000 2.1 100 02:19 14.05.2020
3154 Clouds 31 1009 70 10000 1 0 01:35 14.05.2020
3155 Clouds 29 1009 74 10000 0.5 0 00:50 14.05.2020
3156 Clouds 29 1009 74 10000 0.5 0 00:25 14.05.2020
3157 Clouds 28 1008 74 10000 1.5 350 23:45 13.05.2020
3158 Clouds 28 1008 74 10000 1.5 350 23:22 13.05.2020
3159 Clouds 28 1008 74 10000 1 0 22:56 13.05.2020
3160 Clouds 28 1008 74 10000 1 0 22:37 13.05.2020
3161 Clouds 28 1008 74 10000 1 0 22:18 13.05.2020
3162 Clouds 28 1008 74 10000 2.1 100 21:56 13.05.2020
3163 Clouds 28 1008 74 10000 2.1 100 21:38 13.05.2020
3164 Clouds 28 1008 74 10000 2.1 100 21:18 13.05.2020
3165 Clouds 29 1008 74 10000 2.6 80 20:41 13.05.2020
3166 Clouds 29 1008 74 10000 2.6 80 20:23 13.05.2020
3167 Clouds 29 1009 70 10000 2.1 90 19:44 13.05.2020
3168 Clouds 29 1009 70 10000 2.1 90 19:25 13.05.2020
3169 Clouds 29 1009 74 10000 2.6 110 18:58 13.05.2020
3170 Clouds 30 1009 74 10000 2.6 110 18:39 13.05.2020
3171 Clouds 30 1009 74 10000 2.6 110 18:21 13.05.2020
3172 Clouds 30 1009 74 10000 2.6 110 18:21 13.05.2020
3173 Clouds 30 1009 74 10000 2.6 110 18:20 13.05.2020
3174 Clouds 30 1010 70 10000 3.1 110 17:39 13.05.2020
3175 Clouds 30 1010 70 10000 3.1 110 17:20 13.05.2020
3176 Clouds 30 1010 70 10000 2.6 110 16:56 13.05.2020
3177 Clouds 30 1010 70 10000 2.6 110 16:37 13.05.2020
3178 Clouds 31 1010 70 10000 2.6 110 16:18 13.05.2020
3179 Clouds 31 1010 66 10000 2.1 130 15:42 13.05.2020
3180 Clouds 31 1010 66 10000 2.1 130 15:42 13.05.2020
3181 Clouds 31 1010 66 10000 2.1 130 15:20 13.05.2020
3182 Clouds 32 1010 62 10000 3.6 110 14:57 13.05.2020
3183 Clouds 32 1010 62 10000 3.6 110 14:39 13.05.2020
3184 Clouds 32 1010 62 10000 3.6 110 14:21 13.05.2020
3185 Clouds 32 1009 59 10000 3.6 100 13:57 13.05.2020
3186 Clouds 32 1009 59 10000 3.6 100 13:38 13.05.2020
3187 Clouds 32 1009 59 10000 3.6 100 13:19 13.05.2020
3188 Clouds 33 1008 56 10000 4.6 110 12:43 13.05.2020
3189 Clouds 33 1008 56 10000 4.6 110 12:43 13.05.2020
3190 Clouds 33 1008 56 10000 4.6 110 12:23 13.05.2020
3191 Clouds 34 1007 50 10000 4.6 120 11:57 13.05.2020
3192 Clouds 34 1007 50 10000 4.6 120 11:39 13.05.2020
3193 Clouds 35 1007 50 10000 4.6 120 11:20 13.05.2020
3194 Clouds 35 1007 53 10000 3.6 0 10:59 13.05.2020
3195 Clouds 35 1007 53 10000 3.6 0 10:39 13.05.2020
3196 Clouds 35 1007 53 10000 3.6 0 10:20 13.05.2020
3197 Clouds 35 1007 53 10000 3.6 150 09:58 13.05.2020
3198 Clouds 35 1007 53 10000 3.6 150 09:40 13.05.2020
3199 Clouds 35 1007 53 10000 3.6 150 09:21 13.05.2020
3200 Clouds 35 1007 53 10000 3.6 150 09:21 13.05.2020
3201 Clouds 36 1008 47 10000 3.1 0 08:41 13.05.2020
3202 Clouds 36 1008 47 10000 3.1 0 08:22 13.05.2020
3203 Clouds 36 1008 53 10000 3.1 0 07:59 13.05.2020
3204 -273 0 0 0 0 0 07:59 13.05.2020
3205 Clouds 36 1008 53 10000 3.1 0 07:36 13.05.2020
3206 Clouds 36 1009 50 10000 2.6 0 06:58 13.05.2020
3207 Clouds 36 1009 50 10000 2.6 0 06:40 13.05.2020
3208 Clouds 35 1010 53 10000 2.6 0 05:50 13.05.2020
3209 Clouds 34 1011 56 10000 2.1 0 04:22 13.05.2020
3210 Clouds 32 1011 66 9000 1 0 02:58 13.05.2020
3211 Clouds 32 1010 70 10000 0.5 0 01:47 13.05.2020
3212 Clouds 31 1010 70 10000 0.5 0 01:20 13.05.2020
3213 Clouds 29 1010 79 10000 0.5 0 00:30 13.05.2020
3214 Clouds 29 1009 79 10000 1 0 23:59 12.05.2020
3215 Clouds 28 1009 79 10000 1 0 23:39 12.05.2020
3216 Clouds 28 1009 79 10000 1 0 23:20 12.05.2020
3217 Clouds 28 1009 79 10000 1 0 23:20 12.05.2020
3218 Clouds 28 1009 79 10000 2.6 50 22:43 12.05.2020
3219 Clouds 29 1009 79 10000 2.6 50 22:23 12.05.2020
3220 Clouds 29 1009 79 10000 2.6 50 22:23 12.05.2020
3221 Clouds 29 1009 79 10000 2.6 50 22:23 12.05.2020
3222 Clouds 29 1009 74 10000 0.5 0 21:59 12.05.2020
3223 Clouds 29 1009 74 10000 0.5 0 21:59 12.05.2020
3224 Clouds 29 1009 74 10000 0.5 0 21:40 12.05.2020
3225 Clouds 29 1009 74 10000 0.5 0 21:22 12.05.2020
3226 Clouds 29 1009 74 10000 1 0 20:59 12.05.2020
3227 Clouds 29 1009 74 10000 1 0 20:59 12.05.2020
3228 Clouds 29 1009 74 10000 1 0 20:40 12.05.2020
3229 Clouds 29 1009 74 10000 1 0 20:22 12.05.2020
3230 Clouds 30 1010 70 10000 1.5 130 19:59 12.05.2020
3231 Rain 30 1008 83 0 1.34 343 19:40 12.05.2020
3232 Clouds 30 1010 70 10000 0.5 0 19:21 12.05.2020
3233 Clouds 30 1010 70 10000 0.5 0 18:57 12.05.2020
3234 Clouds 30 1010 70 10000 0.5 0 18:38 12.05.2020
3235 Clouds 30 1010 70 10000 0.5 0 18:20 12.05.2020
3236 Clouds 30 1011 79 10000 0.5 0 17:43 12.05.2020
3237 Clouds 30 1011 79 10000 0.5 0 17:24 12.05.2020
3238 Clouds 30 1011 74 10000 1.5 150 16:47 12.05.2020
3239 Clouds 30 1011 74 10000 1.5 150 16:26 12.05.2020
3240 Clouds 30 1011 74 10000 1.5 150 16:26 12.05.2020
3241 Clouds 30 1010 74 10000 2.6 190 15:57 12.05.2020
3242 Clouds 30 1010 74 10000 2.6 190 15:39 12.05.2020
3243 Clouds 30 1010 74 10000 2.6 190 15:20 12.05.2020
3244 Clouds 30 1010 74 10000 2.1 220 14:58 12.05.2020
3245 Clouds 31 1010 74 10000 2.1 220 14:39 12.05.2020
3246 Clouds 31 1010 74 10000 2.1 220 14:20 12.05.2020
3247 Thunderstorm 32 1009 66 8000 2.6 230 13:58 12.05.2020
3248 Thunderstorm 32 1009 66 8000 2.6 230 13:40 12.05.2020
3249 Thunderstorm 32 1009 66 8000 2.6 230 13:20 12.05.2020
3250 Clouds 32 1008 66 10000 4.6 250 12:57 12.05.2020
3251 Clouds 32 1008 66 10000 4.6 250 12:39 12.05.2020
3252 Clouds 33 1008 66 10000 4.6 250 12:21 12.05.2020
3253 Clouds 35 1006 47 10000 2.6 140 11:58 12.05.2020
3254 Clouds 36 1006 47 10000 2.6 140 11:38 12.05.2020
3255 Clouds 36 1006 47 10000 2.6 140 11:20 12.05.2020
3256 Clouds 36 1006 47 10000 2.6 140 10:58 12.05.2020
3257 Clouds 36 1006 47 10000 2.6 140 10:40 12.05.2020
3258 Clouds 36 1006 47 10000 2.6 140 10:21 12.05.2020
3259 Clouds 36 1006 50 10000 4.1 140 09:58 12.05.2020
3260 Clouds 36 1006 50 10000 4.1 140 09:39 12.05.2020
3261 Clouds 36 1006 50 10000 4.1 140 09:20 12.05.2020
3262 Clouds 36 1007 50 10000 3.6 0 08:54 12.05.2020
3263 Clouds 36 1007 50 10000 3.6 0 08:36 12.05.2020
3264 Clouds 36 1007 50 10000 3.6 0 08:18 12.05.2020
3265 Clouds 36 1008 50 10000 3.1 0 07:41 12.05.2020
3266 Clouds 36 1008 50 10000 3.1 0 07:21 12.05.2020
3267 Clouds 36 1010 50 10000 2.6 0 06:39 12.05.2020
3268 Clouds 35 1010 50 10000 2.6 0 06:21 12.05.2020
3269 Clouds 34 1010 56 10000 2.6 0 05:49 12.05.2020
3270 Clouds 34 1011 59 10000 2.6 160 04:41 12.05.2020
3271 Clouds 32 1011 70 10000 1.5 260 03:24 12.05.2020
3272 Clouds 31 1010 74 10000 2.6 280 02:28 12.05.2020
3273 Clouds 31 1010 74 10000 1 0 01:48 12.05.2020
3274 Clouds 29 1009 79 10000 0.5 0 00:59 12.05.2020
3275 Clouds 28 1009 79 10000 0.5 0 00:25 12.05.2020
3276 Clouds 28 1008 74 10000 1 0 23:57 11.05.2020
3277 Clouds 28 1008 74 10000 1 0 23:38 11.05.2020
3278 Clouds 29 1008 74 10000 1 0 23:20 11.05.2020
3279 Clouds 29 1008 70 10000 1 0 22:57 11.05.2020
3280 Clouds 29 1008 70 10000 1 0 22:39 11.05.2020
3281 Clouds 29 1008 70 10000 1 0 22:19 11.05.2020
3282 Clouds 29 1008 74 10000 1 0 21:55 11.05.2020
3283 Clouds 29 1008 74 10000 1 0 21:37 11.05.2020
3284 Clouds 29 1008 74 10000 1 0 21:18 11.05.2020
3285 Clouds 29 1009 70 10000 1 0 20:55 11.05.2020
3286 Clouds 29 1009 70 10000 1 0 20:36 11.05.2020
3287 Clouds 29 1008 74 10000 2.1 120 20:18 11.05.2020
3288 Clouds 29 1008 74 10000 2.1 120 19:41 11.05.2020
3289 Clouds 30 1008 74 10000 2.1 120 19:22 11.05.2020
3290 Clouds 30 1009 74 10000 3.6 120 18:57 11.05.2020
3291 Clouds 30 1009 74 10000 3.6 120 18:38 11.05.2020
3292 Clouds 30 1009 74 10000 3.6 120 18:19 11.05.2020
3293 Clouds 30 1010 79 10000 2.6 130 17:57 11.05.2020
3294 Clouds 30 1010 79 10000 2.6 130 17:39 11.05.2020
3295 Clouds 30 1010 79 10000 2.6 130 17:20 11.05.2020
3296 Clouds 31 1010 70 10000 3.1 130 16:56 11.05.2020
3297 Clouds 31 1010 70 10000 3.1 130 16:37 11.05.2020
3298 Clouds 31 1010 70 10000 3.1 130 16:18 11.05.2020
3299 Clouds 31 1009 70 10000 2.6 0 15:42 11.05.2020
3300 Clouds 31 1009 70 10000 2.6 0 15:20 11.05.2020
3301 Clouds 32 1009 66 10000 3.1 0 14:58 11.05.2020
3302 Clouds 32 1009 66 10000 3.1 0 14:40 11.05.2020
3303 Clouds 32 1009 66 10000 3.1 0 14:21 11.05.2020
3304 Clouds 32 1008 59 10000 2.6 130 13:42 11.05.2020
3305 Clouds 32 1008 59 10000 2.6 130 13:23 11.05.2020
3306 Clouds 33 1007 49 10000 3.6 120 12:59 11.05.2020
3307 Clouds 33 1007 49 10000 3.6 120 12:41 11.05.2020
3308 Clouds 34 1007 49 10000 3.6 120 12:23 11.05.2020
3309 Clouds 35 1006 44 10000 3.6 120 11:58 11.05.2020
3310 Clouds 35 1006 44 10000 3.6 120 11:40 11.05.2020
3311 Clouds 35 1006 44 10000 3.6 120 11:21 11.05.2020
3312 Clouds 36 1006 44 10000 4.1 0 10:58 11.05.2020
3313 Clouds 36 1006 44 10000 4.1 0 10:58 11.05.2020
3314 Clouds 36 1006 44 10000 4.1 0 10:40 11.05.2020
3315 Clouds 36 1006 44 10000 4.1 0 10:21 11.05.2020
3316 Clouds 36 1006 44 10000 4.6 140 09:58 11.05.2020
3317 Clouds 36 1006 44 10000 4.6 140 09:39 11.05.2020
3318 Clouds 36 1006 44 10000 4.6 140 09:19 11.05.2020
3319 Clouds 36 1007 47 10000 4.1 140 08:44 11.05.2020
3320 Clouds 36 1007 47 10000 4.1 140 08:25 11.05.2020
3321 Clouds 36 1008 47 10000 3.1 0 07:59 11.05.2020
3322 Clouds 35 1008 47 10000 3.1 0 07:41 11.05.2020
3323 Clouds 36 1008 47 10000 3.1 0 07:23 11.05.2020
3324 Clouds 35 1009 53 10000 3.1 120 06:39 11.05.2020
3325 Clouds 34 1010 63 10000 4.1 120 05:54 11.05.2020
3326 Clouds 34 1010 63 10000 4.1 120 05:23 11.05.2020
3327 Clouds 32 1011 62 10000 3.6 0 03:56 11.05.2020
3328 Clouds 32 1010 62 10000 2.6 120 02:36 11.05.2020
3329 Clouds 31 1010 79 9000 2.1 70 02:18 11.05.2020
3330 Clouds 30 1010 79 9000 2.1 70 01:21 11.05.2020
3331 Clouds 28 1010 83 10000 1.5 100 00:41 11.05.2020
3332 Clouds 28 1010 83 10000 1.5 100 00:18 11.05.2020
3333 Clouds 28 1010 88 10000 1 320 23:40 10.05.2020
3334 Clouds 28 1010 88 10000 1 320 23:20 10.05.2020
3335 Clouds 28 1009 83 10000 1 20 22:55 10.05.2020
3336 Clouds 28 1009 83 10000 1 20 22:37 10.05.2020
3337 Clouds 28 1009 83 10000 1 20 22:18 10.05.2020
3338 Clouds 28 1009 83 10000 2.51 78 21:42 10.05.2020
3339 Clouds 28 1009 83 10000 2.82 90 21:18 10.05.2020
3340 Clouds 28 1010 83 10000 0.5 0 20:43 10.05.2020
3341 Clouds 28 1010 83 10000 0.5 0 20:24 10.05.2020
3342 Clouds 28 1010 88 10000 3.43 105 19:58 10.05.2020
3343 Clouds 28 1010 88 10000 3.43 105 19:39 10.05.2020
3344 Clouds 28 1010 88 10000 3.42 120 19:21 10.05.2020
3345 Clouds 28 1010 88 10000 3.42 120 19:21 10.05.2020
3346 Clouds 28 1011 88 10000 1 20 18:56 10.05.2020
3347 Clouds 28 1011 88 10000 1 20 18:36 10.05.2020
3348 Clouds 28 1011 88 10000 1 20 18:18 10.05.2020
3349 Clouds 28 1011 88 10000 0.5 0 17:58 10.05.2020
3350 Clouds 28 1011 88 10000 0.5 0 17:39 10.05.2020
3351 Clouds 28 1011 88 10000 0.5 0 17:20 10.05.2020
3352 Clouds 27 1011 94 10000 0.5 0 16:44 10.05.2020
3353 Clouds 27 1011 94 10000 0.5 0 16:21 10.05.2020
3354 Rain 26 1011 94 5000 49.4 349 15:58 10.05.2020
3355 Rain 27 1011 94 5000 49.4 349 15:40 10.05.2020
3356 Rain 26 1011 94 5000 49.4 349 15:21 10.05.2020
3357 Clouds 31 1009 70 10000 3.1 230 14:56 10.05.2020
3358 Clouds 30 1009 70 10000 3.1 230 14:37 10.05.2020
3359 Clouds 31 1009 70 10000 3.1 230 14:19 10.05.2020
3360 Clouds 31 1008 66 10000 3.1 220 13:57 10.05.2020
3361 Clouds 31 1008 66 10000 3.1 220 13:57 10.05.2020
3362 Clouds 32 1008 66 10000 3.1 220 13:36 10.05.2020
3363 Clouds 32 1008 66 10000 3.1 220 13:18 10.05.2020
3364 Clouds 32 1008 66 10000 3.1 220 13:18 10.05.2020
3365 Clouds 33 1007 66 10000 4.1 240 12:42 10.05.2020
3366 Clouds 33 1007 66 10000 4.1 240 12:23 10.05.2020
3367 Clouds 34 1006 53 10000 1.5 120 11:59 10.05.2020
3368 Clouds 35 1006 53 10000 1.5 120 11:40 10.05.2020
3369 Clouds 35 1006 53 10000 1.5 120 11:21 10.05.2020
3370 Clouds 36 1007 50 10000 2.6 160 10:55 10.05.2020
3371 Clouds 36 1007 50 10000 2.6 160 10:37 10.05.2020
3372 Clouds 36 1007 50 10000 2.6 160 10:19 10.05.2020
3373 Clouds 36 1007 53 10000 2.6 340 09:41 10.05.2020
3374 Clouds 36 1007 53 10000 2.6 340 09:23 10.05.2020
3375 Clouds 36 1008 59 10000 2.6 270 08:55 10.05.2020
3376 Clouds 35 1008 59 10000 2.6 270 08:37 10.05.2020
3377 Clouds 35 1008 59 10000 2.6 270 08:19 10.05.2020
3378 Clouds 35 1009 56 10000 4.1 300 07:38 10.05.2020
3379 Clouds 35 1009 56 10000 4.1 300 07:19 10.05.2020
3380 Clouds 34 1010 63 10000 3.1 320 06:50 10.05.2020
3381 Clouds 34 1010 63 10000 3.1 320 06:23 10.05.2020
3382 Clouds 33 1009 68 0 1.34 160 05:45 10.05.2020
3383 Clouds 34 1011 52 10000 1.5 0 04:45 10.05.2020
3384 Clouds 34 1011 52 10000 1.5 0 04:25 10.05.2020
3385 Clouds 33 1011 55 10000 2.1 0 03:44 10.05.2020
3386 Clouds 31 1010 66 10000 2.6 0 02:59 10.05.2020
3387 Clouds 31 1010 66 10000 2.6 0 02:24 10.05.2020
3388 Clouds 29 1010 74 10000 1 0 01:57 10.05.2020
3389 Clouds 29 1010 74 10000 1 0 01:57 10.05.2020
3390 Clouds 29 1010 74 10000 1 0 01:39 10.05.2020
3391 Clouds 28 1009 83 10000 2.1 260 01:18 10.05.2020
3392 Clouds 28 1009 83 10000 2.1 260 00:42 10.05.2020
3393 Clouds 28 1009 83 10000 2.1 260 00:20 10.05.2020
3394 Clouds 27 1009 74 10000 1 0 23:40 09.05.2020
3395 Clouds 27 1009 74 10000 1 0 23:21 09.05.2020
3396 Clouds 27 1008 74 10000 0.5 240 22:57 09.05.2020
3397 Clouds 27 1008 74 10000 0.5 240 22:38 09.05.2020
3398 Clouds 27 1008 74 10000 0.5 240 22:20 09.05.2020
3399 Clouds 28 1009 74 10000 1.5 250 21:55 09.05.2020
3400 Clouds 28 1009 74 10000 1.5 250 21:37 09.05.2020
3401 Clouds 28 1009 74 10000 1.5 250 21:18 09.05.2020
3402 Clouds 28 1009 74 10000 1.85 98 20:54 09.05.2020
3403 Clouds 28 1009 74 10000 1.85 98 20:36 09.05.2020
3404 Clouds 28 1009 74 10000 1.63 93 20:18 09.05.2020
3405 Clouds 27 1010 74 10000 1.63 93 19:39 09.05.2020
3406 Clouds 27 1010 74 10000 1.46 94 19:20 09.05.2020
3407 Clouds 27 1010 74 10000 1.5 250 18:55 09.05.2020
3408 Clouds 28 1010 74 10000 1.5 250 18:37 09.05.2020
3409 Clouds 28 1010 74 10000 1.5 250 18:37 09.05.2020
3410 Clouds 28 1010 74 10000 1.5 250 18:18 09.05.2020
3411 Clouds 27 1010 74 10000 0.5 0 17:41 09.05.2020
3412 Clouds 27 1010 74 10000 0.5 0 17:22 09.05.2020
3413 Clouds 27 1011 78 10000 1 0 16:41 09.05.2020
3414 Clouds 27 1011 78 10000 1 0 16:20 09.05.2020
3415 Clouds 27 1011 78 10000 3.1 190 15:46 09.05.2020
3416 Clouds 27 1011 78 10000 3.1 190 15:28 09.05.2020
3417 Rain 25 1011 88 9000 4.1 290 14:59 09.05.2020
3418 Rain 25 1011 88 9000 4.1 290 14:41 09.05.2020
3419 Rain 26 1011 88 9000 4.1 290 14:20 09.05.2020
3420 Clouds 30 1009 66 10000 2.1 0 13:58 09.05.2020
3421 Clouds 31 1009 66 10000 2.1 0 13:40 09.05.2020
3422 Rain 30 1009 66 10000 2.1 0 13:20 09.05.2020
3423 Clouds 32 1008 63 10000 2.6 120 12:43 09.05.2020
3424 Clouds 32 1008 63 10000 2.6 120 12:22 09.05.2020
3425 Clouds 33 1007 66 10000 4.1 250 11:56 09.05.2020
3426 Clouds 33 1007 66 10000 4.1 250 11:37 09.05.2020
3427 Clouds 34 1007 66 10000 4.1 250 11:18 09.05.2020
3428 Clouds 36 1007 56 10000 3.6 270 10:43 09.05.2020
3429 Clouds 36 1007 56 10000 3.6 270 10:43 09.05.2020
3430 Clouds 36 1007 56 10000 3.6 270 10:25 09.05.2020
3431 Clouds 37 1007 53 10000 2.6 270 09:57 09.05.2020
3432 Clouds 37 1007 53 10000 2.6 270 09:38 09.05.2020
3433 Clouds 37 1007 53 10000 2.6 270 09:19 09.05.2020
3434 Clouds 36 1008 56 10000 3.6 280 08:51 09.05.2020
3435 Clouds 36 1008 56 10000 3.6 280 08:32 09.05.2020
3436 Clouds 36 1008 56 10000 1 0 07:50 09.05.2020
3437 Clouds 36 1008 56 10000 1 0 07:31 09.05.2020
3438 Clouds 36 1009 53 10000 2.6 0 06:49 09.05.2020
3439 Clouds 35 1009 53 10000 2.6 0 06:24 09.05.2020
3440 Clouds 35 1010 53 10000 1.5 0 05:45 09.05.2020
3441 Clouds 33 1010 66 10000 3.6 130 03:54 09.05.2020
3442 Clouds 33 1010 66 10000 3.6 130 03:36 09.05.2020
3443 Clouds 32 1010 66 10000 3.6 130 02:32 09.05.2020
3444 Clouds 31 1010 66 10000 3.1 0 01:52 09.05.2020
3445 Clouds 31 1010 66 10000 3.1 0 01:24 09.05.2020
3446 Clouds 30 1009 79 10000 2.1 0 00:50 09.05.2020
3447 Clouds 29 1009 79 10000 2.1 0 00:31 09.05.2020
3448 Clouds 29 1009 70 10000 3.6 120 23:49 08.05.2020
3449 Clouds 29 1009 70 10000 3.6 120 23:29 08.05.2020
3450 Clouds 30 1008 74 10000 2.6 120 22:59 08.05.2020
3451 Clouds 30 1008 74 10000 2.6 120 22:40 08.05.2020
3452 Clouds 30 1008 74 10000 2.6 120 22:19 08.05.2020
3453 Clouds 30 1008 74 10000 3.6 110 21:59 08.05.2020
3454 Clouds 30 1008 74 10000 3.6 110 21:59 08.05.2020
3455 Clouds 30 1008 74 10000 3.6 110 21:39 08.05.2020
3456 Clouds 30 1008 74 10000 3.6 110 21:19 08.05.2020
3457 Clouds 30 1009 74 10000 2.6 110 20:57 08.05.2020
3458 Clouds 30 1009 74 10000 2.6 110 20:38 08.05.2020
3459 Clouds 30 1009 74 10000 2.6 110 20:20 08.05.2020
3460 Clouds 30 1009 74 10000 2.6 130 19:44 08.05.2020
3461 Clouds 30 1009 74 10000 2.6 130 19:24 08.05.2020
3462 Clouds 30 1010 79 10000 2.1 150 18:55 08.05.2020
3463 Clouds 30 1010 79 10000 2.1 150 18:37 08.05.2020
3464 Clouds 31 1010 74 10000 1.5 170 18:18 08.05.2020
3465 Clouds 31 1010 74 10000 1.5 170 17:41 08.05.2020
3466 Clouds 31 1010 74 10000 1.5 150 17:18 08.05.2020
3467 Clouds 31 1010 74 10000 1.5 150 16:44 08.05.2020
3468 Clouds 31 1010 74 10000 1.5 150 16:26 08.05.2020
3469 Clouds 31 1010 74 10000 2.6 170 15:57 08.05.2020
3470 Clouds 31 1010 74 10000 2.6 170 15:39 08.05.2020
3471 Clouds 31 1010 74 10000 2.6 170 15:18 08.05.2020
3472 Clouds 32 1009 66 10000 2.6 0 14:41 08.05.2020
3473 Clouds 32 1009 66 10000 2.6 0 14:21 08.05.2020
3474 Clouds 33 1008 59 10000 2.6 0 13:59 08.05.2020
3475 Clouds 33 1008 59 10000 2.6 0 13:39 08.05.2020
3476 Clouds 33 1008 59 10000 2.6 0 13:19 08.05.2020
3477 Clouds 33 1007 59 10000 2.1 140 12:45 08.05.2020
3478 Clouds 34 1007 59 10000 2.1 140 12:25 08.05.2020
3479 Clouds 35 1007 47 10000 3.1 130 11:55 08.05.2020
3480 Clouds 35 1007 47 10000 3.1 130 11:37 08.05.2020
3481 Clouds 35 1007 47 10000 3.1 130 11:37 08.05.2020
3482 Clouds 36 1007 47 10000 3.1 130 11:18 08.05.2020
3483 Clouds 36 1007 47 10000 3.1 0 10:54 08.05.2020
3484 Clouds 36 1007 47 10000 3.1 0 10:54 08.05.2020
3485 Clouds 36 1007 47 10000 3.1 0 10:36 08.05.2020
3486 Clouds 36 1007 47 10000 4.1 110 10:18 08.05.2020
3487 Clouds 36 1007 47 10000 4.1 110 09:41 08.05.2020
3488 Clouds 36 1007 47 10000 4.1 110 09:19 08.05.2020
3489 Clouds 37 1008 47 10000 2.6 0 08:51 08.05.2020
3490 Clouds 36 1008 47 10000 2.6 0 08:25 08.05.2020
3491 Clouds 36 1008 47 10000 2.6 0 08:25 08.05.2020
3492 Clouds 36 1009 53 10000 3.1 0 07:54 08.05.2020
3493 Clouds 36 1009 53 10000 3.1 0 07:54 08.05.2020
3494 Clouds 36 1009 53 10000 3.1 0 07:36 08.05.2020
3495 Clouds 36 1009 47 10000 2.6 0 07:18 08.05.2020
3496 Clouds 36 1009 47 10000 2.6 0 06:39 08.05.2020
3497 Clouds 35 1010 53 10000 3.6 0 06:18 08.05.2020
3498 Clouds 35 1010 53 10000 3.6 0 05:24 08.05.2020
3499 Clouds 33 1010 59 10000 2.6 130 02:59 08.05.2020
3500 Clouds 32 1010 59 10000 2.6 130 02:24 08.05.2020
3501 Clouds 31 1010 66 10000 3.6 120 01:38 08.05.2020
3502 Clouds 31 1010 66 10000 3.6 120 01:19 08.05.2020
3503 Clouds 30 1009 70 10000 3.1 110 00:46 08.05.2020
3504 Clouds 30 1009 70 10000 3.1 110 00:24 08.05.2020
3505 Clouds 30 1008 70 10000 3.1 110 23:46 07.05.2020
3506 Clouds 30 1008 70 10000 3.1 110 23:24 07.05.2020
3507 Clouds 29 1008 74 10000 4.1 120 22:59 07.05.2020
3508 Clouds 29 1008 74 10000 4.1 120 22:41 07.05.2020
3509 Clouds 29 1008 74 10000 4.1 120 22:20 07.05.2020
3510 Clouds 29 1008 74 10000 4.1 120 22:20 07.05.2020
3511 Clouds 30 1008 70 10000 4.6 120 21:57 07.05.2020
3512 Clouds 30 1008 70 10000 4.6 120 21:38 07.05.2020
3513 Clouds 30 1008 70 10000 4.6 120 21:19 07.05.2020
3514 Clouds 30 1008 70 10000 4.6 120 21:19 07.05.2020
3515 Clouds 30 1008 74 10000 3.1 120 20:55 07.05.2020
3516 Clouds 30 1008 74 10000 3.1 120 20:55 07.05.2020
3517 Clouds 30 1008 74 10000 3.1 120 20:36 07.05.2020
3518 Clouds 30 1008 74 10000 3.1 120 20:18 07.05.2020
3519 Clouds 30 1009 74 10000 2.1 110 19:43 07.05.2020
3520 Clouds 30 1009 74 10000 2.1 110 19:21 07.05.2020
3521 Clouds 30 1009 70 10000 4.1 110 18:46 07.05.2020
3522 Clouds 30 1009 70 10000 4.1 110 18:28 07.05.2020
3523 Clouds 31 1010 79 10000 3.6 120 17:58 07.05.2020
3524 Clouds 30 1010 79 10000 3.6 120 17:37 07.05.2020
3525 Clouds 30 1010 79 10000 3.6 120 17:19 07.05.2020
3526 Clouds 30 1010 62 10000 2.6 150 16:41 07.05.2020
3527 Clouds 31 1010 62 10000 2.6 150 16:19 07.05.2020
3528 Clouds 31 1009 70 10000 2.6 150 15:57 07.05.2020
3529 Clouds 31 1009 79 10000 2.79 144 15:37 07.05.2020
3530 Clouds 31 1009 79 10000 2.69 175 15:18 07.05.2020
3531 Clouds 31 1009 79 10000 2.69 175 15:18 07.05.2020
3532 Clouds 31 1009 79 10000 2.69 175 14:45 07.05.2020
3533 Clouds 31 1009 79 10000 3.28 192 14:22 07.05.2020
3534 Clouds 31 1008 74 10000 3.6 230 13:57 07.05.2020
3535 Clouds 31 1008 74 10000 3.6 230 13:39 07.05.2020
3536 Clouds 31 1008 74 10000 3.6 230 13:18 07.05.2020
3537 Clouds 32 1007 70 10000 5.1 260 12:39 07.05.2020
3538 Clouds 32 1007 70 10000 5.1 260 12:19 07.05.2020
3539 Clouds 33 1007 70 10000 5.1 260 11:39 07.05.2020
3540 Clouds 33 1007 70 10000 5.1 260 11:21 07.05.2020
3541 Clouds 34 1007 70 10000 6.2 270 10:54 07.05.2020
3542 Clouds 34 1007 70 10000 6.2 270 10:36 07.05.2020
3543 Clouds 34 1007 63 10000 5.7 270 10:18 07.05.2020
3544 Clouds 35 1007 63 10000 5.7 270 09:39 07.05.2020
3545 Clouds 35 1007 63 10000 5.7 270 09:18 07.05.2020
3546 Clouds 36 1008 53 10000 4.6 290 08:44 07.05.2020
3547 Clouds 36 1008 53 10000 4.6 290 08:23 07.05.2020
3548 Clouds 35 1009 56 10000 3.6 290 07:58 07.05.2020
3549 Clouds 35 1009 56 10000 3.6 290 07:39 07.05.2020
3550 Clouds 35 1009 56 10000 3.6 290 07:20 07.05.2020
3551 Clouds 34 1010 63 10000 3.6 290 06:37 07.05.2020
3552 Clouds 34 1010 70 10000 4.1 310 05:58 07.05.2020
3553 Clouds 33 1011 75 10000 2.6 330 04:28 07.05.2020
3554 Clouds 33 1011 66 10000 1.5 0 03:38 07.05.2020
3555 Clouds 32 1011 66 10000 1.5 0 03:18 07.05.2020
3556 Clouds 31 1011 70 10000 2.1 100 02:26 07.05.2020
3557 Clouds 29 1010 84 9000 1.82 145 01:28 07.05.2020
3558 Clouds 28 1010 88 9000 0.5 0 00:55 07.05.2020
3559 Clouds 28 1010 88 9000 0.5 0 00:37 07.05.2020
3560 Clouds 28 1010 88 9000 0.5 0 00:18 07.05.2020
3561 Clouds 28 1010 88 10000 1.5 250 23:41 06.05.2020
3562 Clouds 28 1010 88 10000 1.5 250 23:22 06.05.2020
3563 Clouds 28 1009 88 10000 1 0 22:55 06.05.2020
3564 Clouds 28 1009 88 10000 1 0 22:37 06.05.2020
3565 Clouds 28 1009 88 10000 1 0 22:18 06.05.2020
3566 Clouds 28 1009 94 10000 1 0 21:43 06.05.2020
3567 Clouds 28 1009 94 10000 1 0 21:23 06.05.2020
3568 Clouds 28 1009 94 10000 1.1 149 20:58 06.05.2020
3569 Clouds 28 1009 94 10000 1.1 149 20:39 06.05.2020
3570 Clouds 28 1009 94 10000 1.17 173 20:21 06.05.2020
3571 Clouds 28 1010 88 9000 1.5 220 19:56 06.05.2020
3572 Clouds 28 1010 88 9000 1.5 220 19:38 06.05.2020
3573 Clouds 28 1010 88 9000 1.5 220 19:18 06.05.2020
3574 Clouds 28 1010 88 9000 1.5 220 19:18 06.05.2020
3575 Rain 28 1011 88 10000 2.1 250 18:56 06.05.2020
3576 Rain 28 1011 88 10000 2.1 250 18:37 06.05.2020
3577 Rain 28 1011 88 10000 2.1 250 18:19 06.05.2020
3578 Rain 27 1011 94 8000 3.1 290 17:55 06.05.2020
3579 Thunderstorm 27 1011 94 2500 3.1 310 17:36 06.05.2020
3580 Thunderstorm 27 1011 94 2500 3.1 310 17:36 06.05.2020
3581 Thunderstorm 27 1011 94 2500 3.1 310 17:18 06.05.2020
3582 Rain 29 1011 94 2000 6.2 40 16:57 06.05.2020
3583 Thunderstorm 30 1011 79 8000 2.1 10 16:39 06.05.2020
3584 Thunderstorm 30 1011 79 8000 2.1 10 16:19 06.05.2020
3585 Clouds 31 1010 79 10000 3.1 140 15:47 06.05.2020
3586 Clouds 31 1010 79 10000 3.1 140 15:22 06.05.2020
3587 Clouds 31 1009 74 10000 3.1 240 14:58 06.05.2020
3588 Clouds 31 1009 74 10000 3.1 240 14:39 06.05.2020
3589 Clouds 31 1009 74 10000 3.1 240 14:19 06.05.2020
3590 Clouds 31 1008 70 10000 4.1 250 13:58 06.05.2020
3591 Clouds 32 1008 70 10000 4.1 250 13:38 06.05.2020
3592 Clouds 32 1008 70 10000 4.1 250 13:19 06.05.2020
3593 Clouds 32 1007 75 10000 5.1 260 12:43 06.05.2020
3594 Clouds 32 1007 75 10000 5.1 260 12:24 06.05.2020
3595 Clouds 33 1007 66 10000 6.7 250 11:42 06.05.2020
3596 Clouds 34 1007 66 10000 6.7 250 11:23 06.05.2020
3597 Clouds 34 1007 66 10000 7.2 270 10:58 06.05.2020
3598 Clouds 34 1007 66 10000 7.2 270 10:39 06.05.2020
3599 Clouds 35 1007 66 10000 7.2 270 10:19 06.05.2020
3600 Clouds 36 1007 50 10000 5.1 300 09:59 06.05.2020
3601 Clouds 36 1007 50 10000 5.1 300 09:38 06.05.2020
3602 Clouds 36 1007 50 10000 5.1 300 09:20 06.05.2020
3603 Clouds 37 1007 53 10000 4.6 300 08:43 06.05.2020
3604 Clouds 37 1007 53 10000 4.6 300 08:20 06.05.2020
3605 Clouds 37 1008 56 10000 4.6 290 07:56 06.05.2020
3606 Clouds 36 1008 56 10000 4.6 290 07:38 06.05.2020
3607 Clouds 36 1008 56 10000 4.6 290 07:18 06.05.2020
3608 Clouds 36 1009 56 10000 3.1 360 06:46 06.05.2020
3609 Clouds 36 1009 56 10000 3.1 360 06:20 06.05.2020
3610 Clouds 35 1010 59 10000 3.1 320 05:39 06.05.2020
3611 Clouds 35 1011 56 10000 2.6 170 04:52 06.05.2020
3612 Clouds 34 1011 56 10000 2.1 0 03:52 06.05.2020
3613 Clouds 33 1011 56 10000 2.1 0 03:26 06.05.2020
3614 Clouds 33 1011 66 10000 1.5 0 02:51 06.05.2020
3615 Clouds 32 1011 66 10000 1.5 0 02:22 06.05.2020
3616 Clouds 31 1010 74 10000 2.6 110 01:42 06.05.2020
3617 Clouds 31 1010 74 10000 2.6 110 01:20 06.05.2020
3618 Clouds 30 1010 74 10000 1.5 120 00:44 06.05.2020
3619 Clouds 29 1010 74 10000 1.5 120 00:19 06.05.2020
3620 Clouds 29 1009 74 10000 1 0 23:41 05.05.2020
3621 Clouds 29 1009 74 10000 1 0 23:19 05.05.2020
3622 Clouds 29 1009 74 10000 1.5 130 22:54 05.05.2020
3623 Clouds 29 1009 74 10000 1.5 130 22:36 05.05.2020
3624 Clouds 29 1009 70 10000 2.6 100 22:18 05.05.2020
3625 Clouds 29 1009 70 10000 2.6 100 21:41 05.05.2020
3626 Clouds 29 1009 70 10000 2.6 100 21:21 05.05.2020
3627 Clouds 29 1009 70 10000 3.1 120 20:59 05.05.2020
3628 Clouds 30 1009 70 10000 3.1 120 20:40 05.05.2020
3629 Clouds 30 1009 70 10000 3.1 120 20:19 05.05.2020
3630 Clouds 30 1009 74 10000 2.1 120 19:59 05.05.2020
3631 Clouds 30 1009 74 10000 2.1 120 19:38 05.05.2020
3632 Clouds 30 1009 74 10000 2.1 120 19:20 05.05.2020
3633 Clouds 30 1010 74 10000 2.6 130 18:56 05.05.2020
3634 Clouds 30 1010 74 10000 2.6 130 18:38 05.05.2020
3635 Clouds 30 1010 74 10000 2.6 130 18:38 05.05.2020
3636 Clouds 30 1010 74 10000 2.6 130 18:19 05.05.2020
3637 Clouds 30 1011 79 10000 2.1 150 17:44 05.05.2020
3638 Clouds 30 1011 79 10000 2.1 150 17:44 05.05.2020
3639 Clouds 30 1011 79 10000 2.1 150 17:25 05.05.2020
3640 Clouds 31 1011 70 10000 3.6 140 16:58 05.05.2020
3641 Clouds 31 1011 70 10000 3.6 140 16:37 05.05.2020
3642 Clouds 31 1011 70 10000 3.6 140 16:18 05.05.2020
3643 Clouds 31 1010 74 10000 3.1 140 15:56 05.05.2020
3644 Clouds 31 1010 74 10000 3.1 140 15:38 05.05.2020
3645 Clouds 31 1010 74 10000 3.1 140 15:19 05.05.2020
3646 Clouds 31 1009 70 10000 3.6 130 14:43 05.05.2020
3647 Clouds 32 1009 70 10000 3.6 130 14:25 05.05.2020
3648 Clouds 32 1009 70 10000 3.6 130 13:59 05.05.2020
3649 Clouds 32 1009 70 10000 3.6 130 13:41 05.05.2020
3650 Clouds 32 1009 70 10000 3.6 130 13:21 05.05.2020
3651 Clouds 33 1009 63 9000 3.1 100 12:59 05.05.2020
3652 Clouds 33 1009 63 9000 3.1 100 12:40 05.05.2020
3653 Clouds 33 1009 63 9000 3.1 100 12:20 05.05.2020
3654 Clouds 34 1008 50 10000 3.6 0 11:59 05.05.2020
3655 Clouds 34 1008 50 10000 3.6 0 11:40 05.05.2020
3656 Clouds 35 1008 50 10000 3.6 0 11:18 05.05.2020
3657 Clouds 36 1007 50 10000 4.1 140 10:54 05.05.2020
3658 Clouds 36 1007 50 10000 4.1 140 10:36 05.05.2020
3659 Clouds 36 1007 47 10000 4.1 140 10:18 05.05.2020
3660 Clouds 37 1007 47 10000 4.1 140 09:43 05.05.2020
3661 Clouds 37 1007 47 10000 4.1 140 09:43 05.05.2020
3662 Clouds 37 1007 47 10000 4.1 140 09:25 05.05.2020
3663 Clouds 36 1008 50 10000 5.1 120 08:42 05.05.2020
3664 Clouds 36 1008 50 10000 5.1 120 08:21 05.05.2020
3665 Clouds 36 1008 50 10000 5.1 120 08:21 05.05.2020
3666 Clouds 35 1008 50 10000 5.7 100 07:58 05.05.2020
3667 Clouds 36 1008 50 10000 5.7 100 07:39 05.05.2020
3668 Clouds 36 1008 50 10000 5.7 100 07:19 05.05.2020
3669 Clouds 35 1009 53 10000 5.1 120 06:50 05.05.2020
3670 Clouds 35 1009 53 10000 5.1 120 06:27 05.05.2020
3671 Clouds 35 1009 53 10000 5.1 120 06:27 05.05.2020
3672 Clouds 35 1009 53 10000 5.1 120 06:27 05.05.2020
3673 Clouds 34 1011 56 10000 5.1 120 05:43 05.05.2020
3674 Clouds 34 1011 63 10000 3.6 120 03:39 05.05.2020
3675 Clouds 32 1011 66 10000 3.1 130 02:18 05.05.2020
3676 Clouds 29 1009 79 10000 1 0 00:54 05.05.2020
3677 Clouds 28 1009 79 10000 1 0 00:23 05.05.2020
3678 Clouds 28 1009 79 10000 2.1 110 23:48 04.05.2020
3679 Clouds 29 1009 79 10000 2.1 110 23:25 04.05.2020
3680 Clouds 29 1009 79 10000 2.1 110 22:57 04.05.2020
3681 Clouds 29 1009 79 10000 2.1 110 22:38 04.05.2020
3682 Clouds 29 1009 79 10000 2.1 110 22:19 04.05.2020
3683 Clouds 29 1009 74 10000 2.6 90 21:56 04.05.2020
3684 Clouds 29 1009 74 10000 2.6 90 21:35 04.05.2020
3685 Clouds 29 1009 74 10000 2.1 130 20:59 04.05.2020
3686 Clouds 29 1009 74 10000 2.1 130 20:59 04.05.2020
3687 Clouds 29 1009 74 10000 2.1 130 20:58 04.05.2020
3688 Clouds 29 1009 74 10000 2.1 130 20:58 04.05.2020
3689 Clouds 29 1009 74 10000 2.1 130 20:38 04.05.2020
3690 Clouds 29 1009 74 10000 2.1 130 20:38 04.05.2020
3691 Clouds 29 1010 74 10000 1.5 130 20:18 04.05.2020
3692 Clouds 30 1010 74 10000 1.5 130 19:43 04.05.2020
3693 Clouds 30 1010 74 10000 1.5 130 19:21 04.05.2020
3694 Clouds 30 1010 74 10000 3.1 120 18:57 04.05.2020
3695 Clouds 30 1010 74 10000 3.1 120 18:38 04.05.2020
3696 Clouds 30 1010 74 10000 3.1 120 18:18 04.05.2020
3697 Clouds 30 1010 74 10000 3.1 120 18:18 04.05.2020
3698 Clouds 30 1011 74 10000 3.1 120 17:55 04.05.2020
3699 Clouds 30 1011 74 10000 3.1 120 17:55 04.05.2020
3700 Clouds 30 1011 74 10000 3.1 120 17:37 04.05.2020
3701 Clouds 30 1011 74 10000 3.1 120 17:18 04.05.2020
3702 Clouds 31 1011 74 10000 4.1 120 16:42 04.05.2020
3703 Clouds 31 1011 74 10000 4.1 120 16:21 04.05.2020
3704 Clouds 31 1010 74 10000 3.1 130 15:47 04.05.2020
3705 Clouds 31 1010 74 10000 3.1 130 15:26 04.05.2020
3706 Clouds 32 1010 70 10000 3.1 130 14:59 04.05.2020
3707 Clouds 32 1010 70 10000 3.1 130 14:41 04.05.2020
3708 Clouds 32 1010 70 10000 3.1 130 14:41 04.05.2020
3709 Clouds 32 1009 63 10000 3.1 120 14:13 04.05.2020
3710 Clouds 32 1009 63 10000 3.1 120 14:13 04.05.2020
3711 Clouds 32 1009 63 10000 3.1 120 14:13 04.05.2020
3712 Clouds 33 1008 59 10000 4.6 130 12:49 04.05.2020
3713 Clouds 33 1008 59 10000 4.6 130 12:49 04.05.2020
3714 Clouds 33 1008 59 10000 4.6 130 12:49 04.05.2020
3715 Clouds 34 1008 59 10000 4.6 130 12:25 04.05.2020
3716 Clouds 34 1008 59 10000 4.6 130 12:25 04.05.2020
3717 Clouds 34 1008 59 10000 4.6 130 12:25 04.05.2020
3718 Clouds 34 1008 59 10000 4.6 130 12:25 04.05.2020
3719 Clouds 34 1008 59 10000 4.6 130 12:25 04.05.2020
3720 Clouds 36 1007 56 10000 4.1 0 10:34 04.05.2020
3721 Clouds 36 1008 53 10000 4.6 120 09:26 04.05.2020
3722 Clouds 36 1008 53 10000 4.6 120 09:26 04.05.2020
3723 Clouds 36 1008 53 10000 4.6 120 09:26 04.05.2020
3724 Clouds 36 1008 53 10000 4.6 120 09:26 04.05.2020
3725 Clouds 36 1008 53 10000 4.6 120 09:26 04.05.2020
3726 Clouds 36 1009 53 10000 4.1 120 07:52 04.05.2020
3727 Clouds 36 1009 53 10000 4.1 120 07:51 04.05.2020
3728 Clouds 36 1009 53 10000 4.1 120 07:33 04.05.2020
3729 Clouds 36 1009 53 10000 4.1 120 07:33 04.05.2020
3730 Clouds 36 1009 53 10000 4.1 120 07:33 04.05.2020
3731 Clouds 36 1009 53 10000 4.1 120 07:32 04.05.2020
3732 Clouds 36 1009 53 10000 4.1 120 07:32 04.05.2020
3733 Clouds 34 1011 59 10000 2.6 0 04:58 04.05.2020
3734 Clouds 32 1011 66 10000 2.1 0 03:23 04.05.2020
3735 Clouds 31 1011 70 10000 3.6 90 02:32 04.05.2020
3736 Clouds 29 1010 79 10000 1 0 00:45 04.05.2020
3737 Clouds 28 1009 79 10000 1 0 23:46 03.05.2020
3738 Clouds 28 1009 79 10000 1 0 23:25 03.05.2020
3739 Clouds 28 1008 78 10000 1.86 101 22:57 03.05.2020
3740 Clouds 28 1008 78 10000 1.86 101 22:39 03.05.2020
3741 Clouds 28 1008 78 10000 1.43 84 22:21 03.05.2020
3742 Clouds 28 1008 74 10000 0.5 0 21:41 03.05.2020
3743 Clouds 28 1008 74 10000 0.5 0 21:21 03.05.2020
3744 Clouds 28 1009 70 10000 1 0 20:47 03.05.2020
3745 Clouds 28 1009 70 10000 1 0 20:47 03.05.2020
3746 Clouds 29 1009 70 10000 1 0 20:23 03.05.2020
3747 Clouds 29 1010 70 10000 1 0 19:56 03.05.2020
3748 Clouds 29 1010 70 10000 1 0 19:56 03.05.2020
3749 Clouds 29 1010 70 10000 1 0 19:37 03.05.2020
3750 Clouds 29 1010 70 10000 1 0 19:37 03.05.2020
3751 Clouds 29 1010 74 10000 1 0 19:18 03.05.2020
3752 Clouds 29 1010 74 10000 1 0 18:39 03.05.2020
3753 Clouds 29 1010 74 10000 1 0 18:20 03.05.2020
3754 Clouds 29 1011 74 10000 1 0 17:54 03.05.2020
3755 Clouds 29 1011 74 10000 1 0 17:36 03.05.2020
3756 Clouds 29 1011 74 10000 1 0 17:18 03.05.2020
3757 Clouds 29 1011 70 10000 1 0 16:40 03.05.2020
3758 Clouds 29 1011 70 10000 1 0 16:18 03.05.2020
3759 Clouds 29 1010 70 10000 2.1 130 15:56 03.05.2020
3760 Clouds 29 1010 70 10000 2.1 130 15:37 03.05.2020
3761 Clouds 29 1010 70 10000 2.1 130 15:37 03.05.2020
3762 Clouds 29 1010 70 10000 2.1 130 15:37 03.05.2020
3763 Clouds 29 1010 70 10000 2.1 130 15:37 03.05.2020
3764 Clouds 30 1010 70 10000 2.1 130 15:19 03.05.2020
3765 Clouds 30 1009 70 10000 2.6 120 14:43 03.05.2020
3766 Clouds 30 1009 70 10000 2.6 120 14:22 03.05.2020
3767 Clouds 30 1009 70 10000 2.6 120 14:22 03.05.2020
3768 Clouds 30 1009 62 10000 3.1 120 14:00 03.05.2020
3769 Clouds 30 1009 62 10000 3.1 120 13:36 03.05.2020
3770 Clouds 30 1009 62 10000 3.1 120 13:36 03.05.2020
3771 Clouds 30 1009 62 10000 3.1 120 13:36 03.05.2020
3772 Clouds 31 1009 62 10000 2.6 120 12:48 03.05.2020
3773 Clouds 31 1009 62 10000 2.6 120 12:26 03.05.2020
3774 Clouds 31 1009 62 10000 2.6 120 12:26 03.05.2020
3775 Clouds 31 1008 62 10000 4.1 90 11:57 03.05.2020
3776 Clouds 32 1008 62 10000 4.1 90 11:39 03.05.2020
3777 Clouds 32 1008 62 10000 4.1 90 11:20 03.05.2020
3778 Clouds 32 1008 62 10000 4.1 90 11:20 03.05.2020
3779 Clouds 32 1008 62 10000 4.1 100 10:52 03.05.2020
3780 Clouds 32 1008 62 10000 4.1 100 10:52 03.05.2020
3781 Clouds 32 1008 62 10000 4.1 100 10:52 03.05.2020
3782 Clouds 32 1008 62 10000 4.1 100 10:52 03.05.2020
3783 Clouds 32 1008 62 10000 4.1 100 10:52 03.05.2020
3784 Clouds 32 1008 62 10000 4.1 100 10:24 03.05.2020
3785 Clouds 32 1008 62 10000 4.1 100 10:24 03.05.2020
3786 Clouds 32 1008 62 10000 4.1 100 10:24 03.05.2020
3787 Clouds 32 1008 62 10000 4.1 100 10:24 03.05.2020
3788 Clouds 32 1008 62 10000 4.1 100 10:24 03.05.2020
3789 Clouds 32 1008 66 10000 4.1 80 09:39 03.05.2020
3790 Clouds 32 1008 66 10000 4.1 80 09:39 03.05.2020
3791 Clouds 31 1009 66 10000 4.6 80 08:57 03.05.2020
3792 Clouds 32 1009 66 10000 4.6 80 08:32 03.05.2020
3793 Clouds 32 1009 66 10000 4.6 80 08:32 03.05.2020
3794 Clouds 32 1009 66 10000 4.6 80 08:31 03.05.2020
3795 Clouds 32 1009 66 10000 4.6 80 08:31 03.05.2020
3796 Clouds 32 1009 66 10000 4.6 80 08:31 03.05.2020
3797 Clouds 32 1009 66 10000 3.6 90 07:40 03.05.2020
3798 Clouds 31 1010 70 10000 3.6 100 06:31 03.05.2020
3799 Rain 30 1011 79 9000 1.5 110 05:49 03.05.2020
3800 Rain 30 1011 79 9000 1.5 110 05:29 03.05.2020
3801 Rain 30 1011 66 9000 3.1 100 04:27 03.05.2020
3802 Clouds 30 1011 74 9000 1.5 160 03:30 03.05.2020
3803 Clouds 30 1010 66 9000 1 0 02:30 03.05.2020
3804 Rain 29 1010 74 10000 2.1 100 01:48 03.05.2020
3805 Rain 28 1010 74 10000 2.1 100 01:27 03.05.2020
3806 Rain 28 1008 74 10000 2.1 70 00:57 03.05.2020
3807 Rain 28 1008 74 10000 2.1 70 00:57 03.05.2020
3808 Clouds 28 1008 74 10000 2.1 70 00:38 03.05.2020
3809 Clouds 28 1008 74 10000 2.1 70 00:19 03.05.2020
3810 Clouds 29 1008 70 10000 1 0 23:44 02.05.2020
3811 Clouds 29 1008 70 10000 1 0 23:25 02.05.2020
3812 Clouds 29 1008 70 10000 2.1 140 22:44 02.05.2020
3813 Clouds 29 1008 70 10000 2.1 140 22:24 02.05.2020
3814 Clouds 29 1008 70 10000 1.5 130 21:58 02.05.2020
3815 Clouds 29 1008 70 10000 1.5 130 21:40 02.05.2020
3816 Clouds 29 1008 70 10000 1.5 130 21:19 02.05.2020
3817 Clouds 29 1008 70 10000 1 0 20:57 02.05.2020
3818 Clouds 29 1008 70 10000 1 0 20:37 02.05.2020
3819 Clouds 29 1008 70 10000 1 0 20:19 02.05.2020
3820 Clouds 29 1008 66 10000 2.6 130 19:57 02.05.2020
3821 Clouds 29 1008 66 10000 2.6 130 19:57 02.05.2020
3822 Clouds 29 1008 66 10000 2.6 130 19:38 02.05.2020
3823 Clouds 29 1008 66 10000 2.6 130 19:38 02.05.2020
3824 Clouds 29 1008 66 10000 2.6 130 19:38 02.05.2020
3825 Clouds 29 1008 66 10000 2.6 130 19:19 02.05.2020
3826 Clouds 29 1009 70 10000 3.1 150 18:55 02.05.2020
3827 Clouds 29 1009 70 10000 3.1 150 18:55 02.05.2020
3828 Clouds 29 1009 70 10000 3.1 150 18:36 02.05.2020
3829 Clouds 29 1009 70 10000 3.1 150 18:18 02.05.2020
3830 Clouds 30 1009 66 10000 3.1 130 17:39 02.05.2020
3831 Clouds 30 1009 66 10000 3.1 130 17:20 02.05.2020
3832 Clouds 30 1009 62 10000 3.1 140 16:59 02.05.2020
3833 Clouds 30 1009 62 10000 3.1 140 16:39 02.05.2020
3834 Clouds 30 1009 62 10000 3.1 140 16:21 02.05.2020
3835 Clouds 30 1008 66 10000 3.6 130 15:43 02.05.2020
3836 Clouds 30 1008 66 10000 3.6 130 15:20 02.05.2020
3837 Clouds 30 1008 66 10000 3.6 130 15:20 02.05.2020
3838 Clouds 31 1008 62 10000 3.1 140 14:58 02.05.2020
3839 Clouds 31 1008 62 10000 3.1 140 14:39 02.05.2020
3840 Clouds 31 1008 62 10000 3.1 140 14:20 02.05.2020
3841 Clouds 31 1008 62 10000 4.1 120 13:40 02.05.2020
3842 Clouds 31 1008 62 10000 4.1 120 13:22 02.05.2020
3843 Clouds 32 1007 62 10000 3.6 120 12:54 02.05.2020
3844 Clouds 32 1007 62 10000 3.6 120 12:54 02.05.2020
3845 Clouds 32 1007 62 10000 3.6 120 12:36 02.05.2020
3846 Clouds 32 1007 62 10000 3.6 120 12:18 02.05.2020
3847 Clouds 33 1006 59 10000 4.6 0 11:41 02.05.2020
3848 Clouds 33 1006 59 10000 4.6 0 11:22 02.05.2020
3849 Clouds 34 1006 53 10000 4.6 140 10:58 02.05.2020
3850 Clouds 34 1006 53 10000 4.6 140 10:38 02.05.2020
3851 Clouds 34 1006 53 10000 4.6 140 10:20 02.05.2020
3852 Clouds 34 1006 53 10000 4.6 140 10:20 02.05.2020
3853 Clouds 35 1006 44 10000 4.1 0 09:57 02.05.2020
3854 Clouds 35 1006 44 10000 4.1 0 09:38 02.05.2020
3855 Clouds 35 1006 44 10000 4.1 0 09:20 02.05.2020
3856 Clouds 35 1007 50 10000 5.1 0 08:46 02.05.2020
3857 Clouds 35 1007 50 10000 5.1 0 08:27 02.05.2020
3858 Clouds 35 1008 47 10000 5.7 120 07:48 02.05.2020
3859 Clouds 35 1008 47 10000 5.7 120 07:29 02.05.2020
3860 Clouds 35 1008 47 10000 5.7 120 07:29 02.05.2020
3861 Clouds 35 1009 47 10000 3.1 140 06:51 02.05.2020
3862 Clouds 33 1010 52 10000 2.1 0 05:30 02.05.2020
3863 Clouds 33 1011 55 10000 2.6 120 04:59 02.05.2020
3864 Clouds 33 1011 55 10000 2.6 120 04:24 02.05.2020
3865 Clouds 31 1011 58 10000 2.6 90 02:44 02.05.2020
3866 Clouds 31 1011 58 10000 2.6 90 02:24 02.05.2020
3867 Clouds 30 1010 70 10000 2.1 90 01:49 02.05.2020
3868 Clouds 28 1009 78 10000 1.5 100 00:48 02.05.2020
3869 Clouds 27 1009 78 10000 1.5 100 00:28 02.05.2020
3870 Clouds 28 1009 69 10000 1.5 110 23:58 01.05.2020
3871 Clouds 28 1009 69 10000 1.5 110 23:39 01.05.2020
3872 Clouds 28 1009 69 10000 1.5 110 23:19 01.05.2020
3873 Clouds 28 1009 69 10000 1 0 22:54 01.05.2020
3874 Clouds 28 1009 69 10000 1 0 22:36 01.05.2020
3875 Clouds 28 1009 69 10000 1 0 22:18 01.05.2020
3876 Clouds 28 1009 74 10000 0.5 0 21:41 01.05.2020
3877 Clouds 28 1009 74 10000 0.5 0 21:21 01.05.2020
3878 Clouds 28 1009 74 10000 2.1 120 20:59 01.05.2020
3879 Clouds 28 1009 74 10000 2.1 120 20:41 01.05.2020
3880 Clouds 28 1009 74 10000 2.1 120 20:20 01.05.2020
3881 Clouds 28 1009 74 10000 2.1 120 20:20 01.05.2020
3882 -273 0 0 0 0 0 19:59 01.05.2020
3883 Clouds 28 1010 74 10000 2.6 120 19:41 01.05.2020
3884 Clouds 28 1010 74 10000 2.6 120 19:22 01.05.2020
3885 Clouds 28 1010 74 10000 2.6 120 19:22 01.05.2020
3886 Clouds 29 1010 70 10000 2.1 130 18:56 01.05.2020
3887 Clouds 29 1010 70 10000 2.1 130 18:38 01.05.2020
3888 Clouds 29 1010 70 10000 2.1 130 18:19 01.05.2020
3889 Clouds 29 1010 70 10000 2.1 130 18:19 01.05.2020
3890 Clouds 29 1011 66 10000 2.6 120 17:41 01.05.2020
3891 Clouds 29 1011 66 10000 2.6 120 17:23 01.05.2020
3892 Clouds 29 1010 70 10000 3.6 120 16:58 01.05.2020
3893 Clouds 29 1010 70 10000 3.6 120 16:40 01.05.2020
3894 Clouds 29 1010 70 10000 3.6 120 16:21 01.05.2020
3895 Clouds 30 1010 66 10000 4.1 130 15:58 01.05.2020
3896 Clouds 30 1010 66 10000 4.1 130 15:39 01.05.2020
3897 Clouds 30 1010 66 10000 4.1 130 15:20 01.05.2020
3898 Clouds 30 1009 66 10000 3.1 0 14:44 01.05.2020
3899 Clouds 30 1009 66 10000 3.1 0 14:25 01.05.2020
3900 Clouds 31 1009 62 10000 3.6 130 13:57 01.05.2020
3901 Clouds 31 1009 62 10000 3.6 130 13:38 01.05.2020
3902 Clouds 31 1009 62 10000 3.6 130 13:38 01.05.2020
3903 Clouds 31 1009 62 10000 3.6 130 13:38 01.05.2020
3904 Clouds 31 1009 62 10000 3.6 130 13:20 01.05.2020
3905 Clouds 31 1008 66 10000 3.6 0 12:55 01.05.2020
3906 Clouds 31 1008 66 10000 3.6 0 12:37 01.05.2020
3907 Clouds 31 1008 66 10000 3.6 0 12:18 01.05.2020
3908 Clouds 31 1008 66 10000 3.6 0 12:18 01.05.2020
3909 Clouds 33 1007 59 10000 4.1 130 11:41 01.05.2020
3910 Clouds 33 1007 59 10000 4.1 130 11:23 01.05.2020
3911 Clouds 33 1007 52 10000 5.7 120 10:58 01.05.2020
3912 Clouds 33 1007 52 10000 5.7 120 10:38 01.05.2020
3913 Clouds 34 1007 52 10000 5.7 120 10:20 01.05.2020
3914 Clouds 34 1007 49 10000 5.7 120 09:44 01.05.2020
3915 Clouds 34 1007 49 10000 5.7 120 09:20 01.05.2020
3916 Clouds 34 1008 47 10000 5.7 130 08:57 01.05.2020
3917 Clouds 35 1008 47 10000 5.7 130 08:39 01.05.2020
3918 Clouds 35 1008 47 10000 5.7 130 08:21 01.05.2020
3919 Clouds 35 1009 50 10000 4.6 120 07:44 01.05.2020
3920 Clouds 35 1009 50 10000 4.6 120 07:22 01.05.2020
3921 Clouds 34 1010 50 10000 4.1 130 06:39 01.05.2020
3922 Clouds 34 1011 56 10000 4.1 150 05:34 01.05.2020
3923 Clouds 32 1012 59 10000 3.6 120 04:21 01.05.2020
3924 Clouds 31 1012 62 10000 3.6 100 03:23 01.05.2020
3925 Clouds 31 1012 66 10000 3.6 110 02:42 01.05.2020
3926 Clouds 30 1011 62 10000 2.1 120 01:59 01.05.2020
3927 Clouds 30 1011 62 10000 2.1 120 01:28 01.05.2020
3928 Clouds 28 1011 74 10000 1 0 00:56 01.05.2020
3929 Clouds 27 1011 74 10000 1 0 00:36 01.05.2020
3930 Clouds 27 1010 69 10000 2.6 72 00:18 01.05.2020
3931 Clouds 27 1010 69 10000 2.6 72 23:54 30.04.2020
3932 Clouds 27 1010 69 10000 2.6 72 23:36 30.04.2020
3933 Clouds 27 1010 74 10000 1.5 100 23:18 30.04.2020
3934 Clouds 27 1010 74 10000 1.5 100 22:40 30.04.2020
3935 Clouds 27 1010 74 10000 1.5 100 22:19 30.04.2020
3936 Clouds 27 1010 69 10000 2.1 90 21:55 30.04.2020
3937 Clouds 27 1010 69 10000 2.1 90 21:37 30.04.2020
3938 Clouds 27 1010 69 10000 2.1 90 21:18 30.04.2020
3939 Clouds 28 1010 74 10000 2.1 110 20:41 30.04.2020
3940 Clouds 28 1010 74 10000 2.1 110 20:19 30.04.2020
3941 Clouds 28 1011 69 10000 2.1 110 19:58 30.04.2020
3942 Clouds 28 1011 69 10000 2.1 110 19:38 30.04.2020
3943 Clouds 28 1012 66 10000 2.1 120 19:18 30.04.2020
3944 Clouds 28 1012 66 10000 2.1 120 18:40 30.04.2020
3945 Clouds 29 1012 66 10000 2.1 120 18:21 30.04.2020
3946 Clouds 29 1012 70 10000 3.6 0 17:59 30.04.2020
3947 Clouds 29 1012 70 10000 3.6 0 17:40 30.04.2020
3948 Clouds 29 1012 70 10000 3.6 0 17:22 30.04.2020
3949 Clouds 29 1012 70 10000 3.1 120 16:58 30.04.2020
3950 Clouds 29 1012 70 10000 3.1 120 16:40 30.04.2020
3951 Clouds 29 1012 70 10000 3.1 120 16:19 30.04.2020
3952 Clouds 29 1012 66 10000 3.6 120 15:48 30.04.2020
3953 Clouds 29 1012 66 10000 3.6 120 15:26 30.04.2020
3954 Clouds 29 1011 66 10000 3.1 120 14:59 30.04.2020
3955 Clouds 30 1011 66 10000 3.1 120 14:40 30.04.2020
3956 Clouds 30 1011 66 10000 3.1 120 14:19 30.04.2020
3957 Clouds 30 1011 66 10000 2.6 120 13:56 30.04.2020
3958 Clouds 30 1011 66 10000 2.6 120 13:56 30.04.2020
3959 Clouds 30 1011 66 10000 2.6 120 13:38 30.04.2020
3960 Clouds 31 1011 66 10000 2.6 120 13:19 30.04.2020
3961 Clouds 31 1010 62 10000 4.1 110 12:41 30.04.2020
3962 Clouds 31 1010 62 10000 4.1 110 12:21 30.04.2020
3963 Clouds 32 1009 59 10000 4.6 130 11:58 30.04.2020
3964 Clouds 32 1009 59 10000 4.6 130 11:37 30.04.2020
3965 Clouds 32 1009 59 10000 4.6 130 11:18 30.04.2020
3966 Clouds 33 1009 52 10000 4.6 120 10:54 30.04.2020
3967 Clouds 34 1009 52 10000 4.6 120 10:36 30.04.2020
3968 Clouds 34 1009 53 10000 4.6 0 10:18 30.04.2020
3969 Clouds 33 1009 53 10000 4.6 0 09:41 30.04.2020
3970 Rain 33 1009 53 10000 4.6 0 09:22 30.04.2020
3971 Clouds 34 1010 53 10000 5.1 120 08:49 30.04.2020
3972 Rain 34 1010 53 10000 5.1 120 08:27 30.04.2020
3973 Clouds 34 1011 50 10000 5.1 0 07:58 30.04.2020
3974 Clouds 34 1011 50 10000 5.1 0 07:39 30.04.2020
3975 Clouds 34 1011 50 10000 5.1 0 07:20 30.04.2020
3976 Clouds 34 1012 52 10000 6.2 110 06:33 30.04.2020
3977 Clouds 33 1012 59 10000 4.6 140 05:47 30.04.2020
3978 Clouds 33 1013 59 10000 3.1 110 04:48 30.04.2020
3979 Clouds 33 1013 59 10000 3.1 110 04:24 30.04.2020
3980 Clouds 32 1013 62 10000 3.6 80 02:52 30.04.2020
3981 Clouds 31 1013 62 10000 3.6 80 02:28 30.04.2020
3982 Clouds 29 1012 74 10000 2.6 80 01:37 30.04.2020
3983 Clouds 28 1012 78 10000 2.6 80 00:53 30.04.2020
3984 Clouds 27 1012 78 10000 2.6 80 00:24 30.04.2020
3985 Clouds 27 1012 78 10000 2.6 80 00:24 30.04.2020
3986 Clouds 28 1011 78 10000 2.6 90 23:59 29.04.2020
3987 Clouds 27 1011 78 10000 2.6 90 23:41 29.04.2020
3988 Clouds 27 1011 78 10000 2.6 90 23:22 29.04.2020
3989 Clouds 28 1011 74 10000 3.6 100 22:58 29.04.2020
3990 Clouds 28 1011 74 10000 3.6 100 22:39 29.04.2020
3991 Clouds 28 1011 74 10000 3.6 100 22:19 29.04.2020
3992 Clouds 28 1011 78 10000 3.1 100 21:38 29.04.2020
3993 Clouds 28 1011 78 10000 3.1 100 21:20 29.04.2020
3994 Clouds 28 1011 70 10000 3.1 100 20:58 29.04.2020
3995 Clouds 29 1011 70 10000 3.1 100 20:39 29.04.2020
3996 Clouds 29 1011 70 10000 3.1 100 20:19 29.04.2020
3997 Clouds 29 1012 74 10000 2.6 120 19:54 29.04.2020
3998 Clouds 29 1012 74 10000 2.6 120 19:36 29.04.2020
3999 Clouds 29 1012 74 10000 3.6 120 19:18 29.04.2020
4000 Clouds 29 1012 74 10000 3.6 120 18:41 29.04.2020
4001 Clouds 29 1012 74 10000 3.6 120 18:20 29.04.2020
4002 Clouds 29 1013 70 10000 4.1 110 17:44 29.04.2020
4003 Clouds 29 1013 70 10000 4.1 110 17:22 29.04.2020
4004 Clouds 29 1013 66 10000 3.1 120 16:59 29.04.2020
4005 Clouds 30 1013 66 10000 3.1 120 16:37 29.04.2020
4006 Clouds 30 1013 66 10000 3.1 120 16:18 29.04.2020
4007 Clouds 30 1012 66 10000 3.6 120 15:55 29.04.2020
4008 Clouds 30 1012 66 10000 3.6 120 15:37 29.04.2020
4009 Clouds 30 1012 66 10000 3.6 120 15:37 29.04.2020
4010 Clouds 30 1012 66 10000 3.6 120 15:19 29.04.2020
4011 Clouds 30 1012 62 10000 3.6 110 14:44 29.04.2020
4012 Clouds 30 1012 62 10000 3.6 110 14:26 29.04.2020
4013 Clouds 31 1011 62 10000 4.1 120 13:58 29.04.2020
4014 Clouds 31 1011 62 10000 4.1 120 13:38 29.04.2020
4015 Clouds 31 1011 62 10000 4.1 120 13:19 29.04.2020
4016 Clouds 31 1010 59 10000 4.6 110 12:55 29.04.2020
4017 Clouds 31 1010 59 10000 4.6 110 12:37 29.04.2020
4018 Clouds 32 1009 55 10000 4.6 120 12:18 29.04.2020
4019 Clouds 32 1009 55 10000 4.6 120 11:38 29.04.2020
4020 Clouds 32 1009 55 10000 4.6 120 11:20 29.04.2020
4021 Clouds 32 1009 55 10000 4.6 120 11:20 29.04.2020
4022 Clouds 32 1009 55 10000 5.1 120 10:54 29.04.2020
4023 Clouds 32 1009 55 10000 5.1 120 10:54 29.04.2020
4024 Clouds 32 1009 55 10000 5.1 120 10:36 29.04.2020
4025 Clouds 33 1009 50 10000 4.6 120 10:18 29.04.2020
4026 Clouds 33 1009 50 10000 4.6 120 09:41 29.04.2020
4027 Clouds 33 1009 50 10000 4.6 120 09:21 29.04.2020
4028 Clouds 33 1010 52 10000 5.1 120 08:44 29.04.2020
4029 Clouds 33 1010 52 10000 5.1 120 08:25 29.04.2020
4030 Clouds 34 1011 56 10000 5.7 120 07:54 29.04.2020
4031 Clouds 34 1011 56 10000 5.7 120 07:29 29.04.2020
4032 Clouds 34 1012 52 10000 4.6 120 06:53 29.04.2020
4033 Clouds 33 1012 52 10000 4.6 120 06:32 29.04.2020
4034 Clouds 33 1012 59 10000 3.1 120 05:50 29.04.2020
4035 Clouds 33 1012 59 10000 3.1 120 05:19 29.04.2020
4036 Clouds 33 1013 52 10000 2.6 80 04:20 29.04.2020
4037 Clouds 31 1013 52 10000 2.6 80 03:28 29.04.2020
4038 Clouds 29 1012 69 10000 1.5 90 01:56 29.04.2020
4039 Clouds 28 1012 69 10000 1.5 90 01:28 29.04.2020
4040 Clouds 27 1011 78 10000 2.6 60 00:56 29.04.2020
4041 Clouds 27 1011 78 10000 2.6 60 00:37 29.04.2020
4042 Clouds 27 1010 78 10000 2.1 100 00:18 29.04.2020
4043 Clouds 27 1010 78 10000 2.1 100 23:43 28.04.2020
4044 Clouds 27 1010 78 10000 2.1 100 23:43 28.04.2020
4045 Clouds 27 1010 78 10000 2.1 100 23:20 28.04.2020
4046 Clouds 27 1010 74 10000 2.1 100 22:39 28.04.2020
4047 Clouds 27 1010 74 10000 2.1 100 22:20 28.04.2020
4048 Clouds 27 1010 69 10000 1.5 100 21:59 28.04.2020
4049 Clouds 27 1010 69 10000 1.5 100 21:40 28.04.2020
4050 Clouds 27 1010 69 10000 1.5 100 21:22 28.04.2020
4051 Clouds 28 1011 65 10000 1.5 120 20:58 28.04.2020
4052 Clouds 28 1011 65 10000 1.5 120 20:40 28.04.2020
4053 Clouds 28 1011 65 10000 1.5 120 20:20 28.04.2020
4054 Clouds 28 1011 69 10000 1.5 120 19:56 28.04.2020
4055 Clouds 28 1011 69 10000 1.5 120 19:38 28.04.2020
4056 Clouds 28 1011 69 10000 1.5 120 19:19 28.04.2020
4057 Clouds 28 1011 69 10000 1.5 120 19:19 28.04.2020
4058 Clouds 28 1012 69 10000 2.6 120 18:42 28.04.2020
4059 Clouds 28 1012 69 10000 2.6 120 18:20 28.04.2020
4060 Clouds 29 1012 70 10000 3.1 120 17:59 28.04.2020
4061 Clouds 29 1012 70 10000 3.1 120 17:37 28.04.2020
4062 Clouds 29 1012 70 10000 3.1 120 17:19 28.04.2020
4063 Clouds 29 1012 70 10000 3.6 120 16:56 28.04.2020
4064 Clouds 29 1012 70 10000 3.6 120 16:37 28.04.2020
4065 Clouds 29 1012 70 10000 3.6 120 16:19 28.04.2020
4066 Clouds 29 1011 70 10000 3.1 120 15:54 28.04.2020
4067 Clouds 29 1011 70 10000 3.1 120 15:36 28.04.2020
4068 Clouds 29 1011 70 10000 3.1 120 15:18 28.04.2020
4069 Clouds 30 1011 70 10000 3.6 110 14:43 28.04.2020
4070 Clouds 30 1011 70 10000 3.6 110 14:22 28.04.2020
4071 Clouds 30 1010 70 10000 4.1 120 13:59 28.04.2020
4072 Clouds 30 1010 70 10000 4.1 120 13:59 28.04.2020
4073 Clouds 30 1010 70 10000 4.1 120 13:40 28.04.2020
4074 Clouds 30 1010 70 10000 4.1 120 13:21 28.04.2020
4075 Clouds 31 1009 59 10000 4.1 130 12:57 28.04.2020
4076 Clouds 32 1009 59 10000 4.1 130 12:37 28.04.2020
4077 Clouds 32 1009 59 10000 4.1 130 12:19 28.04.2020
4078 Clouds 33 1009 55 10000 5.7 120 11:41 28.04.2020
4079 Clouds 33 1009 55 10000 5.7 120 11:21 28.04.2020
4080 Clouds 34 1008 47 10000 5.1 130 10:56 28.04.2020
4081 Clouds 34 1008 47 10000 5.1 130 10:37 28.04.2020
4082 Clouds 34 1008 47 10000 5.1 130 10:18 28.04.2020
4083 Clouds 34 1009 47 10000 6.7 130 09:42 28.04.2020
4084 Clouds 34 1009 47 10000 6.7 130 09:42 28.04.2020
4085 Clouds 35 1009 47 10000 6.7 130 09:24 28.04.2020
4086 Clouds 35 1009 47 10000 6.7 130 08:50 28.04.2020
4087 Clouds 35 1009 47 10000 6.7 130 08:30 28.04.2020
4088 Clouds 35 1010 47 10000 5.7 120 07:59 28.04.2020
4089 Clouds 35 1010 47 10000 5.7 120 07:40 28.04.2020
4090 Clouds 34 1012 50 10000 5.1 130 07:18 28.04.2020
4091 Clouds 34 1012 50 10000 5.1 130 06:28 28.04.2020
4092 Clouds 34 1012 50 10000 2.6 0 05:45 28.04.2020
4093 Clouds 34 1012 50 10000 2.6 0 05:26 28.04.2020
4094 Clouds 33 1013 59 10000 3.1 100 04:33 28.04.2020
4095 Clouds 33 1013 59 10000 3.1 100 04:33 28.04.2020
4096 Clouds 30 1013 66 10000 4.1 110 02:36 28.04.2020
4097 Clouds 29 1012 70 10000 3.1 110 01:25 28.04.2020
4098 Clouds 29 1012 70 10000 3.1 110 01:25 28.04.2020
4099 Clouds 28 1012 74 10000 2.6 110 00:59 28.04.2020
4100 Clouds 27 1012 74 10000 2.6 110 00:27 28.04.2020
4101 Clouds 27 1011 74 10000 1.5 120 23:48 27.04.2020
4102 Clouds 27 1011 74 10000 1.5 120 23:25 27.04.2020
4103 Clouds 27 1011 69 10000 1.5 130 22:57 27.04.2020
4104 Clouds 27 1011 69 10000 1.5 130 22:38 27.04.2020
4105 Clouds 27 1011 69 10000 1.5 130 22:20 27.04.2020
4106 Clouds 27 1011 69 0 2.1 120 21:56 27.04.2020
4107 Clouds 27 1011 69 0 2.1 120 21:38 27.04.2020
4108 Clouds 28 1011 69 0 2.1 120 21:18 27.04.2020
4109 Clouds 28 1011 71 10000 2.1 110 20:44 27.04.2020
4110 Clouds 28 1011 71 10000 2.1 110 20:22 27.04.2020
4111 Clouds 28 1011 71 10000 2.1 110 20:22 27.04.2020
4112 Clouds 28 1012 74 10000 3.1 120 19:59 27.04.2020
4113 Clouds 28 1012 74 10000 3.1 120 19:40 27.04.2020
4114 Clouds 28 1012 74 10000 3.1 120 19:21 27.04.2020
4115 Clouds 28 1012 70 10000 3.6 120 18:58 27.04.2020
4116 Clouds 28 1012 70 10000 3.6 120 18:40 27.04.2020
4117 Clouds 28 1012 70 10000 3.6 120 18:19 27.04.2020
4118 Clouds 29 1012 74 10000 3.6 120 17:54 27.04.2020
4119 Clouds 29 1012 74 10000 3.6 120 17:36 27.04.2020
4120 Clouds 29 1013 74 0 3.6 120 17:18 27.04.2020
4121 Clouds 29 1013 74 0 3.6 120 16:40 27.04.2020
4122 Clouds 29 1013 74 0 3.6 120 16:21 27.04.2020
4123 Clouds 29 1013 74 0 3.6 120 16:21 27.04.2020
4124 Clouds 29 1012 70 10000 3.1 120 15:56 27.04.2020
4125 Clouds 29 1012 70 10000 3.1 120 15:38 27.04.2020
4126 Clouds 29 1012 70 10000 3.1 120 15:38 27.04.2020
4127 Clouds 29 1012 70 10000 3.1 120 15:18 27.04.2020
4128 Clouds 30 1012 66 10000 4.1 120 14:42 27.04.2020
4129 Clouds 30 1012 66 10000 4.1 120 14:23 27.04.2020
4130 Clouds 30 1011 74 10000 3.6 130 13:59 27.04.2020
4131 Clouds 30 1011 74 10000 3.6 130 13:41 27.04.2020
4132 Clouds 30 1011 74 10000 3.6 130 13:20 27.04.2020
4133 Clouds 31 1010 66 10000 4.6 120 12:56 27.04.2020
4134 Clouds 31 1010 66 10000 4.6 120 12:38 27.04.2020
4135 Clouds 31 1010 66 10000 4.6 120 12:19 27.04.2020
4136 Clouds 31 1010 70 10000 4.6 120 11:41 27.04.2020
4137 Clouds 31 1010 70 10000 4.6 120 11:19 27.04.2020
4138 Clouds 31 1009 62 10000 5.7 130 10:57 27.04.2020
4139 Clouds 31 1009 62 10000 5.7 130 10:38 27.04.2020
4140 Clouds 32 1009 62 10000 5.7 130 10:19 27.04.2020
4141 Clouds 32 1010 62 10000 5.7 120 09:43 27.04.2020
4142 Clouds 32 1010 62 10000 5.7 120 09:43 27.04.2020
4143 Clouds 32 1010 62 10000 5.7 120 09:19 27.04.2020
4144 Clouds 33 1010 59 10000 5.7 130 08:57 27.04.2020
4145 Clouds 33 1010 59 10000 5.7 130 08:38 27.04.2020
4146 Clouds 33 1010 59 10000 5.7 130 08:19 27.04.2020
4147 Clouds 34 1010 56 10000 4.1 140 07:44 27.04.2020
4148 Clouds 34 1010 56 10000 4.1 140 07:20 27.04.2020
4149 Clouds 33 1012 56 10000 2.6 0 06:44 27.04.2020
4150 Clouds 34 1012 56 10000 2.6 0 06:24 27.04.2020
4151 Clouds 33 1012 56 10000 2.1 0 05:49 27.04.2020
4152 Clouds 33 1012 59 10000 2.1 0 04:41 27.04.2020
4153 Clouds 33 1013 55 10000 1 0 03:49 27.04.2020
4154 Clouds 31 1013 62 10000 1 0 02:42 27.04.2020
4155 Clouds 30 1012 70 9000 1 0 01:31 27.04.2020
4156 Clouds 28 1011 74 10000 0.5 0 00:47 27.04.2020
4157 Clouds 27 1011 74 10000 0.5 0 00:19 27.04.2020
4158 Clouds 27 1011 78 10000 1 0 23:55 26.04.2020
4159 Clouds 27 1011 78 10000 1 0 23:37 26.04.2020
4160 Clouds 27 1011 78 10000 1 0 23:18 26.04.2020
4161 Clouds 27 1011 69 10000 0.5 0 22:55 26.04.2020
4162 Clouds 27 1011 69 10000 0.5 0 22:37 26.04.2020
4163 Clouds 27 1011 69 10000 0.5 0 22:18 26.04.2020
4164 Clouds 27 1011 74 10000 2.17 61 21:56 26.04.2020
4165 Clouds 27 1011 74 10000 2.2 73 21:37 26.04.2020
4166 Clouds 27 1011 74 10000 2.1 100 21:18 26.04.2020
4167 Clouds 28 1011 74 10000 2.1 100 20:39 26.04.2020
4168 Clouds 28 1011 74 10000 2.1 100 20:20 26.04.2020
4169 Clouds 28 1012 69 10000 2.6 70 19:59 26.04.2020
4170 Clouds 28 1012 69 10000 2.6 70 19:38 26.04.2020
4171 Clouds 28 1012 69 10000 2.6 70 19:19 26.04.2020
4172 Clouds 29 1012 70 10000 2.6 120 18:44 26.04.2020
4173 Clouds 29 1012 70 10000 2.6 120 18:25 26.04.2020
4174 Clouds 29 1013 70 10000 1.5 120 17:57 26.04.2020
4175 Clouds 29 1013 70 10000 1.5 120 17:39 26.04.2020
4176 Clouds 29 1013 70 10000 1.5 120 17:19 26.04.2020
4177 Clouds 29 1016 70 10000 3.1 110 16:42 26.04.2020
4178 Clouds 29 1016 70 10000 3.1 110 16:23 26.04.2020
4179 Clouds 29 1012 66 10000 2.6 120 15:59 26.04.2020
4180 Clouds 29 1012 66 10000 2.6 120 15:40 26.04.2020
4181 Clouds 29 1012 66 10000 2.6 120 15:21 26.04.2020
4182 Clouds 30 1011 70 10000 1.5 120 14:57 26.04.2020
4183 Clouds 30 1011 70 10000 1.5 120 14:38 26.04.2020
4184 Clouds 30 1011 70 10000 1.5 120 14:18 26.04.2020
4185 Clouds 31 1011 62 10000 3.1 100 13:54 26.04.2020
4186 Clouds 31 1011 62 10000 3.1 100 13:36 26.04.2020
4187 Clouds 32 1010 49 10000 4.1 110 13:18 26.04.2020
4188 Clouds 32 1010 49 10000 4.1 110 12:40 26.04.2020
4189 Clouds 32 1010 49 10000 4.1 110 12:21 26.04.2020
4190 Clouds 33 1009 59 10000 6.2 120 11:59 26.04.2020
4191 Clouds 33 1009 59 10000 6.2 120 11:40 26.04.2020
4192 Clouds 33 1009 59 10000 6.2 120 11:21 26.04.2020
4193 Clouds 33 1008 69 0 0.45 177 10:56 26.04.2020
4194 Clouds 33 1008 69 0 0.45 177 10:56 26.04.2020
4195 Clouds 34 1009 53 10000 5.1 130 10:37 26.04.2020
4196 Clouds 34 1009 53 10000 5.1 130 10:18 26.04.2020
4197 Clouds 34 1009 53 10000 5.1 130 09:40 26.04.2020
4198 Clouds 34 1009 53 10000 5.1 130 09:21 26.04.2020
4199 Clouds 33 1010 56 10000 6.2 120 08:56 26.04.2020
4200 Clouds 33 1010 56 10000 6.2 120 08:37 26.04.2020
4201 Clouds 33 1010 56 10000 6.2 120 08:18 26.04.2020
4202 Clouds 34 1009 52 10000 6.2 120 07:46 26.04.2020
4203 Clouds 34 1009 52 10000 6.2 120 07:21 26.04.2020
4204 Clouds 33 1011 56 10000 4.6 140 06:43 26.04.2020
4205 Clouds 33 1012 63 10000 4.1 140 05:57 26.04.2020
4206 Clouds 33 1012 63 10000 4.1 140 05:38 26.04.2020
4207 Clouds 32 1013 66 10000 2.6 0 04:56 26.04.2020
4208 Clouds 31 1013 66 10000 2.6 0 04:22 26.04.2020
4209 Clouds 31 1013 62 10000 1.5 0 02:51 26.04.2020
4210 Clouds 31 1013 62 10000 1.5 0 02:31 26.04.2020
4211 Clouds 30 1012 70 10000 2.1 90 01:46 26.04.2020
4212 Clouds 30 1012 70 10000 2.1 90 01:26 26.04.2020
4213 Clouds 28 1012 78 10000 1 0 00:39 26.04.2020
4214 Clouds 28 1012 78 10000 1 0 00:19 26.04.2020
4215 Clouds 28 1011 78 10000 1 0 23:39 25.04.2020
4216 Clouds 28 1011 78 10000 1 0 23:20 25.04.2020
4217 Clouds 28 1011 78 10000 1.5 70 22:58 25.04.2020
4218 Clouds 28 1011 78 10000 1.5 70 22:39 25.04.2020
4219 Clouds 28 1011 78 10000 1.5 70 22:19 25.04.2020
4220 Clouds 28 1011 78 10000 1.5 70 22:19 25.04.2020
4221 Clouds 28 1011 74 10000 1 0 21:40 25.04.2020
4222 Clouds 28 1011 74 10000 1 0 21:20 25.04.2020
4223 Clouds 28 1011 74 10000 3.1 90 20:58 25.04.2020
4224 Clouds 29 1011 74 10000 3.1 90 20:40 25.04.2020
4225 Clouds 29 1011 74 10000 3.1 90 20:21 25.04.2020
4226 Clouds 29 1012 74 10000 2.6 120 19:42 25.04.2020
4227 Clouds 29 1012 74 10000 2.6 120 19:23 25.04.2020
4228 Clouds 29 1012 74 10000 3.6 110 18:59 25.04.2020
4229 Clouds 29 1012 74 10000 3.6 110 18:39 25.04.2020
4230 Clouds 29 1012 74 10000 3.6 110 18:21 25.04.2020
4231 Clouds 29 1012 74 10000 2.6 110 17:58 25.04.2020
4232 Clouds 29 1012 74 10000 2.6 110 17:58 25.04.2020
4233 Clouds 29 1012 74 10000 2.6 110 17:38 25.04.2020
4234 Clouds 29 1012 74 10000 2.6 110 17:19 25.04.2020
4235 Clouds 29 1012 66 10000 1.5 0 16:55 25.04.2020
4236 Clouds 29 1012 66 10000 1.5 0 16:37 25.04.2020
4237 Clouds 30 1011 62 10000 2.6 100 16:18 25.04.2020
4238 Clouds 30 1011 62 10000 2.6 100 15:40 25.04.2020
4239 Clouds 30 1011 62 10000 2.6 100 15:19 25.04.2020
4240 Clouds 30 1012 62 10000 2.6 100 14:58 25.04.2020
4241 Clouds 30 1012 62 10000 2.6 100 14:38 25.04.2020
4242 Clouds 30 1012 62 10000 2.6 100 14:20 25.04.2020
4243 Clouds 30 1011 66 10000 4.1 100 13:43 25.04.2020
4244 Clouds 30 1011 66 10000 4.1 100 13:19 25.04.2020
4245 Clouds 31 1010 62 10000 3.6 120 12:58 25.04.2020
4246 Clouds 31 1010 62 10000 3.6 120 12:40 25.04.2020
4247 Clouds 31 1010 62 10000 3.6 120 12:20 25.04.2020
4248 Clouds 32 1009 59 10000 5.1 130 11:56 25.04.2020
4249 Clouds 32 1009 59 10000 5.1 130 11:38 25.04.2020
4250 Clouds 32 1009 59 10000 5.1 130 11:20 25.04.2020
4251 Clouds 33 1009 52 10000 5.7 120 10:43 25.04.2020
4252 Clouds 34 1009 52 10000 5.7 120 10:23 25.04.2020
4253 Clouds 34 1008 50 10000 5.1 130 09:48 25.04.2020
4254 Clouds 35 1008 50 10000 5.1 130 09:29 25.04.2020
4255 Clouds 35 1009 50 10000 5.1 130 08:58 25.04.2020
4256 Clouds 35 1009 50 10000 5.1 130 08:39 25.04.2020
4257 Clouds 35 1009 50 10000 5.1 130 08:21 25.04.2020
4258 Clouds 35 1010 50 10000 6.83 106 07:58 25.04.2020
4259 Clouds 34 1010 50 10000 6.83 106 07:39 25.04.2020
4260 Clouds 35 1011 53 10000 3.1 110 06:47 25.04.2020
4261 Clouds 34 1011 53 10000 3.1 110 06:28 25.04.2020
4262 Clouds 33 1012 56 10000 4.1 100 05:40 25.04.2020
4263 Clouds 34 1012 56 10000 4.1 100 05:18 25.04.2020
4264 Clouds 31 1012 66 10000 3.1 120 02:59 25.04.2020
4265 Clouds 31 1012 66 10000 3.1 120 02:21 25.04.2020
4266 Clouds 30 1011 66 10000 2.6 110 01:53 25.04.2020
4267 Clouds 30 1011 66 10000 2.6 110 01:34 25.04.2020
4268 Clouds 28 1011 69 10000 2.1 90 00:55 25.04.2020
4269 Clouds 28 1011 69 10000 2.1 90 00:32 25.04.2020
4270 Clouds 27 1010 74 10000 1 60 23:45 24.04.2020
4271 Clouds 27 1010 74 10000 1 60 23:24 24.04.2020
4272 Clouds 27 1010 69 10000 0.5 0 22:58 24.04.2020
4273 Clouds 27 1010 69 10000 0.5 0 22:38 24.04.2020
4274 Clouds 27 1010 69 10000 0.5 0 22:19 24.04.2020
4275 Clouds 27 1010 69 10000 0.5 0 22:19 24.04.2020
4276 Clouds 27 1010 65 10000 1.5 20 21:55 24.04.2020
4277 Clouds 27 1010 65 10000 1.5 20 21:36 24.04.2020
4278 Clouds 27 1010 65 10000 1.5 20 21:18 24.04.2020
4279 Clouds 27 1011 69 10000 2.1 70 20:55 24.04.2020
4280 Clouds 28 1011 69 10000 2.1 70 20:36 24.04.2020
4281 Clouds 28 1011 69 10000 2.6 80 20:18 24.04.2020
4282 Clouds 28 1011 69 10000 2.6 80 19:40 24.04.2020
4283 Clouds 28 1011 69 10000 2.6 80 19:21 24.04.2020
4284 Clouds 29 1012 70 10000 2.6 120 18:44 24.04.2020
4285 Clouds 29 1012 70 10000 2.6 120 18:26 24.04.2020
4286 Clouds 29 1012 66 10000 3.6 110 17:55 24.04.2020
4287 Clouds 29 1012 66 10000 3.6 110 17:37 24.04.2020
4288 Clouds 29 1012 66 10000 3.6 110 17:19 24.04.2020
4289 Clouds 30 1012 62 10000 3.1 110 16:57 24.04.2020
4290 Clouds 30 1012 62 10000 3.1 110 16:38 24.04.2020
4291 Clouds 30 1012 62 10000 3.1 110 16:20 24.04.2020
4292 Clouds 30 1011 66 10000 2.6 130 15:42 24.04.2020
4293 Clouds 30 1011 66 10000 2.6 130 15:21 24.04.2020
4294 Clouds 31 1010 62 10000 7.7 110 14:41 24.04.2020
4295 Clouds 31 1010 62 10000 7.7 110 14:23 24.04.2020
4296 Clouds 31 1010 62 10000 4.1 110 13:59 24.04.2020
4297 Clouds 31 1010 62 10000 4.1 110 13:41 24.04.2020
4298 Clouds 31 1010 62 10000 4.1 110 13:21 24.04.2020
4299 Clouds 32 1009 59 10000 4.1 120 12:57 24.04.2020
4300 Clouds 32 1009 59 10000 4.1 120 12:39 24.04.2020
4301 Clouds 32 1009 59 10000 4.1 120 12:19 24.04.2020
4302 Clouds 33 1009 55 10000 4.1 130 11:43 24.04.2020
4303 Clouds 33 1009 55 10000 4.1 130 11:21 24.04.2020
4304 Clouds 34 1008 47 10000 5.7 120 10:57 24.04.2020
4305 Clouds 34 1008 47 10000 5.7 120 10:38 24.04.2020
4306 Clouds 35 1008 47 10000 5.7 120 10:19 24.04.2020
4307 Clouds 35 1008 47 10000 5.1 130 09:54 24.04.2020
4308 Clouds 35 1008 47 10000 5.1 130 09:36 24.04.2020
4309 Clouds 35 1009 50 10000 5.7 130 09:18 24.04.2020
4310 Clouds 35 1009 50 10000 5.7 130 08:41 24.04.2020
4311 Clouds 35 1009 50 10000 5.7 130 08:19 24.04.2020
4312 Clouds 35 1009 47 10000 5.7 130 07:47 24.04.2020
4313 Clouds 35 1009 47 10000 5.7 130 07:27 24.04.2020
4314 Clouds 35 1011 47 10000 5.7 130 06:59 24.04.2020
4315 Clouds 35 1011 47 10000 5.7 130 06:40 24.04.2020
4316 Clouds 34 1011 49 10000 4.6 130 05:49 24.04.2020
4317 Clouds 34 1012 49 10000 5.1 110 04:46 24.04.2020
4318 Clouds 32 1012 59 10000 4.1 0 03:27 24.04.2020
4319 Clouds 31 1011 66 10000 4.1 120 02:44 24.04.2020
4320 Clouds 31 1011 66 10000 4.1 120 02:20 24.04.2020
4321 Clouds 30 1011 70 10000 3.6 110 01:37 24.04.2020
4322 Clouds 28 1011 74 10000 3.6 0 00:43 24.04.2020
4323 Clouds 28 1011 74 10000 3.6 0 00:18 24.04.2020
4324 Clouds 28 1010 78 10000 3.6 110 23:44 23.04.2020
4325 Clouds 28 1010 78 10000 3.6 110 23:26 23.04.2020
4326 Clouds 28 1010 78 10000 2.1 100 22:55 23.04.2020
4327 Clouds 28 1010 78 10000 2.1 100 22:37 23.04.2020
4328 Clouds 28 1010 78 10000 2.1 100 22:19 23.04.2020
4329 Clouds 28 1010 70 10000 3.6 110 21:56 23.04.2020
4330 Clouds 28 1010 70 10000 3.6 110 21:38 23.04.2020
4331 Clouds 29 1010 70 10000 3.6 110 21:20 23.04.2020
4332 Clouds 28 1010 74 10000 3.6 120 20:54 23.04.2020
4333 Clouds 28 1010 74 10000 3.6 120 20:36 23.04.2020
4334 Clouds 28 1010 74 10000 3.6 120 20:18 23.04.2020
4335 Clouds 29 1010 74 10000 3.6 120 19:41 23.04.2020
4336 Clouds 29 1010 74 10000 3.6 120 19:22 23.04.2020
4337 Clouds 29 1011 74 10000 3.1 120 18:57 23.04.2020
4338 Clouds 29 1011 74 10000 3.1 120 18:39 23.04.2020
4339 Clouds 29 1011 74 10000 3.1 120 18:21 23.04.2020
4340 Clouds 29 1011 74 10000 3.6 120 17:56 23.04.2020
4341 Clouds 29 1011 74 10000 3.6 120 17:37 23.04.2020
4342 Clouds 29 1011 74 10000 3.6 120 17:19 23.04.2020
4343 Clouds 29 1011 74 10000 3.6 120 16:43 23.04.2020
4344 Clouds 30 1011 74 10000 3.6 120 16:21 23.04.2020
4345 Clouds 30 1011 70 10000 3.6 120 15:43 23.04.2020
4346 Clouds 30 1011 70 10000 3.6 120 15:24 23.04.2020
4347 Clouds 30 1010 70 10000 3.6 140 14:59 23.04.2020
4348 Clouds 30 1010 70 10000 3.6 140 14:40 23.04.2020
4349 Clouds 30 1010 70 10000 3.6 140 14:21 23.04.2020
4350 Clouds 31 1009 66 10000 4.1 120 13:58 23.04.2020
4351 Clouds 31 1009 66 10000 4.1 120 13:38 23.04.2020
4352 Clouds 31 1009 66 10000 4.1 120 13:19 23.04.2020
4353 Clouds 32 1009 62 10000 4.6 120 12:55 23.04.2020
4354 Clouds 32 1009 62 10000 4.6 120 12:37 23.04.2020
4355 Clouds 32 1009 62 10000 4.6 120 12:19 23.04.2020
4356 Clouds 32 1008 66 10000 4.1 0 11:44 23.04.2020
4357 Clouds 32 1008 66 10000 4.1 0 11:26 23.04.2020
4358 Clouds 33 1008 59 10000 5.7 130 10:56 23.04.2020
4359 Clouds 33 1008 59 10000 5.7 130 10:56 23.04.2020
4360 Clouds 34 1008 59 10000 5.7 130 10:38 23.04.2020
4361 Clouds 34 1008 53 10000 5.1 140 10:19 23.04.2020
4362 Clouds 34 1008 53 10000 5.1 140 09:37 23.04.2020
4363 Clouds 34 1008 53 10000 5.1 140 09:18 23.04.2020
4364 Clouds 35 1009 53 10000 4.1 140 08:46 23.04.2020
4365 Clouds 35 1009 53 10000 4.1 140 08:27 23.04.2020
4366 Clouds 35 1010 53 10000 4.6 130 07:44 23.04.2020
4367 Clouds 35 1010 53 10000 4.6 130 07:24 23.04.2020
4368 Clouds 35 1011 53 10000 3.6 140 06:50 23.04.2020
4369 Clouds 35 1011 53 10000 3.6 140 06:28 23.04.2020
4370 Clouds 34 1012 56 10000 3.6 130 05:31 23.04.2020
4371 Clouds 34 1013 56 10000 2.1 0 04:54 23.04.2020
4372 Clouds 31 1013 66 10000 2.1 130 02:25 23.04.2020
4373 Clouds 29 1012 66 10000 2.1 100 01:55 23.04.2020
4374 Clouds 29 1012 66 10000 2.1 100 01:33 23.04.2020
4375 Clouds 29 1012 74 10000 2.1 100 00:47 23.04.2020
4376 Clouds 29 1012 74 10000 2.1 100 00:24 23.04.2020
4377 Clouds 29 1011 70 10000 2.6 100 23:50 22.04.2020
4378 Clouds 29 1011 70 10000 2.6 100 23:25 22.04.2020
4379 Clouds 29 1011 70 10000 3.1 130 22:58 22.04.2020
4380 Clouds 29 1011 70 10000 3.1 130 22:38 22.04.2020
4381 Clouds 29 1011 70 10000 3.1 130 22:19 22.04.2020
4382 Clouds 29 1011 66 10000 4.6 110 21:56 22.04.2020
4383 Clouds 29 1011 66 10000 4.6 110 21:38 22.04.2020
4384 Clouds 29 1011 66 10000 4.6 110 21:19 22.04.2020
4385 Clouds 29 1012 66 10000 2.6 120 20:43 22.04.2020
4386 Clouds 29 1012 66 10000 2.6 120 20:20 22.04.2020
4387 Clouds 29 1012 66 10000 2.6 130 19:58 22.04.2020
4388 Clouds 29 1012 66 10000 2.6 130 19:40 22.04.2020
4389 Clouds 29 1012 66 10000 2.6 130 19:19 22.04.2020
4390 Clouds 29 1012 62 10000 3.6 110 19:00 22.04.2020
4391 Clouds 29 1012 62 10000 3.6 110 18:41 22.04.2020
4392 Clouds 29 1012 62 10000 3.6 110 18:22 22.04.2020
4393 Clouds 29 1012 66 10000 3.6 130 17:58 22.04.2020
4394 Clouds 29 1012 66 10000 3.6 130 17:39 22.04.2020
4395 Clouds 29 1011 70 10000 2.6 0 17:21 22.04.2020
4396 Clouds 30 1011 70 10000 2.6 0 16:46 22.04.2020
4397 Clouds 30 1011 70 10000 2.6 0 16:28 22.04.2020
4398 Clouds 30 1011 70 10000 3.6 150 15:54 22.04.2020
4399 Clouds 30 1011 70 10000 3.6 150 15:36 22.04.2020
4400 Clouds 30 1010 62 10000 3.6 130 15:18 22.04.2020
4401 Clouds 31 1010 62 10000 3.6 130 14:41 22.04.2020
4402 Clouds 31 1010 62 10000 3.6 130 14:21 22.04.2020
4403 Clouds 31 1010 62 10000 4.1 120 13:59 22.04.2020
4404 Clouds 31 1010 62 10000 4.1 120 13:40 22.04.2020
4405 Clouds 31 1009 59 10000 5.1 110 13:19 22.04.2020
4406 Clouds 32 1009 59 10000 5.1 110 12:42 22.04.2020
4407 Clouds 32 1009 59 10000 5.1 110 12:23 22.04.2020
4408 Clouds 32 1008 59 10000 6.2 120 11:57 22.04.2020
4409 Clouds 33 1008 59 10000 6.2 120 11:36 22.04.2020
4410 Clouds 33 1008 59 10000 6.2 120 11:18 22.04.2020
4411 Clouds 34 1008 56 10000 6.2 130 10:41 22.04.2020
4412 Clouds 34 1008 56 10000 6.2 130 10:21 22.04.2020
4413 Clouds 34 1008 56 10000 5.7 130 09:42 22.04.2020
4414 Clouds 35 1008 56 10000 5.7 130 09:23 22.04.2020
4415 Clouds 35 1009 53 10000 4.6 0 08:59 22.04.2020
4416 Clouds 35 1009 53 10000 4.6 0 08:41 22.04.2020
4417 Clouds 35 1009 53 10000 4.6 0 08:22 22.04.2020
4418 Clouds 35 1010 56 10000 6.2 130 07:53 22.04.2020
4419 Clouds 35 1010 56 10000 6.2 130 07:33 22.04.2020
4420 Clouds 34 1011 59 10000 4.6 130 06:53 22.04.2020
4421 Clouds 34 1011 59 10000 4.6 130 06:23 22.04.2020
4422 Clouds 34 1012 59 10000 2.1 0 05:38 22.04.2020
4423 Clouds 33 1012 59 10000 3.1 0 04:34 22.04.2020
4424 Clouds 31 1012 62 10000 1.5 240 02:59 22.04.2020
4425 Clouds 31 1012 66 10000 1 0 01:55 22.04.2020
4426 Clouds 30 1012 66 10000 1 0 01:28 22.04.2020
4427 Clouds 28 1011 74 10000 1 0 00:59 22.04.2020
4428 Clouds 28 1011 74 10000 1 0 00:41 22.04.2020
4429 Clouds 28 1011 74 10000 1 0 00:19 22.04.2020
4430 Clouds 28 1011 69 10000 1.96 88 23:41 21.04.2020
4431 Clouds 28 1011 69 10000 1.96 88 23:19 21.04.2020
4432 Clouds 28 1010 69 10000 1 0 22:40 21.04.2020
4433 Clouds 28 1010 69 10000 1 0 22:22 21.04.2020
4434 Clouds 28 1010 66 10000 2.1 130 21:59 21.04.2020
4435 Clouds 28 1010 66 10000 2.1 130 21:41 21.04.2020
4436 Clouds 28 1010 66 10000 2.1 130 21:22 21.04.2020
4437 Clouds 28 1010 66 10000 3.1 110 20:56 21.04.2020
4438 Clouds 28 1010 66 10000 3.1 110 20:38 21.04.2020
4439 Clouds 29 1010 66 10000 3.1 110 20:20 21.04.2020
4440 Clouds 29 1011 58 10000 3.6 110 19:41 21.04.2020
4441 Clouds 29 1011 58 10000 3.6 110 19:20 21.04.2020
4442 Clouds 29 1011 66 10000 3.1 130 18:58 21.04.2020
4443 Clouds 29 1011 66 10000 3.1 130 18:39 21.04.2020
4444 Clouds 29 1011 66 10000 3.1 130 18:19 21.04.2020
4445 Clouds 30 1012 66 10000 3.1 130 17:55 21.04.2020
4446 Clouds 30 1012 66 10000 3.1 130 17:37 21.04.2020
4447 Clouds 30 1012 66 10000 3.1 130 17:37 21.04.2020
4448 Clouds 30 1012 66 10000 3.1 130 17:18 21.04.2020
4449 Clouds 30 1012 66 10000 3.1 130 16:39 21.04.2020
4450 Clouds 30 1012 66 10000 3.1 130 16:19 21.04.2020
4451 Clouds 30 1012 66 10000 3.1 130 16:19 21.04.2020
4452 Clouds 30 1011 70 10000 3.1 130 15:57 21.04.2020
4453 Clouds 30 1011 70 10000 3.1 130 15:39 21.04.2020
4454 Clouds 30 1011 70 10000 3.1 130 15:21 21.04.2020
4455 Clouds 31 1010 66 10000 3.6 130 14:57 21.04.2020
4456 Clouds 31 1010 66 10000 3.6 130 14:57 21.04.2020
4457 Clouds 31 1010 66 10000 3.6 130 14:39 21.04.2020
4458 Clouds 31 1010 66 10000 3.6 130 14:20 21.04.2020
4459 Clouds 31 1010 66 10000 4.1 120 13:40 21.04.2020
4460 Clouds 31 1010 66 10000 4.1 120 13:22 21.04.2020
4461 Clouds 32 1009 62 10000 3.6 120 12:55 21.04.2020
4462 Clouds 32 1009 62 10000 3.6 120 12:36 21.04.2020
4463 Clouds 33 1009 52 10000 5.1 110 12:18 21.04.2020
4464 Clouds 33 1009 52 10000 5.1 110 11:55 21.04.2020
4465 Clouds 33 1009 52 10000 5.1 110 11:55 21.04.2020
4466 Clouds 34 1009 52 10000 5.1 110 11:36 21.04.2020
4467 Clouds 34 1008 49 10000 9.8 130 11:18 21.04.2020
4468 Clouds 34 1008 49 10000 9.8 130 10:55 21.04.2020
4469 Clouds 34 1008 49 10000 9.8 130 10:36 21.04.2020
4470 Clouds 34 1008 49 10000 9.8 130 10:36 21.04.2020
4471 Clouds 35 1009 47 10000 4.1 130 10:18 21.04.2020
4472 Clouds 35 1009 47 10000 4.1 130 09:37 21.04.2020
4473 Clouds 35 1009 47 10000 4.1 130 09:18 21.04.2020
4474 Clouds 35 1009 44 10000 4.1 130 08:55 21.04.2020
4475 Clouds 36 1009 44 10000 4.1 130 08:37 21.04.2020
4476 Clouds 35 1010 47 10000 4.6 130 08:18 21.04.2020
4477 Clouds 35 1010 47 10000 4.6 130 07:43 21.04.2020
4478 Clouds 35 1010 47 10000 4.6 130 07:20 21.04.2020
4479 Clouds 35 1011 47 10000 4.6 140 06:44 21.04.2020
4480 Clouds 34 1011 47 10000 4.6 140 06:19 21.04.2020
4481 Clouds 34 1012 49 10000 4.6 130 05:45 21.04.2020
4482 Clouds 33 1013 55 10000 4.1 90 03:48 21.04.2020
4483 Clouds 32 1013 55 10000 4.1 90 03:27 21.04.2020
4484 Clouds 30 1012 70 10000 3.1 120 01:40 21.04.2020
4485 Clouds 28 1012 74 10000 3.6 120 00:52 21.04.2020
4486 Clouds 28 1012 74 10000 3.6 120 00:31 21.04.2020
4487 Clouds 28 1011 74 10000 3.1 110 23:44 20.04.2020
4488 Clouds 28 1011 74 10000 3.1 110 23:23 20.04.2020
4489 Clouds 28 1011 74 10000 2.1 120 22:57 20.04.2020
4490 Clouds 28 1011 74 10000 2.1 120 22:38 20.04.2020
4491 Clouds 28 1011 74 10000 2.1 120 22:19 20.04.2020
4492 Clouds 28 1011 74 10000 2.1 120 22:19 20.04.2020
4493 Clouds 28 1011 74 10000 2.1 100 21:55 20.04.2020
4494 Clouds 28 1011 74 10000 2.1 100 21:37 20.04.2020
4495 Clouds 28 1011 74 10000 2.1 100 21:19 20.04.2020
4496 Clouds 28 1011 70 10000 2.6 120 20:56 20.04.2020
4497 Clouds 28 1011 70 10000 2.6 120 20:37 20.04.2020
4498 Clouds 28 1011 70 10000 2.6 110 20:18 20.04.2020
4499 Clouds 29 1011 70 10000 2.6 110 19:41 20.04.2020
4500 Clouds 29 1011 70 10000 2.6 110 19:23 20.04.2020
4501 Clouds 29 1012 70 10000 3.1 110 18:59 20.04.2020
4502 Clouds 29 1012 70 10000 3.1 110 18:41 20.04.2020
4503 Clouds 29 1012 70 10000 3.1 110 18:21 20.04.2020
4504 Clouds 29 1012 70 10000 3.6 130 17:55 20.04.2020
4505 Clouds 29 1012 70 10000 3.6 130 17:37 20.04.2020
4506 Clouds 29 1012 70 10000 3.1 140 17:19 20.04.2020
4507 Clouds 30 1012 70 10000 3.1 140 16:43 20.04.2020
4508 Clouds 30 1012 70 10000 3.1 140 16:21 20.04.2020
4509 Clouds 30 1012 70 10000 4.1 0 15:57 20.04.2020
4510 Clouds 30 1012 70 10000 4.1 0 15:39 20.04.2020
4511 Clouds 30 1012 70 10000 4.1 0 15:20 20.04.2020
4512 Clouds 31 1011 66 10000 2.6 0 14:42 20.04.2020
4513 Clouds 31 1011 66 10000 2.6 0 14:20 20.04.2020
4514 Clouds 31 1011 59 10000 4.6 130 13:59 20.04.2020
4515 Clouds 32 1011 59 10000 4.6 130 13:39 20.04.2020
4516 Clouds 32 1011 59 10000 4.6 130 13:20 20.04.2020
4517 Clouds 32 1010 62 10000 3.6 0 12:44 20.04.2020
4518 Clouds 32 1010 62 10000 3.6 0 12:24 20.04.2020
4519 Clouds 33 1009 56 10000 4.1 120 11:58 20.04.2020
4520 Clouds 34 1009 56 10000 4.1 120 11:38 20.04.2020
4521 Clouds 34 1009 56 10000 4.1 120 11:19 20.04.2020
4522 Clouds 34 1009 52 10000 5.7 110 10:55 20.04.2020
4523 Clouds 34 1009 52 10000 5.7 110 10:36 20.04.2020
4524 Clouds 34 1009 52 10000 5.7 110 10:18 20.04.2020
4525 Clouds 35 1010 50 10000 4.6 130 09:44 20.04.2020
4526 Clouds 35 1010 50 10000 4.6 130 09:25 20.04.2020
4527 Clouds 35 1011 52 10000 3.6 0 08:58 20.04.2020
4528 Clouds 35 1011 52 10000 3.6 0 08:40 20.04.2020
4529 Clouds 35 1011 52 10000 3.6 0 08:18 20.04.2020
4530 Clouds 35 1011 53 10000 4.1 150 07:52 20.04.2020
4531 Clouds 35 1011 53 10000 4.1 150 07:28 20.04.2020
4532 Clouds 35 1012 53 10000 4.1 130 06:54 20.04.2020
4533 Clouds 34 1012 53 10000 4.1 130 06:35 20.04.2020
4534 Clouds 34 1013 56 10000 3.1 0 05:25 20.04.2020
4535 Clouds 33 1014 52 10000 1.5 0 03:30 20.04.2020
4536 Clouds 31 1014 62 10000 1 0 02:38 20.04.2020
4537 Clouds 30 1013 66 10000 2.1 60 01:31 20.04.2020
4538 Clouds 27 1012 74 10000 1.5 60 00:57 20.04.2020
4539 Clouds 26 1012 74 10000 1.5 60 00:27 20.04.2020
4540 Clouds 27 1012 74 10000 2.1 50 23:54 19.04.2020
4541 Clouds 27 1012 74 10000 2.1 50 23:36 19.04.2020
4542 Clouds 27 1011 69 10000 1 0 23:18 19.04.2020
4543 Clouds 27 1011 69 10000 1 0 22:39 19.04.2020
4544 Clouds 27 1011 69 10000 1 0 22:21 19.04.2020
4545 Clouds 28 1011 69 10000 1.5 130 21:55 19.04.2020
4546 Clouds 28 1011 69 10000 1.5 130 21:37 19.04.2020
4547 Clouds 28 1012 66 10000 3.1 120 21:18 19.04.2020
4548 Clouds 28 1012 66 10000 3.1 120 20:41 19.04.2020
4549 Clouds 28 1012 66 10000 3.1 120 20:21 19.04.2020
4550 Clouds 28 1012 66 10000 3.1 110 19:58 19.04.2020
4551 Clouds 29 1012 66 10000 3.1 110 19:39 19.04.2020
4552 Clouds 29 1012 66 10000 3.1 110 19:21 19.04.2020
4553 Clouds 29 1012 66 10000 3.6 130 18:58 19.04.2020
4554 Clouds 29 1012 66 10000 3.6 130 18:39 19.04.2020
4555 Clouds 29 1012 66 10000 3.6 130 18:19 19.04.2020
4556 Clouds 29 1013 70 10000 4.1 120 17:56 19.04.2020
4557 Clouds 29 1013 70 10000 4.1 120 17:56 19.04.2020
4558 Clouds 29 1013 70 10000 4.1 120 17:38 19.04.2020
4559 Clouds 29 1013 70 10000 4.1 120 17:20 19.04.2020
4560 Clouds 29 1013 62 10000 4.1 130 16:54 19.04.2020
4561 Clouds 29 1013 62 10000 4.1 130 16:36 19.04.2020
4562 Clouds 29 1012 66 10000 4.1 120 16:18 19.04.2020
4563 Clouds 30 1012 66 10000 4.1 120 15:41 19.04.2020
4564 Clouds 30 1012 66 10000 4.1 120 15:20 19.04.2020
4565 Clouds 30 1012 66 10000 3.6 120 14:54 19.04.2020
4566 Clouds 30 1012 66 10000 3.6 120 14:36 19.04.2020
4567 Clouds 30 1011 62 10000 4.6 120 14:18 19.04.2020
4568 Clouds 31 1011 62 10000 4.6 120 13:38 19.04.2020
4569 Clouds 31 1011 62 10000 4.6 120 13:19 19.04.2020
4570 Clouds 32 1010 59 10000 4.6 120 12:49 19.04.2020
4571 Clouds 32 1010 59 10000 4.6 120 12:49 19.04.2020
4572 Clouds 32 1010 59 10000 4.6 120 12:25 19.04.2020
4573 Clouds 33 1009 55 10000 3.6 120 11:55 19.04.2020
4574 Clouds 33 1009 55 10000 3.6 120 11:37 19.04.2020
4575 Clouds 34 1009 52 10000 4.1 130 11:18 19.04.2020
4576 Clouds 34 1009 52 10000 4.1 130 10:55 19.04.2020
4577 Clouds 34 1009 52 10000 4.1 130 10:55 19.04.2020
4578 Clouds 34 1009 52 10000 4.1 130 10:37 19.04.2020
4579 Clouds 34 1009 47 10000 4.6 120 10:18 19.04.2020
4580 Clouds 34 1009 47 10000 4.6 120 09:43 19.04.2020
4581 Clouds 35 1009 47 10000 4.6 120 09:25 19.04.2020
4582 Clouds 35 1010 50 10000 4.6 90 08:40 19.04.2020
4583 Clouds 35 1010 50 10000 4.6 90 08:21 19.04.2020
4584 Clouds 34 1011 50 10000 4.6 0 07:56 19.04.2020
4585 Clouds 34 1011 50 10000 4.6 0 07:38 19.04.2020
4586 Clouds 34 1011 50 10000 4.6 0 07:19 19.04.2020
4587 Clouds 34 1012 52 10000 4.1 110 06:26 19.04.2020
4588 Clouds 33 1013 59 10000 4.6 110 05:35 19.04.2020
4589 Clouds 32 1013 66 10000 4.6 90 03:55 19.04.2020
4590 Clouds 31 1013 70 10000 3.1 100 02:50 19.04.2020
4591 Clouds 29 1013 74 10000 2.6 90 02:18 19.04.2020
4592 Clouds 28 1013 74 10000 2.6 90 01:26 19.04.2020
4593 Clouds 28 1012 74 10000 2.6 70 00:41 19.04.2020
4594 Clouds 28 1012 74 10000 2.6 70 00:41 19.04.2020
4595 Clouds 27 1012 74 10000 2.6 70 00:20 19.04.2020
4596 Clouds 27 1012 78 10000 2.1 80 23:44 18.04.2020
4597 Clouds 27 1012 78 10000 2.1 80 23:20 18.04.2020
4598 Clouds 27 1012 78 10000 2.1 50 22:55 18.04.2020
4599 Clouds 27 1012 78 10000 2.1 50 22:37 18.04.2020
4600 Clouds 27 1012 78 10000 2.1 50 22:19 18.04.2020
4601 Clouds 28 1012 74 10000 1.5 110 21:43 18.04.2020
4602 Clouds 28 1012 74 10000 1.5 110 21:22 18.04.2020
4603 Clouds 28 1012 74 10000 3.1 110 20:59 18.04.2020
4604 Clouds 28 1012 74 10000 3.1 110 20:40 18.04.2020
4605 Clouds 28 1012 74 10000 3.1 110 20:21 18.04.2020
4606 Clouds 28 1013 74 10000 2.6 130 19:43 18.04.2020
4607 Clouds 28 1013 74 10000 2.6 130 19:25 18.04.2020
4608 Clouds 28 1013 74 10000 3.6 120 18:58 18.04.2020
4609 Clouds 28 1013 74 10000 3.6 120 18:36 18.04.2020
4610 Clouds 28 1014 74 10000 3.6 110 18:18 18.04.2020
4611 Clouds 28 1014 74 10000 3.6 110 17:41 18.04.2020
4612 Clouds 29 1014 74 10000 3.6 110 17:21 18.04.2020
4613 Clouds 29 1014 70 10000 3.1 130 16:56 18.04.2020
4614 Clouds 29 1014 70 10000 3.1 130 16:36 18.04.2020
4615 Clouds 29 1014 70 10000 3.1 130 16:36 18.04.2020
4616 Thunderstorm 29 1013 70 10000 3.1 130 16:18 18.04.2020
4617 Thunderstorm 29 1013 70 10000 3.1 130 15:38 18.04.2020
4618 Thunderstorm 29 1013 70 10000 3.1 130 15:20 18.04.2020
4619 Clouds 30 1012 66 10000 2.6 130 14:44 18.04.2020
4620 Clouds 30 1012 66 10000 2.6 130 14:25 18.04.2020
4621 Clouds 30 1012 62 10000 2.6 110 13:54 18.04.2020
4622 Clouds 30 1012 62 10000 2.6 110 13:36 18.04.2020
4623 Clouds 30 1011 59 10000 4.6 100 13:18 18.04.2020
4624 Clouds 30 1011 59 10000 4.6 100 12:41 18.04.2020
4625 Clouds 32 1011 59 10000 4.6 100 12:22 18.04.2020
4626 Rain 33 1010 59 10000 4.6 90 11:43 18.04.2020
4627 Rain 33 1010 59 10000 4.6 90 11:23 18.04.2020
4628 Rain 34 1010 56 10000 4.1 120 10:57 18.04.2020
4629 Rain 34 1010 56 10000 4.1 120 10:37 18.04.2020
4630 Rain 33 1010 56 10000 4.1 120 10:18 18.04.2020
4631 Clouds 34 1010 53 10000 3.6 0 09:41 18.04.2020
4632 Clouds 34 1010 53 10000 3.6 0 09:23 18.04.2020
4633 Clouds 34 1011 50 10000 2.6 0 08:44 18.04.2020
4634 Clouds 34 1011 50 10000 2.6 0 08:25 18.04.2020
4635 Clouds 34 1013 50 10000 3.6 120 07:54 18.04.2020
4636 Clouds 34 1013 50 10000 3.6 120 07:34 18.04.2020
4637 Clouds 34 1013 55 10000 4.1 90 06:55 18.04.2020
4638 Clouds 34 1013 55 10000 4.1 90 06:19 18.04.2020
4639 Clouds 33 1014 62 10000 2.6 0 05:35 18.04.2020
4640 Clouds 33 1014 59 10000 3.1 100 04:46 18.04.2020
4641 Clouds 32 1014 59 10000 3.1 100 04:24 18.04.2020
4642 Clouds 30 1014 70 10000 2.6 70 02:47 18.04.2020
4643 Clouds 29 1014 70 10000 2.6 70 02:22 18.04.2020
4644 Clouds 28 1014 78 10000 3.1 70 01:53 18.04.2020
4645 Clouds 28 1014 78 10000 3.1 70 01:33 18.04.2020
4646 Clouds 27 1013 78 10000 1 110 00:41 18.04.2020
4647 Clouds 27 1013 78 10000 1 110 00:20 18.04.2020
4648 Clouds 27 1012 78 10000 2.1 120 23:55 17.04.2020
4649 Clouds 28 1012 78 10000 2.1 120 23:36 17.04.2020
4650 Clouds 28 1012 78 10000 2.1 120 23:18 17.04.2020
4651 Clouds 28 1012 78 10000 2.1 120 22:54 17.04.2020
4652 Clouds 28 1012 78 10000 2.1 120 22:36 17.04.2020
4653 Clouds 28 1012 70 10000 3.1 120 22:18 17.04.2020
4654 Clouds 28 1012 70 10000 3.1 120 21:41 17.04.2020
4655 Clouds 28 1012 70 10000 3.1 120 21:21 17.04.2020
4656 Clouds 28 1012 70 10000 2.6 120 20:56 17.04.2020
4657 Clouds 28 1012 70 10000 2.6 120 20:37 17.04.2020
4658 Clouds 28 1012 70 10000 2.6 120 20:18 17.04.2020
4659 Clouds 28 1012 72 10000 3.6 120 19:56 17.04.2020
4660 Clouds 28 1012 72 10000 3.6 120 19:38 17.04.2020
4661 Clouds 28 1012 72 10000 3.6 120 19:19 17.04.2020
4662 Clouds 29 1013 74 10000 4.1 130 18:42 17.04.2020
4663 Clouds 29 1013 74 10000 4.1 130 18:22 17.04.2020
4664 Clouds 29 1013 70 10000 3.1 130 17:38 17.04.2020
4665 Clouds 29 1013 70 10000 3.1 130 17:20 17.04.2020
4666 Clouds 29 1013 74 10000 3.1 120 16:59 17.04.2020
4667 Clouds 29 1013 74 10000 3.1 120 16:41 17.04.2020
4668 Clouds 29 1013 74 10000 3.1 120 16:22 17.04.2020
4669 Clouds 29 1013 70 10000 2.6 140 15:40 17.04.2020
4670 Clouds 29 1013 70 10000 2.6 140 15:22 17.04.2020
4671 Clouds 29 1012 66 10000 4.1 80 14:55 17.04.2020
4672 Clouds 29 1012 66 10000 4.1 80 14:36 17.04.2020
4673 Rain 29 1012 79 8000 5.1 350 14:18 17.04.2020
4674 Rain 29 1012 79 8000 5.1 350 13:40 17.04.2020
4675 Rain 29 1012 79 8000 5.1 350 13:40 17.04.2020
4676 Rain 30 1012 79 8000 5.1 350 13:20 17.04.2020
4677 Clouds 31 1011 70 10000 3.1 140 12:48 17.04.2020
4678 Clouds 31 1011 70 10000 3.1 140 12:28 17.04.2020
4679 Clouds 31 1011 59 10000 2.6 140 11:59 17.04.2020
4680 Clouds 32 1011 59 10000 2.6 140 11:40 17.04.2020
4681 Clouds 32 1010 59 10000 3.1 0 11:19 17.04.2020
4682 Clouds 32 1010 59 10000 3.1 0 10:40 17.04.2020
4683 Clouds 32 1010 59 10000 3.1 0 10:21 17.04.2020
4684 Clouds 33 1010 56 10000 4.1 140 09:55 17.04.2020
4685 Clouds 33 1010 56 10000 4.1 140 09:37 17.04.2020
4686 Clouds 33 1011 56 10000 4.1 130 09:18 17.04.2020
4687 Clouds 33 1011 56 10000 4.1 130 08:46 17.04.2020
4688 Clouds 34 1011 56 10000 4.1 130 08:26 17.04.2020
4689 Clouds 34 1012 30 10000 3.6 160 07:56 17.04.2020
4690 Clouds 34 1012 30 10000 3.6 160 07:38 17.04.2020
4691 Clouds 34 1013 56 10000 3.1 0 07:18 17.04.2020
4692 Clouds 34 1013 56 10000 3.1 0 06:40 17.04.2020
4693 Clouds 33 1013 59 10000 3.6 320 05:58 17.04.2020
4694 Clouds 31 1014 62 10000 2.1 100 03:23 17.04.2020
4695 Clouds 30 1014 66 10000 2.1 100 02:50 17.04.2020
4696 Clouds 29 1013 70 10000 3.1 120 01:30 17.04.2020
4697 -273 0 0 0 0 0 00:59 17.04.2020
4698 Clouds 27 1012 74 10000 1.5 100 00:21 17.04.2020
4699 Clouds 27 1012 74 10000 2.1 120 23:46 16.04.2020
4700 Clouds 27 1012 74 10000 2.1 120 23:24 16.04.2020
4701 Clouds 27 1011 74 10000 3.1 110 22:59 16.04.2020
4702 Clouds 27 1011 74 10000 3.1 110 22:59 16.04.2020
4703 -273 0 0 0 0 0 22:59 16.04.2020
4704 Clouds 27 1011 74 10000 3.1 110 22:39 16.04.2020
4705 Clouds 27 1011 74 10000 3.1 110 22:20 16.04.2020
4706 Clouds 27 1012 74 10000 2.6 110 21:57 16.04.2020
4707 Clouds 27 1012 74 10000 2.6 110 21:38 16.04.2020
4708 Clouds 27 1012 74 10000 2.6 110 21:19 16.04.2020
4709 Clouds 28 1012 74 10000 3.6 110 20:42 16.04.2020
4710 Clouds 28 1012 74 10000 3.6 110 20:22 16.04.2020
4711 Clouds 28 1012 74 10000 4.1 100 19:58 16.04.2020
4712 Clouds 28 1012 74 10000 4.1 100 19:39 16.04.2020
4713 Clouds 28 1013 74 10000 3.1 120 19:19 16.04.2020
4714 Clouds 28 1013 74 10000 3.1 120 18:46 16.04.2020
4715 Clouds 28 1013 74 10000 3.1 120 18:27 16.04.2020
4716 Clouds 29 1013 74 10000 3.1 120 18:00 16.04.2020
4717 Clouds 29 1013 74 10000 3.1 120 17:41 16.04.2020
4718 Clouds 29 1013 74 10000 3.1 120 17:21 16.04.2020
4719 Clouds 29 1013 74 0 3.1 110 16:54 16.04.2020
4720 Clouds 29 1013 74 0 3.1 110 16:36 16.04.2020
4721 Clouds 29 1013 74 0 3.1 110 16:18 16.04.2020
4722 Clouds 30 1013 70 10000 2.6 120 15:40 16.04.2020
4723 Clouds 29 1013 70 10000 2.6 120 15:19 16.04.2020
4724 Clouds 29 1012 70 10000 2.1 130 14:56 16.04.2020
4725 Clouds 29 1012 70 10000 2.1 130 14:37 16.04.2020
4726 Clouds 29 1012 70 10000 2.1 130 14:37 16.04.2020
4727 Clouds 29 1012 70 10000 2.1 130 14:19 16.04.2020
4728 Clouds 30 1012 66 10000 1 0 13:42 16.04.2020
4729 Clouds 30 1012 66 10000 1 0 13:23 16.04.2020
4730 Clouds 30 1011 70 9000 1 0 12:58 16.04.2020
4731 Clouds 29 1011 70 9000 1 0 12:40 16.04.2020
4732 Clouds 30 1011 70 9000 1 0 12:20 16.04.2020
4733 -273 0 0 0 0 0 12:00 16.04.2020
4734 Clouds 31 1010 66 10000 3.6 300 11:41 16.04.2020
4735 Clouds 31 1010 66 10000 3.6 300 11:21 16.04.2020
4736 Clouds 34 1009 53 10000 4.1 120 10:56 16.04.2020
4737 Clouds 34 1009 53 10000 4.1 120 10:38 16.04.2020
4738 Rain 33 1009 53 10000 4.1 120 10:18 16.04.2020
4739 Rain 35 1009 47 10000 3.1 130 09:54 16.04.2020
4740 Clouds 35 1009 47 10000 3.1 130 09:36 16.04.2020
4741 Clouds 35 1009 47 10000 3.1 130 09:18 16.04.2020
4742 Clouds 35 1010 47 10000 2.1 0 08:41 16.04.2020
4743 Clouds 35 1010 47 10000 2.1 0 08:21 16.04.2020
4744 Clouds 34 1011 50 10000 1.5 0 07:46 16.04.2020
4745 Clouds 34 1011 50 10000 1.5 0 07:26 16.04.2020
4746 Clouds 34 1012 52 9000 2.1 0 06:43 16.04.2020
4747 Clouds 33 1012 52 9000 2.1 0 06:24 16.04.2020
4748 Clouds 32 1013 66 8000 2.6 290 05:30 16.04.2020
4749 Clouds 31 1013 70 8000 1.5 0 03:49 16.04.2020
4750 Clouds 31 1013 70 8000 1.5 0 03:23 16.04.2020
4751 Clouds 30 1013 79 9000 1.5 80 02:47 16.04.2020
4752 Clouds 29 1013 79 9000 1.5 80 02:26 16.04.2020
4753 Clouds 28 1012 83 10000 1.54 84 01:18 16.04.2020
4754 Clouds 28 1012 83 10000 1.54 84 01:18 16.04.2020
4755 Clouds 27 1011 78 10000 0.5 0 00:27 16.04.2020
4756 Clouds 27 1010 83 10000 1 0 23:57 15.04.2020
4757 Clouds 27 1010 83 10000 1 0 23:39 15.04.2020
4758 Clouds 27 1010 83 10000 1 0 23:20 15.04.2020
4759 Clouds 27 1010 83 10000 1 0 22:40 15.04.2020
4760 Clouds 27 1010 83 10000 1 0 22:21 15.04.2020
4761 Clouds 27 1010 83 10000 0.5 0 21:58 15.04.2020
4762 Clouds 27 1010 83 10000 0.5 0 21:40 15.04.2020
4763 Clouds 27 1010 83 10000 0.5 0 21:22 15.04.2020
4764 Clouds 27 1011 83 10000 1 0 20:57 15.04.2020
4765 Clouds 27 1011 83 10000 1 0 20:57 15.04.2020
4766 Clouds 27 1011 83 10000 1 0 20:39 15.04.2020
4767 Clouds 27 1011 83 10000 1 0 20:21 15.04.2020
4768 Clouds 27 1011 83 10000 1 0 19:42 15.04.2020
4769 Clouds 27 1012 78 10000 0.5 0 19:21 15.04.2020
4770 Clouds 28 1012 78 10000 0.5 0 18:55 15.04.2020
4771 Clouds 28 1012 78 10000 0.5 0 18:36 15.04.2020
4772 Clouds 28 1013 78 0 1.5 160 18:18 15.04.2020
4773 Clouds 28 1013 78 0 1.5 160 17:40 15.04.2020
4774 Clouds 28 1013 78 0 1.5 160 17:21 15.04.2020
4775 Clouds 28 1013 78 10000 1 0 16:58 15.04.2020
4776 Clouds 28 1013 78 10000 1 0 16:38 15.04.2020
4777 Clouds 28 1013 78 10000 1 0 16:20 15.04.2020
4778 Clouds 28 1013 70 10000 1.5 170 15:58 15.04.2020
4779 Clouds 29 1012 66 10000 2.6 220 15:39 15.04.2020
4780 Clouds 29 1012 66 10000 2.6 220 15:19 15.04.2020
4781 Clouds 29 1012 66 10000 2.6 220 14:58 15.04.2020
4782 Clouds 29 1012 66 10000 2.6 220 14:39 15.04.2020
4783 Clouds 29 1012 66 10000 2.6 220 14:39 15.04.2020
4784 Clouds 29 1012 66 10000 2.6 220 14:21 15.04.2020
4785 Clouds 29 1012 66 10000 0.98 130 13:58 15.04.2020
4786 Clouds 29 1012 66 10000 0.98 130 13:39 15.04.2020
4787 Clouds 29 1012 66 10000 0.98 130 13:20 15.04.2020
4788 Clouds 30 1011 66 0 6.7 250 12:56 15.04.2020
4789 Clouds 30 1011 66 0 6.7 250 12:38 15.04.2020
4790 Clouds 30 1011 66 0 6.7 250 12:19 15.04.2020
4791 Clouds 31 1010 62 10000 7.2 260 11:42 15.04.2020
4792 Clouds 31 1010 62 10000 7.2 260 11:24 15.04.2020
4793 Clouds 32 1010 55 10000 7.2 260 10:58 15.04.2020
4794 Clouds 33 1010 55 10000 7.2 260 10:36 15.04.2020
4795 Clouds 33 1010 55 10000 7.2 260 10:18 15.04.2020
4796 Clouds 34 1010 56 10000 5.1 270 09:55 15.04.2020
4797 Clouds 34 1010 56 10000 5.1 270 09:36 15.04.2020
4798 Clouds 34 1010 56 10000 5.1 270 09:18 15.04.2020
4799 Clouds 35 1010 56 10000 4.1 290 08:41 15.04.2020
4800 Clouds 34 1010 56 10000 4.1 290 08:20 15.04.2020
4801 Clouds 34 1011 49 10000 1.5 0 07:54 15.04.2020
4802 Clouds 34 1011 49 10000 1.5 0 07:33 15.04.2020
4803 Clouds 33 1013 59 10000 3.1 0 06:34 15.04.2020
4804 Clouds 32 1013 59 10000 2.1 0 05:51 15.04.2020
4805 Clouds 32 1013 59 10000 2.1 0 05:20 15.04.2020
4806 Clouds 32 1014 59 10000 2.1 0 04:44 15.04.2020
4807 Clouds 31 1014 62 10000 2.1 0 03:40 15.04.2020
4808 Clouds 30 1014 62 10000 2.1 0 03:18 15.04.2020
4809 Clouds 30 1014 66 10000 2.1 0 02:30 15.04.2020
4810 Clouds 28 1013 69 9000 1 0 01:44 15.04.2020
4811 Clouds 28 1013 69 9000 1 0 01:19 15.04.2020
4812 Clouds 26 1013 83 10000 1.5 60 00:37 15.04.2020
4813 Clouds 26 1013 83 10000 1.5 60 00:18 15.04.2020
4814 Clouds 25 1012 83 10000 2.1 70 23:55 14.04.2020
4815 Clouds 25 1012 83 10000 2.1 70 23:36 14.04.2020
4816 Clouds 25 1012 83 10000 2.1 70 23:36 14.04.2020
4817 Clouds 26 1012 83 10000 2.1 70 23:18 14.04.2020
4818 Clouds 26 1011 74 10000 1.5 110 22:55 14.04.2020
4819 Clouds 26 1011 74 10000 1.5 110 22:36 14.04.2020
4820 Clouds 26 1011 74 10000 1.5 110 22:18 14.04.2020
4821 Clouds 27 1012 74 10000 2.1 120 21:55 14.04.2020
4822 Clouds 27 1012 74 10000 2.1 120 21:36 14.04.2020
4823 Clouds 27 1012 74 10000 2.1 120 21:18 14.04.2020
4824 Clouds 27 1012 74 10000 2.6 120 20:40 14.04.2020
4825 Clouds 27 1012 74 10000 2.6 120 20:22 14.04.2020
4826 Clouds 27 1012 74 10000 2.1 130 19:58 14.04.2020
4827 Clouds 27 1012 74 10000 2.1 130 19:39 14.04.2020
4828 Clouds 27 1012 74 10000 2.1 130 19:20 14.04.2020
4829 Clouds 27 1013 74 10000 2.1 110 18:55 14.04.2020
4830 Clouds 27 1013 74 10000 2.1 110 18:37 14.04.2020
4831 Clouds 27 1013 74 10000 2.1 110 18:18 14.04.2020
4832 Clouds 27 1013 74 10000 4.1 120 17:55 14.04.2020
4833 Clouds 27 1013 74 10000 4.1 120 17:36 14.04.2020
4834 Clouds 27 1013 74 10000 4.1 120 17:18 14.04.2020
4835 Clouds 27 1014 74 10000 3.1 110 16:41 14.04.2020
4836 Clouds 27 1014 74 10000 3.1 110 16:22 14.04.2020
4837 Clouds 27 1013 74 10000 3.1 120 15:58 14.04.2020
4838 -273 0 0 0 0 0 15:38 14.04.2020
4839 Clouds 27 1013 74 10000 3.1 120 15:19 14.04.2020
4840 Clouds 28 1013 69 10000 4.1 120 14:57 14.04.2020
4841 Clouds 28 1013 69 10000 4.1 120 14:39 14.04.2020
4842 Clouds 28 1013 69 10000 4.1 120 14:39 14.04.2020
4843 Clouds 28 1013 69 10000 4.1 120 14:21 14.04.2020
4844 Clouds 28 1013 69 10000 4.1 120 14:21 14.04.2020
4845 Clouds 28 1012 69 10000 3.6 120 13:44 14.04.2020
4846 Clouds 28 1012 69 10000 3.6 120 13:24 14.04.2020
4847 Clouds 29 1011 66 10000 3.6 120 12:59 14.04.2020
4848 Clouds 29 1011 66 10000 3.6 120 12:39 14.04.2020
4849 Clouds 29 1011 66 10000 3.6 120 12:39 14.04.2020
4850 Clouds 29 1011 66 10000 3.6 120 12:20 14.04.2020
4851 Clouds 29 1010 70 10000 4.6 130 11:54 14.04.2020
4852 Clouds 29 1010 70 10000 4.6 130 11:36 14.04.2020
4853 Clouds 29 1010 70 10000 4.6 130 11:18 14.04.2020
4854 Clouds 30 1010 70 10000 5.1 120 10:40 14.04.2020
4855 Clouds 30 1010 70 10000 5.1 120 10:21 14.04.2020
4856 Clouds 30 1011 62 10000 6.2 120 09:42 14.04.2020
4857 Clouds 31 1012 56 0 6.99 105 09:24 14.04.2020
4858 Clouds 31 1012 56 0 6.99 105 08:57 14.04.2020
4859 Clouds 31 1012 56 0 6.99 105 08:39 14.04.2020
4860 Clouds 31 1011 62 10000 5.1 130 08:21 14.04.2020
4861 Clouds 31 1012 59 10000 6.2 130 07:51 14.04.2020
4862 Clouds 31 1012 56 0 6.99 105 07:27 14.04.2020
4863 Clouds 31 1012 56 0 6.99 105 06:45 14.04.2020
4864 Clouds 30 1014 57 0 5.35 95 05:52 14.04.2020
4865 Clouds 30 1014 62 10000 2.6 0 03:50 14.04.2020
4866 Clouds 29 1014 66 10000 2.1 100 02:40 14.04.2020
4867 Clouds 27 1013 67 10000 2.6 90 01:29 14.04.2020
4868 Clouds 27 1012 78 10000 3.1 120 00:59 14.04.2020
4869 Clouds 27 1012 78 10000 3.1 120 00:32 14.04.2020
4870 Clouds 27 1012 74 10000 2.1 120 23:59 13.04.2020
4871 Clouds 27 1012 74 10000 2.1 120 23:39 13.04.2020
4872 Clouds 27 1012 74 10000 2.1 120 23:20 13.04.2020
4873 Clouds 27 1011 78 10000 1.5 110 22:55 13.04.2020
4874 Clouds 27 1011 78 10000 1.5 110 22:55 13.04.2020
4875 Clouds 27 1011 78 10000 1.5 110 22:37 13.04.2020
4876 Clouds 27 1011 78 10000 1.5 110 22:18 13.04.2020
4877 Clouds 27 1011 78 10000 2.1 110 21:42 13.04.2020
4878 Clouds 27 1011 78 10000 2.1 110 21:21 13.04.2020
4879 Clouds 27 1011 69 10000 2.6 80 20:59 13.04.2020
4880 Clouds 27 1011 69 10000 2.6 80 20:40 13.04.2020
4881 Clouds 27 1011 69 10000 2.6 80 20:20 13.04.2020
4882 Clouds 27 1012 69 10000 3.6 80 19:58 13.04.2020
4883 Clouds 27 1012 69 10000 3.6 80 19:37 13.04.2020
4884 Clouds 27 1012 69 10000 3.1 70 19:19 13.04.2020
4885 Clouds 27 1012 69 10000 3.1 70 19:19 13.04.2020
4886 Clouds 27 1012 69 10000 3.1 70 18:57 13.04.2020
4887 Clouds 27 1012 69 10000 3.1 70 18:37 13.04.2020
4888 Clouds 28 1013 70 10000 3.1 50 18:18 13.04.2020
4889 Clouds 28 1013 70 10000 3.1 50 17:56 13.04.2020
4890 Clouds 28 1013 70 10000 3.1 50 17:37 13.04.2020
4891 Clouds 28 1013 70 10000 3.1 50 17:19 13.04.2020
4892 Clouds 28 1013 70 10000 3.1 50 17:19 13.04.2020
4893 Clouds 28 1013 70 10000 2.1 120 16:57 13.04.2020
4894 Clouds 28 1013 70 10000 2.1 120 16:37 13.04.2020
4895 Clouds 28 1013 70 10000 2.1 120 16:19 13.04.2020
4896 Clouds 29 1012 74 10000 2.6 120 15:46 13.04.2020
4897 Clouds 29 1012 74 10000 2.6 120 15:28 13.04.2020
4898 Clouds 29 1011 74 10000 3.6 120 14:59 13.04.2020
4899 Clouds 29 1011 74 10000 3.6 120 14:40 13.04.2020
4900 Clouds 29 1011 74 10000 3.6 120 14:22 13.04.2020
4901 Clouds 29 1011 66 10000 4.1 120 13:56 13.04.2020
4902 Clouds 29 1011 66 10000 4.1 120 13:38 13.04.2020
4903 Clouds 29 1011 66 10000 4.1 120 13:20 13.04.2020
4904 Clouds 30 1010 62 10000 3.6 130 12:58 13.04.2020
4905 Clouds 30 1010 62 10000 3.6 130 12:40 13.04.2020
4906 Clouds 30 1010 62 10000 3.6 130 12:20 13.04.2020
4907 Clouds 31 1009 55 10000 3.6 110 11:58 13.04.2020
4908 Clouds 31 1009 55 10000 3.6 110 11:39 13.04.2020
4909 Clouds 31 1009 55 10000 3.6 110 11:18 13.04.2020
4910 Clouds 32 1009 55 10000 5.7 70 10:55 13.04.2020
4911 Clouds 32 1009 55 10000 5.7 70 10:36 13.04.2020
4912 Clouds 32 1009 55 10000 5.7 70 10:18 13.04.2020
4913 Clouds 31 1009 62 10000 4.1 30 09:44 13.04.2020
4914 Clouds 31 1009 62 10000 4.1 30 09:25 13.04.2020
4915 Rain 31 1009 66 10000 6.2 50 08:45 13.04.2020
4916 Rain 32 1009 56 10000 3.6 120 08:27 13.04.2020
4917 Rain 32 1009 56 10000 3.6 120 08:27 13.04.2020
4918 Rain 33 1010 56 10000 3.6 120 07:57 13.04.2020
4919 Rain 32 1010 56 10000 3.6 120 07:38 13.04.2020
4920 Rain 32 1011 59 10000 3.1 130 07:18 13.04.2020
4921 Clouds 32 1011 59 10000 3.1 130 06:44 13.04.2020
4922 Clouds 32 1011 62 10000 2.1 0 05:52 13.04.2020
4923 Clouds 32 1011 62 10000 2.1 0 05:20 13.04.2020
4924 Clouds 32 1012 62 10000 2.1 0 04:31 13.04.2020
4925 Clouds 31 1012 62 10000 2.1 0 03:56 13.04.2020
4926 Clouds 31 1012 62 10000 2.1 0 03:34 13.04.2020
4927 Clouds 28 1012 74 10000 1 0 02:41 13.04.2020
4928 Clouds 27 1011 78 10000 2.1 20 01:47 13.04.2020
4929 Clouds 27 1011 78 10000 2.1 20 01:28 13.04.2020
4930 Clouds 26 1011 83 10000 2.6 20 00:50 13.04.2020
4931 Clouds 26 1011 83 10000 2.6 20 00:25 13.04.2020
4932 Clouds 26 1010 78 10000 3.6 10 23:57 12.04.2020
4933 Clouds 26 1010 78 10000 3.6 10 23:38 12.04.2020
4934 Clouds 26 1010 78 10000 3.6 10 23:38 12.04.2020
4935 Clouds 26 1010 78 10000 3.6 10 23:20 12.04.2020
4936 Clouds 26 1010 78 10000 3.6 10 22:54 12.04.2020
4937 Clouds 26 1010 78 10000 3.6 10 22:36 12.04.2020
4938 Clouds 26 1010 78 10000 3.6 10 22:18 12.04.2020
4939 Clouds 26 1009 78 10000 4.1 20 21:38 12.04.2020
4940 Clouds 26 1009 78 10000 4.1 20 21:38 12.04.2020
4941 Clouds 26 1009 78 10000 4.1 20 21:19 12.04.2020
4942 Clouds 27 1010 78 10000 4.6 10 20:43 12.04.2020
4943 Clouds 27 1010 78 10000 4.6 10 20:23 12.04.2020
4944 Clouds 27 1010 74 10000 3.6 20 19:59 12.04.2020
4945 Clouds 27 1010 74 10000 3.6 20 19:40 12.04.2020
4946 Clouds 27 1011 74 10000 4.6 10 19:19 12.04.2020
4947 Clouds 27 1011 74 10000 4.6 10 18:57 12.04.2020
4948 Clouds 27 1011 74 10000 4.6 10 18:38 12.04.2020
4949 Clouds 28 1011 78 10000 1 230 18:19 12.04.2020
4950 Clouds 28 1011 78 10000 1 230 17:42 12.04.2020
4951 Clouds 28 1011 78 10000 1 230 17:24 12.04.2020
4952 Clouds 28 1011 78 10000 1 220 16:59 12.04.2020
4953 Clouds 28 1011 78 10000 1 220 16:40 12.04.2020
4954 Clouds 28 1011 78 10000 1 220 16:20 12.04.2020
4955 Clouds 28 1011 83 10000 1.5 230 15:50 12.04.2020
4956 Clouds 28 1011 83 10000 1.5 230 15:31 12.04.2020
4957 Clouds 28 1010 83 10000 3.1 240 14:57 12.04.2020
4958 Clouds 28 1010 83 10000 3.1 240 14:38 12.04.2020
4959 Clouds 28 1010 83 10000 3.1 240 14:19 12.04.2020
4960 Clouds 29 1010 79 10000 4.1 250 13:43 12.04.2020
4961 Clouds 29 1010 79 10000 4.1 250 13:43 12.04.2020
4962 Clouds 29 1010 79 10000 4.1 250 13:25 12.04.2020
4963 Clouds 29 1010 79 10000 4.1 250 13:25 12.04.2020
4964 Clouds 29 1009 79 10000 6.2 250 12:56 12.04.2020
4965 Clouds 29 1009 79 10000 6.2 250 12:38 12.04.2020
4966 Clouds 29 1009 79 10000 6.2 250 12:19 12.04.2020
4967 Clouds 29 1009 70 10000 5.7 260 11:57 12.04.2020
4968 Clouds 30 1009 70 10000 5.7 260 11:36 12.04.2020
4969 Clouds 30 1009 70 10000 5.7 260 11:18 12.04.2020
4970 Clouds 31 1009 70 10000 6.2 260 10:55 12.04.2020
4971 Clouds 31 1009 70 10000 6.2 260 10:55 12.04.2020
4972 Clouds 31 1009 70 10000 6.2 260 10:37 12.04.2020
4973 Clouds 32 1009 70 10000 6.2 260 10:18 12.04.2020
4974 Clouds 32 1009 62 10000 5.7 270 09:40 12.04.2020
4975 Clouds 32 1009 62 10000 5.7 270 09:22 12.04.2020
4976 Clouds 31 1010 66 10000 5.1 270 09:00 12.04.2020
4977 Clouds 31 1010 66 10000 5.1 270 08:41 12.04.2020
4978 Clouds 32 1010 66 10000 5.1 270 08:23 12.04.2020
4979 Clouds 32 1010 59 9000 4.1 300 07:45 12.04.2020
4980 Clouds 32 1010 59 9000 4.1 300 07:19 12.04.2020
4981 Clouds 31 1012 66 10000 4.1 300 06:35 12.04.2020
4982 Clouds 31 1012 66 10000 3.6 270 05:55 12.04.2020
4983 Clouds 31 1012 66 10000 3.6 270 05:36 12.04.2020
4984 Clouds 30 1013 66 10000 3.6 270 03:45 12.04.2020
4985 Clouds 30 1013 66 10000 3.6 270 03:24 12.04.2020
4986 Clouds 30 1012 66 10000 1.59 76 02:35 12.04.2020
4987 Clouds 29 1012 70 10000 2.1 50 01:53 12.04.2020
4988 Clouds 27 1011 83 10000 1 0 00:59 12.04.2020
4989 Clouds 27 1011 83 10000 1 0 00:41 12.04.2020
4990 Clouds 27 1011 83 10000 1 0 00:20 12.04.2020
4991 Clouds 27 1011 78 10000 1 0 23:46 11.04.2020
4992 Clouds 27 1011 78 10000 1 0 23:26 11.04.2020
4993 Clouds 27 1010 74 10000 1 0 22:42 11.04.2020
4994 Clouds 27 1010 74 10000 1 0 22:23 11.04.2020
4995 Clouds 27 1010 74 10000 1 0 22:23 11.04.2020
4996 Clouds 28 1010 78 10000 1 0 21:58 11.04.2020
4997 Clouds 28 1010 78 10000 1 0 21:58 11.04.2020
4998 Clouds 28 1010 78 10000 1 0 21:38 11.04.2020
4999 Clouds 28 1010 78 10000 1 0 21:19 11.04.2020
5000 Clouds 28 1011 74 10000 1.5 0 20:58 11.04.2020
5001 Clouds 28 1011 74 10000 1.5 0 20:40 11.04.2020
5002 Clouds 28 1011 74 10000 1.5 0 20:21 11.04.2020
5003 Clouds 28 1011 74 10000 1.5 0 19:59 11.04.2020
5004 Clouds 28 1011 74 10000 1.5 0 19:41 11.04.2020
5005 Clouds 28 1011 74 10000 1.5 0 19:20 11.04.2020
5006 Clouds 28 1011 70 10000 1.5 0 18:58 11.04.2020
5007 Clouds 28 1011 70 10000 1.5 0 18:39 11.04.2020
5008 Clouds 28 1011 70 10000 1.5 0 18:21 11.04.2020
5009 Clouds 29 1012 70 10000 2.6 130 17:59 11.04.2020
5010 Clouds 29 1012 70 10000 2.6 130 17:41 11.04.2020
5011 Clouds 29 1012 70 10000 2.6 130 17:22 11.04.2020
5012 Clouds 29 1012 70 10000 2.6 120 16:59 11.04.2020
5013 Clouds 29 1012 70 10000 2.6 120 16:41 11.04.2020
5014 Clouds 29 1012 70 10000 2.6 120 16:21 11.04.2020
5015 Clouds 29 1012 70 10000 2.6 120 16:20 11.04.2020
5016 Clouds 29 1012 70 10000 2.6 130 15:40 11.04.2020
5017 Clouds 29 1012 70 10000 2.6 130 15:19 11.04.2020
5018 Clouds 29 1011 70 10000 3.1 140 14:44 11.04.2020
5019 Clouds 29 1011 70 10000 3.1 140 14:25 11.04.2020
5020 -273 0 0 0 0 0 13:59 11.04.2020
5021 Clouds 29 1010 70 10000 3.1 130 13:40 11.04.2020
5022 Clouds 30 1010 70 10000 3.1 130 13:22 11.04.2020
5023 Clouds 30 1010 70 10000 3.1 130 13:22 11.04.2020
5024 Clouds 30 1010 62 10000 4.1 130 12:43 11.04.2020
5025 Clouds 30 1010 62 10000 4.1 130 12:22 11.04.2020
5026 Clouds 31 1010 59 10000 4.1 110 11:58 11.04.2020
5027 Clouds 31 1010 59 10000 4.1 110 11:40 11.04.2020
5028 Clouds 31 1010 59 10000 4.1 110 11:19 11.04.2020
5029 Clouds 32 1010 59 10000 4.1 130 10:55 11.04.2020
5030 Clouds 32 1010 59 10000 4.1 130 10:36 11.04.2020
5031 Clouds 32 1010 59 10000 4.1 130 10:18 11.04.2020
5032 Clouds 32 1010 59 10000 3.6 130 09:41 11.04.2020
5033 Clouds 32 1010 59 10000 3.6 130 09:22 11.04.2020
5034 Clouds 33 1011 56 10000 4.1 120 08:51 11.04.2020
5035 Clouds 33 1011 56 10000 4.1 120 08:29 11.04.2020
5036 Clouds 32 1012 62 10000 2.6 160 07:56 11.04.2020
5037 Clouds 32 1012 62 10000 2.6 160 07:38 11.04.2020
5038 Clouds 32 1012 62 10000 2.6 160 07:19 11.04.2020
5039 Clouds 31 1013 55 10000 4.1 130 06:35 11.04.2020
5040 Clouds 32 1014 55 10000 3.6 120 05:56 11.04.2020
5041 Clouds 30 1014 66 10000 2.6 0 03:48 11.04.2020
5042 Clouds 30 1014 66 10000 3.1 110 02:50 11.04.2020
5043 Clouds 29 1013 69 10000 1 0 01:26 11.04.2020
5044 Clouds 27 1013 78 10000 0.5 0 00:54 11.04.2020
5045 Clouds 27 1013 78 10000 0.5 0 00:36 11.04.2020
5046 Clouds 26 1013 78 10000 0.5 0 00:18 11.04.2020
5047 Clouds 27 1012 83 10000 1 0 23:41 10.04.2020
5048 Clouds 27 1012 83 10000 1 0 23:19 10.04.2020
5049 Clouds 27 1012 78 10000 2.1 80 22:55 10.04.2020
5050 Clouds 27 1012 78 10000 2.1 80 22:37 10.04.2020
5051 Clouds 27 1012 78 10000 2.1 80 22:18 10.04.2020
5052 Clouds 27 1012 78 10000 2.1 80 22:18 10.04.2020
5053 Clouds 27 1012 74 10000 3.6 120 21:41 10.04.2020
5054 Clouds 27 1012 74 10000 3.6 120 21:21 10.04.2020
5055 Clouds 27 1012 74 10000 2.6 120 20:57 10.04.2020
5056 Clouds 28 1012 74 10000 2.6 120 20:38 10.04.2020
5057 Clouds 28 1012 74 10000 2.6 120 20:38 10.04.2020
5058 Clouds 28 1012 74 10000 2.6 120 20:19 10.04.2020
5059 Clouds 28 1013 69 10000 4.6 110 19:54 10.04.2020
5060 Clouds 28 1013 69 10000 4.6 110 19:36 10.04.2020
5061 Clouds 28 1013 66 10000 2.6 120 19:18 10.04.2020
5062 Clouds 28 1013 66 10000 2.6 120 18:55 10.04.2020
5063 Clouds 28 1013 66 10000 2.6 120 18:36 10.04.2020
5064 Clouds 28 1013 66 10000 2.6 120 18:18 10.04.2020
5065 Clouds 28 1014 70 10000 3.1 120 17:56 10.04.2020
5066 Clouds 28 1014 70 10000 3.1 120 17:37 10.04.2020
5067 Clouds 28 1014 70 10000 3.1 120 17:18 10.04.2020
5068 Clouds 29 1014 70 10000 3.1 120 16:41 10.04.2020
5069 Clouds 29 1014 70 10000 3.1 120 16:23 10.04.2020
5070 Clouds 29 1014 70 10000 3.6 110 15:58 10.04.2020
5071 Clouds 29 1014 70 10000 3.6 110 15:38 10.04.2020
5072 Clouds 29 1014 70 10000 3.6 110 15:20 10.04.2020
5073 Clouds 29 1014 66 10000 3.6 120 14:58 10.04.2020
5074 Clouds 29 1014 66 10000 3.6 120 14:39 10.04.2020
5075 Clouds 29 1014 66 10000 3.6 120 14:20 10.04.2020
5076 Clouds 29 1013 66 10000 3.1 100 13:45 10.04.2020
5077 Clouds 29 1013 66 10000 3.1 100 13:22 10.04.2020
5078 Clouds 29 1012 62 10000 3.6 100 12:55 10.04.2020
5079 Clouds 29 1012 62 10000 3.6 100 12:36 10.04.2020
5080 Clouds 29 1012 62 10000 3.6 100 12:18 10.04.2020
5081 Clouds 30 1012 58 10000 5.1 90 11:42 10.04.2020
5082 Clouds 31 1012 58 10000 5.1 90 11:22 10.04.2020
5083 Clouds 31 1012 62 10000 5.7 100 10:56 10.04.2020
5084 Clouds 31 1012 62 10000 5.7 100 10:37 10.04.2020
5085 Clouds 31 1012 62 10000 5.7 100 10:37 10.04.2020
5086 Clouds 31 1012 62 10000 5.7 100 10:18 10.04.2020
5087 Clouds 31 1012 62 10000 5.1 110 09:42 10.04.2020
5088 Clouds 31 1012 62 10000 5.1 110 09:20 10.04.2020
5089 Clouds 31 1012 62 10000 5.1 110 09:20 10.04.2020
5090 Clouds 31 1012 62 10000 6.2 110 08:47 10.04.2020
5091 Rain 31 1012 62 10000 6.2 110 08:26 10.04.2020
5092 Clouds 32 1013 59 10000 5.7 120 07:49 10.04.2020
5093 Clouds 32 1013 59 10000 5.7 120 07:30 10.04.2020
5094 Clouds 33 1014 56 10000 3.6 0 06:59 10.04.2020
5095 Clouds 33 1014 56 10000 3.6 0 06:30 10.04.2020
5096 Clouds 32 1014 59 10000 3.6 140 05:59 10.04.2020
5097 Clouds 33 1014 59 10000 3.6 140 05:22 10.04.2020
5098 Clouds 32 1015 62 10000 4.1 90 04:42 10.04.2020
5099 Clouds 30 1015 66 10000 3.1 130 03:32 10.04.2020
5100 Clouds 30 1015 70 10000 3.1 120 02:50 10.04.2020
5101 Clouds 29 1015 70 10000 3.1 120 02:31 10.04.2020
5102 Clouds 28 1014 78 10000 3.77 98 01:30 10.04.2020
5103 Clouds 27 1014 78 10000 1 0 00:55 10.04.2020
5104 Clouds 26 1014 78 10000 1 0 00:37 10.04.2020
5105 Clouds 26 1014 78 10000 1 0 00:18 10.04.2020
5106 Clouds 26 1013 78 10000 3.06 95 23:41 09.04.2020
5107 Clouds 26 1013 78 10000 3.06 95 23:41 09.04.2020
5108 Clouds 26 1013 78 10000 3.06 95 23:22 09.04.2020
5109 Clouds 26 1013 83 10000 0.5 0 22:56 09.04.2020
5110 Clouds 26 1013 83 10000 0.5 0 22:38 09.04.2020
5111 Clouds 26 1013 83 10000 0.5 0 22:19 09.04.2020
5112 Clouds 26 1013 78 10000 3.1 10 21:38 09.04.2020
5113 Clouds 26 1013 78 10000 3.1 10 21:19 09.04.2020
5114 Clouds 26 1013 78 10000 2.6 20 20:45 09.04.2020
5115 Clouds 26 1013 78 10000 2.6 20 20:22 09.04.2020
5116 Clouds 27 1014 78 10000 2.1 320 19:58 09.04.2020
5117 Clouds 27 1014 78 10000 2.1 320 19:37 09.04.2020
5118 Clouds 27 1014 70 10000 1.5 0 19:18 09.04.2020
5119 Clouds 28 1014 70 10000 1.5 0 18:42 09.04.2020
5120 Clouds 28 1014 70 10000 1.5 0 18:42 09.04.2020
5121 Clouds 28 1014 70 10000 1.5 0 18:20 09.04.2020
5122 Clouds 28 1014 70 10000 2.1 130 17:43 09.04.2020
5123 Clouds 29 1014 70 10000 2.1 130 17:24 09.04.2020
5124 Clouds 29 1014 70 10000 3.1 130 16:58 09.04.2020
5125 Clouds 29 1014 70 10000 3.1 130 16:39 09.04.2020
5126 Clouds 29 1014 70 10000 3.1 130 16:19 09.04.2020
5127 Clouds 29 1014 66 10000 2.1 0 15:55 09.04.2020
5128 Clouds 29 1014 66 10000 2.1 0 15:55 09.04.2020
5129 Clouds 29 1014 66 10000 2.1 0 15:37 09.04.2020
5130 Clouds 29 1014 66 10000 2.1 0 15:37 09.04.2020
5131 Clouds 29 1014 66 10000 2.1 0 15:18 09.04.2020
5132 Clouds 30 1013 66 10000 2.6 110 14:42 09.04.2020
5133 Clouds 30 1013 66 10000 2.6 110 14:21 09.04.2020
5134 Clouds 31 1012 66 10000 2.6 130 13:56 09.04.2020
5135 Clouds 31 1012 66 10000 2.6 130 13:37 09.04.2020
5136 Clouds 31 1012 66 10000 2.6 130 13:18 09.04.2020
5137 Clouds 31 1012 62 10000 2.6 130 12:42 09.04.2020
5138 Clouds 31 1012 62 10000 2.6 130 12:23 09.04.2020
5139 Clouds 31 1011 59 10000 2.6 110 11:58 09.04.2020
5140 Clouds 32 1011 59 10000 2.6 110 11:38 09.04.2020
5141 Clouds 32 1011 59 10000 2.6 110 11:20 09.04.2020
5142 Clouds 32 1011 59 10000 6.2 80 10:57 09.04.2020
5143 Clouds 32 1011 59 10000 6.2 80 10:38 09.04.2020
5144 Clouds 32 1011 59 10000 6.2 80 10:19 09.04.2020
5145 Clouds 32 1011 59 10000 6.2 80 10:19 09.04.2020
5146 Rain 33 1011 56 10000 3.6 120 09:55 09.04.2020
5147 Rain 33 1011 56 10000 3.6 120 09:37 09.04.2020
5148 Rain 33 1011 56 10000 3.6 120 09:19 09.04.2020
5149 Clouds 33 1011 55 10000 3.6 100 08:42 09.04.2020
5150 Clouds 33 1011 55 10000 3.6 100 08:23 09.04.2020
5151 Clouds 33 1013 59 10000 4.1 80 07:51 09.04.2020
5152 Clouds 32 1013 59 10000 4.1 80 07:23 09.04.2020
5153 Clouds 32 1013 59 10000 3.6 90 06:50 09.04.2020
5154 Clouds 32 1014 59 10000 2.1 90 05:49 09.04.2020
5155 Clouds 31 1014 59 10000 2.1 90 05:28 09.04.2020
5156 Clouds 30 1014 70 10000 1 0 02:37 09.04.2020
5157 Clouds 30 1014 70 10000 1 0 02:18 09.04.2020
5158 Clouds 29 1013 70 10000 2.1 80 01:39 09.04.2020
5159 Clouds 29 1013 70 10000 2.1 80 01:39 09.04.2020
5160 Clouds 28 1013 70 10000 2.1 80 01:19 09.04.2020
5161 Clouds 27 1012 78 10000 2.53 111 00:38 09.04.2020
5162 Clouds 27 1012 78 10000 1.93 89 00:18 09.04.2020
5163 Clouds 27 1012 78 10000 1.93 89 23:44 08.04.2020
5164 Clouds 27 1012 78 10000 1.93 89 23:24 08.04.2020
5165 Clouds 27 1011 69 10000 1 0 22:57 08.04.2020
5166 Clouds 27 1011 69 10000 1 0 22:39 08.04.2020
5167 Clouds 27 1012 74 10000 0.5 0 22:21 08.04.2020
5168 Clouds 27 1012 74 10000 0.5 0 21:55 08.04.2020
5169 Clouds 27 1012 74 10000 0.5 0 21:37 08.04.2020
5170 Clouds 27 1012 74 10000 0.5 0 21:19 08.04.2020
5171 Clouds 27 1012 69 10000 1 0 20:41 08.04.2020
5172 Clouds 27 1012 74 10000 1 40 20:22 08.04.2020
5173 Clouds 27 1012 74 10000 1 40 19:59 08.04.2020
5174 Clouds 27 1012 74 10000 1 40 19:40 08.04.2020
5175 Clouds 27 1012 74 10000 1 40 19:21 08.04.2020
5176 Clouds 28 1013 66 10000 2.1 100 18:55 08.04.2020
5177 Clouds 28 1013 66 10000 2.1 100 18:55 08.04.2020
5178 Clouds 28 1013 66 10000 2.1 100 18:36 08.04.2020
5179 Clouds 28 1013 70 10000 2.6 110 18:18 08.04.2020
5180 Clouds 28 1013 70 10000 2.6 110 17:42 08.04.2020
5181 Clouds 28 1013 70 10000 2.6 110 17:20 08.04.2020
5182 Clouds 29 1013 70 10000 3.1 120 16:56 08.04.2020
5183 Clouds 29 1013 70 10000 3.1 120 16:37 08.04.2020
5184 Clouds 29 1012 70 10000 3.1 130 16:19 08.04.2020
5185 Clouds 29 1012 66 10000 3.1 130 15:38 08.04.2020
5186 Clouds 29 1012 66 10000 3.1 130 15:20 08.04.2020
5187 Clouds 29 1012 66 10000 3.1 130 14:55 08.04.2020
5188 Clouds 29 1012 66 10000 3.1 130 14:55 08.04.2020
5189 Clouds 29 1012 66 10000 3.1 130 14:55 08.04.2020
5190 Clouds 29 1012 66 10000 3.1 130 14:37 08.04.2020
5191 Clouds 30 1012 66 10000 3.1 130 14:19 08.04.2020
5192 Clouds 30 1011 55 10000 3.6 130 13:44 08.04.2020
5193 Clouds 30 1011 55 10000 3.6 130 13:21 08.04.2020
5194 Clouds 31 1010 62 10000 3.6 110 12:43 08.04.2020
5195 Clouds 31 1010 62 10000 3.6 110 12:19 08.04.2020
5196 Clouds 31 1010 62 10000 3.6 110 12:19 08.04.2020
5197 Clouds 31 1009 62 10000 3.6 110 11:59 08.04.2020
5198 Clouds 31 1009 62 10000 3.6 110 11:41 08.04.2020
5199 Clouds 32 1009 62 10000 3.6 110 11:22 08.04.2020
5200 Clouds 32 1009 52 10000 4.1 110 10:58 08.04.2020
5201 Clouds 33 1009 52 10000 4.1 110 10:39 08.04.2020
5202 Clouds 33 1009 52 10000 4.1 110 10:20 08.04.2020
5203 Clouds 34 1009 50 10000 3.6 0 09:56 08.04.2020
5204 Clouds 34 1009 50 10000 3.6 0 09:38 08.04.2020
5205 Clouds 35 1009 50 10000 3.6 0 09:18 08.04.2020
5206 Clouds 35 1009 56 10000 4.1 280 08:42 08.04.2020
5207 Clouds 34 1009 56 10000 4.1 280 08:23 08.04.2020
5208 Clouds 34 1009 56 10000 4.1 280 08:23 08.04.2020
5209 Clouds 34 1010 59 10000 4.6 280 07:47 08.04.2020
5210 Clouds 34 1010 59 10000 4.6 280 07:28 08.04.2020
5211 Clouds 33 1011 59 10000 4.1 280 06:59 08.04.2020
5212 Clouds 33 1011 59 10000 4.1 280 06:19 08.04.2020
5213 Clouds 31 1012 62 10000 4.1 280 04:19 08.04.2020
5214 Clouds 30 1012 66 10000 3.6 10 02:49 08.04.2020
5215 Clouds 29 1012 66 10000 3.6 10 02:20 08.04.2020
5216 Clouds 28 1011 74 10000 3.6 10 01:45 08.04.2020
5217 Clouds 28 1011 74 10000 3.6 10 01:23 08.04.2020
5218 Clouds 27 1010 74 10000 3.6 10 00:41 08.04.2020
5219 Clouds 27 1010 74 10000 3.6 10 00:21 08.04.2020
5220 Clouds 27 1010 69 10000 3.1 10 23:39 07.04.2020
5221 Clouds 27 1010 69 10000 3.1 10 23:21 07.04.2020
5222 Clouds 27 1010 74 10000 2.1 260 22:57 07.04.2020
5223 Clouds 27 1010 74 10000 2.1 260 22:39 07.04.2020
5224 Clouds 27 1010 74 10000 2.1 260 22:19 07.04.2020
5225 Clouds 28 1010 78 10000 1 0 21:56 07.04.2020
5226 Clouds 28 1010 78 10000 1 0 21:56 07.04.2020
5227 Clouds 28 1010 78 10000 1 0 21:38 07.04.2020
5228 Clouds 28 1010 78 10000 1 0 21:19 07.04.2020
5229 Rain 28 1010 78 10000 1 0 20:56 07.04.2020
5230 Rain 28 1010 78 10000 1 0 20:37 07.04.2020
5231 Rain 28 1010 78 10000 1 0 20:19 07.04.2020
5232 Clouds 28 1010 70 10000 1.83 54 19:56 07.04.2020
5233 Clouds 28 1010 70 10000 1.83 54 19:56 07.04.2020
5234 Clouds 28 1010 70 10000 1.83 54 19:36 07.04.2020
5235 Clouds 28 1012 74 10000 1 0 19:18 07.04.2020
5236 Clouds 29 1012 74 10000 1 0 18:54 07.04.2020
5237 Clouds 29 1012 74 10000 1 0 18:36 07.04.2020
5238 Clouds 29 1012 74 10000 1 0 18:18 07.04.2020
5239 Clouds 29 1011 74 10000 1 0 17:41 07.04.2020
5240 Clouds 29 1011 74 10000 1 0 17:20 07.04.2020
5241 Clouds 29 1011 74 10000 1 0 16:45 07.04.2020
5242 Clouds 29 1011 74 10000 1 0 16:26 07.04.2020
5243 Clouds 29 1010 74 10000 2.1 220 15:47 07.04.2020
5244 Clouds 29 1010 74 10000 2.6 240 15:27 07.04.2020
5245 Clouds 29 1010 74 10000 2.6 240 14:58 07.04.2020
5246 Clouds 29 1010 74 10000 2.6 240 14:39 07.04.2020
5247 Clouds 29 1010 74 10000 2.6 240 14:20 07.04.2020
5248 Clouds 30 1009 66 10000 3.1 240 13:43 07.04.2020
5249 Clouds 30 1009 66 10000 3.1 240 13:21 07.04.2020
5250 Clouds 30 1009 66 10000 4.6 240 12:59 07.04.2020
5251 Clouds 30 1009 66 10000 4.6 240 12:39 07.04.2020
5252 Clouds 30 1009 66 10000 4.6 240 12:21 07.04.2020
5253 Clouds 31 1008 66 10000 7.2 260 11:58 07.04.2020
5254 Clouds 31 1008 66 10000 7.2 260 11:40 07.04.2020
5255 Clouds 32 1008 66 10000 7.2 260 11:21 07.04.2020
5256 Clouds 33 1008 62 10000 7.2 260 10:54 07.04.2020
5257 Clouds 33 1008 62 10000 7.2 260 10:36 07.04.2020
5258 Clouds 33 1008 62 10000 7.2 260 10:18 07.04.2020
5259 Clouds 35 1008 46 10000 5.1 280 09:40 07.04.2020
5260 Clouds 34 1008 46 10000 5.1 280 09:18 07.04.2020
5261 Clouds 35 1009 44 10000 4.1 300 08:40 07.04.2020
5262 Clouds 35 1009 44 10000 4.1 300 08:21 07.04.2020
5263 Clouds 35 1010 50 10000 4.1 290 07:47 07.04.2020
5264 Clouds 35 1010 50 10000 4.1 290 07:26 07.04.2020
5265 Clouds 34 1011 46 10000 2.1 0 06:53 07.04.2020
5266 Clouds 33 1011 46 10000 2.1 0 06:27 07.04.2020
5267 Clouds 33 1012 52 10000 2.1 0 05:59 07.04.2020
5268 Clouds 33 1012 52 10000 2.1 0 05:26 07.04.2020
5269 Clouds 32 1012 55 10000 2.6 130 04:22 07.04.2020
5270 Clouds 30 1012 62 10000 1.5 0 03:23 07.04.2020
5271 Clouds 31 1012 66 10000 2.1 0 02:46 07.04.2020
5272 Clouds 28 1011 74 10000 1 0 01:40 07.04.2020
5273 Clouds 28 1011 74 10000 1 0 01:21 07.04.2020
5274 Clouds 27 1011 74 10000 1 0 00:26 07.04.2020
5275 Clouds 27 1010 74 10000 1 0 23:43 06.04.2020
5276 Clouds 27 1010 74 10000 1 0 23:22 06.04.2020
5277 Clouds 27 1010 74 10000 1 0 23:22 06.04.2020
5278 Clouds 26 1010 78 10000 1 70 22:55 06.04.2020
5279 Clouds 27 1010 78 10000 1 70 22:37 06.04.2020
5280 Clouds 27 1010 78 10000 1 70 22:18 06.04.2020
5281 Clouds 27 1010 74 10000 1.5 80 21:43 06.04.2020
5282 Clouds 27 1010 74 10000 1.5 80 21:20 06.04.2020
5283 Clouds 27 1010 65 10000 2.6 0 20:58 06.04.2020
5284 Clouds 27 1010 65 10000 2.6 0 20:58 06.04.2020
5285 Clouds 27 1010 65 10000 2.6 0 20:40 06.04.2020
5286 Clouds 27 1010 65 10000 2.6 0 20:21 06.04.2020
5287 Clouds 27 1010 65 10000 2.6 120 19:58 06.04.2020
5288 Clouds 28 1010 65 10000 2.6 120 19:39 06.04.2020
5289 Clouds 28 1011 69 10000 2.1 0 19:20 06.04.2020
5290 Clouds 28 1011 69 10000 2.1 0 18:43 06.04.2020
5291 Clouds 28 1011 69 10000 2.1 0 18:24 06.04.2020
5292 Clouds 29 1011 62 10000 2.6 0 17:59 06.04.2020
5293 Clouds 29 1011 62 10000 2.6 0 17:41 06.04.2020
5294 Clouds 29 1011 62 10000 2.6 0 17:18 06.04.2020
5295 Clouds 29 1011 66 10000 3.1 120 16:49 06.04.2020
5296 Clouds 29 1011 66 10000 3.1 120 16:30 06.04.2020
5297 Clouds 29 1010 66 10000 3.6 120 14:57 06.04.2020
5298 Clouds 29 1010 66 10000 3.6 120 14:57 06.04.2020
5299 Clouds 29 1010 66 10000 3.6 120 14:57 06.04.2020
5300 Clouds 30 1009 62 10000 3.6 120 13:45 06.04.2020
5301 Clouds 30 1009 62 10000 3.6 120 13:22 06.04.2020
5302 Clouds 31 1009 58 10000 4.1 120 12:46 06.04.2020
5303 Clouds 31 1009 58 10000 4.1 120 12:20 06.04.2020
5304 Clouds 31 1009 58 10000 4.1 120 12:20 06.04.2020
5305 Clouds 32 1008 55 10000 5.1 110 11:42 06.04.2020
5306 Clouds 32 1008 55 10000 5.1 110 11:23 06.04.2020
5307 Clouds 32 1008 55 10000 5.1 110 11:23 06.04.2020
5308 Clouds 32 1008 55 10000 5.1 110 11:23 06.04.2020
5309 Clouds 32 1008 55 10000 5.1 110 11:22 06.04.2020
5310 Clouds 32 1008 55 10000 5.1 110 11:22 06.04.2020
5311 Clouds 33 1008 52 10000 3.6 0 10:42 06.04.2020
5312 Clouds 33 1008 52 10000 3.6 0 10:42 06.04.2020
5313 Clouds 33 1008 52 10000 3.6 0 10:42 06.04.2020
5314 Clouds 33 1008 52 10000 3.6 0 10:42 06.04.2020
5315 Clouds 33 1008 52 10000 3.6 0 10:42 06.04.2020
5316 Clouds 33 1008 52 10000 3.6 0 10:21 06.04.2020
5317 Clouds 33 1009 49 10000 5.7 120 09:40 06.04.2020
5318 Clouds 33 1009 49 10000 5.7 120 09:40 06.04.2020
5319 Clouds 33 1009 49 10000 5.7 120 09:20 06.04.2020
5320 Clouds 33 1009 49 10000 5.7 120 09:20 06.04.2020
5321 Clouds 34 1010 49 10000 4.1 140 08:47 06.04.2020
5322 Clouds 34 1010 49 10000 4.1 140 08:29 06.04.2020
5323 Clouds 34 1010 49 10000 4.1 140 08:29 06.04.2020
5324 Clouds 34 1010 49 10000 4.1 140 08:29 06.04.2020
5325 Clouds 34 1010 49 10000 4.1 140 08:29 06.04.2020
5326 Clouds 34 1010 49 10000 4.1 140 08:28 06.04.2020
5327 Clouds 34 1011 47 10000 4.1 0 07:23 06.04.2020
5328 Clouds 33 1012 52 10000 4.6 120 06:27 06.04.2020
5329 Clouds 32 1013 55 10000 3.6 130 05:54 06.04.2020
5330 Clouds 31 1014 58 10000 3.6 110 03:57 06.04.2020
5331 Clouds 29 1014 62 10000 3.1 90 02:52 06.04.2020
5332 Clouds 29 1013 69 10000 2.1 90 01:56 06.04.2020
5333 Clouds 29 1013 69 10000 2.1 90 01:56 06.04.2020
5334 Clouds 27 1013 78 10000 1 90 00:55 06.04.2020
5335 Clouds 26 1013 78 10000 1 90 00:28 06.04.2020
5336 Clouds 26 1013 78 10000 1 90 00:28 06.04.2020
5337 Clouds 26 1012 78 10000 2.1 80 23:52 05.04.2020
5338 Clouds 26 1012 78 10000 2.1 80 23:33 05.04.2020
5339 Clouds 26 1011 78 10000 2.1 90 22:58 05.04.2020
5340 Clouds 26 1011 78 10000 2.1 90 22:40 05.04.2020
5341 Clouds 26 1011 78 10000 2.1 90 22:22 05.04.2020
5342 Clouds 26 1011 74 10000 1.5 90 21:59 05.04.2020
5343 Clouds 26 1011 74 10000 1.5 90 21:41 05.04.2020
5344 Clouds 26 1011 74 10000 1.5 90 21:41 05.04.2020
5345 Clouds 26 1011 74 10000 1.5 90 21:22 05.04.2020
5346 Clouds 26 1011 74 10000 1.5 90 21:22 05.04.2020
5347 Clouds 27 1012 69 10000 3.1 120 20:22 05.04.2020
5348 Clouds 27 1012 69 10000 4.1 120 19:43 05.04.2020
5349 Clouds 27 1012 69 10000 4.1 120 19:22 05.04.2020
5350 Clouds 27 1013 69 10000 4.1 120 18:47 05.04.2020
5351 Clouds 27 1013 69 10000 4.1 120 18:18 05.04.2020
5352 Clouds 27 1013 69 10000 3.6 110 17:42 05.04.2020
5353 Clouds 27 1013 69 10000 3.6 110 17:42 05.04.2020
5354 Clouds 27 1013 69 10000 3.6 110 17:42 05.04.2020
5355 Clouds 27 1013 69 10000 3.6 110 17:42 05.04.2020
5356 Clouds 28 1013 69 10000 3.6 110 17:21 05.04.2020
5357 Clouds 28 1013 69 10000 3.6 110 17:21 05.04.2020
5358 Clouds 28 1013 69 10000 3.6 110 17:21 05.04.2020
5359 Clouds 28 1013 65 10000 4.1 120 16:47 05.04.2020
5360 Clouds 28 1013 65 10000 4.1 120 16:47 05.04.2020
5361 Clouds 28 1013 65 10000 4.1 120 16:47 05.04.2020
5362 Clouds 28 1013 65 10000 4.1 120 16:18 05.04.2020
5363 Clouds 28 1013 69 10000 4.1 120 15:45 05.04.2020
5364 Clouds 28 1013 69 10000 4.1 120 15:25 05.04.2020
5365 Clouds 29 1012 55 10000 3.6 110 14:48 05.04.2020
5366 Clouds 29 1012 55 10000 3.6 110 14:48 05.04.2020
5367 Clouds 29 1012 55 10000 3.6 110 14:48 05.04.2020
5368 Clouds 29 1012 55 10000 3.6 110 14:48 05.04.2020
5369 Clouds 30 1012 62 10000 3.6 350 13:47 05.04.2020
5370 Clouds 30 1012 62 10000 3.6 350 13:47 05.04.2020
5371 Clouds 31 1010 46 10000 4.6 110 13:01 05.04.2020
5372 Clouds 32 1010 41 10000 4.6 130 11:58 05.04.2020
5373 Clouds 32 1010 41 10000 4.6 130 11:38 05.04.2020
5374 Clouds 33 1010 41 10000 4.6 130 11:19 05.04.2020
5375 Clouds 33 1010 40 10000 5.1 130 10:45 05.04.2020
5376 Clouds 33 1010 40 10000 5.1 130 10:21 05.04.2020
5377 Clouds 34 1010 44 10000 8.2 150 09:52 05.04.2020
5378 Clouds 34 1010 44 10000 8.2 150 09:52 05.04.2020
5379 Clouds 34 1010 44 10000 8.2 150 09:52 05.04.2020
5380 Clouds 34 1010 44 10000 8.2 150 09:25 05.04.2020
5381 Clouds 34 1010 44 10000 8.2 150 09:25 05.04.2020
5382 Clouds 34 1010 44 10000 8.2 150 09:25 05.04.2020
5383 Clouds 34 1010 44 10000 8.2 150 09:25 05.04.2020
5384 Clouds 34 1012 41 10000 5.1 130 07:58 05.04.2020
5385 Clouds 32 1014 55 10000 3.6 130 05:11 05.04.2020
5386 Clouds 31 1015 66 10000 3.6 110 03:35 05.04.2020
5387 Clouds 30 1014 66 10000 3.6 130 02:56 05.04.2020
5388 Clouds 29 1014 69 10000 2.6 120 01:52 05.04.2020
5389 Clouds 29 1014 69 10000 2.6 120 01:52 05.04.2020
5390 Clouds 29 1014 69 10000 2.6 120 01:33 05.04.2020
5391 Clouds 25 1013 78 10000 1.5 70 00:48 05.04.2020
5392 Clouds 25 1013 78 10000 1.5 70 00:22 05.04.2020
5393 Clouds 26 1012 74 10000 2.1 100 23:57 04.04.2020
5394 Clouds 26 1012 74 10000 2.1 100 23:38 04.04.2020
5395 Clouds 26 1012 74 10000 2.1 100 23:20 04.04.2020
5396 Clouds 25 1012 78 10000 2.1 80 22:56 04.04.2020
5397 Clouds 26 1012 78 10000 2.1 80 22:37 04.04.2020
5398 Clouds 26 1012 78 10000 2.1 80 22:19 04.04.2020
5399 Clouds 26 1012 78 10000 2.6 110 21:55 04.04.2020
5400 Clouds 26 1012 78 10000 2.6 110 21:36 04.04.2020
5401 Clouds 26 1012 78 10000 2.6 110 21:18 04.04.2020
5402 Clouds 26 1012 74 10000 2.6 100 20:42 04.04.2020
5403 Clouds 26 1012 74 10000 2.6 100 20:23 04.04.2020
5404 Clouds 27 1012 69 10000 3.6 110 19:59 04.04.2020
5405 Clouds 27 1012 69 10000 3.6 110 19:38 04.04.2020
5406 Clouds 27 1012 69 10000 3.6 110 19:19 04.04.2020
5407 Clouds 27 1013 74 10000 3.1 120 18:57 04.04.2020
5408 Clouds 27 1013 74 10000 3.1 120 18:38 04.04.2020
5409 Clouds 27 1013 74 10000 3.1 120 18:19 04.04.2020
5410 Clouds 27 1013 69 10000 3.6 120 17:56 04.04.2020
5411 Clouds 28 1013 69 10000 3.6 120 17:38 04.04.2020
5412 Clouds 28 1013 69 10000 3.6 120 17:18 04.04.2020
5413 Clouds 28 1013 65 10000 3.1 120 16:42 04.04.2020
5414 Clouds 28 1013 65 10000 3.1 120 16:23 04.04.2020
5415 Clouds 28 1013 62 10000 4.1 120 15:57 04.04.2020
5416 Clouds 29 1013 62 10000 4.1 120 15:38 04.04.2020
5417 Clouds 29 1013 62 10000 4.1 120 15:19 04.04.2020
5418 Clouds 29 1012 62 10000 4.6 120 14:44 04.04.2020
5419 Clouds 29 1012 62 10000 4.6 120 14:23 04.04.2020
5420 Clouds 29 1011 62 10000 4.1 130 13:56 04.04.2020
5421 Clouds 30 1011 62 10000 4.1 130 13:38 04.04.2020
5422 Clouds 30 1011 62 10000 4.1 130 13:20 04.04.2020
5423 Clouds 30 1011 62 10000 5.1 130 12:46 04.04.2020
5424 Clouds 30 1011 62 10000 5.1 130 12:27 04.04.2020
5425 Clouds 31 1011 55 10000 4.6 130 11:59 04.04.2020
5426 Clouds 31 1011 55 10000 4.6 130 11:40 04.04.2020
5427 Clouds 32 1011 55 10000 4.6 130 11:21 04.04.2020
5428 Clouds 32 1011 50 10000 5.1 130 10:57 04.04.2020
5429 Clouds 32 1011 50 10000 5.1 130 10:39 04.04.2020
5430 Clouds 33 1011 50 10000 5.1 130 10:21 04.04.2020
5431 Clouds 34 1011 46 10000 4.6 130 09:55 04.04.2020
5432 Clouds 34 1011 46 10000 4.6 130 09:37 04.04.2020
5433 Clouds 34 1011 46 10000 4.6 130 09:19 04.04.2020
5434 Clouds 34 1011 46 10000 5.1 0 08:42 04.04.2020
5435 Clouds 34 1011 46 10000 5.1 0 08:21 04.04.2020
5436 Clouds 34 1012 46 10000 4.6 140 07:47 04.04.2020
5437 Clouds 34 1012 46 10000 4.6 140 07:27 04.04.2020
5438 Clouds 33 1013 52 10000 4.6 140 06:57 04.04.2020
5439 Clouds 33 1013 52 10000 4.6 140 06:20 04.04.2020
5440 Clouds 33 1014 52 10000 4.1 140 05:43 04.04.2020
5441 Clouds 33 1014 52 10000 4.1 140 05:24 04.04.2020
5442 Clouds 32 1015 58 10000 2.6 0 04:33 04.04.2020
5443 Clouds 31 1015 55 10000 3.1 120 03:55 04.04.2020
5444 Clouds 31 1015 55 10000 3.1 120 03:22 04.04.2020
5445 Clouds 30 1014 58 10000 1 0 02:38 04.04.2020
5446 -273 0 0 0 0 0 02:20 04.04.2020
5447 Clouds 28 1014 69 10000 1.5 0 01:26 04.04.2020
5448 Clouds 26 1013 73 10000 1.5 60 00:52 04.04.2020
5449 Clouds 25 1013 73 10000 1.5 60 00:30 04.04.2020
5450 Clouds 25 1013 73 10000 1.5 60 00:30 04.04.2020
5451 Clouds 25 1012 69 10000 1 80 23:41 03.04.2020
5452 Clouds 25 1012 69 10000 1 80 23:21 03.04.2020
5453 Clouds 26 1012 65 10000 1.5 80 22:59 03.04.2020
5454 Clouds 26 1012 65 10000 1.5 80 22:39 03.04.2020
5455 Clouds 26 1012 65 10000 1.5 80 22:39 03.04.2020
5456 Clouds 26 1012 65 10000 1.5 80 22:19 03.04.2020
5457 Clouds 26 1012 74 10000 1.5 90 21:45 03.04.2020
5458 Clouds 26 1012 74 10000 1.5 90 21:26 03.04.2020
5459 Clouds 26 1013 69 10000 2.1 80 20:57 03.04.2020
5460 Clouds 27 1013 69 10000 2.1 80 20:39 03.04.2020
5461 Clouds 27 1013 69 10000 2.1 80 20:21 03.04.2020
5462 Clouds 27 1013 65 10000 3.1 120 19:58 03.04.2020
5463 Clouds 27 1013 65 10000 3.1 120 19:39 03.04.2020
5464 Clouds 27 1013 65 10000 3.1 120 19:21 03.04.2020
5465 Clouds 27 1013 61 10000 3.1 130 18:59 03.04.2020
5466 Clouds 28 1013 61 10000 3.1 130 18:41 03.04.2020
5467 Clouds 28 1013 61 10000 3.1 130 18:41 03.04.2020
5468 Clouds 28 1013 61 10000 3.1 130 18:23 03.04.2020
5469 Clouds 28 1014 61 10000 3.6 130 17:57 03.04.2020
5470 Clouds 28 1014 61 10000 3.6 130 17:39 03.04.2020
5471 Clouds 28 1014 61 10000 3.6 130 17:18 03.04.2020
5472 Clouds 29 1013 58 10000 4.1 120 16:45 03.04.2020
5473 Clouds 29 1013 58 10000 4.1 120 16:22 03.04.2020
5474 Clouds 29 1013 62 10000 4.1 120 15:58 03.04.2020
5475 Clouds 29 1013 62 10000 4.1 120 15:40 03.04.2020
5476 Clouds 29 1013 62 10000 4.1 120 15:21 03.04.2020
5477 Clouds 29 1013 62 10000 3.6 120 14:56 03.04.2020
5478 Clear 29 1012 55 0 0.89 115 14:38 03.04.2020
5479 Clouds 29 1012 55 10000 4.6 120 14:20 03.04.2020
5480 Clouds 30 1012 55 10000 4.6 120 13:43 03.04.2020
5481 Clouds 30 1012 55 10000 4.6 120 13:25 03.04.2020
5482 Clouds 31 1012 49 10000 4.1 120 12:56 03.04.2020
5483 Clouds 31 1012 49 10000 4.1 120 12:37 03.04.2020
5484 Clouds 31 1012 49 10000 4.1 120 12:18 03.04.2020
5485 Clouds 31 1012 49 10000 4.1 120 12:18 03.04.2020
5486 Clouds 32 1011 46 10000 4.1 130 11:54 03.04.2020
5487 Clouds 32 1011 46 10000 4.1 130 11:36 03.04.2020
5488 Clouds 33 1011 46 10000 4.1 130 11:18 03.04.2020
5489 Clouds 34 1011 46 10000 4.1 130 10:54 03.04.2020
5490 Clouds 34 1011 46 10000 4.1 130 10:36 03.04.2020
5491 Clouds 34 1011 46 10000 4.1 130 10:18 03.04.2020
5492 Clouds 34 1011 49 10000 5.7 0 09:40 03.04.2020
5493 Clouds 34 1011 49 10000 5.7 0 09:40 03.04.2020
5494 Clouds 34 1011 49 10000 5.7 0 09:22 03.04.2020
5495 Clouds 34 1011 49 10000 4.6 130 08:57 03.04.2020
5496 Clouds 34 1011 49 10000 4.6 130 08:39 03.04.2020
5497 Clouds 34 1011 49 10000 4.6 130 08:20 03.04.2020
5498 Clouds 34 1012 49 10000 4.1 0 07:50 03.04.2020
5499 Clouds 34 1012 49 10000 4.1 0 07:31 03.04.2020
5500 Clouds 34 1014 44 10000 4.1 130 06:49 03.04.2020
5501 Clouds 33 1014 44 10000 4.1 130 06:24 03.04.2020
5502 Clouds 33 1015 49 10000 1.5 0 05:40 03.04.2020
5503 Clouds 31 1015 48 10000 2.1 100 03:45 03.04.2020
5504 Clouds 31 1015 48 10000 2.1 100 03:23 03.04.2020
5505 Clouds 30 1015 62 10000 3.1 80 02:28 03.04.2020
5506 Clouds 28 1014 69 10000 2.1 40 01:23 03.04.2020
5507 Clouds 26 1013 83 10000 1.5 90 00:40 03.04.2020
5508 Clouds 25 1013 83 10000 1.5 90 00:20 03.04.2020
5509 Clouds 25 1013 78 10000 3.6 60 23:42 02.04.2020
5510 Clouds 25 1013 78 10000 3.6 60 23:23 02.04.2020
5511 Clouds 26 1012 78 10000 1 0 22:58 02.04.2020
5512 Clouds 26 1012 78 10000 1 0 22:39 02.04.2020
5513 Clouds 26 1012 78 10000 1 0 22:20 02.04.2020
5514 Clouds 26 1012 69 10000 1.5 80 21:54 02.04.2020
5515 Clouds 26 1012 69 10000 1.5 80 21:36 02.04.2020
5516 Clouds 26 1012 69 10000 1.5 80 21:18 02.04.2020
5517 Clouds 27 1012 65 10000 1.5 90 20:42 02.04.2020
5518 Clouds 27 1012 65 10000 1.5 90 20:21 02.04.2020
5519 Clouds 26 1013 78 10000 3.1 0 19:45 02.04.2020
5520 Clouds 26 1013 78 10000 3.1 0 19:21 02.04.2020
5521 Clouds 27 1013 69 10000 3.1 110 19:00 02.04.2020
5522 Clouds 27 1013 69 10000 3.1 110 18:41 02.04.2020
5523 Clouds 27 1013 69 10000 3.1 110 18:20 02.04.2020
5524 Clouds 27 1013 78 10000 3.1 110 17:57 02.04.2020
5525 Clouds 27 1013 78 10000 3.1 110 17:39 02.04.2020
5526 Clouds 27 1013 78 10000 3.1 110 17:20 02.04.2020
5527 Clouds 27 1013 69 10000 3.1 100 16:56 02.04.2020
5528 Clouds 28 1013 69 10000 3.1 100 16:37 02.04.2020
5529 Clouds 28 1013 69 10000 3.1 100 16:19 02.04.2020
5530 Clouds 28 1013 65 10000 3.1 110 15:45 02.04.2020
5531 Clouds 28 1013 65 10000 3.1 110 15:22 02.04.2020
5532 Clouds 29 1012 62 10000 3.1 100 14:59 02.04.2020
5533 Clouds 29 1012 62 10000 3.1 100 14:40 02.04.2020
5534 Clouds 29 1012 62 10000 3.1 100 14:20 02.04.2020
5535 Clouds 29 1012 58 10000 4.1 100 13:57 02.04.2020
5536 Clouds 30 1012 58 10000 4.1 100 13:38 02.04.2020
5537 Clouds 30 1012 58 10000 4.1 100 13:38 02.04.2020
5538 Clouds 30 1012 58 10000 4.1 100 13:20 02.04.2020
5539 Clouds 31 1011 58 10000 3.6 100 12:56 02.04.2020
5540 Clouds 31 1011 58 10000 3.6 100 12:37 02.04.2020
5541 Clouds 31 1011 58 10000 3.6 100 12:19 02.04.2020
5542 Clouds 32 1011 55 10000 4.1 120 11:56 02.04.2020
5543 Clouds 32 1011 55 10000 4.1 120 11:37 02.04.2020
5544 Clouds 32 1011 55 10000 4.1 120 11:37 02.04.2020
5545 Clouds 32 1011 55 10000 4.1 120 11:18 02.04.2020
5546 Clouds 33 1010 52 10000 4.6 120 10:54 02.04.2020
5547 Clouds 33 1010 52 10000 4.6 120 10:36 02.04.2020
5548 Clouds 33 1010 52 10000 4.6 120 10:18 02.04.2020
5549 Clouds 33 1011 52 10000 5.7 110 09:43 02.04.2020
5550 Clouds 34 1011 52 10000 5.7 110 09:24 02.04.2020
5551 Clouds 34 1012 49 10000 7.2 120 08:58 02.04.2020
5552 Clouds 34 1012 49 10000 7.2 120 08:40 02.04.2020
5553 Clouds 34 1012 49 10000 7.2 120 08:20 02.04.2020
5554 Clouds 33 1012 52 10000 7.2 110 07:43 02.04.2020
5555 Clouds 34 1012 52 10000 7.2 110 07:20 02.04.2020
5556 Clouds 33 1013 55 10000 6.2 120 06:57 02.04.2020
5557 Clouds 33 1013 55 10000 6.2 120 06:21 02.04.2020
5558 Clouds 33 1014 55 10000 5.7 110 05:42 02.04.2020
5559 Clouds 32 1015 62 10000 4.1 110 03:24 02.04.2020
5560 Clouds 29 1014 74 10000 2.1 80 01:31 02.04.2020
5561 Clouds 27 1013 78 10000 3.47 85 00:42 02.04.2020
5562 Clouds 26 1013 78 10000 3.47 85 00:24 02.04.2020
5563 Clouds 27 1012 74 10000 2.1 120 23:41 01.04.2020
5564 Clouds 27 1012 74 10000 2.1 120 23:20 01.04.2020
5565 Clouds 27 1011 74 10000 2.6 120 22:58 01.04.2020
5566 Clouds 27 1011 74 10000 2.6 120 22:39 01.04.2020
5567 Clouds 27 1011 74 10000 2.6 120 22:39 01.04.2020
5568 Clouds 27 1011 74 10000 2.6 120 22:21 01.04.2020
5569 Clouds 28 1011 74 10000 3.6 120 21:42 01.04.2020
5570 Clouds 28 1011 74 10000 3.6 120 21:42 01.04.2020
5571 Clouds 28 1011 74 10000 3.6 120 21:22 01.04.2020
5572 Clouds 28 1011 74 10000 3.6 120 21:22 01.04.2020
5573 Clouds 28 1011 74 10000 3.6 120 21:22 01.04.2020
5574 Clouds 28 1011 74 10000 3.1 120 20:58 01.04.2020
5575 Clouds 28 1011 74 10000 3.1 120 20:58 01.04.2020
5576 Clouds 28 1011 74 10000 3.1 120 20:40 01.04.2020
5577 Clouds 28 1011 74 10000 3.1 120 20:21 01.04.2020
5578 Clouds 28 1012 74 10000 3.6 130 20:00 01.04.2020
5579 Clouds 28 1012 74 10000 3.6 130 19:41 01.04.2020
5580 Clouds 28 1012 74 10000 3.6 130 19:21 01.04.2020
5581 Clouds 28 1012 70 10000 3.1 110 18:46 01.04.2020
5582 Clouds 29 1012 70 10000 3.1 110 18:26 01.04.2020
5583 Clouds 29 1012 66 10000 4.6 110 17:58 01.04.2020
5584 Clouds 29 1012 66 10000 4.6 110 17:38 01.04.2020
5585 Clouds 29 1012 66 10000 4.6 110 17:20 01.04.2020
5586 Clouds 29 1012 70 10000 5.1 110 16:59 01.04.2020
5587 Clouds 29 1012 70 10000 5.1 110 16:39 01.04.2020
5588 Clouds 29 1012 70 10000 5.1 110 16:21 01.04.2020
5589 Clouds 29 1011 66 10000 4.1 120 15:58 01.04.2020
5590 Clouds 30 1011 66 10000 4.1 120 15:38 01.04.2020
5591 Clouds 30 1011 66 10000 4.1 120 15:19 01.04.2020
5592 Clouds 30 1011 66 10000 4.1 120 14:55 01.04.2020
5593 Clouds 30 1011 66 10000 4.1 120 14:55 01.04.2020
5594 Clouds 30 1011 66 10000 4.1 120 14:37 01.04.2020
5595 Clouds 30 1011 66 10000 4.1 120 14:19 01.04.2020
5596 Clouds 31 1010 66 10000 4.1 120 13:56 01.04.2020
5597 Clouds 31 1010 66 10000 4.1 120 13:37 01.04.2020
5598 Clouds 31 1010 66 10000 4.1 120 13:18 01.04.2020
5599 Clouds 31 1009 59 10000 1.5 110 12:42 01.04.2020
5600 Clouds 32 1009 59 10000 1.5 110 12:24 01.04.2020
5601 Clouds 32 1009 49 10000 4.6 130 11:59 01.04.2020
5602 Clouds 32 1009 49 10000 4.6 130 11:39 01.04.2020
5603 Clouds 33 1009 49 10000 4.6 130 11:20 01.04.2020
5604 Clouds 33 1009 49 10000 4.6 140 10:56 01.04.2020
5605 Clouds 34 1009 49 10000 4.6 140 10:37 01.04.2020
5606 Clouds 34 1009 49 10000 4.6 140 10:37 01.04.2020
5607 Clouds 34 1009 49 10000 4.6 140 10:18 01.04.2020
5608 Clouds 35 1009 47 10000 5.1 140 09:40 01.04.2020
5609 Clouds 35 1009 47 10000 5.1 140 09:21 01.04.2020
5610 Clouds 35 1010 50 10000 4.1 0 08:59 01.04.2020
5611 Clouds 35 1010 50 10000 4.1 0 08:40 01.04.2020
5612 Clouds 34 1010 50 10000 4.1 0 08:18 01.04.2020
5613 Clouds 34 1011 56 10000 5.1 130 07:42 01.04.2020
5614 Clouds 34 1011 56 10000 5.1 130 07:19 01.04.2020
5615 Clouds 34 1012 52 10000 4.1 140 06:47 01.04.2020
5616 Clouds 34 1012 52 10000 4.1 140 06:21 01.04.2020
5617 Clouds 33 1013 55 10000 3.1 0 05:53 01.04.2020
5618 Clouds 33 1013 52 10000 2.6 0 04:29 01.04.2020
5619 Clouds 32 1014 62 10000 1.5 0 03:27 01.04.2020
5620 Clouds 31 1013 58 10000 1.5 110 02:46 01.04.2020
5621 Clouds 29 1013 69 10000 1.5 70 01:53 01.04.2020
5622 Clouds 28 1013 69 10000 1.5 70 01:27 01.04.2020
5623 Clouds 26 1012 78 10000 1 110 00:47 01.04.2020
5624 Clouds 26 1012 78 10000 1 110 00:24 01.04.2020
5625 Clouds 26 1011 78 10000 2.17 78 23:59 31.03.2020
5626 Clouds 26 1011 78 10000 2.17 78 23:41 31.03.2020
5627 Clouds 26 1011 78 10000 2.17 78 23:22 31.03.2020
5628 Clouds 26 1011 74 10000 0.5 0 22:41 31.03.2020
5629 Clouds 26 1011 74 10000 0.5 0 22:22 31.03.2020
5630 Clouds 27 1011 74 10000 1 0 21:58 31.03.2020
5631 Clouds 27 1011 74 10000 1 0 21:40 31.03.2020
5632 Clouds 27 1011 74 10000 1 0 21:21 31.03.2020
5633 Clouds 27 1011 74 10000 1.5 120 20:58 31.03.2020
5634 Clouds 27 1011 74 10000 1.5 120 20:57 31.03.2020
5635 Clouds 27 1011 74 10000 1.5 120 20:37 31.03.2020
5636 Clouds 27 1011 74 10000 1.5 120 20:19 31.03.2020
5637 Clouds 28 1011 74 10000 2.6 110 19:57 31.03.2020
5638 Clouds 28 1011 74 10000 2.6 110 19:38 31.03.2020
5639 Clouds 28 1011 74 10000 2.6 110 19:19 31.03.2020
5640 Clouds 28 1012 74 10000 3.1 120 18:44 31.03.2020
5641 Clouds 28 1012 74 10000 3.1 120 18:20 31.03.2020
5642 Clouds 29 1012 70 10000 3.1 0 17:57 31.03.2020
5643 Clouds 29 1012 70 10000 3.1 0 17:57 31.03.2020
5644 Clouds 29 1012 70 10000 3.1 0 17:39 31.03.2020
5645 Clouds 29 1012 70 10000 3.1 0 17:39 31.03.2020
5646 Clouds 29 1012 70 10000 3.1 0 17:21 31.03.2020
5647 Clouds 29 1012 66 10000 3.1 130 16:56 31.03.2020
5648 Clouds 29 1012 66 10000 3.1 130 16:36 31.03.2020
5649 Clouds 29 1012 66 10000 3.1 130 16:18 31.03.2020
5650 Clouds 29 1011 70 10000 2.6 140 15:55 31.03.2020
5651 Clouds 29 1011 70 10000 2.6 140 15:36 31.03.2020
5652 Clouds 29 1011 70 10000 2.6 140 15:18 31.03.2020
5653 Clouds 30 1011 66 10000 3.1 140 14:42 31.03.2020
5654 Clouds 30 1011 66 10000 3.1 140 14:22 31.03.2020
5655 Clouds 31 1010 55 10000 3.1 120 13:58 31.03.2020
5656 Clouds 31 1010 55 10000 3.1 120 13:40 31.03.2020
5657 Clouds 31 1010 55 10000 3.1 120 13:19 31.03.2020
5658 Clouds 31 1010 55 10000 3.1 120 13:19 31.03.2020
5659 Clouds 32 1009 49 10000 4.1 110 12:45 31.03.2020
5660 Clouds 32 1009 49 10000 4.1 110 12:20 31.03.2020
5661 Clouds 32 1009 46 10000 4.6 120 11:56 31.03.2020
5662 Clouds 33 1009 46 10000 4.6 120 11:37 31.03.2020
5663 Clouds 33 1009 46 10000 4.6 120 11:19 31.03.2020
5664 Clouds 34 1009 39 10000 3.6 130 10:55 31.03.2020
5665 Clouds 34 1009 39 10000 3.6 130 10:37 31.03.2020
5666 Clouds 35 1009 39 10000 3.6 130 10:18 31.03.2020
5667 Clouds 35 1009 39 10000 3.6 130 10:18 31.03.2020
5668 Clouds 35 1009 39 10000 4.1 0 09:43 31.03.2020
5669 Clouds 35 1009 39 10000 4.1 0 09:25 31.03.2020
5670 Clouds 35 1010 41 10000 4.6 120 08:58 31.03.2020
5671 Clouds 35 1010 41 10000 4.6 120 08:40 31.03.2020
5672 Clouds 35 1010 41 10000 4.6 120 08:20 31.03.2020
5673 Clouds 34 1011 49 10000 3.6 140 07:57 31.03.2020
5674 Clouds 34 1011 49 10000 3.6 140 07:38 31.03.2020
5675 Clouds 34 1011 49 10000 3.6 140 07:20 31.03.2020
5676 Clouds 33 1012 52 10000 4.1 130 06:51 31.03.2020
5677 Clouds 33 1012 52 10000 4.1 130 06:30 31.03.2020
5678 Clouds 33 1013 52 10000 3.1 0 05:40 31.03.2020
5679 Clouds 32 1014 55 10000 2.1 0 03:43 31.03.2020
5680 Clouds 29 1013 58 10000 2.1 10 02:25 31.03.2020
5681 Clouds 28 1012 69 10000 1 0 01:46 31.03.2020
5682 Clouds 26 1012 78 10000 1.5 70 00:51 31.03.2020
5683 Clouds 26 1012 78 10000 1.5 70 00:25 31.03.2020
5684 Clouds 26 1011 69 10000 1.5 100 23:58 30.03.2020
5685 Clouds 26 1011 69 10000 1.5 100 23:38 30.03.2020
5686 Clouds 27 1011 69 10000 1.5 100 23:18 30.03.2020
5687 Clouds 27 1011 69 10000 2.1 100 22:55 30.03.2020
5688 Clouds 27 1011 69 10000 2.1 100 22:36 30.03.2020
5689 Clouds 27 1011 69 10000 2.1 100 22:18 30.03.2020
5690 Clouds 27 1011 65 10000 3.1 110 21:55 30.03.2020
5691 Clouds 27 1011 65 10000 3.1 110 21:36 30.03.2020
5692 Clouds 27 1011 65 10000 3.1 110 21:18 30.03.2020
5693 Clouds 27 1011 65 10000 3.1 120 20:42 30.03.2020
5694 Clouds 27 1011 65 10000 3.1 120 20:24 30.03.2020
5695 Clouds 27 1011 65 10000 3.1 120 20:24 30.03.2020
5696 Clouds 27 1011 69 10000 2.6 130 19:59 30.03.2020
5697 Clouds 27 1011 69 10000 2.6 130 19:59 30.03.2020
5698 Clouds 27 1011 69 10000 2.6 130 19:40 30.03.2020
5699 Clouds 27 1011 69 10000 2.6 130 19:21 30.03.2020
5700 Clouds 28 1012 69 10000 2.6 120 18:56 30.03.2020
5701 Clouds 28 1012 69 10000 2.6 120 18:38 30.03.2020
5702 Clouds 28 1012 69 10000 2.6 120 18:38 30.03.2020
5703 Clouds 28 1012 69 10000 2.6 120 18:19 30.03.2020
5704 Clouds 28 1012 65 10000 3.1 130 17:56 30.03.2020
5705 Clouds 28 1012 65 10000 3.1 130 17:56 30.03.2020
5706 Clouds 28 1012 65 10000 3.1 130 17:37 30.03.2020
5707 Clouds 28 1012 65 10000 3.1 130 17:37 30.03.2020
5708 Clouds 28 1012 65 10000 3.1 130 17:18 30.03.2020
5709 Clouds 28 1012 65 10000 2.1 130 16:54 30.03.2020
5710 Clouds 28 1012 65 10000 2.1 130 16:36 30.03.2020
5711 Clouds 28 1012 65 10000 2.1 130 16:18 30.03.2020
5712 Clouds 29 1011 58 10000 3.1 100 15:41 30.03.2020
5713 Clouds 29 1011 58 10000 3.1 100 15:22 30.03.2020
5714 Clouds 29 1011 55 10000 3.1 100 14:59 30.03.2020
5715 Clouds 29 1011 55 10000 3.1 100 14:38 30.03.2020
5716 Clouds 29 1011 55 10000 3.1 100 14:19 30.03.2020
5717 Clouds 29 1011 55 10000 3.1 100 14:19 30.03.2020
5718 Clouds 29 1010 62 10000 4.1 110 13:58 30.03.2020
5719 Clouds 30 1010 62 10000 4.1 110 13:39 30.03.2020
5720 Clouds 30 1010 62 10000 4.1 110 13:20 30.03.2020
5721 Clouds 31 1010 55 10000 4.1 100 12:45 30.03.2020
5722 Clouds 31 1010 55 10000 4.1 100 12:45 30.03.2020
5723 Clouds 31 1010 55 10000 4.1 100 12:22 30.03.2020
5724 Clouds 31 1009 52 10000 5.1 120 11:59 30.03.2020
5725 Clouds 31 1009 52 10000 5.1 120 11:59 30.03.2020
5726 Clouds 31 1009 52 10000 5.1 120 11:41 30.03.2020
5727 Clouds 31 1009 52 10000 5.1 120 11:22 30.03.2020
5728 Clouds 32 1008 49 10000 6.2 120 10:55 30.03.2020
5729 Clouds 32 1008 49 10000 6.2 120 10:37 30.03.2020
5730 Clouds 32 1008 49 10000 6.2 120 10:18 30.03.2020
5731 Clouds 33 1008 46 10000 5.1 130 09:40 30.03.2020
5732 Clouds 33 1008 46 10000 5.1 130 09:40 30.03.2020
5733 Clouds 34 1008 46 10000 5.1 130 09:20 30.03.2020
5734 Clouds 34 1008 46 10000 5.1 130 09:20 30.03.2020
5735 Clouds 34 1009 46 10000 4.6 130 08:57 30.03.2020
5736 Clouds 33 1009 46 10000 4.6 130 08:38 30.03.2020
5737 Clouds 34 1009 46 10000 4.6 130 08:19 30.03.2020
5738 Clouds 33 1010 52 10000 5.7 120 07:43 30.03.2020
5739 Clouds 33 1010 52 10000 5.7 120 07:21 30.03.2020
5740 Clouds 33 1011 52 10000 4.1 130 06:43 30.03.2020
5741 Clouds 33 1011 52 10000 4.1 130 06:25 30.03.2020
5742 Clouds 33 1012 55 10000 3.6 140 05:43 30.03.2020
5743 Clouds 32 1012 59 10000 3.1 130 04:29 30.03.2020
5744 Clouds 32 1012 62 10000 3.1 110 03:54 30.03.2020
5745 Clouds 30 1012 66 10000 3.1 100 02:45 30.03.2020
5746 Clouds 29 1012 70 10000 2.6 100 01:57 30.03.2020
5747 Clouds 27 1011 74 10000 3.1 110 00:59 30.03.2020
5748 Clouds 27 1011 74 10000 3.1 110 00:28 30.03.2020
5749 Clouds 27 1010 74 10000 2.6 110 23:56 29.03.2020
5750 Clouds 27 1010 74 10000 2.6 110 23:37 29.03.2020
5751 Clouds 27 1010 74 10000 2.6 110 23:18 29.03.2020
5752 Clouds 27 1009 74 10000 4.6 100 22:40 29.03.2020
5753 Clouds 27 1009 74 10000 4.6 100 22:20 29.03.2020
5754 Clouds 27 1009 69 10000 3.6 110 21:59 29.03.2020
5755 Clouds 27 1009 69 10000 3.6 110 21:38 29.03.2020
5756 Clouds 28 1009 69 10000 3.6 110 21:20 29.03.2020
5757 Clouds 28 1010 69 10000 3.1 110 20:55 29.03.2020
5758 Clouds 28 1010 69 10000 3.1 110 20:55 29.03.2020
5759 Clouds 28 1010 69 10000 3.1 110 20:37 29.03.2020
5760 Clouds 28 1010 69 10000 3.1 110 20:18 29.03.2020
5761 Clouds 28 1010 69 10000 3.1 110 20:18 29.03.2020
5762 Clouds 28 1010 65 10000 3.6 110 19:55 29.03.2020
5763 Clouds 28 1010 65 10000 3.6 110 19:37 29.03.2020
5764 Clouds 28 1010 65 10000 3.6 110 19:19 29.03.2020
5765 Clouds 28 1011 65 10000 4.1 110 18:55 29.03.2020
5766 Clouds 28 1011 65 10000 4.1 110 18:55 29.03.2020
5767 Clouds 28 1011 65 10000 4.1 110 18:37 29.03.2020
5768 Clouds 28 1011 65 10000 4.1 110 18:18 29.03.2020
5769 Clouds 28 1011 69 10000 4.6 110 17:54 29.03.2020
5770 Clouds 28 1011 69 10000 4.6 110 17:36 29.03.2020
5771 Clouds 28 1011 69 10000 4.6 110 17:18 29.03.2020
5772 Clouds 28 1011 69 10000 4.6 110 17:18 29.03.2020
5773 Clouds 28 1011 66 10000 4.6 120 16:55 29.03.2020
5774 Clouds 29 1011 66 10000 4.6 120 16:36 29.03.2020
5775 Clouds 29 1011 66 10000 4.6 120 16:36 29.03.2020
5776 Clouds 29 1011 66 10000 4.6 120 16:18 29.03.2020
5777 Clouds 29 1010 66 0 3.1 120 15:40 29.03.2020
5778 Clouds 29 1010 66 0 3.1 120 15:21 29.03.2020
5779 Clouds 29 1010 66 0 3.1 120 15:21 29.03.2020
5780 Clouds 29 1010 66 0 3.1 110 14:57 29.03.2020
5781 Clouds 29 1010 66 0 3.1 110 14:57 29.03.2020
5782 Clouds 29 1010 66 0 3.1 110 14:37 29.03.2020
5783 Clouds 30 1010 66 0 3.1 110 14:19 29.03.2020
5784 Clouds 30 1009 66 10000 4.6 110 13:55 29.03.2020
5785 Clouds 30 1009 66 10000 4.6 110 13:37 29.03.2020
5786 Clouds 30 1009 66 10000 4.6 110 13:19 29.03.2020
5787 Clouds 31 1009 58 10000 5.1 120 12:54 29.03.2020
5788 Clouds 31 1009 58 10000 5.1 120 12:36 29.03.2020
5789 Clouds 31 1009 58 10000 5.1 120 12:18 29.03.2020
5790 Clouds 32 1008 55 10000 5.7 110 11:38 29.03.2020
5791 Clouds 33 1008 55 10000 5.7 110 11:20 29.03.2020
5792 Clouds 34 1008 46 10000 5.7 120 10:40 29.03.2020
5793 Clouds 34 1008 46 10000 5.7 120 10:21 29.03.2020
5794 Clouds 34 1008 49 10000 5.1 120 09:59 29.03.2020
5795 Clouds 34 1008 49 10000 5.1 120 09:38 29.03.2020
5796 Clouds 34 1008 49 10000 5.1 120 09:19 29.03.2020
5797 Clouds 34 1009 49 10000 5.1 120 08:45 29.03.2020
5798 Clouds 34 1009 49 10000 5.1 120 08:27 29.03.2020
5799 Clouds 34 1011 49 10000 4.6 140 07:48 29.03.2020
5800 Clouds 34 1011 49 10000 4.6 140 07:24 29.03.2020
5801 Clouds 33 1011 52 10000 4.6 130 06:55 29.03.2020
5802 Clouds 33 1012 59 10000 3.1 0 04:57 29.03.2020
5803 Clouds 32 1015 58 10000 2.1 110 03:41 29.03.2020
5804 Clouds 32 1015 58 10000 2.1 110 03:22 29.03.2020
5805 Clouds 30 1012 62 10000 1.5 0 01:44 29.03.2020
5806 Clouds 31 1012 62 10000 1.5 0 01:23 29.03.2020
5807 Clouds 28 1010 94 10000 1 0 00:48 29.03.2020
5808 Clouds 28 1010 94 10000 1 0 00:28 29.03.2020
5809 Clouds 27 1011 78 10000 1 0 23:41 28.03.2020
5810 Clouds 27 1011 78 10000 1 0 23:23 28.03.2020
5811 Clouds 27 1011 78 10000 1 0 23:23 28.03.2020
5812 Clouds 27 1011 78 10000 0.5 50 22:54 28.03.2020
5813 Clouds 27 1011 78 10000 0.5 50 22:36 28.03.2020
5814 Clouds 27 1011 78 10000 0.5 50 22:18 28.03.2020
5815 Clouds 26 1011 83 10000 0.5 0 21:40 28.03.2020
5816 Clouds 26 1011 83 10000 0.5 0 21:40 28.03.2020
5817 Clouds 27 1011 83 10000 0.5 0 21:21 28.03.2020
5818 Clouds 27 1011 74 10000 1.5 0 20:58 28.03.2020
5819 Clouds 27 1011 74 10000 1.5 0 20:38 28.03.2020
5820 Clouds 27 1011 74 10000 1.5 0 20:20 28.03.2020
5821 Clouds 28 1011 74 10000 1.5 100 19:56 28.03.2020
5822 Clouds 28 1011 74 10000 1.5 100 19:36 28.03.2020
5823 Clouds 28 1011 74 10000 1.5 100 19:36 28.03.2020
5824 Clouds 28 1011 74 10000 1.5 100 19:18 28.03.2020
5825 Clouds 28 1011 69 10000 3.6 110 18:42 28.03.2020
5826 Clouds 28 1011 69 10000 3.6 110 18:21 28.03.2020
5827 Clouds 28 1012 69 10000 2.1 120 17:56 28.03.2020
5828 Clouds 28 1010 68 0 3.68 76 17:36 28.03.2020
5829 Clouds 29 1012 66 10000 5.1 120 17:18 28.03.2020
5830 Clouds 29 1012 66 10000 5.1 120 16:40 28.03.2020
5831 Clouds 29 1012 66 10000 5.1 120 16:20 28.03.2020
5832 Clouds 29 1011 70 10000 4.1 100 15:55 28.03.2020
5833 Clouds 29 1011 70 10000 4.1 100 15:37 28.03.2020
5834 Clouds 29 1011 70 10000 4.1 100 15:18 28.03.2020
5835 Clouds 29 1011 70 10000 4.1 120 14:41 28.03.2020
5836 Clouds 29 1011 70 10000 4.1 120 14:21 28.03.2020
5837 Clouds 29 1011 70 10000 5.7 50 13:44 28.03.2020
5838 Clouds 29 1011 70 10000 5.7 50 13:25 28.03.2020
5839 Clouds 30 1009 66 10000 4.1 110 12:57 28.03.2020
5840 Clouds 30 1009 66 10000 4.1 110 12:37 28.03.2020
5841 Clouds 30 1009 66 10000 4.1 110 12:18 28.03.2020
5842 Clouds 31 1009 52 10000 4.6 120 11:41 28.03.2020
5843 Clouds 31 1009 52 10000 4.6 120 11:20 28.03.2020
5844 Clouds 32 1008 43 10000 4.1 120 10:40 28.03.2020
5845 Clouds 32 1008 43 10000 4.1 120 10:22 28.03.2020
5846 Clouds 34 1008 38 10000 5.7 120 09:43 28.03.2020
5847 Clouds 34 1008 38 10000 5.7 120 09:24 28.03.2020
5848 Clouds 34 1008 38 10000 5.1 130 08:59 28.03.2020
5849 Clouds 34 1008 38 10000 5.1 130 08:41 28.03.2020
5850 Clouds 34 1008 38 10000 5.1 130 08:22 28.03.2020
5851 Clouds 34 1009 41 10000 4.1 0 07:46 28.03.2020
5852 Clouds 34 1009 41 10000 4.1 0 07:28 28.03.2020
5853 Clouds 34 1010 46 10000 4.6 120 06:36 28.03.2020
5854 Clouds 34 1011 55 10000 2.1 0 05:54 28.03.2020
5855 Clouds 33 1011 55 10000 2.1 0 05:21 28.03.2020
5856 Clouds 33 1012 55 10000 2.1 0 04:42 28.03.2020
5857 Clouds 33 1013 52 10000 2.6 0 03:54 28.03.2020
5858 Clouds 31 1013 58 10000 3.6 90 02:25 28.03.2020
5859 Clouds 30 1013 62 9000 2.6 110 01:41 28.03.2020
5860 Clouds 30 1013 62 9000 2.6 110 01:18 28.03.2020
5861 Clouds 29 1012 69 8000 1.5 100 00:37 28.03.2020
5862 Clouds 27 1011 74 10000 1.5 80 23:57 27.03.2020
5863 Clouds 27 1011 74 10000 1.5 80 23:39 27.03.2020
5864 Clouds 26 1011 74 10000 1.5 80 23:21 27.03.2020
5865 Clouds 26 1011 83 10000 3.1 70 22:56 27.03.2020
5866 Clouds 26 1011 83 10000 3.1 70 22:37 27.03.2020
5867 Clouds 26 1011 83 10000 3.1 70 22:19 27.03.2020
5868 Clouds 27 1011 74 10000 2.1 110 21:43 27.03.2020
5869 Clouds 27 1011 74 10000 2.1 110 21:24 27.03.2020
5870 Clouds 27 1011 74 10000 2.1 130 20:58 27.03.2020
5871 Clouds 27 1011 74 10000 2.1 130 20:40 27.03.2020
5872 Clouds 27 1011 74 10000 2.1 130 20:20 27.03.2020
5873 Clouds 27 1011 74 10000 3.1 110 19:57 27.03.2020
5874 Clouds 27 1011 74 10000 3.1 110 19:39 27.03.2020
5875 Clouds 28 1011 74 10000 3.1 110 19:20 27.03.2020
5876 Clouds 28 1011 74 10000 2.6 110 18:44 27.03.2020
5877 Clouds 28 1011 74 10000 2.6 110 18:24 27.03.2020
5878 Clouds 28 1012 74 10000 3.1 100 17:57 27.03.2020
5879 Clouds 28 1012 74 10000 3.1 100 17:38 27.03.2020
5880 Clouds 28 1012 74 10000 3.1 100 17:19 27.03.2020
5881 Clouds 28 1012 74 10000 3.6 110 16:44 27.03.2020
5882 Clouds 28 1012 74 10000 3.6 110 16:25 27.03.2020
5883 Clouds 28 1012 66 10000 4.1 110 15:46 27.03.2020
5884 Clouds 29 1012 66 10000 4.1 110 15:27 27.03.2020
5885 Clouds 29 1012 70 10000 4.1 110 14:59 27.03.2020
5886 Clouds 29 1012 70 10000 4.1 110 14:40 27.03.2020
5887 Clouds 29 1012 70 10000 4.1 110 14:22 27.03.2020
5888 Clouds 29 1011 70 10000 3.6 110 13:54 27.03.2020
5889 Clouds 29 1011 70 10000 3.6 110 13:36 27.03.2020
5890 Clouds 29 1011 70 10000 3.6 110 13:18 27.03.2020
5891 Clouds 29 1011 70 10000 3.6 110 13:18 27.03.2020
5892 Clouds 30 1010 66 10000 4.6 110 12:42 27.03.2020
5893 Clouds 30 1010 66 10000 4.6 110 12:19 27.03.2020
5894 Clouds 31 1010 62 10000 4.1 120 11:44 27.03.2020
5895 Clouds 31 1010 62 10000 4.1 120 11:25 27.03.2020
5896 Clouds 32 1010 55 10000 4.6 120 10:59 27.03.2020
5897 Clouds 32 1010 55 10000 4.6 120 10:41 27.03.2020
5898 Clouds 32 1010 55 10000 4.6 120 10:22 27.03.2020
5899 Clouds 34 1010 49 10000 4.1 110 09:58 27.03.2020
5900 Clouds 34 1010 49 10000 4.1 110 09:39 27.03.2020
5901 Clouds 34 1010 49 10000 4.1 110 09:21 27.03.2020
5902 Clouds 34 1010 46 10000 5.1 110 08:58 27.03.2020
5903 Clouds 34 1010 46 10000 5.1 110 08:39 27.03.2020
5904 Clouds 33 1010 46 10000 5.1 110 08:21 27.03.2020
5905 Clouds 34 1011 49 10000 5.1 100 07:53 27.03.2020
5906 Clouds 33 1011 49 10000 5.1 100 07:28 27.03.2020
5907 Clouds 33 1012 49 10000 6.2 110 06:59 27.03.2020
5908 Clouds 33 1012 49 10000 6.2 110 06:37 27.03.2020
5909 Clouds 33 1013 49 10000 5.1 110 05:38 27.03.2020
5910 Clouds 31 1014 66 9000 4.6 110 02:51 27.03.2020
5911 Clouds 28 1013 70 10000 3.6 110 01:50 27.03.2020
5912 Clouds 28 1013 78 10000 1.5 60 00:56 27.03.2020
5913 Clouds 27 1013 78 10000 1.5 60 00:32 27.03.2020
5914 Clouds 26 1012 83 10000 1 0 23:45 26.03.2020
5915 Clouds 26 1012 83 10000 1 0 23:25 26.03.2020
5916 Clouds 26 1012 74 10000 2.1 110 22:59 26.03.2020
5917 Clouds 26 1012 74 10000 2.1 110 22:39 26.03.2020
5918 Clouds 26 1012 74 10000 2.1 110 22:21 26.03.2020
5919 Clouds 26 1012 74 10000 1 100 21:59 26.03.2020
5920 Clouds 26 1012 74 10000 1 100 21:39 26.03.2020
5921 Clouds 26 1012 74 10000 1 100 21:21 26.03.2020
5922 Clouds 26 1012 74 10000 2.6 0 20:58 26.03.2020
5923 Clouds 26 1012 74 10000 2.6 0 20:38 26.03.2020
5924 Clouds 26 1012 74 10000 2.6 0 20:20 26.03.2020
5925 Clouds 27 1012 74 10000 2.6 110 19:56 26.03.2020
5926 Clouds 27 1012 74 10000 2.6 110 19:38 26.03.2020
5927 Clouds 27 1012 74 10000 2.6 110 19:20 26.03.2020
5928 Clouds 27 1013 69 10000 2.6 110 18:55 26.03.2020
5929 Clouds 27 1013 69 10000 2.6 110 18:37 26.03.2020
5930 Clouds 27 1013 69 10000 2.6 110 18:19 26.03.2020
5931 Clouds 28 1013 69 10000 3.1 110 17:42 26.03.2020
5932 Clouds 28 1013 69 10000 3.1 110 17:19 26.03.2020
5933 Clouds 28 1013 69 10000 3.1 110 17:19 26.03.2020
5934 Clouds 28 1013 65 10000 2.6 100 16:45 26.03.2020
5935 Clouds 28 1013 65 10000 2.6 100 16:27 26.03.2020
5936 Clouds 28 1013 65 10000 2.6 110 15:59 26.03.2020
5937 Clouds 28 1013 65 10000 2.6 110 15:40 26.03.2020
5938 Clouds 28 1013 65 10000 2.6 110 15:21 26.03.2020
5939 Clouds 28 1013 65 10000 2.6 110 14:58 26.03.2020
5940 Clouds 28 1013 65 10000 2.6 110 14:38 26.03.2020
5941 Clouds 28 1013 65 10000 2.6 110 14:38 26.03.2020
5942 Clouds 28 1013 65 10000 2.6 110 14:19 26.03.2020
5943 Clouds 29 1012 62 10000 3.1 110 13:43 26.03.2020
5944 Clouds 29 1012 62 10000 3.1 110 13:23 26.03.2020
5945 Clouds 29 1011 58 10000 3.6 110 12:56 26.03.2020
5946 Clouds 29 1011 58 10000 3.6 110 12:37 26.03.2020
5947 Clouds 30 1011 58 10000 3.6 110 12:19 26.03.2020
5948 Clouds 30 1011 55 10000 4.1 100 11:44 26.03.2020
5949 Clouds 31 1011 55 10000 4.1 100 11:20 26.03.2020
5950 Clouds 32 1010 52 10000 4.1 100 10:56 26.03.2020
5951 Clouds 32 1010 52 10000 4.1 100 10:37 26.03.2020
5952 Clouds 32 1010 52 10000 4.1 100 10:18 26.03.2020
5953 Clouds 32 1010 52 10000 4.1 100 10:18 26.03.2020
5954 Clouds 33 1010 46 10000 6.2 100 09:42 26.03.2020
5955 Clouds 33 1010 46 10000 6.2 100 09:19 26.03.2020
5956 Clouds 34 1010 46 10000 5.1 110 08:46 26.03.2020
5957 Clouds 34 1010 46 10000 5.1 110 08:27 26.03.2020
5958 Clouds 34 1011 44 10000 5.1 110 07:58 26.03.2020
5959 Clouds 34 1011 44 10000 5.1 110 07:40 26.03.2020
5960 Clouds 34 1011 44 10000 5.1 110 07:20 26.03.2020
5961 Clouds 34 1012 41 10000 4.6 120 06:46 26.03.2020
5962 Clouds 34 1013 43 10000 4.6 120 05:52 26.03.2020
5963 Clouds 33 1014 52 10000 3.6 110 03:52 26.03.2020
5964 Clouds 33 1014 52 10000 3.6 110 03:33 26.03.2020
5965 Clouds 32 1014 52 10000 3.1 110 02:53 26.03.2020
5966 Clouds 29 1014 58 10000 5.1 70 01:20 26.03.2020
5967 Clouds 28 1013 65 9000 2.1 80 00:33 26.03.2020
5968 Clouds 26 1013 69 10000 2.6 80 23:44 25.03.2020
5969 Clouds 26 1013 69 10000 2.6 80 23:26 25.03.2020
5970 Clouds 25 1012 73 10000 1 70 22:56 25.03.2020
5971 Clouds 25 1012 73 10000 1 70 22:38 25.03.2020
5972 Clouds 25 1012 73 10000 1 70 22:19 25.03.2020
5973 Clouds 25 1012 73 10000 1 70 22:19 25.03.2020
5974 Clouds 25 1012 69 10000 2.1 80 21:54 25.03.2020
5975 Clouds 25 1012 69 10000 2.1 80 21:36 25.03.2020
5976 Clouds 25 1012 69 10000 2.1 80 21:18 25.03.2020
5977 Clouds 25 1012 69 10000 1.5 70 20:39 25.03.2020
5978 Clouds 26 1012 69 10000 1.5 70 20:19 25.03.2020
5979 Clouds 26 1012 65 10000 1.5 80 19:56 25.03.2020
5980 Clouds 26 1012 65 10000 1.5 80 19:38 25.03.2020
5981 Clouds 26 1012 65 10000 1.5 80 19:19 25.03.2020
5982 Clouds 26 1012 65 10000 2.1 80 18:43 25.03.2020
5983 Clouds 26 1012 65 10000 2.1 80 18:25 25.03.2020
5984 Clouds 27 1013 61 10000 2.6 80 17:59 25.03.2020
5985 Clouds 27 1013 61 10000 2.6 80 17:40 25.03.2020
5986 Clouds 27 1013 61 10000 2.6 80 17:22 25.03.2020
5987 Clouds 27 1013 65 10000 2.6 80 16:58 25.03.2020
5988 Clouds 27 1013 65 10000 2.6 80 16:39 25.03.2020
5989 Clouds 27 1013 65 10000 2.6 80 16:20 25.03.2020
5990 Clouds 27 1012 65 10000 1.5 100 15:42 25.03.2020
5991 Clouds 27 1012 65 10000 1.5 100 15:21 25.03.2020
5992 Clouds 28 1012 65 10000 4.1 100 14:57 25.03.2020
5993 Clouds 28 1012 65 10000 4.1 100 14:57 25.03.2020
5994 Clouds 28 1012 65 10000 4.1 100 14:39 25.03.2020
5995 Clouds 28 1012 65 10000 4.1 100 14:39 25.03.2020
5996 Clouds 28 1012 65 10000 4.1 100 14:19 25.03.2020
5997 Clouds 28 1011 65 10000 3.6 100 13:44 25.03.2020
5998 Clouds 28 1011 65 10000 3.6 100 13:24 25.03.2020
5999 Clouds 28 1011 65 10000 3.6 100 13:24 25.03.2020
6000 Clouds 29 1010 62 10000 4.6 100 12:39 25.03.2020
6001 Clouds 29 1010 62 10000 4.6 100 12:39 25.03.2020
6002 Clouds 29 1010 62 10000 4.6 100 12:21 25.03.2020
6003 Clouds 29 1010 55 10000 4.6 110 11:57 25.03.2020
6004 Clouds 30 1010 55 10000 4.6 110 11:39 25.03.2020
6005 Clouds 30 1010 55 10000 4.6 110 11:21 25.03.2020
6006 Clouds 30 1010 55 10000 4.6 110 11:21 25.03.2020
6007 Clouds 31 1009 49 10000 5.1 100 10:58 25.03.2020
6008 Clouds 31 1009 49 10000 5.1 100 10:39 25.03.2020
6009 Clouds 31 1009 49 10000 5.1 100 10:39 25.03.2020
6010 Clouds 31 1009 49 10000 5.1 100 10:39 25.03.2020
6011 Clouds 32 1009 49 10000 5.1 100 10:18 25.03.2020
6012 Clouds 32 1009 46 10000 5.7 110 09:43 25.03.2020
6013 Clouds 33 1009 46 10000 5.7 110 09:25 25.03.2020
6014 Clouds 33 1009 49 10000 5.1 120 08:58 25.03.2020
6015 Clouds 33 1009 49 10000 5.1 120 08:40 25.03.2020
6016 Clouds 33 1009 49 10000 5.1 120 08:20 25.03.2020
6017 Clouds 33 1010 49 10000 6.2 120 07:55 25.03.2020
6018 Clouds 33 1010 49 10000 6.2 120 07:36 25.03.2020
6019 Clouds 34 1010 49 10000 6.2 120 07:18 25.03.2020
6020 Clouds 33 1010 52 10000 6.7 120 06:41 25.03.2020
6021 Clouds 33 1010 52 10000 6.7 120 06:22 25.03.2020
6022 Clouds 33 1011 49 10000 5.7 110 05:47 25.03.2020
6023 Clouds 33 1012 49 10000 5.7 100 04:42 25.03.2020
6024 Clouds 32 1013 52 10000 6.2 100 03:57 25.03.2020
6025 Clouds 32 1013 52 10000 6.2 100 03:30 25.03.2020
6026 Clouds 29 1012 65 10000 4.6 100 01:40 25.03.2020
6027 Clouds 28 1011 69 10000 3.1 100 00:50 25.03.2020
6028 Clouds 28 1011 69 10000 3.1 100 00:27 25.03.2020
6029 Clouds 27 1011 74 10000 3.1 90 23:54 24.03.2020
6030 Clouds 26 1011 74 10000 3.1 90 23:28 24.03.2020
6031 Clouds 27 1011 69 10000 3.1 100 22:58 24.03.2020
6032 Clouds 27 1011 69 10000 3.1 100 22:38 24.03.2020
6033 Clouds 27 1011 69 10000 3.1 100 22:20 24.03.2020
6034 Clouds 27 1011 69 10000 3.1 100 22:20 24.03.2020
6035 Clouds 27 1011 69 10000 3.1 100 21:58 24.03.2020
6036 Clouds 27 1011 69 10000 3.1 100 21:40 24.03.2020
6037 Clouds 27 1011 69 10000 3.1 100 21:18 24.03.2020
6038 Clouds 27 1011 69 10000 3.1 100 21:18 24.03.2020
6039 Clouds 27 1011 74 10000 3.1 120 20:57 24.03.2020
6040 Clouds 27 1011 74 10000 3.1 120 20:39 24.03.2020
6041 Clouds 27 1011 74 10000 3.1 120 20:21 24.03.2020
6042 Clouds 27 1011 74 10000 4.1 110 19:46 24.03.2020
6043 Clouds 27 1011 74 10000 4.1 110 19:20 24.03.2020
6044 Clouds 27 1012 74 10000 4.1 110 18:56 24.03.2020
6045 Clouds 27 1012 74 10000 4.1 110 18:38 24.03.2020
6046 Clouds 27 1012 69 10000 3.6 110 18:19 24.03.2020
6047 Clouds 27 1012 69 10000 3.6 110 17:56 24.03.2020
6048 Clouds 28 1012 69 10000 3.6 110 17:37 24.03.2020
6049 Clouds 28 1012 69 10000 3.6 110 17:19 24.03.2020
6050 Clouds 28 1012 69 10000 3.6 120 16:54 24.03.2020
6051 Clouds 28 1012 69 10000 3.6 120 16:36 24.03.2020
6052 Clouds 28 1012 69 10000 3.6 120 16:36 24.03.2020
6053 Clouds 28 1012 69 10000 3.6 120 16:18 24.03.2020
6054 Clouds 28 1012 69 10000 3.6 120 15:42 24.03.2020
6055 Clouds 28 1012 69 10000 3.6 120 15:23 24.03.2020
6056 Clouds 28 1012 69 10000 4.1 100 14:43 24.03.2020
6057 Clear 91 1013 75 0 5.67 100 14:22 24.03.2020
6058 Clear 91 1013 75 0 5.67 100 14:22 24.03.2020
6059 Clear 93 1012 70 0 6.99 109 13:56 24.03.2020
6060 Clear 93 1012 70 0 6.99 109 13:38 24.03.2020
6061 Clear 93 1012 70 0 6.99 109 13:20 24.03.2020
6062 Clear 93 1012 70 0 6.99 110 12:42 24.03.2020
6063 Clear 93 1012 70 0 6.99 110 12:23 24.03.2020
6064 Clear 93 1012 70 0 6.99 110 11:41 24.03.2020
6065 Clouds 30 1010 62 10000 5.1 120 11:21 24.03.2020
6066 Clouds 30 1009 62 10000 4.1 110 10:59 24.03.2020
6067 Clouds 31 1009 62 10000 4.1 110 10:40 24.03.2020
6068 Clouds 31 1009 62 10000 4.1 110 10:40 24.03.2020
6069 Clouds 31 1009 62 10000 4.1 110 10:18 24.03.2020
6070 Clouds 32 1009 59 10000 5.7 120 09:44 24.03.2020
6071 Clouds 32 1009 59 10000 5.7 120 09:25 24.03.2020
6072 Clouds 32 1009 52 10000 4.1 0 08:40 24.03.2020
6073 Clouds 32 1009 52 10000 4.1 0 08:21 24.03.2020
6074 Clouds 34 1010 49 10000 4.1 130 07:59 24.03.2020
6075 Clouds 33 1010 49 10000 4.1 130 07:41 24.03.2020
6076 Clouds 33 1010 49 10000 4.1 130 07:21 24.03.2020
6077 Clouds 33 1011 55 10000 5.1 120 06:35 24.03.2020
6078 Clouds 33 1011 49 10000 5.1 110 05:36 24.03.2020
6079 Clouds 33 1012 52 10000 4.1 0 04:50 24.03.2020
6080 Clouds 31 1013 58 10000 4.1 110 03:19 24.03.2020
6081 Clouds 31 1013 55 10000 3.1 110 02:25 24.03.2020
6082 Clouds 28 1012 69 10000 2.6 90 00:53 24.03.2020
6083 Clouds 28 1012 69 10000 2.6 90 00:26 24.03.2020
6084 Clouds 26 1012 78 10000 1.5 80 23:55 23.03.2020
6085 Clouds 26 1012 78 10000 1.5 80 23:36 23.03.2020
6086 Clouds 25 1012 78 10000 1.5 80 23:18 23.03.2020
6087 Clouds 26 1011 74 10000 1.5 70 22:42 23.03.2020
6088 Clouds 26 1011 74 10000 1.5 70 22:22 23.03.2020
6089 Clouds 26 1011 74 10000 1.5 70 22:22 23.03.2020
6090 Clouds 26 1011 69 10000 1.5 100 21:54 23.03.2020
6091 Clouds 26 1011 69 10000 1.5 100 21:36 23.03.2020
6092 Clouds 26 1011 69 10000 1.5 100 21:18 23.03.2020
6093 Clouds 26 1011 69 10000 2.1 90 20:42 23.03.2020
6094 Clouds 26 1011 69 10000 2.1 90 20:23 23.03.2020
6095 Clouds 27 1012 69 10000 2.6 110 19:55 23.03.2020
6096 Clouds 27 1012 69 10000 2.6 110 19:55 23.03.2020
6097 Clouds 27 1012 69 10000 2.6 110 19:55 23.03.2020
6098 Clouds 27 1012 69 10000 2.6 110 19:37 23.03.2020
6099 Clouds 27 1012 69 10000 2.6 110 19:18 23.03.2020
6100 Clouds 27 1012 69 10000 3.6 130 18:43 23.03.2020
6101 Clouds 27 1012 69 10000 3.6 130 18:24 23.03.2020
6102 Clouds 27 1013 69 10000 2.6 130 17:58 23.03.2020
6103 Clouds 27 1013 69 10000 2.6 130 17:39 23.03.2020
6104 Clouds 27 1013 69 10000 5.1 130 17:19 23.03.2020
6105 Clouds 27 1013 69 10000 5.1 130 16:43 23.03.2020
6106 Clouds 27 1013 69 10000 5.1 130 16:25 23.03.2020
6107 Clouds 28 1013 69 10000 4.1 110 15:44 23.03.2020
6108 Clouds 28 1013 69 10000 4.1 110 15:21 23.03.2020
6109 Clouds 28 1012 62 10000 5.1 100 14:57 23.03.2020
6110 Clouds 28 1012 62 10000 5.1 100 14:37 23.03.2020
6111 Clouds 28 1012 62 10000 5.1 100 14:18 23.03.2020
6112 Clouds 28 1012 62 10000 5.1 100 14:18 23.03.2020
6113 Clouds 29 1011 66 10000 4.6 120 13:41 23.03.2020
6114 Clouds 29 1011 66 10000 4.6 120 13:41 23.03.2020
6115 Clouds 29 1011 66 10000 4.6 120 13:22 23.03.2020
6116 Clouds 29 1011 70 10000 4.6 120 12:58 23.03.2020
6117 Clouds 29 1011 70 10000 4.6 120 12:40 23.03.2020
6118 Clouds 29 1011 70 10000 4.6 120 12:22 23.03.2020
6119 Clouds 30 1010 66 10000 1.5 130 11:42 23.03.2020
6120 Clouds 30 1010 66 10000 1.5 130 11:42 23.03.2020
6121 Clouds 30 1010 66 10000 1.5 130 11:22 23.03.2020
6122 Clouds 31 1009 62 10000 5.1 140 10:58 23.03.2020
6123 Clouds 31 1009 62 10000 5.1 140 10:40 23.03.2020
6124 Clouds 31 1009 62 10000 5.1 140 10:21 23.03.2020
6125 Clouds 33 1009 52 10000 5.1 140 09:57 23.03.2020
6126 Clouds 33 1009 52 10000 5.1 140 09:39 23.03.2020
6127 Clouds 33 1009 52 10000 5.1 140 09:18 23.03.2020
6128 Clouds 34 1009 49 10000 5.1 130 08:38 23.03.2020
6129 Clouds 34 1009 49 10000 5.1 130 08:19 23.03.2020
6130 Clouds 35 1009 47 10000 5.1 140 07:50 23.03.2020
6131 Clouds 35 1009 47 10000 5.1 140 07:50 23.03.2020
6132 Clouds 34 1009 47 10000 5.1 140 07:31 23.03.2020
6133 Clouds 34 1011 49 10000 3.6 110 06:53 23.03.2020
6134 Clouds 34 1011 49 10000 3.6 110 06:25 23.03.2020
6135 Clouds 34 1012 49 10000 4.1 140 05:42 23.03.2020
6136 Clouds 32 1013 58 10000 4.6 120 03:45 23.03.2020
6137 Clouds 31 1013 62 10000 4.6 90 02:40 23.03.2020
6138 Clouds 30 1013 66 10000 4.1 110 01:34 23.03.2020
6139 Clouds 28 1012 74 10000 3.6 130 00:43 23.03.2020
6140 Clouds 27 1012 74 10000 2.1 130 23:54 22.03.2020
6141 Clouds 27 1012 74 10000 2.1 130 23:27 22.03.2020
6142 Clouds 26 1012 78 10000 1 0 22:59 22.03.2020
6143 Clouds 26 1012 78 10000 1 0 22:39 22.03.2020
6144 Clouds 26 1012 78 10000 1 0 22:18 22.03.2020
6145 Clouds 27 1012 74 10000 1 0 21:40 22.03.2020
6146 Clouds 27 1012 74 10000 1 0 21:20 22.03.2020
6147 Clouds 27 1012 69 10000 1 0 20:58 22.03.2020
6148 Clouds 27 1012 69 10000 1 0 20:39 22.03.2020
6149 Clouds 27 1012 69 10000 1 0 20:21 22.03.2020
6150 Clouds 27 1012 74 10000 2.1 120 19:55 22.03.2020
6151 Clouds 27 1012 74 10000 2.1 120 19:37 22.03.2020
6152 Clouds 27 1012 74 10000 2.1 120 19:18 22.03.2020
6153 Clouds 27 1013 69 10000 2.6 120 18:55 22.03.2020
6154 Clouds 27 1013 69 10000 2.6 120 18:37 22.03.2020
6155 Clouds 28 1013 69 10000 2.6 120 18:18 22.03.2020
6156 Clouds 28 1013 69 10000 3.6 110 17:55 22.03.2020
6157 Clouds 28 1013 69 10000 3.6 110 17:36 22.03.2020
6158 Clouds 28 1013 69 10000 3.6 110 17:18 22.03.2020
6159 Clouds 28 1013 69 10000 3.1 130 16:41 22.03.2020
6160 Clouds 28 1013 69 10000 3.1 130 16:22 22.03.2020
6161 Clouds 29 1013 70 10000 3.6 130 15:58 22.03.2020
6162 Clouds 29 1013 70 10000 3.6 130 15:39 22.03.2020
6163 Clouds 29 1013 70 10000 3.6 130 14:47 22.03.2020
6164 Clouds 29 1013 70 10000 3.6 130 14:20 22.03.2020
6165 Clouds 29 1012 70 10000 3.6 0 13:58 22.03.2020
6166 Clouds 29 1012 70 10000 3.6 0 13:40 22.03.2020
6167 Clouds 29 1012 70 10000 3.6 0 13:19 22.03.2020
6168 Clouds 30 1011 66 10000 4.1 130 12:44 22.03.2020
6169 Clouds 30 1011 66 10000 4.1 130 12:21 22.03.2020
6170 Clouds 31 1010 62 10000 4.6 130 11:57 22.03.2020
6171 Clouds 31 1010 62 10000 4.6 130 11:39 22.03.2020
6172 Clouds 31 1010 62 10000 4.6 130 11:20 22.03.2020
6173 Clouds 32 1010 52 10000 4.1 130 10:43 22.03.2020
6174 Clouds 33 1010 52 10000 4.1 130 10:24 22.03.2020
6175 Clouds 33 1010 46 10000 4.1 140 09:49 22.03.2020
6176 Clouds 34 1010 46 10000 4.1 140 09:30 22.03.2020
6177 Clouds 34 1010 46 10000 5.1 130 08:55 22.03.2020
6178 Clouds 34 1010 46 10000 5.1 130 08:37 22.03.2020
6179 Clouds 34 1010 46 10000 5.1 130 08:18 22.03.2020
6180 Clouds 34 1011 44 10000 5.7 120 07:49 22.03.2020
6181 Clouds 34 1011 44 10000 5.7 120 07:18 22.03.2020
6182 Clouds 34 1013 49 10000 3.6 140 05:55 22.03.2020
6183 Clouds 33 1014 55 10000 3.1 120 04:58 22.03.2020
6184 Clouds 32 1015 55 10000 3.1 100 02:50 22.03.2020
6185 Clouds 30 1014 58 10000 2.6 100 01:21 22.03.2020
6186 Clouds 28 1014 69 10000 1 0 00:36 22.03.2020
6187 Clouds 27 1013 74 10000 1.5 80 23:58 21.03.2020
6188 Clouds 27 1013 74 10000 1.5 80 23:40 21.03.2020
6189 Clouds 27 1013 74 10000 1.5 80 23:18 21.03.2020
6190 Clouds 27 1012 74 10000 1 0 22:38 21.03.2020
6191 Clouds 27 1012 74 10000 1 0 22:38 21.03.2020
6192 Clouds 27 1012 74 10000 1 0 22:20 21.03.2020
6193 Clouds 27 1012 69 10000 2.1 90 21:59 21.03.2020
6194 Clouds 27 1012 69 10000 2.1 90 21:39 21.03.2020
6195 Clouds 27 1012 69 10000 2.1 90 21:21 21.03.2020
6196 Clouds 27 1012 69 10000 2.6 110 20:46 21.03.2020
6197 Clouds 28 1012 69 10000 2.6 110 20:23 21.03.2020
6198 Clouds 28 1013 69 10000 3.6 120 19:57 21.03.2020
6199 Clouds 28 1013 69 10000 3.6 120 19:39 21.03.2020
6200 Clouds 28 1013 69 10000 3.6 120 19:20 21.03.2020
6201 Clouds 28 1013 69 10000 3.1 110 18:54 21.03.2020
6202 Clouds 28 1013 69 10000 3.1 110 18:36 21.03.2020
6203 Clouds 28 1013 69 10000 3.1 110 18:18 21.03.2020
6204 Clouds 28 1013 69 10000 3.1 110 18:18 21.03.2020
6205 Clouds 28 1014 69 10000 4.1 120 17:42 21.03.2020
6206 Clouds 28 1014 69 10000 4.1 120 17:23 21.03.2020
6207 Clouds 28 1014 69 10000 3.6 120 16:43 21.03.2020
6208 Clouds 28 1014 69 10000 3.6 120 16:43 21.03.2020
6209 Clouds 28 1014 69 10000 3.6 120 16:24 21.03.2020
6210 Clouds 29 1014 66 10000 4.1 120 15:59 21.03.2020
6211 Clouds 29 1014 66 10000 4.1 120 15:41 21.03.2020
6212 Clouds 29 1014 66 10000 4.1 120 15:23 21.03.2020
6213 Clouds 29 1013 66 10000 4.1 110 14:58 21.03.2020
6214 Clouds 29 1013 66 10000 4.1 110 14:58 21.03.2020
6215 Clouds 29 1013 66 10000 4.1 110 14:40 21.03.2020
6216 Clouds 29 1013 66 10000 4.1 110 14:20 21.03.2020
6217 Clouds 29 1013 66 10000 4.1 110 13:58 21.03.2020
6218 Clouds 29 1013 66 10000 4.1 110 13:39 21.03.2020
6219 Clouds 29 1013 66 10000 4.1 110 13:21 21.03.2020
6220 Clouds 30 1012 66 10000 4.1 120 12:57 21.03.2020
6221 Clouds 30 1012 66 10000 4.1 120 12:37 21.03.2020
6222 Clouds 30 1012 66 10000 4.1 120 12:19 21.03.2020
6223 Clouds 31 1011 62 10000 4.1 130 11:55 21.03.2020
6224 Clouds 31 1011 62 10000 4.1 130 11:37 21.03.2020
6225 Clouds 31 1011 62 10000 4.1 130 11:18 21.03.2020
6226 Clouds 32 1011 52 10000 4.1 120 10:56 21.03.2020
6227 Clouds 32 1011 52 10000 4.1 120 10:38 21.03.2020
6228 Clouds 33 1011 52 10000 4.1 120 10:19 21.03.2020
6229 Clouds 33 1011 52 10000 4.1 120 10:19 21.03.2020
6230 Clouds 34 1011 49 10000 4.1 120 09:41 21.03.2020
6231 Clouds 34 1011 49 10000 4.1 120 09:23 21.03.2020
6232 Clouds 34 1011 44 10000 4.1 0 08:59 21.03.2020
6233 Clouds 34 1011 44 10000 4.1 0 08:41 21.03.2020
6234 Clouds 34 1011 44 10000 4.1 0 08:22 21.03.2020
6235 Clouds 34 1012 46 10000 5.1 120 07:42 21.03.2020
6236 Clouds 34 1012 46 10000 5.1 120 07:23 21.03.2020
6237 Clouds 33 1013 49 10000 4.1 130 06:46 21.03.2020
6238 Clouds 34 1013 49 10000 4.1 130 06:27 21.03.2020
6239 Clouds 33 1014 49 10000 4.1 120 05:46 21.03.2020
6240 Clouds 32 1015 55 10000 3.6 0 04:42 21.03.2020
6241 Clouds 31 1016 55 10000 3.1 80 02:40 21.03.2020
6242 Clouds 31 1016 55 10000 3.1 80 02:18 21.03.2020
6243 Clouds 29 1015 62 10000 2.1 0 01:31 21.03.2020
6244 Clouds 28 1015 69 10000 0.5 0 00:47 21.03.2020
6245 Clouds 28 1015 69 10000 0.5 0 00:24 21.03.2020
6246 Clouds 26 1014 74 10000 2.1 90 23:48 20.03.2020
6247 Clouds 26 1014 74 10000 2.1 90 23:24 20.03.2020
6248 Clouds 26 1013 78 10000 1 0 22:55 20.03.2020
6249 Clouds 26 1013 78 10000 1 0 22:36 20.03.2020
6250 Clouds 26 1013 78 10000 1 0 22:18 20.03.2020
6251 Clouds 26 1013 74 10000 1.5 130 21:54 20.03.2020
6252 Clouds 26 1013 74 10000 1.5 130 21:36 20.03.2020
6253 Clouds 26 1013 74 10000 1.5 130 21:18 20.03.2020
6254 Clouds 26 1012 78 10000 2.1 70 20:41 20.03.2020
6255 Clouds 26 1012 78 10000 2.1 70 20:41 20.03.2020
6256 Clouds 26 1012 78 10000 2.1 70 20:21 20.03.2020
6257 Clouds 27 1013 69 10000 2.1 110 19:58 20.03.2020
6258 Clouds 27 1013 69 10000 2.1 110 19:40 20.03.2020
6259 Clouds 27 1013 69 10000 2.1 110 19:18 20.03.2020
6260 Clouds 27 1013 69 10000 3.1 110 18:39 20.03.2020
6261 Clouds 27 1013 69 10000 3.1 110 18:39 20.03.2020
6262 Clouds 27 1013 69 10000 3.1 110 18:39 20.03.2020
6263 Clouds 28 1013 69 10000 3.1 110 18:20 20.03.2020
6264 Clouds 27 1014 69 10000 3.6 120 17:57 20.03.2020
6265 Clouds 27 1014 69 10000 3.6 120 17:39 20.03.2020
6266 Clouds 28 1014 69 10000 3.6 120 17:21 20.03.2020
6267 Clouds 28 1014 69 10000 4.1 140 16:43 20.03.2020
6268 Clouds 28 1014 69 10000 4.1 140 16:22 20.03.2020
6269 Clouds 28 1014 74 10000 3.1 130 15:59 20.03.2020
6270 Clouds 28 1014 74 10000 3.1 130 15:41 20.03.2020
6271 Clouds 28 1014 74 10000 3.1 130 15:21 20.03.2020
6272 Clouds 28 1013 74 10000 4.1 130 14:43 20.03.2020
6273 Clouds 28 1013 74 10000 4.1 130 14:23 20.03.2020
6274 Clouds 28 1012 70 10000 4.1 130 13:55 20.03.2020
6275 Clouds 28 1012 70 10000 4.1 130 13:55 20.03.2020
6276 Clouds 29 1012 70 10000 4.1 130 13:37 20.03.2020
6277 Clouds 29 1012 70 10000 4.1 130 13:19 20.03.2020
6278 Clouds 30 1011 66 10000 4.1 120 12:39 20.03.2020
6279 Clouds 30 1011 66 10000 4.1 120 12:20 20.03.2020
6280 Clouds 30 1011 66 10000 4.1 120 12:20 20.03.2020
6281 Clouds 30 1011 66 10000 4.1 120 12:20 20.03.2020
6282 Clouds 30 1011 62 10000 3.6 140 11:54 20.03.2020
6283 Clouds 31 1011 62 10000 3.6 140 11:36 20.03.2020
6284 Clouds 31 1011 62 10000 3.6 140 11:18 20.03.2020
6285 Clouds 31 1010 59 10000 3.1 0 10:41 20.03.2020
6286 Clouds 31 1010 59 10000 3.1 0 10:20 20.03.2020
6287 Clouds 31 1010 59 10000 3.1 0 10:20 20.03.2020
6288 Clouds 32 1010 52 10000 4.6 140 09:55 20.03.2020
6289 Clouds 33 1010 52 10000 4.6 140 09:37 20.03.2020
6290 Clouds 33 1010 52 10000 4.6 140 09:18 20.03.2020
6291 Clouds 34 1010 52 10000 4.1 0 08:41 20.03.2020
6292 Clouds 34 1010 52 10000 4.1 0 08:22 20.03.2020
6293 Clouds 34 1011 52 10000 2.1 100 07:48 20.03.2020
6294 Clouds 34 1011 52 10000 2.1 100 07:26 20.03.2020
6295 Clouds 33 1012 55 10000 2.6 140 06:51 20.03.2020
6296 Clouds 33 1012 55 10000 2.6 140 06:32 20.03.2020
6297 Clouds 32 1014 55 10000 3.1 110 04:51 20.03.2020
6298 Clouds 31 1015 55 10000 2.6 0 03:20 20.03.2020
6299 Clouds 30 1014 66 10000 1.5 120 01:51 20.03.2020
6300 Clouds 28 1014 74 9000 1.5 0 00:46 20.03.2020
6301 Clouds 28 1014 74 9000 1.5 0 00:26 20.03.2020
6302 Clouds 26 1013 78 10000 1 0 23:45 19.03.2020
6303 Clouds 26 1013 78 10000 1 0 23:26 19.03.2020
6304 Clouds 26 1013 78 10000 1 0 23:26 19.03.2020
6305 Clouds 26 1013 74 10000 1.5 0 22:56 19.03.2020
6306 Clouds 26 1013 74 10000 1.5 0 22:38 19.03.2020
6307 Clouds 26 1013 74 10000 1.5 0 22:38 19.03.2020
6308 Clouds 27 1013 74 10000 1.5 0 22:18 19.03.2020
6309 Clouds 27 1012 74 10000 1.5 130 21:41 19.03.2020
6310 Clouds 27 1012 74 10000 1.5 130 21:20 19.03.2020
6311 Clouds 27 1012 69 9000 1.5 90 20:58 19.03.2020
6312 Clouds 27 1012 69 9000 1.5 90 20:39 19.03.2020
6313 Clouds 27 1012 69 9000 1.5 90 20:20 19.03.2020
6314 Clouds 27 1013 69 8000 4.1 20 19:55 19.03.2020
6315 Clouds 27 1013 69 8000 4.1 20 19:37 19.03.2020
6316 Clouds 27 1013 69 8000 4.1 20 19:18 19.03.2020
6317 Clouds 27 1013 74 10000 0.5 0 18:42 19.03.2020
6318 Clouds 27 1013 74 10000 0.5 0 18:22 19.03.2020
6319 Clouds 27 1014 74 0 2.1 110 17:56 19.03.2020
6320 Clouds 27 1014 74 0 2.1 110 17:38 19.03.2020
6321 Clouds 27 1014 88 10000 2.6 130 17:18 19.03.2020
6322 Clouds 27 1014 88 10000 2.6 130 16:43 19.03.2020
6323 Clouds 27 1014 88 10000 2.6 130 16:22 19.03.2020
6324 Clouds 28 1014 74 10000 2.6 0 15:44 19.03.2020
6325 Clouds 28 1014 74 10000 2.6 0 15:25 19.03.2020
6326 Clouds 28 1013 74 10000 2.6 0 14:55 19.03.2020
6327 Clouds 28 1013 74 10000 2.6 0 14:37 19.03.2020
6328 Clouds 28 1013 74 10000 2.6 0 14:18 19.03.2020
6329 Clouds 29 1012 70 10000 3.6 120 13:39 19.03.2020
6330 Clouds 29 1012 70 10000 3.6 120 13:19 19.03.2020
6331 Clouds 29 1011 70 10000 2.6 0 12:44 19.03.2020
6332 Clouds 29 1011 70 10000 2.6 0 12:24 19.03.2020
6333 Clouds 30 1011 66 10000 3.1 130 11:59 19.03.2020
6334 Clouds 30 1011 66 10000 3.1 130 11:41 19.03.2020
6335 Clouds 30 1011 66 10000 3.1 130 11:22 19.03.2020
6336 Clouds 31 1010 55 10000 4.1 140 10:44 19.03.2020
6337 Clouds 32 1010 55 10000 4.1 140 10:22 19.03.2020
6338 Clouds 32 1010 52 10000 3.6 0 09:59 19.03.2020
6339 Clouds 33 1010 52 10000 3.6 0 09:40 19.03.2020
6340 Clouds 33 1010 52 10000 3.6 0 09:21 19.03.2020
6341 Clouds 33 1010 52 10000 4.6 120 08:47 19.03.2020
6342 Clouds 33 1010 52 10000 4.6 120 08:23 19.03.2020
6343 Clouds 33 1011 52 10000 4.6 120 07:49 19.03.2020
6344 Clouds 33 1011 52 10000 4.6 120 07:31 19.03.2020
6345 Clouds 32 1012 55 10000 3.6 0 06:55 19.03.2020
6346 Clouds 32 1012 55 10000 3.6 0 06:18 19.03.2020
6347 Clouds 31 1013 55 10000 3.6 150 05:23 19.03.2020
6348 Clouds 31 1014 58 10000 3.1 110 04:41 19.03.2020
6349 Clouds 30 1015 62 10000 2.1 360 03:39 19.03.2020
6350 Clouds 27 1014 61 10000 0.5 0 01:45 19.03.2020
6351 Clouds 26 1014 69 10000 1.67 91 00:38 19.03.2020
6352 Clouds 24 1013 78 10000 1 0 23:58 18.03.2020
6353 Clouds 24 1013 78 10000 1 0 23:39 18.03.2020
6354 Clouds 24 1013 78 10000 1 0 23:18 18.03.2020
6355 Clouds 24 1012 78 10000 1 0 22:42 18.03.2020
6356 Clouds 24 1012 78 10000 1 0 22:22 18.03.2020
6357 Clouds 25 1012 73 10000 1.5 110 21:54 18.03.2020
6358 Clouds 25 1012 73 10000 1.5 110 21:36 18.03.2020
6359 Clouds 25 1012 73 10000 1.5 110 21:18 18.03.2020
6360 Clouds 25 1012 73 10000 2.1 120 20:41 18.03.2020
6361 Clouds 25 1012 73 10000 2.1 120 20:21 18.03.2020
6362 Clouds 25 1013 78 10000 4.1 70 19:59 18.03.2020
6363 Clouds 24 1013 78 10000 4.1 70 19:40 18.03.2020
6364 Clouds 25 1013 78 10000 4.1 70 19:21 18.03.2020
6365 Clouds 26 1013 69 10000 3.1 130 18:55 18.03.2020
6366 Clouds 26 1013 69 10000 3.1 130 18:36 18.03.2020
6367 Clouds 26 1014 75 10000 3.6 120 18:18 18.03.2020
6368 Clouds 26 1014 75 10000 3.6 120 17:41 18.03.2020
6369 Clouds 26 1014 75 10000 3.6 120 17:22 18.03.2020
6370 Clouds 26 1014 65 10000 3.6 120 16:59 18.03.2020
6371 Clouds 26 1014 65 10000 3.6 120 16:40 18.03.2020
6372 Clouds 27 1014 65 10000 3.6 120 16:20 18.03.2020
6373 Clouds 27 1014 65 10000 3.1 130 15:46 18.03.2020
6374 Clouds 27 1014 65 10000 3.1 130 15:27 18.03.2020
6375 Clouds 27 1013 69 10000 2.6 130 14:58 18.03.2020
6376 Clouds 27 1013 69 10000 2.6 130 14:40 18.03.2020
6377 Clouds 27 1013 69 10000 2.6 130 14:21 18.03.2020
6378 Clouds 27 1012 65 10000 3.6 0 13:40 18.03.2020
6379 Clouds 28 1012 65 10000 3.6 0 13:19 18.03.2020
6380 Clouds 28 1011 65 10000 3.6 120 12:42 18.03.2020
6381 Clouds 28 1011 65 10000 3.6 120 12:21 18.03.2020
6382 Clouds 29 1011 62 10000 4.1 120 11:57 18.03.2020
6383 Clouds 29 1011 62 10000 4.1 120 11:37 18.03.2020
6384 Clouds 30 1010 55 10000 3.6 130 11:18 18.03.2020
6385 Clouds 30 1010 55 10000 3.6 130 10:54 18.03.2020
6386 Clouds 31 1010 55 10000 3.6 130 10:36 18.03.2020
6387 Clouds 31 1010 55 10000 3.6 130 10:36 18.03.2020
6388 Clouds 31 1010 55 10000 3.6 130 10:18 18.03.2020
6389 Clouds 31 1010 55 10000 5.7 120 09:41 18.03.2020
6390 Clouds 31 1010 55 10000 5.7 120 09:22 18.03.2020
6391 Clouds 32 1011 46 10000 4.1 140 08:40 18.03.2020
6392 Clouds 33 1011 46 10000 4.1 140 08:21 18.03.2020
6393 Clouds 33 1011 49 10000 5.1 140 07:49 18.03.2020
6394 Clouds 33 1011 49 10000 5.1 140 07:31 18.03.2020
6395 Clouds 32 1013 52 10000 5.7 120 06:55 18.03.2020
6396 Clouds 32 1013 52 10000 5.7 120 06:37 18.03.2020
6397 Clouds 32 1014 52 10000 4.1 120 05:37 18.03.2020
6398 Clouds 31 1015 55 10000 4.1 120 04:32 18.03.2020
6399 Clouds 30 1016 55 10000 2.6 0 03:21 18.03.2020
6400 Clouds 30 1016 55 10000 2.1 0 02:35 18.03.2020
6401 Clouds 28 1015 65 10000 2.6 80 01:32 18.03.2020
6402 Clouds 26 1015 69 10000 3.1 110 00:42 18.03.2020
6403 Clouds 26 1015 69 10000 3.1 110 00:21 18.03.2020
6404 Clouds 26 1014 69 10000 2.6 120 23:41 17.03.2020
6405 Clouds 25 1013 74 10000 2.6 110 23:20 17.03.2020
6406 Clouds 26 1013 74 10000 2.6 110 22:42 17.03.2020
6407 Clouds 26 1013 74 10000 2.6 110 22:24 17.03.2020
6408 Clouds 26 1013 74 10000 2.1 120 21:43 17.03.2020
6409 Clouds 26 1013 74 10000 2.1 120 21:23 17.03.2020
6410 Clouds 26 1013 74 10000 2.6 130 20:57 17.03.2020
6411 Clouds 26 1013 74 10000 2.6 130 20:37 17.03.2020
6412 Clouds 26 1013 74 10000 2.6 130 20:19 17.03.2020
6413 Clouds 26 1013 74 10000 1.5 120 19:41 17.03.2020
6414 Clouds 26 1013 74 10000 1.5 120 19:19 17.03.2020
6415 Clouds 26 1014 74 10000 2.1 110 18:57 17.03.2020
6416 Clouds 26 1014 74 10000 2.1 110 18:39 17.03.2020
6417 Clouds 26 1014 74 10000 2.1 110 18:21 17.03.2020
6418 Clouds 26 1014 74 10000 2.1 110 18:21 17.03.2020
6419 Clouds 26 1015 69 10000 3.6 100 17:55 17.03.2020
6420 Clouds 26 1015 69 10000 3.6 100 17:36 17.03.2020
6421 Clouds 27 1015 69 10000 3.6 100 17:18 17.03.2020
6422 Clouds 27 1015 69 10000 3.6 110 16:41 17.03.2020
6423 Clouds 27 1015 69 10000 3.6 110 16:19 17.03.2020
6424 Clouds 27 1015 69 10000 3.6 120 15:44 17.03.2020
6425 Clouds 27 1015 69 10000 3.6 120 15:22 17.03.2020
6426 Clouds 27 1015 74 10000 3.1 120 14:44 17.03.2020
6427 Clouds 27 1015 74 10000 3.1 120 14:25 17.03.2020
6428 Clouds 27 1014 69 10000 3.6 120 13:57 17.03.2020
6429 Clouds 27 1014 69 10000 3.6 120 13:39 17.03.2020
6430 Clouds 27 1014 69 10000 3.6 120 13:21 17.03.2020
6431 Clouds 27 1014 69 10000 3.6 120 13:21 17.03.2020
6432 Clouds 27 1014 69 10000 4.1 120 12:43 17.03.2020
6433 Clouds 27 1014 69 10000 4.1 120 12:24 17.03.2020
6434 Clouds 27 1013 65 10000 4.1 130 11:48 17.03.2020
6435 Clouds 27 1013 65 10000 4.1 130 11:29 17.03.2020
6436 Clouds 28 1013 66 10000 4.6 120 10:58 17.03.2020
6437 Clouds 28 1013 66 10000 4.6 120 10:39 17.03.2020
6438 Clouds 28 1013 66 10000 4.6 120 10:21 17.03.2020
6439 Clouds 29 1013 66 10000 5.1 120 09:59 17.03.2020
6440 Clouds 29 1013 66 10000 5.1 120 09:40 17.03.2020
6441 Clouds 29 1013 66 10000 5.1 120 09:19 17.03.2020
6442 Clouds 29 1013 62 10000 4.6 110 08:48 17.03.2020
6443 Clouds 30 1013 62 10000 4.6 110 08:23 17.03.2020
6444 Clouds 30 1013 62 10000 6.2 120 07:50 17.03.2020
6445 Clouds 30 1013 62 10000 6.2 120 07:28 17.03.2020
6446 Clouds 30 1014 55 10000 5.1 120 06:59 17.03.2020
6447 Clouds 31 1014 55 10000 5.1 120 06:34 17.03.2020
6448 Clouds 30 1015 66 10000 2.6 280 05:56 17.03.2020
6449 Clouds 30 1016 58 10000 2.6 120 03:56 17.03.2020
6450 Clouds 29 1017 65 10000 2.1 110 02:46 17.03.2020
6451 Clouds 28 1016 65 10000 2.6 130 01:44 17.03.2020
6452 Clouds 28 1016 65 10000 2.6 130 01:25 17.03.2020
6453 Clouds 27 1016 74 10000 2.6 110 00:38 17.03.2020
6454 Clouds 26 1015 74 10000 1.5 110 23:45 16.03.2020
6455 Clouds 26 1015 74 10000 1.5 110 23:27 16.03.2020
6456 Clouds 26 1014 74 10000 2.1 100 22:41 16.03.2020
6457 Clouds 26 1014 74 10000 2.1 100 22:41 16.03.2020
6458 Clouds 26 1014 74 10000 2.1 100 22:23 16.03.2020
6459 Clouds 26 1014 74 10000 2.1 90 21:57 16.03.2020
6460 Clouds 26 1014 74 10000 2.1 90 21:39 16.03.2020
6461 Clouds 26 1014 74 10000 2.1 90 21:21 16.03.2020
6462 Clouds 26 1014 74 10000 4.6 100 20:55 16.03.2020
6463 Clouds 26 1014 74 10000 4.6 100 20:37 16.03.2020
6464 Clouds 26 1014 74 10000 4.6 100 20:18 16.03.2020
6465 Clouds 26 1014 69 10000 3.6 100 19:40 16.03.2020
6466 Clouds 26 1014 69 10000 3.6 100 19:20 16.03.2020
6467 Clouds 27 1014 65 10000 2.6 120 18:43 16.03.2020
6468 Clouds 27 1014 65 10000 2.6 120 18:21 16.03.2020
6469 Clouds 27 1015 65 10000 3.6 120 17:55 16.03.2020
6470 Clouds 27 1015 65 10000 3.6 120 17:37 16.03.2020
6471 Clouds 27 1015 65 10000 3.6 120 17:18 16.03.2020
6472 Clouds 27 1015 69 10000 4.1 120 16:42 16.03.2020
6473 Clouds 27 1015 69 10000 4.1 120 16:24 16.03.2020
6474 Clouds 27 1015 69 10000 4.6 110 15:44 16.03.2020
6475 Clouds 27 1015 69 10000 4.6 110 15:26 16.03.2020
6476 Clouds 27 1015 69 10000 4.1 110 14:49 16.03.2020
6477 Clouds 27 1015 69 10000 4.1 110 14:27 16.03.2020
6478 Clouds 27 1014 70 10000 3.1 120 13:57 16.03.2020
6479 Clouds 27 1014 70 10000 3.1 120 13:38 16.03.2020
6480 Clouds 27 1014 70 10000 3.1 120 13:20 16.03.2020
6481 Clouds 28 1014 69 10000 4.1 110 12:44 16.03.2020
6482 Clouds 28 1014 69 10000 4.1 110 12:23 16.03.2020
6483 Clouds 28 1013 69 10000 3.6 120 11:46 16.03.2020
6484 Clouds 28 1013 69 10000 3.6 120 11:27 16.03.2020
6485 Clouds 28 1013 69 10000 3.6 120 10:55 16.03.2020
6486 Clouds 28 1013 69 10000 3.6 120 10:37 16.03.2020
6487 Clouds 28 1013 69 10000 3.6 120 10:18 16.03.2020
6488 Clouds 29 1013 70 10000 2.6 130 09:40 16.03.2020
6489 Clouds 29 1013 70 10000 2.6 130 09:20 16.03.2020
6490 Clouds 28 1013 74 10000 3.6 130 08:47 16.03.2020
6491 Clouds 28 1013 74 10000 3.6 130 08:24 16.03.2020
6492 Rain 28 1013 83 9000 4.1 0 07:45 16.03.2020
6493 Rain 28 1013 83 9000 4.1 0 07:21 16.03.2020
6494 Clouds 28 1014 83 0 6.27 90 06:46 16.03.2020
6495 Clouds 28 1014 83 0 6.27 90 06:23 16.03.2020
6496 Rain 29 1015 70 10000 3.1 110 04:53 16.03.2020
6497 Clouds 28 1015 65 10000 3.6 100 01:49 16.03.2020
6498 Clouds 27 1015 74 10000 2.6 90 00:48 16.03.2020
6499 Clouds 27 1015 74 10000 2.6 90 00:28 16.03.2020
6500 Clouds 27 1014 74 10000 2.6 100 23:41 15.03.2020
6501 Clouds 26 1014 74 10000 2.6 100 23:19 15.03.2020
6502 Clouds 26 1013 74 10000 2.6 100 22:42 15.03.2020
6503 Clouds 26 1013 74 10000 2.6 100 22:42 15.03.2020
6504 Clouds 26 1013 74 10000 2.6 100 22:22 15.03.2020
6505 Clouds 27 1012 74 10000 2.1 120 21:40 15.03.2020
6506 Clouds 27 1012 74 10000 2.1 120 21:22 15.03.2020
6507 Clouds 27 1012 74 10000 1.5 100 20:58 15.03.2020
6508 Clouds 27 1012 74 10000 1.5 100 20:58 15.03.2020
6509 Clouds 27 1012 74 10000 1.5 100 20:40 15.03.2020
6510 Clouds 27 1012 74 10000 1.5 100 20:20 15.03.2020
6511 Clouds 27 1012 74 10000 1 0 19:55 15.03.2020
6512 Clouds 27 1012 74 10000 1 0 19:55 15.03.2020
6513 Clouds 27 1012 74 10000 1 0 19:37 15.03.2020
6514 Clouds 27 1012 74 10000 1 0 19:18 15.03.2020
6515 Clouds 27 1013 74 10000 1.5 120 18:42 15.03.2020
6516 Clouds 27 1013 74 10000 1.5 120 18:24 15.03.2020
6517 Clouds 27 1013 74 10000 2.6 120 17:59 15.03.2020
6518 Clouds 27 1013 74 10000 2.6 120 17:39 15.03.2020
6519 Clouds 27 1013 74 10000 2.6 120 17:20 15.03.2020
6520 Clouds 27 1013 69 10000 3.1 120 16:55 15.03.2020
6521 Clouds 27 1013 69 10000 3.1 120 16:37 15.03.2020
6522 Clouds 28 1013 69 10000 3.1 120 16:18 15.03.2020
6523 Clouds 28 1013 65 10000 2.6 120 15:42 15.03.2020
6524 Clouds 28 1013 65 10000 2.6 120 15:22 15.03.2020
6525 Clouds 28 1013 65 10000 3.1 120 14:47 15.03.2020
6526 Clouds 28 1013 65 10000 3.1 120 14:28 15.03.2020
6527 Clouds 28 1012 69 10000 3.1 110 13:59 15.03.2020
6528 Clouds 28 1012 69 10000 3.1 110 13:39 15.03.2020
6529 Clouds 28 1012 69 10000 3.1 110 13:21 15.03.2020
6530 Clouds 28 1012 66 10000 2.6 120 12:57 15.03.2020
6531 Clouds 28 1012 66 10000 2.6 120 12:38 15.03.2020
6532 Clouds 29 1012 66 10000 2.6 120 12:20 15.03.2020
6533 Clouds 29 1011 62 10000 4.1 110 11:40 15.03.2020
6534 Clouds 29 1011 62 10000 4.1 110 11:22 15.03.2020
6535 Clouds 30 1011 58 10000 5.1 100 10:56 15.03.2020
6536 Clouds 30 1011 58 10000 5.1 100 10:37 15.03.2020
6537 Clouds 31 1011 58 10000 5.1 100 10:19 15.03.2020
6538 Clouds 31 1011 58 10000 5.1 110 09:40 15.03.2020
6539 Clouds 31 1011 58 10000 5.1 110 09:22 15.03.2020
6540 Clouds 31 1011 55 10000 4.1 120 08:44 15.03.2020
6541 Clouds 32 1011 55 10000 4.1 120 08:21 15.03.2020
6542 Clouds 33 1011 49 10000 3.6 120 07:51 15.03.2020
6543 Clouds 33 1011 49 10000 3.6 120 07:31 15.03.2020
6544 Clouds 32 1013 46 10000 1.5 0 06:53 15.03.2020
6545 Clouds 33 1013 46 10000 1.5 0 06:18 15.03.2020
6546 Clouds 31 1014 62 10000 2.1 0 05:19 15.03.2020
6547 Clouds 31 1015 66 10000 3.1 0 04:43 15.03.2020
6548 Clouds 31 1015 66 10000 3.1 0 04:24 15.03.2020
6549 Clouds 31 1015 70 10000 3.1 310 03:48 15.03.2020
6550 Clouds 30 1015 62 10000 1.5 0 02:38 15.03.2020
6551 Clouds 28 1015 69 10000 2.1 70 01:34 15.03.2020
6552 Clouds 28 1014 74 10000 1.5 90 00:46 15.03.2020
6553 Clouds 27 1014 74 10000 1.5 90 00:24 15.03.2020
6554 Clouds 26 1013 78 10000 1.5 120 23:55 14.03.2020
6555 Clouds 26 1013 78 10000 1.5 120 23:36 14.03.2020
6556 Clouds 26 1013 78 10000 1.5 120 23:18 14.03.2020
6557 Clouds 26 1012 78 10000 0.5 0 22:42 14.03.2020
6558 Clouds 26 1012 78 10000 0.5 0 22:23 14.03.2020
6559 Clouds 26 1012 78 10000 1 0 21:56 14.03.2020
6560 Clouds 26 1012 78 10000 1 0 21:36 14.03.2020
6561 Clouds 26 1012 78 10000 1 0 21:36 14.03.2020
6562 Clouds 26 1012 78 10000 1 0 21:18 14.03.2020
6563 Clouds 26 1012 78 10000 1 0 20:58 14.03.2020
6564 Clouds 26 1012 78 10000 1 0 20:40 14.03.2020
6565 Clouds 27 1012 78 10000 1 0 20:19 14.03.2020
6566 Clouds 27 1013 78 10000 1.5 0 19:43 14.03.2020
6567 Clouds 26 1013 78 10000 1.5 0 19:25 14.03.2020
6568 Rain 27 1013 69 10000 2.1 120 18:42 14.03.2020
6569 Rain 27 1013 69 10000 2.1 120 18:23 14.03.2020
6570 Clouds 27 1013 78 10000 1.5 170 17:56 14.03.2020
6571 Clouds 27 1013 78 10000 1.5 170 17:38 14.03.2020
6572 Clouds 27 1013 78 10000 1.5 170 17:20 14.03.2020
6573 Clouds 27 1014 78 10000 2.1 170 16:40 14.03.2020
6574 Clouds 27 1014 78 10000 2.1 170 16:22 14.03.2020
6575 Clouds 28 1013 74 10000 2.1 180 15:56 14.03.2020
6576 Clouds 28 1013 74 10000 2.1 180 15:26 14.03.2020
6577 Clouds 28 1013 70 10000 2.1 180 14:55 14.03.2020
6578 Clouds 28 1013 70 10000 2.1 180 14:36 14.03.2020
6579 Clouds 29 1013 70 10000 2.1 180 14:18 14.03.2020
6580 Clouds 29 1012 70 10000 3.1 190 13:42 14.03.2020
6581 Clouds 29 1012 70 10000 3.1 190 13:23 14.03.2020
6582 Clouds 29 1011 58 10000 3.6 120 12:47 14.03.2020
6583 Clouds 29 1011 58 10000 3.6 120 12:27 14.03.2020
6584 Clouds 29 1011 58 10000 3.6 120 12:27 14.03.2020
6585 Clouds 30 1011 58 10000 3.1 0 11:57 14.03.2020
6586 Clouds 30 1011 58 10000 3.1 0 11:38 14.03.2020
6587 Clouds 31 1010 49 10000 3.6 140 11:20 14.03.2020
6588 Clouds 31 1010 49 10000 3.6 140 10:45 14.03.2020
6589 Clouds 32 1010 49 10000 3.6 140 10:27 14.03.2020
6590 Clouds 32 1010 52 10000 3.6 160 09:57 14.03.2020
6591 Clouds 32 1010 52 10000 3.6 160 09:39 14.03.2020
6592 Clouds 32 1010 52 10000 3.6 160 09:39 14.03.2020
6593 Clouds 33 1010 52 10000 3.6 160 09:19 14.03.2020
6594 Clouds 34 1010 46 10000 3.6 160 08:42 14.03.2020
6595 Clouds 34 1010 46 10000 3.6 160 08:21 14.03.2020
6596 Clouds 33 1011 46 10000 3.6 150 07:39 14.03.2020
6597 Clouds 34 1011 46 10000 3.6 150 07:20 14.03.2020
6598 Clouds 33 1012 46 10000 3.1 130 06:41 14.03.2020
6599 Clouds 33 1012 46 10000 3.1 140 05:47 14.03.2020
6600 Clouds 33 1012 46 10000 3.1 140 05:47 14.03.2020
6601 Clouds 32 1014 49 10000 3.1 130 04:42 14.03.2020
6602 Clouds 32 1014 52 10000 2.1 0 03:24 14.03.2020
6603 Clouds 31 1014 58 10000 2.1 0 02:25 14.03.2020
6604 Clouds 27 1014 74 10000 1.5 70 00:57 14.03.2020
6605 Clouds 26 1013 74 10000 0.5 0 23:51 13.03.2020
6606 Clouds 26 1013 74 10000 0.5 0 23:30 13.03.2020
6607 Clouds 26 1012 74 10000 0.5 0 22:52 13.03.2020
6608 Clouds 26 1012 74 10000 0.5 0 22:52 13.03.2020
6609 Clouds 26 1012 74 10000 0.5 0 22:26 13.03.2020
6610 Clouds 26 1012 74 10000 2.58 90 21:44 13.03.2020
6611 Clouds 26 1012 74 10000 2.58 90 21:22 13.03.2020
6612 Clouds 26 1012 78 10000 1 0 20:59 13.03.2020
6613 Clouds 26 1012 78 10000 1 0 20:41 13.03.2020
6614 Clouds 26 1012 78 10000 1 0 20:21 13.03.2020
6615 Clouds 26 1012 78 10000 1.5 80 19:49 13.03.2020
6616 Clouds 26 1012 78 10000 1.5 80 19:30 13.03.2020
6617 Clouds 27 1013 74 10000 2.6 110 18:51 13.03.2020
6618 Clouds 27 1013 74 10000 2.6 110 18:32 13.03.2020
6619 Clouds 27 1013 69 10000 4.1 130 17:59 13.03.2020
6620 Clouds 27 1013 69 10000 4.1 130 17:41 13.03.2020
6621 Clouds 28 1013 69 10000 4.1 130 17:20 13.03.2020
6622 Clouds 28 1014 69 10000 2.6 130 16:42 13.03.2020
6623 Clouds 28 1014 69 10000 2.6 130 16:24 13.03.2020
6624 Clouds 28 1014 69 10000 2.6 120 15:59 13.03.2020
6625 Clouds 28 1014 69 10000 2.6 120 15:39 13.03.2020
6626 Clouds 28 1014 69 10000 2.6 120 15:20 13.03.2020
6627 Clouds 29 1014 66 10000 2.6 130 14:43 13.03.2020
6628 Clouds 29 1014 66 10000 2.6 130 14:23 13.03.2020
6629 Clouds 29 1013 51 10000 2.6 100 13:58 13.03.2020
6630 Clouds 29 1013 51 10000 2.6 100 13:39 13.03.2020
6631 Clouds 30 1013 51 10000 2.6 100 13:20 13.03.2020
6632 Clouds 30 1013 51 10000 3.6 120 12:55 13.03.2020
6633 Clouds 30 1013 51 10000 3.6 120 12:36 13.03.2020
6634 Clouds 31 1013 46 10000 3.6 120 12:18 13.03.2020
6635 Clouds 31 1013 46 10000 3.6 120 11:42 13.03.2020
6636 Clouds 31 1013 46 10000 3.6 120 11:24 13.03.2020
6637 Clouds 32 1012 46 10000 4.1 120 10:57 13.03.2020
6638 Clouds 32 1012 46 10000 4.1 120 10:38 13.03.2020
6639 Clouds 33 1012 46 10000 4.1 120 10:20 13.03.2020
6640 Clouds 33 1013 44 10000 4.1 130 09:43 13.03.2020
6641 Clouds 33 1013 44 10000 4.1 130 09:24 13.03.2020
6642 Clouds 34 1013 44 10000 4.6 120 08:46 13.03.2020
6643 Clouds 34 1013 44 10000 4.6 120 08:23 13.03.2020
6644 Clouds 34 1014 46 10000 2.1 130 07:52 13.03.2020
6645 Clouds 34 1014 46 10000 2.1 130 07:28 13.03.2020
6646 Clouds 33 1015 49 10000 4.6 110 06:53 13.03.2020
6647 Clouds 33 1015 49 10000 4.6 110 06:32 13.03.2020
6648 Clouds 33 1016 52 10000 3.6 120 05:55 13.03.2020
6649 Clouds 33 1016 52 10000 3.6 120 05:24 13.03.2020
6650 Clouds 32 1017 55 10000 4.1 130 04:38 13.03.2020
6651 Clouds 31 1017 62 10000 3.6 100 03:42 13.03.2020
6652 Clouds 29 1016 62 10000 0.5 0 01:47 13.03.2020
6653 Clouds 29 1016 62 10000 0.5 0 01:19 13.03.2020
6654 Clouds 27 1016 74 9000 0.5 0 00:53 13.03.2020
6655 Clouds 26 1016 74 9000 0.5 0 00:27 13.03.2020
6656 Clouds 26 1015 74 9000 1 90 23:55 12.03.2020
6657 Clouds 25 1015 74 9000 1 90 23:28 12.03.2020
6658 Clouds 26 1014 78 10000 1.5 100 22:57 12.03.2020
6659 Clouds 26 1014 78 10000 1.5 100 22:39 12.03.2020
6660 Clouds 26 1014 78 10000 1.5 100 22:21 12.03.2020
6661 Clouds 26 1014 78 10000 1 70 21:44 12.03.2020
6662 Clouds 26 1014 78 10000 1 70 21:26 12.03.2020
6663 Clouds 26 1014 74 10000 1.5 130 20:57 12.03.2020
6664 Clouds 26 1014 74 10000 1.5 130 20:38 12.03.2020
6665 Clouds 27 1014 74 10000 1.5 130 20:19 12.03.2020
6666 Clouds 27 1014 78 10000 1.5 110 19:40 12.03.2020
6667 Clouds 27 1014 78 10000 1.5 110 19:20 12.03.2020
6668 Clouds 27 1015 74 10000 2.1 100 18:44 12.03.2020
6669 Clouds 27 1015 74 10000 2.1 100 18:24 12.03.2020
6670 Clouds 27 1015 74 10000 2.1 100 17:57 12.03.2020
6671 Clouds 27 1015 74 10000 1.5 120 17:38 12.03.2020
6672 Clouds 27 1015 74 10000 1.5 120 17:19 12.03.2020
6673 Clouds 27 1015 69 10000 1.5 110 16:55 12.03.2020
6674 Clouds 28 1015 69 10000 1.5 110 16:37 12.03.2020
6675 Clouds 28 1015 69 10000 1.5 110 16:18 12.03.2020
6676 Clouds 28 1015 65 10000 2.1 110 15:44 12.03.2020
6677 Clouds 28 1015 65 10000 2.1 110 15:26 12.03.2020
6678 Clouds 28 1015 66 10000 2.6 100 14:40 12.03.2020
6679 Clouds 29 1015 66 10000 2.6 100 14:21 12.03.2020
6680 Clouds 29 1014 66 10000 3.6</